JPL-Sats

  Home –  History –  Credit –  Support –  Last_Sats –  Future_Sats –  C95_Ephs –  M58_Ephs –  I98_Ephs(T18) –  Q62_Ephs(T33) –  U94_Ephs(T68) –  Q20_Ephs –  Legal –  Privacy
Home   
History   
Credit   
Support   
Last_Sats   
Future_Sats   
C95_Ephs   
M58_Ephs   
I98_Ephs(T18)   
Q62_Ephs(T33)   
U94_Ephs(T68)   
Q20_Ephs   
Legal   
Privacy   

Index of all used observable objects

Wind (-8) TESS (-95) Chandra Observatory (-151) James Webb Space Telescope (-170) INTEGRAL (-198) Spektr-R Observatory (-557) Euclid (-680) CAPSTONE (-1176) Titan-3C RB (-102770) Gaia (-139479) MMS-1 (-140482) MMS-2 (-140483) MMS-3 (-140484) MMS-4 (-140485)

Missions with actual ephemerides

The ephemeris are downloaded by JPL Horizont:

  • Start of interval: 2024-04-14 00:00:00.
  • End of interval: 2024-04-28 00:00:00.
  • Time of interval: 10 min.
  • Station: C95.
  • Created: 2024-Apr-14 03:16:00 UTC.

Wind (JPL-ID: -8)

   Date (UTC) HH:MM   RA              Dec         delta   r     elong SM  mag  '/hr    PA   alt  az moo ill
   ---- -- -- -----  -------------   -----------  ------ ------ ----- --  --- ------ ------ --- --- --- ---
   2024 04 15 18:30  02 26 35.30    +11 34 26.5   0.0087 0.9950  12.4 Cm  20?   4.67  77.0    7 278  77  49
   2024 04 15 18:40  02 26 38.44    +11 34 37.0   0.0087 0.9950  12.4 Cm  20?   4.80  77.4    5 280  77  49
   2024 04 15 18:50  02 26 41.68    +11 34 47.6   0.0087 0.9950  12.4 Cm  20?   4.94  77.7    4 282  77  49
   2024 04 15 19:00  02 26 45.00    +11 34 58.1   0.0087 0.9950  12.4 Nm  20?   5.07  78.0    2 284  77  49
   2024 04 15 19:10  02 26 48.42    +11 35 08.7   0.0087 0.9950  12.4 Nm  20?   5.20  78.3    0 285  77  49
   ................
   2024 04 16 18:30  02 33 54.02    +12 14 29.9   0.0087 0.9952  13.3 Cm  20?   4.53  77.8    8 278  88  59
   2024 04 16 18:40  02 33 57.09    +12 14 39.5   0.0087 0.9952  13.3 Cm  20?   4.66  78.2    6 280  88  59
   2024 04 16 18:50  02 34 00.25    +12 14 49.2   0.0087 0.9952  13.3 Cm  20?   4.79  78.5    5 282  88  59
   2024 04 16 19:00  02 34 03.50    +12 14 58.8   0.0087 0.9952  13.3 Nm  20?   4.93  78.8    3 283  88  59
   2024 04 16 19:10  02 34 06.84    +12 15 08.5   0.0087 0.9952  13.3 Nm  20?   5.06  79.0    1 285  88  59
   2024 04 16 19:20  02 34 10.27    +12 15 18.2   0.0087 0.9952  13.3 Nm  20?   5.19  79.2    0 287  88  59
   ................
   2024 04 17 18:30  02 41 06.10    +12 53 10.5   0.0088 0.9955  14.2 Cm  20?   4.39  78.6    9 278  98  69
   2024 04 17 18:40  02 41 09.09    +12 53 19.2   0.0088 0.9955  14.2 Cm  20?   4.52  78.9    7 280  98  69
   2024 04 17 18:50  02 41 12.17    +12 53 28.0   0.0088 0.9955  14.2 Cm  20?   4.65  79.3    6 282  98  69
   2024 04 17 19:00  02 41 15.34    +12 53 36.7   0.0088 0.9955  14.2 Nm  20?   4.79  79.5    4 283  98  69
   2024 04 17 19:10  02 41 18.61    +12 53 45.5   0.0088 0.9955  14.2 Nm  20?   4.92  79.8    2 285  98  69
   2024 04 17 19:20  02 41 21.96    +12 53 54.3   0.0088 0.9955  14.2 Nm  20?   5.05  80.0    0 287  98  69
   ................
   2024 04 18 18:40  02 48 14.15    +13 30 35.4   0.0088 0.9958  15.0 Cm  20?   4.38  79.8    8 280 108  77
   2024 04 18 18:50  02 48 17.15    +13 30 43.3   0.0088 0.9958  15.0 Cm  20?   4.51  80.1    7 282 108  77
   2024 04 18 19:00  02 48 20.24    +13 30 51.1   0.0088 0.9958  15.0 Nm  20?   4.65  80.3    5 283 108  77
   2024 04 18 19:10  02 48 23.43    +13 30 59.1   0.0088 0.9958  15.0 Nm  20?   4.78  80.6    3 285 108  77
   2024 04 18 19:20  02 48 26.70    +13 31 07.0   0.0088 0.9958  15.0 Nm  20?   4.91  80.8    1 287 108  77
   2024 04 18 19:30  02 48 30.07    +13 31 15.0   0.0088 0.9958  15.0 Nm  20?   5.04  80.9    0 288 108  77
   ................
   2024 04 19 18:40  02 55 12.01    +14 06 28.1   0.0089 0.9960  15.8 Cm  20?   4.24  80.6    9 280 118  85
   2024 04 19 18:50  02 55 14.93    +14 06 35.1   0.0089 0.9960  15.8 Cm  20?   4.37  80.9    8 281 118  85
   2024 04 19 19:00  02 55 17.95    +14 06 42.1   0.0089 0.9960  15.8 Nm  20?   4.51  81.1    6 283 118  85
   2024 04 19 19:10  02 55 21.06    +14 06 49.2   0.0089 0.9960  15.8 Nm  20?   4.64  81.3    4 285 118  85
   2024 04 19 19:20  02 55 24.25    +14 06 56.2   0.0089 0.9960  15.8 Nm  20?   4.77  81.5    2 287 119  85
   2024 04 19 19:30  02 55 27.54    +14 07 03.4   0.0089 0.9960  15.8 Nm  20?   4.90  81.7    1 288 119  85
   2024 04 19 19:40  02 55 30.92    +14 07 10.6   0.0089 0.9960  15.8 Am  20?   5.03  81.8    0 290 119  85
   ................
   2024 04 20 18:40  03 02 02.52    +14 40 58.0   0.0089 0.9963  16.6 Cm  20?   4.10  81.5   10 280 128  91
   2024 04 20 18:50  03 02 05.36    +14 41 04.2   0.0089 0.9963  16.6 Cm  20?   4.24  81.7    8 281 128  91
   2024 04 20 19:00  03 02 08.30    +14 41 10.4   0.0089 0.9963  16.6 Nm  20?   4.37  82.0    7 283 129  91
   2024 04 20 19:10  03 02 11.32    +14 41 16.6   0.0089 0.9963  16.6 Nm  20?   4.50  82.2    5 285 129  91
   2024 04 20 19:20  03 02 14.44    +14 41 22.8   0.0089 0.9963  16.6 Nm  20?   4.63  82.3    3 286 129  91
   2024 04 20 19:30  03 02 17.65    +14 41 29.1   0.0089 0.9963  16.6 Nm  20?   4.77  82.5    2 288 129  91
   2024 04 20 19:40  03 02 20.95    +14 41 35.4   0.0089 0.9963  16.6 Am  20?   4.90  82.6    0 290 129  91
   ................
   2024 04 21 18:40  03 08 45.55    +15 14 06.4   0.0090 0.9965  17.3 Cm  20?   3.97  82.3   11 280 139  95
   2024 04 21 18:50  03 08 48.32    +15 14 11.8   0.0090 0.9965  17.3 Cm  20?   4.10  82.6    9 281 139  95
   2024 04 21 19:00  03 08 51.17    +15 14 17.1   0.0090 0.9965  17.3 Nm  20?   4.24  82.8    8 283 139  95
   2024 04 21 19:10  03 08 54.12    +15 14 22.5   0.0090 0.9965  17.3 Nm  20?   4.37  83.0    6 285 139  95
   2024 04 21 19:20  03 08 57.16    +15 14 27.9   0.0090 0.9965  17.3 Nm  20?   4.50  83.2    4 286 139  95
   2024 04 21 19:30  03 09 00.29    +15 14 33.4   0.0090 0.9965  17.3 Nm  20?   4.63  83.3    2 288 139  95
   2024 04 21 19:40  03 09 03.52    +15 14 39.0   0.0090 0.9966  17.3 Am  20?   4.76  83.4    1 290 139  95
   2024 04 21 19:50  03 09 06.83    +15 14 44.6   0.0090 0.9966  17.3 Am  20?   4.89  83.5    0 292 139  95
   ................
   2024 04 22 18:40  03 15 21.07    +15 45 55.1   0.0090 0.9968  18.0 Cm  20?   3.84  83.2   12 280 149  98
   2024 04 22 18:50  03 15 23.76    +15 45 59.7   0.0090 0.9968  18.0 Cm  20?   3.97  83.5   10 281 149  98
   2024 04 22 19:00  03 15 26.54    +15 46 04.3   0.0090 0.9968  18.0 Cm  20?   4.11  83.7    8 283 149  98
   2024 04 22 19:10  03 15 29.41    +15 46 08.9   0.0090 0.9968  18.0 Nm  20?   4.24  83.8    7 285 149  98
   2024 04 22 19:20  03 15 32.37    +15 46 13.5   0.0090 0.9968  18.0 Nm  20?   4.37  84.0    5 286 149  98
   2024 04 22 19:30  03 15 35.43    +15 46 18.2   0.0090 0.9968  18.0 Nm  20?   4.50  84.1    3 288 149  98
   2024 04 22 19:40  03 15 38.57    +15 46 22.9   0.0090 0.9968  18.0 Am  20?   4.63  84.2    2 290 149  98
   2024 04 22 19:50  03 15 41.81    +15 46 27.8   0.0090 0.9968  18.0 Am  20?   4.76  84.2    0 291 149  98
   ................
   2024 04 23 18:40  03 21 49.10    +16 16 26.2   0.0091 0.9970  18.6 Cm  20?   3.72  84.1   13 280 159  99
   2024 04 23 18:50  03 21 51.71    +16 16 30.1   0.0091 0.9970  18.6 Cm  20?   3.85  84.4   11 281 159  99
   2024 04 23 19:00  03 21 54.42    +16 16 33.9   0.0091 0.9970  18.6 Cm  20?   3.98  84.5    9 283 159  99
   2024 04 23 19:10  03 21 57.21    +16 16 37.8   0.0091 0.9970  18.6 Nm  20?   4.11  84.7    7 285 159  99
   2024 04 23 19:20  03 22 00.10    +16 16 41.7   0.0091 0.9970  18.6 Nm  20?   4.24  84.8    6 286 159  99
   2024 04 23 19:30  03 22 03.08    +16 16 45.6   0.0091 0.9971  18.6 Nm  20?   4.37  84.9    4 288 159  99
   2024 04 23 19:40  03 22 06.15    +16 16 49.6   0.0091 0.9971  18.6 Am  20?   4.50  85.0    2 290 159  99
   2024 04 23 19:50  03 22 09.31    +16 16 53.7   0.0091 0.9971  18.6 Am  20?   4.63  85.0    1 291 159  99
   2024 04 23 20:00  03 22 12.56    +16 16 57.9   0.0091 0.9971  18.6 Am  20?   4.76  85.0    0 293 159  99
   ................
   2024 04 24 18:40  03 28 09.74    +16 45 42.4   0.0091 0.9973  19.2 C   20?   3.60  85.1   13 280 169  99
   2024 04 24 18:50  03 28 12.28    +16 45 45.6   0.0091 0.9973  19.2 C   20?   3.73  85.3   12 281 169  99
   2024 04 24 19:00  03 28 14.91    +16 45 48.7   0.0091 0.9973  19.2 C   20?   3.86  85.4   10 283 169  99
   2024 04 24 19:10  03 28 17.64    +16 45 51.9   0.0091 0.9973  19.2 N   20?   3.99  85.6    8 285 169  99
   2024 04 24 19:20  03 28 20.45    +16 45 55.1   0.0091 0.9973  19.2 Nm  20?   4.12  85.7    7 286 169  99
   2024 04 24 19:30  03 28 23.35    +16 45 58.3   0.0091 0.9973  19.2 Nm  20?   4.25  85.7    5 288 169  99
   2024 04 24 19:40  03 28 26.35    +16 46 01.6   0.0091 0.9973  19.2 Nm  20?   4.38  85.8    3 290 169  99
   2024 04 24 19:50  03 28 29.43    +16 46 04.9   0.0091 0.9973  19.2 Am  20?   4.51  85.8    1 291 169  99
   2024 04 24 20:00  03 28 32.61    +16 46 08.4   0.0091 0.9973  19.3 Am  20?   4.63  85.8    0 293 169  99
   ................
   2024 04 25 18:40  03 34 23.15    +17 13 46.4   0.0092 0.9975  19.8 C   20?   3.48  86.0   14 280 174  96
   2024 04 25 18:50  03 34 25.62    +17 13 48.9   0.0092 0.9975  19.8 C   20?   3.61  86.2   12 281 174  96
   2024 04 25 19:00  03 34 28.18    +17 13 51.4   0.0092 0.9975  19.8 C   20?   3.74  86.3   11 283 174  96
   2024 04 25 19:10  03 34 30.83    +17 13 53.8   0.0092 0.9975  19.8 N   20?   3.87  86.4    9 284 173  96
   2024 04 25 19:20  03 34 33.57    +17 13 56.3   0.0092 0.9975  19.8 N   20?   4.00  86.5    7 286 173  96
   2024 04 25 19:30  03 34 36.41    +17 13 58.9   0.0092 0.9975  19.8 N   20?   4.13  86.5    6 288 173  96
   2024 04 25 19:40  03 34 39.33    +17 14 01.5   0.0092 0.9975  19.8 N   20?   4.26  86.6    4 289 173  96
   2024 04 25 19:50  03 34 42.34    +17 14 04.2   0.0092 0.9975  19.8 A   20?   4.39  86.6    2 291 173  96
   2024 04 25 20:00  03 34 45.45    +17 14 06.9   0.0092 0.9975  19.8 A   20?   4.51  86.5    0 293 173  96
   ................
   2024 04 26 18:40  03 40 29.54    +17 40 41.0   0.0092 0.9978  20.3 C   20?   3.37  86.9   15 280 166  91
   2024 04 26 18:50  03 40 31.94    +17 40 42.9   0.0092 0.9978  20.3 C   20?   3.50  87.1   13 281 165  91
   2024 04 26 19:00  03 40 34.43    +17 40 44.7   0.0092 0.9978  20.3 C   20?   3.63  87.2   11 283 165  91
   2024 04 26 19:10  03 40 37.02    +17 40 46.5   0.0092 0.9978  20.3 N   20?   3.76  87.3   10 284 165  91
   2024 04 26 19:20  03 40 39.69    +17 40 48.4   0.0092 0.9978  20.3 N   20?   3.89  87.3    8 286 165  91
   2024 04 26 19:30  03 40 42.46    +17 40 50.3   0.0092 0.9978  20.3 N   20?   4.02  87.4    6 288 165  91
   2024 04 26 19:40  03 40 45.31    +17 40 52.3   0.0092 0.9978  20.3 N   20?   4.15  87.4    4 289 165  91
   2024 04 26 19:50  03 40 48.26    +17 40 54.3   0.0093 0.9978  20.4 A   20?   4.28  87.3    3 291 165  91
   2024 04 26 20:00  03 40 51.29    +17 40 56.4   0.0093 0.9978  20.4 A   20?   4.40  87.3    1 293 165  91
   2024 04 26 20:10  03 40 54.41    +17 40 58.6   0.0093 0.9978  20.4 A   20?   4.53  87.2    0 295 165  91
   ................
   2024 04 27 18:50  03 46 31.51    +18 06 30.4   0.0093 0.9980  20.8 C   20?   3.40  88.0   14 281 155  85
   2024 04 27 19:00  03 46 33.94    +18 06 31.6   0.0093 0.9980  20.8 C   20?   3.53  88.1   12 283 155  85
   2024 04 27 19:10  03 46 36.46    +18 06 32.8   0.0093 0.9980  20.8 N   20?   3.66  88.2   10 284 155  85
   2024 04 27 19:20  03 46 39.07    +18 06 34.1   0.0093 0.9980  20.8 N   20?   3.79  88.2    9 286 155  85
   2024 04 27 19:30  03 46 41.77    +18 06 35.4   0.0093 0.9980  20.8 N   20?   3.92  88.2    7 288 154  85
   2024 04 27 19:40  03 46 44.56    +18 06 36.7   0.0093 0.9980  20.8 N   20?   4.04  88.2    5 289 154  85
   2024 04 27 19:50  03 46 47.43    +18 06 38.1   0.0093 0.9980  20.9 A   20?   4.17  88.1    3 291 154  85
   2024 04 27 20:00  03 46 50.40    +18 06 39.6   0.0093 0.9980  20.9 A   20?   4.29  88.0    2 293 154  85
   2024 04 27 20:10  03 46 53.45    +18 06 41.2   0.0093 0.9980  20.9 A   20?   4.42  88.0    0 294 154  85
   ................
   

TESS (JPL-ID: -95)

   Date (UTC) HH:MM   RA              Dec         delta   r     elong SM  mag  '/hr    PA   alt  az moo ill
   ---- -- -- -----  -------------   -----------  ------ ------ ----- --  --- ------ ------ --- --- --- ---
   2024 04 18 18:40  03 53 32.91    -06 26 21.7   316564 1.0026  35.9 Cm  14?  34.35  37.1    6 254  98  77
   2024 04 18 18:50  03 53 46.95    -06 21 47.2   316579 1.0026  35.9 Cm  14?  34.69  37.8    4 256  98  77
   2024 04 18 19:00  03 54 01.35    -06 17 12.5   316597 1.0026  35.9 Nm  14?  35.04  38.5    3 258  98  77
   2024 04 18 19:10  03 54 16.13    -06 12 37.8   316615 1.0026  35.9 Nm  14?  35.40  39.2    1 259  98  77
   2024 04 18 19:20  03 54 31.28    -06 08 02.9   316634 1.0026  35.9 Nm  14?  35.76  39.9    0 261  98  77
   ................
   2024 04 19 18:40  04 35 45.63    +05 02 10.0   285836 1.0031  41.2 Cm  14?  38.30  37.1   21 255  96  85
   2024 04 19 18:50  04 36 01.24    +05 07 15.9   285770 1.0031  41.2 Cm  14?  38.65  37.8   19 257  96  85
   2024 04 19 19:00  04 36 17.26    +05 12 21.7   285706 1.0031  41.2 Nm  14?  39.01  38.5   18 259  96  85
   2024 04 19 19:10  04 36 33.69    +05 17 27.4   285645 1.0031  41.3 Nm  14?  39.39  39.2   16 261  96  85
   2024 04 19 19:20  04 36 50.53    +05 22 33.0   285586 1.0031  41.3 Nm  14?  39.78  39.9   14 263  96  85
   2024 04 19 19:30  04 37 07.79    +05 27 38.6   285529 1.0031  41.4 Nm  14?  40.18  40.6   13 264  96  85
   2024 04 19 19:40  04 37 25.49    +05 32 44.1   285473 1.0031  41.4 Am  14?  40.59  41.3   11 266  96  85
   2024 04 19 19:50  04 37 43.61    +05 37 49.5   285417 1.0032  41.5 Am  14?  41.02  42.0    9 268  96  85
   2024 04 19 20:00  04 38 02.16    +05 42 55.0   285363 1.0032  41.5 Am  14?  41.45  42.7    8 270  96  85
   2024 04 19 20:10  04 38 21.15    +05 48 00.4   285308 1.0032  41.6 Am  14?  41.89  43.3    6 271  96  85
   2024 04 19 20:20  04 38 40.58    +05 53 05.9   285254 1.0032  41.6  m  14?  42.34  43.9    4 273  96  85
   2024 04 19 20:30  04 39 00.45    +05 58 11.5   285199 1.0032  41.7  m  14?  42.80  44.6    3 275  96  85
   2024 04 19 20:40  04 39 20.76    +06 03 17.1   285144 1.0032  41.8  m  14?  43.27  45.2    1 277  96  85
   2024 04 19 20:50  04 39 41.51    +06 08 22.9   285087 1.0032  41.8  m  14?  43.74  45.8    0 278  96  85
   ................
   2024 04 20 18:40  05 32 15.17    +19 25 03.6   245109 1.0038  52.7 Cm  13?  47.65  40.6   40 257  92  91
   2024 04 20 18:50  05 32 37.27    +19 31 05.6   244946 1.0038  52.7 Cm  13?  47.98  41.3   39 259  92  91
   2024 04 20 19:00  05 32 59.84    +19 37 06.3   244786 1.0038  52.8 Nm  13?  48.34  42.0   37 261  92  91
   2024 04 20 19:10  05 33 22.91    +19 43 06.0   244630 1.0039  52.9 Nm  13?  48.72  42.7   35 263  92  91
   2024 04 20 19:20  05 33 46.48    +19 49 04.6   244477 1.0039  53.0 Nm  13?  49.13  43.3   34 265  92  91
   2024 04 20 19:30  05 34 10.58    +19 55 02.3   244328 1.0039  53.1 Nm  13?  49.56  44.0   32 267  92  91
   2024 04 20 19:40  05 34 35.20    +20 00 59.0   244181 1.0039  53.2 Am  13?  50.01  44.7   30 268  92  91
   2024 04 20 19:50  05 35 00.37    +20 06 54.9   244036 1.0039  53.3 Am  13?  50.48  45.4   29 270  92  91
   2024 04 20 20:00  05 35 26.09    +20 12 50.0   243894 1.0039  53.4 Am  13?  50.97  46.0   27 272  92  91
   2024 04 20 20:10  05 35 52.37    +20 18 44.4   243753 1.0039  53.5 Am  13?  51.48  46.7   25 274  92  91
   2024 04 20 20:20  05 36 19.22    +20 24 38.3   243614 1.0039  53.6  m  13?  52.02  47.3   24 275  92  91
   2024 04 20 20:30  05 36 46.65    +20 30 31.6   243477 1.0039  53.7  m  13?  52.57  47.9   22 277  92  91
   2024 04 20 20:40  05 37 14.67    +20 36 24.5   243340 1.0039  53.8  m  13?  53.14  48.6   20 278  92  91
   2024 04 20 20:50  05 37 43.27    +20 42 17.0   243203 1.0039  53.9  m  13?  53.73  49.2   19 280  92  91
   2024 04 20 21:00  05 38 12.47    +20 48 09.3   243067 1.0039  54.0  m  13?  54.33  49.7   17 282  92  91
   2024 04 20 21:10  05 38 42.27    +20 54 01.4   242931 1.0039  54.1  m  13?  54.95  50.3   15 283  92  91
   2024 04 20 21:20  05 39 12.68    +20 59 53.5   242795 1.0039  54.2  m  13?  55.58  50.8   14 285  92  91
   2024 04 20 21:30  05 39 43.69    +21 05 45.6   242658 1.0039  54.3  m  13?  56.22  51.4   12 287  91  91
   2024 04 20 21:40  05 40 15.31    +21 11 37.9   242520 1.0039  54.4  m  13?  56.88  51.9   11 288  91  91
   2024 04 20 21:50  05 40 47.55    +21 17 30.3   242380 1.0039  54.5  m  13?  57.55  52.4    9 290  91  91
   2024 04 20 22:00  05 41 20.39    +21 23 23.2   242239 1.0039  54.7  m  13?  58.22  52.8    8 291  91  91
   2024 04 20 22:10  05 41 53.85    +21 29 16.4   242097 1.0040  54.8  m  13?  58.91  53.3    6 293  91  91
   2024 04 20 22:20  05 42 27.91    +21 35 10.2   241952 1.0040  54.9  m  13?  59.60  53.7    5 295  91  91
   2024 04 20 22:30  05 43 02.58    +21 41 04.7   241804 1.0040  55.0  m  13?  60.30  54.1    3 296  91  91
   2024 04 20 22:40  05 43 37.86    +21 46 59.9   241654 1.0040  55.2  m  13?  61.00  54.5    2 298  91  91
   2024 04 20 22:50  05 44 13.74    +21 52 55.9   241501 1.0040  55.3  m  13?  61.70  54.8    0 300  91  91
   2024 04 20 23:00  05 44 50.22    +21 58 52.9   241345 1.0040  55.4  m  13?  62.41  55.2    0 301  91  91
   ................
   2024 04 21 18:40  07 14 20.48    +37 30 48.6   197030 1.0047  73.9 Cm  12?  70.17  54.0   68 261  83  95
   2024 04 21 18:50  07 15 08.40    +37 37 40.2   196764 1.0047  74.1 Cm  12?  70.42  54.6   67 264  83  95
   2024 04 21 19:00  07 15 56.98    +37 44 26.7   196503 1.0047  74.2 Nm  12?  70.71  55.3   65 266  82  95
   2024 04 21 19:10  07 16 46.25    +37 51 08.3   196246 1.0048  74.4 Nm  12?  71.03  56.0   63 268  82  95
   2024 04 21 19:20  07 17 36.23    +37 57 44.8   195995 1.0048  74.5 Nm  12?  71.40  56.7   62 270  82  95
   2024 04 21 19:30  07 18 26.94    +38 04 16.4   195748 1.0048  74.7 Nm  12?  71.80  57.3   60 271  82  95
   2024 04 21 19:40  07 19 18.43    +38 10 43.1   195504 1.0048  74.8 Am  12?  72.24  58.0   58 273  82  95
   2024 04 21 19:50  07 20 10.70    +38 17 04.9   195266 1.0048  75.0 Am  12?  72.71  58.7   57 275  82  95
   2024 04 21 20:00  07 21 03.80    +38 23 22.0   195030 1.0048  75.1 Am  12?  73.23  59.4   55 276  82  95
   2024 04 21 20:10  07 21 57.74    +38 29 34.4   194799 1.0048  75.3 Am  12?  73.78  60.1   54 278  82  95
   2024 04 21 20:20  07 22 52.54    +38 35 42.1   194571 1.0048  75.5  m  12?  74.37  60.7   52 279  82  95
   2024 04 21 20:30  07 23 48.24    +38 41 45.4   194347 1.0048  75.6  m  12?  74.99  61.4   51 280  82  96
   2024 04 21 20:40  07 24 44.85    +38 47 44.1   194125 1.0048  75.8  m  12?  75.65  62.0   49 282  82  96
   2024 04 21 20:50  07 25 42.39    +38 53 38.6   193907 1.0048  76.0  m  12?  76.35  62.7   47 283  81  96
   2024 04 21 21:00  07 26 40.90    +38 59 28.7   193691 1.0048  76.1  m  12?  77.08  63.3   46 284  81  96
   2024 04 21 21:10  07 27 40.38    +39 05 14.8   193478 1.0048  76.3  m  12?  77.84  63.9   44 285  81  96
   2024 04 21 21:20  07 28 40.85    +39 10 56.8   193267 1.0048  76.5  m  12?  78.64  64.5   43 287  81  96
   2024 04 21 21:30  07 29 42.35    +39 16 34.9   193059 1.0048  76.7  m  12?  79.46  65.1   41 288  81  96
   2024 04 21 21:40  07 30 44.87    +39 22 09.1   192852 1.0049  76.9  m  12?  80.31  65.7   40 289  81  96
   2024 04 21 21:50  07 31 48.45    +39 27 39.8   192647 1.0049  77.1  m  12?  81.19  66.3   38 290  81  96
   2024 04 21 22:00  07 32 53.09    +39 33 06.8   192444 1.0049  77.2  m  12?  82.10  66.8   37 292  81  96
   2024 04 21 22:10  07 33 58.81    +39 38 30.5   192242 1.0049  77.4  m  12?  83.04  67.3   36 293  81  96
   2024 04 21 22:20  07 35 05.62    +39 43 50.8   192041 1.0049  77.6  m  12?  83.99  67.8   34 294  80  96
   2024 04 21 22:30  07 36 13.54    +39 49 08.0   191841 1.0049  77.8  m  12?  84.97  68.3   33 295  80  96
   2024 04 21 22:40  07 37 22.58    +39 54 22.2   191642 1.0049  78.0  m  12?  85.98  68.8   31 296  80  96
   2024 04 21 22:50  07 38 32.75    +39 59 33.4   191443 1.0049  78.3  m  12?  87.00  69.3   30 297  80  96
   2024 04 21 23:00  07 39 44.06    +40 04 41.9   191244 1.0049  78.5  m  12?  88.03  69.7   29 299  80  96
   2024 04 21 23:10  07 40 56.52    +40 09 47.8   191046 1.0049  78.7  m  12?  89.09  70.2   27 300  80  96
   2024 04 21 23:20  07 42 10.13    +40 14 51.2   190848 1.0049  78.9  m  12?  90.16  70.6   26 301  80  96
   2024 04 21 23:30  07 43 24.91    +40 19 52.3   190649 1.0049  79.1  m  12?  91.24  71.0   25 302  79  96
   2024 04 21 23:40  07 44 40.85    +40 24 51.1   190450 1.0049  79.3  m  12?  92.34  71.3   23 303  79  96
   2024 04 21 23:50  07 45 57.97    +40 29 47.9   190251 1.0049  79.6  m  12?  93.44  71.7   22 305  79  96
   2024 04 22 00:00  07 47 16.27    +40 34 42.7   190050 1.0050  79.8  m  12?  94.56  72.1   21 306  79  96
   2024 04 22 00:10  07 48 35.75    +40 39 35.7   189849 1.0050  80.0  m  12?  95.68  72.4   20 307  79  96
   2024 04 22 00:20  07 49 56.41    +40 44 27.0   189647 1.0050  80.3  m  12?  96.81  72.7   19 308  79  96
   2024 04 22 00:30  07 51 18.25    +40 49 16.7   189443 1.0050  80.5  m  12?  97.94  73.0   17 309  78  96
   2024 04 22 00:40  07 52 41.28    +40 54 05.1   189237 1.0050  80.7  m  12?  99.07  73.3   16 311  78  96
   2024 04 22 00:50  07 54 05.49    +40 58 52.1   189031 1.0050  81.0  m  12? 100.21  73.6   15 312  78  96
   2024 04 22 01:00  07 55 30.89    +41 03 37.9   188822 1.0050  81.2  m  12? 101.35  73.8   14 313  78  96
   2024 04 22 01:10  07 56 57.46    +41 08 22.7   188611 1.0050  81.5  m  12? 102.49  74.1   13 314  78  96
   2024 04 22 01:20  07 58 25.22    +41 13 06.5   188399 1.0050  81.7  m  12? 103.62  74.3   12 316  78  96
   2024 04 22 01:30  07 59 54.14    +41 17 49.5   188184 1.0050  82.0  m  12? 104.75  74.5   11 317  77  96
   2024 04 22 01:40  08 01 24.23    +41 22 31.7   187966 1.0050  82.2  m  12? 105.88  74.7   10 318  77  96
   2024 04 22 01:50  08 02 55.48    +41 27 13.3   187747 1.0050  82.5  m  12? 107.00  74.9    9 320  77  96
   2024 04 22 02:00  08 04 27.89    +41 31 54.4   187524 1.0050  82.8  m  12? 108.12  75.1    8 321  77  96
   2024 04 22 02:10  08 06 01.44    +41 36 35.0   187299 1.0050  83.0  m  12? 109.22  75.3    7 322  77  96
   2024 04 22 02:20  08 07 36.13    +41 41 15.3   187072 1.0050  83.3  m  12? 110.32  75.4    6 324  77  96
   2024 04 22 02:30  08 09 11.96    +41 45 55.4   186841 1.0051  83.6  m  12? 111.41  75.6    6 325  76  96
   2024 04 22 02:40  08 10 48.90    +41 50 35.2   186607 1.0051  83.9  m  12? 112.49  75.8    5 326  76  96
   2024 04 22 02:50  08 12 26.95    +41 55 14.9   186370 1.0051  84.1  m  12? 113.55  75.9    4 328  76  96
   2024 04 22 03:00  08 14 06.11    +41 59 54.6   186130 1.0051  84.4 Am  12? 114.61  76.0    3 329  76  96
   2024 04 22 03:10  08 15 46.35    +42 04 34.4   185887 1.0051  84.7 Am  12? 115.64  76.2    3 331  76  96
   2024 04 22 03:20  08 17 27.67    +42 09 14.2   185641 1.0051  85.0 Am  12? 116.67  76.3    2 332  75  96
   2024 04 22 03:30  08 19 10.05    +42 13 54.2   185391 1.0051  85.3 Am  12? 117.68  76.4    2 333  75  96
   2024 04 22 03:40  08 20 53.48    +42 18 34.3   185137 1.0051  85.6 Nm  12? 118.67  76.5    1 335  75  96
   2024 04 22 03:50  08 22 37.94    +42 23 14.7   184880 1.0051  85.8 Nm  12? 119.64  76.6    0 336  75  96
   2024 04 22 04:00  08 24 23.43    +42 27 55.4   184620 1.0051  86.1 Nm  12? 120.60  76.7    0 338  75  96
   2024 04 22 04:10  08 26 09.92    +42 32 36.4   184356 1.0051  86.4 N   12? 121.54  76.8    0 339  74  96
   2024 04 22 04:20  08 27 57.40    +42 37 17.8   184088 1.0051  86.7 C   12? 122.45  76.8    0 341  74  96
   ................
   2024 04 22 18:40  11 25 11.61    +46 33 00.9   154498 1.0057 111.3 Cm  12? 121.02  99.5   65  71  60  98
   2024 04 22 18:50  11 27 07.10    +46 29 33.7   154217 1.0057 111.5 Cm  12? 120.96 100.2   67  72  59  98
   2024 04 22 19:00  11 29 02.15    +46 25 51.2   153940 1.0057 111.8 Cm  12? 120.93 101.0   68  72  59  98
   2024 04 22 19:10  11 30 56.77    +46 21 53.3   153668 1.0058 112.0 Nm  12? 120.94 101.7   69  73  59  98
   2024 04 22 19:20  11 32 50.97    +46 17 39.9   153401 1.0058 112.3 Nm  12? 121.00 102.4   71  73  59  98
   2024 04 22 19:30  11 34 44.76    +46 13 10.9   153139 1.0058 112.6 Nm  12? 121.09 103.2   72  74  59  98
   2024 04 22 19:40  11 36 38.15    +46 08 26.0   152883 1.0058 112.8 Am  12? 121.24 104.0   74  74  59  98
   2024 04 22 19:50  11 38 31.15    +46 03 25.3   152631 1.0058 113.1 Am  12? 121.42 104.7   75  74  59  98
   2024 04 22 20:00  11 40 23.78    +45 58 08.6   152385 1.0058 113.4 Am  12? 121.65 105.5   76  75  58  98
   2024 04 22 20:10  11 42 16.05    +45 52 35.8   152145 1.0058 113.6 Am  12? 121.92 106.2   78  75  58  98
   2024 04 22 20:20  11 44 07.97    +45 46 46.8   151909 1.0058 113.9  m  12? 122.24 107.0   79  75  58  98
   2024 04 22 20:30  11 45 59.56    +45 40 41.6   151680 1.0058 114.2  m  12? 122.60 107.7   81  75  58  98
   2024 04 22 20:40  11 47 50.84    +45 34 20.2   151455 1.0058 114.4  m  12? 123.01 108.4   82  74  58  98
   2024 04 22 20:50  11 49 41.81    +45 27 42.5   151237 1.0058 114.7  m  12? 123.46 109.2   84  73  57  98
   2024 04 22 21:00  11 51 32.50    +45 20 48.4   151024 1.0058 115.0  m  12? 123.96 109.9   85  71  57  98
   2024 04 22 21:10  11 53 22.92    +45 13 38.0   150817 1.0058 115.3  m  12? 124.50 110.6   86  66  57  98
   2024 04 22 21:20  11 55 13.08    +45 06 11.2   150616 1.0058 115.6  m  12? 125.08 111.3   88  53  57  98
   2024 04 22 21:30  11 57 03.01    +44 58 28.0   150421 1.0058 115.9  t  12? 125.70 112.0   89 357  57  98
   2024 04 22 21:40  11 58 52.72    +44 50 28.6   150232 1.0059 116.1  e  12? 126.36 112.7   88 297  56  98
   2024 04 22 21:50  12 00 42.23    +44 42 12.8   150049 1.0059 116.4  m  12? 127.07 113.3   86 283  56  98
   2024 04 22 22:00  12 02 31.55    +44 33 40.8   149872 1.0059 116.7  m  12? 127.81 114.0   85 278  56  98
   2024 04 22 22:10  12 04 20.71    +44 24 52.7   149701 1.0059 117.0  m  12? 128.59 114.6   84 276  56  98
   2024 04 22 22:20  12 06 09.71    +44 15 48.4   149536 1.0059 117.3  m  12? 129.40 115.2   82 275  56  98
   2024 04 22 22:30  12 07 58.59    +44 06 28.1   149377 1.0059 117.6  m  12? 130.25 115.8   81 274  55  99
   2024 04 22 22:40  12 09 47.34    +43 56 51.9   149224 1.0059 117.9  m  12? 131.13 116.4   79 274  55  99
   2024 04 22 22:50  12 11 36.00    +43 46 59.8   149078 1.0059 118.2  m  12? 132.04 117.0   78 274  55  99
   2024 04 22 23:00  12 13 24.57    +43 36 52.1   148938 1.0059 118.5  m  12? 132.97 117.5   76 274  55  99
   2024 04 22 23:10  12 15 13.08    +43 26 28.8   148804 1.0059 118.8  m  12? 133.94 118.1   75 274  55  99
   2024 04 22 23:20  12 17 01.53    +43 15 50.2   148677 1.0059 119.2  m  12? 134.93 118.6   73 275  54  99
   2024 04 22 23:30  12 18 49.96    +43 04 56.2   148555 1.0059 119.5  m  12? 135.95 119.1   72 275  54  99
   2024 04 22 23:40  12 20 38.36    +42 53 47.2   148440 1.0059 119.8  m  12? 136.98 119.5   70 275  54  99
   2024 04 22 23:50  12 22 26.76    +42 42 23.4   148331 1.0059 120.1  m  12? 138.04 120.0   69 276  54  99
   2024 04 23 00:00  12 24 15.16    +42 30 44.8   148229 1.0059 120.4  m  12? 139.11 120.4   67 276  53  99
   2024 04 23 00:10  12 26 03.60    +42 18 51.8   148133 1.0059 120.8  m  12? 140.20 120.8   66 277  53  99
   2024 04 23 00:20  12 27 52.07    +42 06 44.4   148043 1.0060 121.1  m  12? 141.31 121.2   64 277  53  99
   2024 04 23 00:30  12 29 40.59    +41 54 23.0   147959 1.0060 121.4  m  12? 142.42 121.6   62 278  53  99
   2024 04 23 00:40  12 31 29.17    +41 41 47.9   147881 1.0060 121.8  m  12? 143.55 122.0   61 279  52  99
   2024 04 23 00:50  12 33 17.82    +41 28 59.1   147810 1.0060 122.1  m  12? 144.68 122.3   59 279  52  99
   2024 04 23 01:00  12 35 06.56    +41 15 57.0   147744 1.0060 122.4  m  12? 145.82 122.7   58 280  52  99
   2024 04 23 01:10  12 36 55.40    +41 02 41.9   147685 1.0060 122.8  m  12? 146.96 123.0   56 280  52  99
   2024 04 23 01:20  12 38 44.33    +40 49 14.0   147632 1.0060 123.1  m  12? 148.11 123.3   55 281  51  99
   2024 04 23 01:30  12 40 33.39    +40 35 33.5   147585 1.0060 123.5  m  12? 149.26 123.6   53 282  51  99
   2024 04 23 01:40  12 42 22.56    +40 21 40.9   147543 1.0060 123.8  m  12? 150.41 123.8   52 282  51  99
   2024 04 23 01:50  12 44 11.86    +40 07 36.3   147508 1.0060 124.2  m  12? 151.55 124.1   50 283  51  99
   2024 04 23 02:00  12 46 01.30    +39 53 20.1   147478 1.0060 124.5  m  12? 152.69 124.3   49 284  50  99
   2024 04 23 02:10  12 47 50.87    +39 38 52.5   147454 1.0060 124.9  m  12? 153.82 124.5   47 284  50  99
   2024 04 23 02:20  12 49 40.60    +39 24 13.9   147435 1.0060 125.2  m  12? 154.95 124.7   46 285  50  99
   2024 04 23 02:30  12 51 30.47    +39 09 24.6   147422 1.0060 125.6  m  12? 156.07 124.9   44 286  50  99
   2024 04 23 02:40  12 53 20.50    +38 54 24.8   147415 1.0060 126.0  m  12? 157.18 125.1   43 286  49  99
   2024 04 23 02:50  12 55 10.68    +38 39 15.0   147413 1.0060 126.3  m  12? 158.27 125.2   41 287  49  99
   2024 04 23 03:00  12 57 01.02    +38 23 55.4   147416 1.0061 126.7 Am  12? 159.36 125.4   40 288  49  99
   2024 04 23 03:10  12 58 51.52    +38 08 26.3   147424 1.0061 127.0 Am  12? 160.43 125.5   38 289  49  99
   2024 04 23 03:20  13 00 42.18    +37 52 48.1   147437 1.0061 127.4 Am  12? 161.48 125.6   36 289  48  99
   2024 04 23 03:30  13 02 33.00    +37 37 01.1   147455 1.0061 127.8 Am  12? 162.52 125.7   35 290  48  99
   2024 04 23 03:40  13 04 23.98    +37 21 05.7   147478 1.0061 128.1 Nm  12? 163.54 125.8   33 291  48  99
   2024 04 23 03:50  13 06 15.12    +37 05 02.0   147505 1.0061 128.5 Nm  12? 164.54 125.9   32 292  47  99
   2024 04 23 04:00  13 08 06.41    +36 48 50.5   147537 1.0061 128.9 Nm  12? 165.52 126.0   30 292  47  99
   2024 04 23 04:10  13 09 57.85    +36 32 31.6   147574 1.0061 129.2 Cm  12? 166.48 126.1   29 293  47  99
   2024 04 23 04:20  13 11 49.43    +36 16 05.4   147614 1.0061 129.6 Cm  12? 167.42 126.1   27 294  47  99
   2024 04 23 04:30  13 13 41.16    +35 59 32.3   147659 1.0061 130.0 C   12? 168.34 126.2   26 295  46  99
   ................
   2024 04 23 18:40  15 37 58.80    +10 51 34.3   150951 1.0065 147.1 Cm  13? 154.48 134.5    2  77  35  99
   2024 04 23 18:50  15 39 12.94    +10 33 27.7   150920 1.0065 147.1 Cm  13? 153.71 134.9    3  79  35  99
   2024 04 23 19:00  15 40 26.16    +10 15 19.5   150891 1.0065 147.1 Cm  13? 152.95 135.2    5  81  35  99
   2024 04 23 19:10  15 41 38.47    +09 57 09.7   150863 1.0065 147.1 Nm  13? 152.19 135.6    6  82  35  99
   2024 04 23 19:20  15 42 49.87    +09 38 58.4   150837 1.0065 147.1 Nm  13? 151.44 136.0    8  84  35  99
   2024 04 23 19:30  15 44 00.36    +09 20 45.5   150813 1.0065 147.1 Nm  13? 150.70 136.4    9  86  35  99
   2024 04 23 19:40  15 45 09.96    +09 02 31.0   150792 1.0065 147.1 Am  13? 149.96 136.8   10  87  35  99
   2024 04 23 19:50  15 46 18.67    +08 44 15.0   150773 1.0065 147.1 Am  13? 149.24 137.1   12  89  35  99
   2024 04 23 20:00  15 47 26.49    +08 25 57.5   150758 1.0065 147.1 Am  13? 148.52 137.5   13  91  35  99
   2024 04 23 20:10  15 48 33.43    +08 07 38.5   150745 1.0065 147.0 Am  13? 147.81 137.9   15  93  35  99
   2024 04 23 20:20  15 49 39.51    +07 49 18.0   150736 1.0065 147.0 Am  13? 147.11 138.3   16  95  35  99
   2024 04 23 20:30  15 50 44.72    +07 30 56.2   150731 1.0065 147.0  m  13? 146.42 138.7   17  96  35  99
   2024 04 23 20:40  15 51 49.09    +07 12 33.0   150730 1.0065 147.0  m  13? 145.74 139.1   19  98  35  99
   2024 04 23 20:50  15 52 52.62    +06 54 08.6   150734 1.0065 147.0  m  13? 145.07 139.5   20 100  35  99
   2024 04 23 21:00  15 53 55.33    +06 35 43.0   150742 1.0065 146.9  m  13? 144.41 139.8   21 102  35  99
   2024 04 23 21:10  15 54 57.23    +06 17 16.2   150754 1.0065 146.9  m  13? 143.76 140.2   23 104  35  99
   2024 04 23 21:20  15 55 58.33    +05 58 48.5   150772 1.0065 146.9  m  13? 143.12 140.6   24 106  35  99
   2024 04 23 21:30  15 56 58.65    +05 40 19.8   150796 1.0065 146.9  m  13? 142.50 140.9   25 108  35  99
   2024 04 23 21:40  15 57 58.21    +05 21 50.2   150824 1.0065 146.8  m  13? 141.88 141.3   27 110  35  99
   2024 04 23 21:50  15 58 57.02    +05 03 20.0   150859 1.0065 146.8  m  13? 141.27 141.7   28 112  35  99
   2024 04 23 22:00  15 59 55.09    +04 44 49.1   150900 1.0065 146.8  m  13? 140.68 142.0   29 114  35  99
   2024 04 23 22:10  16 00 52.46    +04 26 17.8   150947 1.0065 146.7  m  13? 140.09 142.3   31 117  35  99
   2024 04 23 22:20  16 01 49.14    +04 07 46.2   151001 1.0065 146.7  m  13? 139.52 142.7   32 119  35  99
   2024 04 23 22:30  16 02 45.14    +03 49 14.3   151062 1.0065 146.7  m  13? 138.95 143.0   33 121  35  99
   2024 04 23 22:40  16 03 40.50    +03 30 42.4   151129 1.0065 146.6  m  13? 138.39 143.3   34 124  35  99
   2024 04 23 22:50  16 04 35.23    +03 12 10.6   151204 1.0065 146.6  m  13? 137.85 143.6   35 126  35  99
   2024 04 23 23:00  16 05 29.35    +02 53 39.0   151286 1.0065 146.5  m  13? 137.31 143.9   36 129  35  99
   2024 04 23 23:10  16 06 22.89    +02 35 07.9   151376 1.0065 146.5  m  13? 136.78 144.1   37 131  35  99
   2024 04 23 23:20  16 07 15.88    +02 16 37.4   151474 1.0065 146.4  m  13? 136.26 144.4   38 134  35  99
   2024 04 23 23:30  16 08 08.33    +01 58 07.6   151580 1.0065 146.4  m  13? 135.75 144.6   39 137  35  99
   2024 04 23 23:40  16 09 00.27    +01 39 38.8   151693 1.0065 146.3  m  13? 135.24 144.9   40 140  35  99
   2024 04 23 23:50  16 09 51.73    +01 21 11.1   151815 1.0066 146.3  m  13? 134.75 145.1   41 142  35  99
   2024 04 24 00:00  16 10 42.73    +01 02 44.7   151946 1.0066 146.2  m  13? 134.26 145.3   41 145  35  99
   2024 04 24 00:10  16 11 33.30    +00 44 19.8   152085 1.0066 146.2  m  13? 133.78 145.4   42 148  35  99
   2024 04 24 00:20  16 12 23.48    +00 25 56.6   152232 1.0066 146.1  m  13? 133.31 145.6   42 151  35  99
   2024 04 24 00:30  16 13 13.27    +00 07 35.3   152389 1.0066 146.1  m  13? 132.84 145.8   43 155  35  99
   2024 04 24 00:40  16 14 02.72    -00 10 43.9   152554 1.0066 146.0  m  13? 132.38 145.9   43 158  35  99
   2024 04 24 00:50  16 14 51.85    -00 29 00.8   152728 1.0066 145.9  m  13? 131.93 146.0   43 161  35  99
   2024 04 24 01:00  16 15 40.70    -00 47 15.3   152911 1.0066 145.9  m  13? 131.48 146.1   44 164  35  99
   2024 04 24 01:10  16 16 29.27    -01 05 27.1   153104 1.0066 145.8  m  13? 131.04 146.1   44 167  35  99
   2024 04 24 01:20  16 17 17.62    -01 23 36.1   153305 1.0066 145.7  e  13? 130.61 146.2   44 171  35  99
   2024 04 24 01:30  16 18 05.76    -01 41 42.0   153515 1.0066 145.7  m  13? 130.18 146.2   44 174  35  99
   2024 04 24 01:40  16 18 53.73    -01 59 44.7   153735 1.0066 145.6  m  13? 129.76 146.2   43 177  35  99
   2024 04 24 01:50  16 19 41.55    -02 17 43.9   153964 1.0066 145.5  t  13? 129.35 146.2   43 180  35  99
   2024 04 24 02:00  16 20 29.25    -02 35 39.5   154201 1.0066 145.4  m  13? 128.95 146.2   43 183  35  99
   2024 04 24 02:10  16 21 16.86    -02 53 31.3   154448 1.0066 145.3  m  13? 128.55 146.2   42 187  35  99
   2024 04 24 02:20  16 22 04.41    -03 11 19.1   154704 1.0066 145.2  m  13? 128.16 146.1   42 190  35  99
   2024 04 24 02:30  16 22 51.92    -03 29 02.8   154969 1.0066 145.2  m  13? 127.78 146.0   41 193  35  99
   2024 04 24 02:40  16 23 39.43    -03 46 42.2   155243 1.0066 145.1  m  13? 127.41 145.9   41 196  35  99
   2024 04 24 02:50  16 24 26.97    -04 04 17.0   155526 1.0066 145.0 Am  13? 127.05 145.8   40 198  35  99
   2024 04 24 03:00  16 25 14.55    -04 21 47.2   155818 1.0066 144.9 Am  13? 126.69 145.6   39 201  35  99
   2024 04 24 03:10  16 26 02.20    -04 39 12.7   156118 1.0066 144.8 Am  13? 126.35 145.5   38 204  35  99
   2024 04 24 03:20  16 26 49.96    -04 56 33.1   156427 1.0066 144.7 Am  13? 126.02 145.3   37 207  35  99
   2024 04 24 03:30  16 27 37.85    -05 13 48.6   156744 1.0066 144.5 Am  13? 125.69 145.1   36 209  35  99
   2024 04 24 03:40  16 28 25.88    -05 30 58.8   157070 1.0066 144.4 Nm  13? 125.38 144.9   35 212  35  99
   2024 04 24 03:50  16 29 14.10    -05 48 03.6   157403 1.0066 144.3 Nm  13? 125.08 144.6   34 214  35  99
   2024 04 24 04:00  16 30 02.51    -06 05 03.0   157745 1.0066 144.2 Nm  13? 124.80 144.4   32 216  35  99
   2024 04 24 04:10  16 30 51.15    -06 21 56.9   158094 1.0066 144.1 Cm  13? 124.52 144.1   31 219  35  99
   2024 04 24 04:20  16 31 40.04    -06 38 45.1   158451 1.0066 143.9 Cm  13? 124.26 143.8   30 221  35  99
   2024 04 24 04:30  16 32 29.19    -06 55 27.6   158816 1.0066 143.8 Cm  13? 124.01 143.5   28 223  35  99
   ................
   2024 04 25 00:40  18 37 36.66    -33 06 53.9   197847 1.0066 116.5  m  13?  86.18 137.1    0 139  51  98
   2024 04 25 00:50  18 38 22.95    -33 17 24.2   198076 1.0066 116.3  m  13?  85.28 137.2    1 141  51  98
   2024 04 25 01:00  18 39 08.78    -33 27 48.7   198310 1.0066 116.2  m  13?  84.38 137.2    2 143  51  98
   2024 04 25 01:10  18 39 54.16    -33 38 07.3   198549 1.0066 116.0  m  13?  83.48 137.3    2 144  51  98
   2024 04 25 01:20  18 40 39.11    -33 48 19.7   198793 1.0066 115.9  m  13?  82.60 137.3    3 146  51  98
   2024 04 25 01:30  18 41 23.65    -33 58 25.9   199041 1.0066 115.7  m  13?  81.71 137.3    4 148  51  98
   2024 04 25 01:40  18 42 07.78    -34 08 25.6   199295 1.0066 115.6  m  13?  80.84 137.3    5 150  51  98
   2024 04 25 01:50  18 42 51.55    -34 18 18.9   199554 1.0066 115.4  m  13?  79.98 137.3    5 152  51  98
   2024 04 25 02:00  18 43 34.95    -34 28 05.5   199819 1.0066 115.3  m  13?  79.12 137.3    6 153  51  98
   2024 04 25 02:10  18 44 18.02    -34 37 45.2   200089 1.0066 115.1  m  13?  78.27 137.2    6 155  52  98
   2024 04 25 02:20  18 45 00.78    -34 47 18.1   200365 1.0066 115.0  m  13?  77.44 137.1    7 157  52  98
   2024 04 25 02:30  18 45 43.25    -34 56 44.0   200646 1.0066 114.9  m  13?  76.62 137.0    7 159  52  98
   2024 04 25 02:40  18 46 25.45    -35 06 02.7   200933 1.0066 114.7  m  13?  75.81 136.9    8 161  52  98
   2024 04 25 02:50  18 47 07.40    -35 15 14.2   201226 1.0066 114.6 Am  13?  75.02 136.7    8 163  52  98
   2024 04 25 03:00  18 47 49.13    -35 24 18.5   201525 1.0066 114.4 Am  13?  74.25 136.5    9 165  52  98
   2024 04 25 03:10  18 48 30.67    -35 33 15.3   201830 1.0066 114.3 Am  13?  73.49 136.3    9 167  52  98
   2024 04 25 03:20  18 49 12.04    -35 42 04.7   202141 1.0066 114.2 Am  13?  72.75 136.0    9 169  52  98
   2024 04 25 03:30  18 49 53.26    -35 50 46.5   202458 1.0066 114.0 Nm  13?  72.03 135.8    9 170  52  98
   2024 04 25 03:40  18 50 34.36    -35 59 20.8   202781 1.0066 113.9 Nm  13?  71.33 135.5    9 172  52  98
   2024 04 25 03:50  18 51 15.36    -36 07 47.4   203109 1.0066 113.8 Nm  13?  70.65 135.2    9 174  52  98
   2024 04 25 04:00  18 51 56.30    -36 16 06.4   203444 1.0066 113.6 Ne  13?  70.00 134.8    9 176  52  98
   2024 04 25 04:10  18 52 37.19    -36 24 17.7   203785 1.0065 113.5 Cm  13?  69.37 134.4    9 178  52  98
   2024 04 25 04:20  18 53 18.06    -36 32 21.3   204132 1.0065 113.4 Ct  13?  68.76 134.0    9 180  53  98
   2024 04 25 04:30  18 53 58.95    -36 40 17.2   204484 1.0065 113.2 Cm  13?  68.18 133.6    9 182  53  98
   ................
   

Chandra Observatory (JPL-ID: -151)

   Date (UTC) HH:MM   RA              Dec         delta   r     elong SM  mag  '/hr    PA   alt  az moo ill
   ---- -- -- -----  -------------   -----------  ------ ------ ----- --  --- ------ ------ --- --- --- ---
   2024 04 14 00:00  17 27 17.99    +38 30 44.9   116930 1.0032 106.9  m  14?  46.52  76.6   49  78 112  31
   2024 04 14 00:10  17 27 55.91    +38 32 27.4   117467 1.0032 106.8  m  14?  44.81  77.1   51  79 112  31
   2024 04 14 00:20  17 28 32.52    +38 34 02.0   118000 1.0032 106.6  m  14?  43.16  77.7   53  81 112  31
   2024 04 14 00:30  17 29 07.89    +38 35 28.6   118528 1.0032 106.5  m  14?  41.58  78.4   55  82 112  31
   2024 04 14 00:40  17 29 42.05    +38 36 47.1   119051 1.0032 106.4     14?  40.05  79.1   56  83 112  31
   2024 04 14 00:50  17 30 15.06    +38 37 57.3   119571 1.0032 106.3     14?  38.59  80.0   58  85 112  32
   2024 04 14 01:00  17 30 46.97    +38 38 59.2   120087 1.0032 106.2     14?  37.21  80.9   60  86 112  32
   2024 04 14 01:10  17 31 17.83    +38 39 52.6   120600 1.0032 106.1     14?  35.89  82.0   61  87 112  32
   2024 04 14 01:20  17 31 47.69    +38 40 37.5   121110 1.0032 106.1     14?  34.65  83.1   63  89 112  32
   2024 04 14 01:30  17 32 16.61    +38 41 13.7   121616 1.0032 106.0     14?  33.48  84.4   65  91 112  32
   2024 04 14 01:40  17 32 44.64    +38 41 41.2   122120 1.0032 105.9     14?  32.40  85.7   67  92 112  32
   2024 04 14 01:50  17 33 11.84    +38 42 00.0   122621 1.0032 105.8     14?  31.40  87.2   68  94 112  32
   2024 04 14 02:00  17 33 38.24    +38 42 09.9   123120 1.0032 105.7     14?  30.48  88.8   70  96 112  32
   2024 04 14 02:10  17 34 03.92    +38 42 11.0   123617 1.0032 105.7     14?  29.65  90.5   72  99 112  32
   2024 04 14 02:20  17 34 28.92    +38 42 03.1   124111 1.0032 105.6     14?  28.92  92.3   73 101 112  32
   2024 04 14 02:30  17 34 53.30    +38 41 46.4   124604 1.0032 105.5     14?  28.28  94.1   75 105 112  32
   2024 04 14 02:40  17 35 17.11    +38 41 20.8   125096 1.0032 105.5     14?  27.73  96.1   77 108 112  33
   2024 04 14 02:50  17 35 40.41    +38 40 46.3   125585 1.0032 105.4     14?  27.28  98.0   78 113 112  33
   2024 04 14 03:00  17 36 03.24    +38 40 02.9   126074 1.0032 105.3     14?  26.92 100.0   80 119 112  33
   2024 04 14 03:10  17 36 25.67    +38 39 10.7   126561 1.0032 105.3     14?  26.66 102.0   81 127 112  33
   2024 04 14 03:20  17 36 47.74    +38 38 09.8   127047 1.0032 105.2 A   14?  26.49 104.1   83 138 112  33
   2024 04 14 03:30  17 37 09.51    +38 37 00.1   127531 1.0032 105.2 A   14?  26.42 106.1   84 152 112  33
   2024 04 14 03:40  17 37 31.03    +38 35 41.7   128015 1.0033 105.1 A   14?  26.43 108.0   84 171 112  33
   2024 04 14 03:50  17 37 52.35    +38 34 14.8   128498 1.0033 105.1 Nt  14?  26.52 109.9   84 191 113  33
   2024 04 14 04:00  17 38 13.52    +38 32 39.5   128980 1.0033 105.0 N   14?  26.69 111.7   83 208 113  33
   2024 04 14 04:10  17 38 34.59    +38 30 55.8   129462 1.0033 105.0 N   14?  26.94 113.4   82 222 113  33
   2024 04 14 04:20  17 38 55.61    +38 29 03.9   129942 1.0033 104.9 N   14?  27.26 115.0   81 232 113  33
   2024 04 14 04:30  17 39 16.63    +38 27 03.9   130422 1.0033 104.9 C   14?  27.64 116.4   80 240 113  34
   2024 04 14 04:40  17 39 37.69    +38 24 56.1   130901 1.0033 104.8 C   14?  28.08 117.8   78 245 113  34
   2024 04 14 04:50  17 39 58.84    +38 22 40.4   131380 1.0033 104.8 C   14?  28.57 119.0   76 250 113  34
   ................
   2024 04 14 20:10  18 45 41.26    +33 50 41.5   152378 1.0033  94.1  m  14?  58.73  92.9    0  39 118  40
   2024 04 14 20:20  18 46 28.03    +33 50 11.6   152158 1.0033  94.0  m  14?  57.96  92.7    1  41 118  40
   2024 04 14 20:30  18 47 14.19    +33 49 44.4   151930 1.0033  93.8  m  14?  57.18  92.4    2  42 118  40
   2024 04 14 20:40  18 47 59.71    +33 49 19.7   151692 1.0033  93.7  m  14?  56.37  92.2    3  44 118  40
   2024 04 14 20:50  18 48 44.58    +33 48 57.2   151445 1.0033  93.6  m  14?  55.54  92.1    4  45 118  40
   2024 04 14 21:00  18 49 28.78    +33 48 36.8   151189 1.0033  93.4  m  14?  54.70  91.9    5  47 118  40
   2024 04 14 21:10  18 50 12.29    +33 48 18.3   150924 1.0033  93.3  m  14?  53.83  91.7    7  48 118  40
   2024 04 14 21:20  18 50 55.10    +33 48 01.5   150651 1.0033  93.1  m  14?  52.94  91.6    8  50 118  40
   2024 04 14 21:30  18 51 37.19    +33 47 46.2   150370 1.0033  93.0  m  14?  52.04  91.5    9  51 118  40
   2024 04 14 21:40  18 52 18.56    +33 47 32.1   150080 1.0033  92.9  m  14?  51.12  91.3   11  53 118  40
   2024 04 14 21:50  18 52 59.18    +33 47 19.2   149783 1.0033  92.7  m  14?  50.19  91.3   12  54 118  40
   2024 04 14 22:00  18 53 39.04    +33 47 07.1   149478 1.0033  92.6  m  14?  49.24  91.2   13  55 118  40
   2024 04 14 22:10  18 54 18.14    +33 46 55.6   149166 1.0033  92.5  m  14?  48.28  91.2   15  57 118  40
   2024 04 14 22:20  18 54 56.47    +33 46 44.5   148847 1.0033  92.3  m  14?  47.31  91.2   16  58 118  40
   2024 04 14 22:30  18 55 34.00    +33 46 33.6   148522 1.0033  92.2  m  14?  46.33  91.2   18  60 118  40
   2024 04 14 22:40  18 56 10.75    +33 46 22.5   148189 1.0033  92.1  m  14?  45.34  91.3   19  61 118  41
   2024 04 14 22:50  18 56 46.70    +33 46 11.2   147850 1.0033  92.0  m  14?  44.34  91.3   21  62 118  41
   2024 04 14 23:00  18 57 21.85    +33 45 59.3   147506 1.0033  91.9  m  14?  43.34  91.5   22  64 119  41
   2024 04 14 23:10  18 57 56.19    +33 45 46.5   147155 1.0033  91.8  m  14?  42.34  91.6   24  65 119  41
   2024 04 14 23:20  18 58 29.71    +33 45 32.7   146799 1.0033  91.7  m  14?  41.33  91.8   25  66 119  41
   2024 04 14 23:30  18 59 02.43    +33 45 17.5   146438 1.0033  91.6  m  14?  40.33  92.1   27  68 119  41
   2024 04 14 23:40  18 59 34.34    +33 45 00.7   146071 1.0033  91.4  m  14?  39.33  92.4   28  69 119  41
   2024 04 14 23:50  19 00 05.44    +33 44 42.0   145700 1.0033  91.3  m  14?  38.33  92.8   30  70 119  41
   2024 04 15 00:00  19 00 35.73    +33 44 21.2   145324 1.0033  91.3  m  14?  37.35  93.2   32  72 119  41
   2024 04 15 00:10  19 01 05.22    +33 43 58.0   144944 1.0033  91.2  m  14?  36.37  93.7   33  73 119  41
   2024 04 15 00:20  19 01 33.91    +33 43 32.1   144560 1.0033  91.1  m  14?  35.41  94.3   35  74 119  41
   2024 04 15 00:30  19 02 01.82    +33 43 03.2   144172 1.0033  91.0  m  14?  34.46  94.9   36  76 119  41
   2024 04 15 00:40  19 02 28.94    +33 42 31.1   143781 1.0033  90.9  m  14?  33.54  95.6   38  77 119  41
   2024 04 15 00:50  19 02 55.30    +33 41 55.5   143386 1.0033  90.8  m  14?  32.63  96.4   40  78 119  42
   2024 04 15 01:00  19 03 20.90    +33 41 16.1   142988 1.0033  90.7  m  14?  31.75  97.3   42  80 119  42
   2024 04 15 01:10  19 03 45.75    +33 40 32.7   142588 1.0033  90.6  m  14?  30.91  98.3   43  81 119  42
   2024 04 15 01:20  19 04 09.88    +33 39 45.0   142185 1.0033  90.6  m  14?  30.09  99.4   45  83 119  42
   2024 04 15 01:30  19 04 33.30    +33 38 52.7   141779 1.0033  90.5     14?  29.32 100.5   47  84 119  42
   2024 04 15 01:40  19 04 56.02    +33 37 55.5   141371 1.0033  90.4     14?  28.58 101.8   48  86 119  42
   2024 04 15 01:50  19 05 18.06    +33 36 53.2   140962 1.0033  90.4     14?  27.89 103.3   50  87 119  42
   2024 04 15 02:00  19 05 39.46    +33 35 45.6   140550 1.0033  90.3     14?  27.26 104.8   52  89 119  42
   2024 04 15 02:10  19 06 00.22    +33 34 32.3   140137 1.0033  90.2     14?  26.68 106.4   54  91 119  42
   2024 04 15 02:20  19 06 20.39    +33 33 13.1   139722 1.0033  90.2     14?  26.16 108.1   55  92 119  42
   2024 04 15 02:30  19 06 39.97    +33 31 47.9   139307 1.0033  90.1     14?  25.70 109.9   57  94 119  42
   2024 04 15 02:40  19 06 59.00    +33 30 16.2   138890 1.0033  90.1     14?  25.32 111.8   59  96 119  42
   2024 04 15 02:50  19 07 17.51    +33 28 38.0   138472 1.0033  90.0     14?  25.00 113.8   60  98 119  43
   2024 04 15 03:00  19 07 35.52    +33 26 52.9   138054 1.0033  90.0     14?  24.76 115.8   62 101 119  43
   2024 04 15 03:10  19 07 53.08    +33 25 00.8   137635 1.0033  89.9 A   14?  24.60 117.9   64 103 119  43
   2024 04 15 03:20  19 08 10.21    +33 23 01.4   137216 1.0033  89.9 A   14?  24.52 119.9   66 106 119  43
   2024 04 15 03:30  19 08 26.95    +33 20 54.6   136796 1.0033  89.8 A   14?  24.51 122.0   67 109 120  43
   2024 04 15 03:40  19 08 43.33    +33 18 40.1   136376 1.0033  89.8 A   14?  24.59 124.0   69 113 120  43
   2024 04 15 03:50  19 08 59.39    +33 16 17.7   135956 1.0033  89.7 N   14?  24.75 126.0   70 116 120  43
   2024 04 15 04:00  19 09 15.17    +33 13 47.4   135535 1.0033  89.7 N   14?  24.98 128.0   72 121 120  43
   2024 04 15 04:10  19 09 30.71    +33 11 08.8   135115 1.0033  89.6 N   14?  25.30 129.8   73 126 120  43
   2024 04 15 04:20  19 09 46.05    +33 08 22.0   134695 1.0033  89.6 N   14?  25.68 131.6   75 132 120  43
   2024 04 15 04:30  19 10 01.22    +33 05 26.6   134275 1.0033  89.6 C   14?  26.14 133.2   76 138 120  43
   2024 04 15 04:40  19 10 16.28    +33 02 22.6   133855 1.0033  89.5 C   14?  26.66 134.7   77 146 120  44
   ................
   2024 04 16 01:40  10 49 18.62    -00 56 27.6    14267 1.0036 137.2  r  10? 5264.7  48.8   11 257  46  52
   2024 04 16 01:50  11 28 02.57    +07 26 17.7    16026 1.0037 143.3  m  11? 3998.0  49.6   22 257  50  52
   2024 04 16 02:00  11 58 33.35    +13 39 04.5    18032 1.0037 145.8  m  11? 3063.3  51.2   30 259  55  52
   2024 04 16 02:10  12 23 18.85    +18 16 15.8    20154 1.0037 146.2     11? 2397.6  53.2   36 260  59  52
   2024 04 16 02:20  12 43 53.81    +21 45 46.0    22320 1.0037 145.5     11? 1921.7  55.2   40 261  62  52
   2024 04 16 02:30  13 01 21.11    +24 27 16.9    24489 1.0037 144.3     12? 1575.2  57.1   43 262  65  52
   2024 04 16 02:40  13 16 24.04    +26 34 13.7    26640 1.0037 142.9     12? 1317.2  59.0   45 264  68  52
   2024 04 16 02:50  13 29 33.29    +28 15 45.6    28760 1.0037 141.5     12? 1120.7  60.7   47 265  70  52
   2024 04 16 03:00  13 41 11.29    +29 38 12.5    30845 1.0037 140.2     12? 967.81  62.4   48 267  72  53
   2024 04 16 03:10  13 51 34.82    +30 46 02.7    32891 1.0037 138.9 A   12? 846.68  64.0   48 268  73  53
   2024 04 16 03:20  14 00 56.67    +31 42 29.2    34897 1.0037 137.7 A   12? 749.07  65.5   49 269  75  53
   2024 04 16 03:30  14 09 26.82    +32 29 53.8    36865 1.0038 136.6 A   12? 669.25  67.0   49 271  76  53
   2024 04 16 03:40  14 17 13.14    +33 10 02.6    38794 1.0038 135.6 Ae  12? 603.11  68.3   49 272  77  53
   2024 04 16 03:50  14 24 21.95    +33 44 16.2    40685 1.0038 134.7 N   12? 547.69  69.6   49 273  78  53
   2024 04 16 04:00  14 30 58.40    +34 13 36.9    42542 1.0038 133.8 N   13? 500.77  70.9   48 274  79  53
   2024 04 16 04:10  14 37 06.70    +34 38 53.6    44363 1.0038 133.0 N   13? 460.68  72.1   48 275  80  53
   2024 04 16 04:20  14 42 50.37    +35 00 45.0    46152 1.0038 132.2 N   13? 426.16  73.3   47 277  81  53
   2024 04 16 04:30  14 48 12.34    +35 19 42.4    47910 1.0038 131.5 C   13? 396.22  74.4   47 278  82  53
   2024 04 16 04:40  14 53 15.10    +35 36 10.9    49638 1.0038 130.8 C   13? 370.08  75.5   46 279  83  53
   ................
   2024 04 16 18:30  17 41 13.89    +36 33 54.6   132342 1.0040 106.4 Cr  14?  77.91  85.1    0  33 106  59
   2024 04 16 18:40  17 42 17.77    +36 35 00.5   132750 1.0040 106.2 Cm  14?  76.56  84.8    0  34 106  59
   2024 04 16 18:50  17 43 20.51    +36 36 09.2   133146 1.0040 106.0 Cm  14?  75.19  84.5    1  36 106  59
   2024 04 16 19:00  17 44 22.11    +36 37 20.4   133531 1.0040 105.9 Nm  14?  73.82  84.2    2  37 106  59
   2024 04 16 19:10  17 45 22.56    +36 38 34.1   133905 1.0040 105.7 Nm  14?  72.44  83.9    3  39 106  59
   2024 04 16 19:20  17 46 21.85    +36 39 50.0   134269 1.0040 105.5 Nm  14?  71.05  83.6    4  40 106  59
   2024 04 16 19:30  17 47 19.97    +36 41 08.0   134621 1.0040 105.3 Am  14?  69.66  83.3    5  42 107  59
   2024 04 16 19:40  17 48 16.91    +36 42 27.9   134964 1.0040 105.1 Am  14?  68.25  83.0    6  43 107  60
   2024 04 16 19:50  17 49 12.68    +36 43 49.4   135297 1.0040 105.0 Am  14?  66.84  82.8    7  45 107  60
   2024 04 16 20:00  17 50 07.26    +36 45 12.5   135620 1.0040 104.8 Am  14?  65.42  82.5    9  46 107  60
   2024 04 16 20:10  17 51 00.65    +36 46 36.8   135933 1.0040 104.6  m  14?  64.00  82.2   10  47 107  60
   2024 04 16 20:20  17 51 52.85    +36 48 02.3   136237 1.0040 104.4  m  14?  62.57  81.9   11  49 107  60
   2024 04 16 20:30  17 52 43.85    +36 49 28.6   136532 1.0040 104.3  m  14?  61.14  81.7   12  50 107  60
   2024 04 16 20:40  17 53 33.66    +36 50 55.6   136818 1.0040 104.1  m  14?  59.70  81.4   14  51 107  60
   2024 04 16 20:50  17 54 22.26    +36 52 23.0   137096 1.0040 104.0  m  14?  58.27  81.2   15  53 107  60
   2024 04 16 21:00  17 55 09.67    +36 53 50.6   137366 1.0040 103.8  m  14?  56.83  81.0   16  54 107  60
   2024 04 16 21:10  17 55 55.87    +36 55 18.2   137627 1.0040 103.7  m  14?  55.39  80.7   18  55 108  60
   2024 04 16 21:20  17 56 40.89    +36 56 45.6   137881 1.0040 103.5  m  14?  53.95  80.5   19  57 108  60
   2024 04 16 21:30  17 57 24.70    +36 58 12.4   138128 1.0040 103.4  m  14?  52.52  80.3   21  58 108  60
   2024 04 16 21:40  17 58 07.33    +36 59 38.5   138367 1.0040 103.3  m  14?  51.08  80.2   22  59 108  60
   2024 04 16 21:50  17 58 48.77    +37 01 03.6   138600 1.0040 103.1  m  14?  49.65  80.0   23  60 108  60
   2024 04 16 22:00  17 59 29.04    +37 02 27.5   138825 1.0040 103.0  m  14?  48.23  79.9   25  62 108  60
   2024 04 16 22:10  18 00 08.14    +37 03 49.9   139045 1.0040 102.9  m  14?  46.82  79.8   26  63 108  60
   2024 04 16 22:20  18 00 46.07    +37 05 10.6   139259 1.0040 102.8  m  14?  45.41  79.7   28  64 108  60
   2024 04 16 22:30  18 01 22.86    +37 06 29.2   139466 1.0040 102.6  m  14?  44.01  79.7   30  65 108  60
   2024 04 16 22:40  18 01 58.51    +37 07 45.7   139669 1.0040 102.5  m  14?  42.62  79.7   31  66 108  60
   2024 04 16 22:50  18 02 33.03    +37 08 59.6   139866 1.0040 102.4  m  14?  41.25  79.7   33  68 108  60
   2024 04 16 23:00  18 03 06.44    +37 10 10.8   140058 1.0040 102.3  m  14?  39.89  79.8   34  69 108  61
   2024 04 16 23:10  18 03 38.76    +37 11 19.0   140246 1.0040 102.2  m  14?  38.55  79.9   36  70 108  61
   2024 04 16 23:20  18 04 09.99    +37 12 24.0   140429 1.0040 102.1  m  14?  37.22  80.1   38  71 108  61
   2024 04 16 23:30  18 04 40.17    +37 13 25.4   140609 1.0040 102.0  m  14?  35.92  80.3   39  73 108  61
   2024 04 16 23:40  18 05 09.31    +37 14 23.1   140784 1.0040 101.9  m  14?  34.63  80.6   41  74 108  61
   2024 04 16 23:50  18 05 37.42    +37 15 16.8   140956 1.0040 101.8  m  14?  33.37  80.9   43  75 108  61
   2024 04 17 00:00  18 06 04.55    +37 16 06.3   141125 1.0040 101.7  m  14?  32.14  81.4   44  76 108  61
   2024 04 17 00:10  18 06 30.70    +37 16 51.4   141291 1.0040 101.7  m  14?  30.94  81.9   46  77 109  61
   2024 04 17 00:20  18 06 55.90    +37 17 31.7   141454 1.0040 101.6  m  14?  29.77  82.5   48  79 109  61
   2024 04 17 00:30  18 07 20.19    +37 18 07.1   141614 1.0040 101.5  m  14?  28.63  83.2   49  80 109  61
   2024 04 17 00:40  18 07 43.58    +37 18 37.4   141772 1.0040 101.4  m  14?  27.53  84.1   51  81 109  61
   2024 04 17 00:50  18 08 06.11    +37 19 02.3   141929 1.0040 101.4  m  14?  26.47  85.0   53  83 109  61
   2024 04 17 01:00  18 08 27.81    +37 19 21.7   142083 1.0040 101.3  m  14?  25.46  86.1   54  84 109  61
   2024 04 17 01:10  18 08 48.72    +37 19 35.3   142236 1.0040 101.2  m  14?  24.49  87.3   56  86 109  61
   2024 04 17 01:20  18 09 08.85    +37 19 42.9   142387 1.0040 101.2  m  14?  23.58  88.7   58  87 109  61
   2024 04 17 01:30  18 09 28.26    +37 19 44.4   142538 1.0040 101.1  m  14?  22.72  90.2   60  89 109  61
   2024 04 17 01:40  18 09 46.97    +37 19 39.6   142687 1.0040 101.1  m  14?  21.93  91.9   61  90 109  62
   2024 04 17 01:50  18 10 05.02    +37 19 28.4   142836 1.0040 101.0  m  14?  21.20  93.8   63  92 109  62
   2024 04 17 02:00  18 10 22.45    +37 19 10.5   142984 1.0040 101.0  m  14?  20.55  95.8   65  94 109  62
   2024 04 17 02:10  18 10 39.29    +37 18 45.9   143132 1.0040 100.9  m  14?  19.96  97.9   67  96 109  62
   2024 04 17 02:20  18 10 55.59    +37 18 14.4   143279 1.0040 100.9  m  14?  19.46 100.1   68  99 109  62
   2024 04 17 02:30  18 11 11.39    +37 17 35.8   143426 1.0040 100.8  m  14?  19.04 102.5   70 101 109  62
   2024 04 17 02:40  18 11 26.73    +37 16 50.2   143574 1.0040 100.8     14?  18.70 105.0   72 104 109  62
   2024 04 17 02:50  18 11 41.64    +37 15 57.3   143722 1.0040 100.8     14?  18.46 107.6   74 108 109  62
   2024 04 17 03:00  18 11 56.18    +37 14 57.2   143870 1.0040 100.7     14?  18.30 110.2   75 112 109  62
   2024 04 17 03:10  18 12 10.38    +37 13 49.7   144018 1.0040 100.7 A   14?  18.22 112.8   77 116 109  62
   2024 04 17 03:20  18 12 24.28    +37 12 34.8   144167 1.0040 100.7 A   14?  18.24 115.3   78 122 109  62
   2024 04 17 03:30  18 12 37.94    +37 11 12.4   144316 1.0040 100.6 A   14?  18.33 117.8   80 130 109  62
   2024 04 17 03:40  18 12 51.38    +37 09 42.5   144466 1.0040 100.6 A   14?  18.51 120.2   81 139 109  62
   2024 04 17 03:50  18 13 04.67    +37 08 05.1   144617 1.0040 100.6 N   14?  18.76 122.4   82 151 109  63
   2024 04 17 04:00  18 13 17.83    +37 06 20.2   144769 1.0040 100.5 N   14?  19.09 124.5   83 166 109  63
   2024 04 17 04:10  18 13 30.92    +37 04 27.9   144921 1.0040 100.5 Nt  14?  19.48 126.4   83 182 109  63
   2024 04 17 04:20  18 13 43.98    +37 02 28.0   145075 1.0040 100.5 C   14?  19.92 128.1   82 198 109  63
   2024 04 17 04:30  18 13 57.04    +37 00 20.7   145229 1.0040 100.5 C   14?  20.43 129.7   81 212 109  63
   2024 04 17 04:40  18 14 10.16    +36 58 06.1   145384 1.0040 100.5 C   14?  20.98 131.0   80 222 109  63
   ................
   2024 04 17 20:50  19 19 06.06    +31 07 28.5   138203 1.0040  89.6  m  14?  68.09  99.4    0  44 120  69
   2024 04 17 21:00  19 19 58.14    +31 05 36.6   137646 1.0040  89.5  m  14?  67.53  99.3    1  45 120  69
   2024 04 17 21:10  19 20 49.77    +31 03 45.9   137078 1.0040  89.3  m  14?  66.96  99.3    2  47 120  69
   2024 04 17 21:20  19 21 40.94    +31 01 56.0   136501 1.0040  89.1  m  14?  66.37  99.3    3  48 120  69
   2024 04 17 21:30  19 22 31.62    +31 00 06.9   135913 1.0040  89.0  m  14?  65.75  99.4    4  50 121  69
   2024 04 17 21:40  19 23 21.80    +30 58 18.2   135316 1.0040  88.8  m  14?  65.12  99.4    6  52 121  69
   2024 04 17 21:50  19 24 11.47    +30 56 29.8   134710 1.0040  88.6  m  14?  64.48  99.5    7  53 121  69
   2024 04 17 22:00  19 25 00.61    +30 54 41.4   134094 1.0040  88.5  m  14?  63.82  99.6    8  55 121  69
   2024 04 17 22:10  19 25 49.20    +30 52 52.7   133469 1.0040  88.3  m  14?  63.15  99.8   10  56 121  69
   2024 04 17 22:20  19 26 37.24    +30 51 03.6   132835 1.0040  88.2  m  14?  62.46  99.9   11  57 121  70
   2024 04 17 22:30  19 27 24.70    +30 49 13.7   132193 1.0040  88.0  m  14?  61.77 100.1   12  59 121  70
   2024 04 17 22:40  19 28 11.59    +30 47 22.9   131541 1.0040  87.8  m  14?  61.07 100.3   14  60 121  70
   2024 04 17 22:50  19 28 57.89    +30 45 30.7   130882 1.0040  87.7  m  14?  60.36 100.6   15  62 122  70
   2024 04 17 23:00  19 29 43.59    +30 43 36.9   130215 1.0040  87.5  m  14?  59.65 100.9   17  63 122  70
   2024 04 17 23:10  19 30 28.68    +30 41 41.3   129539 1.0040  87.4  m  14?  58.94 101.2   18  65 122  70
   2024 04 17 23:20  19 31 13.16    +30 39 43.5   128856 1.0040  87.3  m  14?  58.22 101.6   20  66 122  70
   2024 04 17 23:30  19 31 57.03    +30 37 43.3   128166 1.0040  87.1  m  14?  57.51 102.0   21  67 122  70
   2024 04 17 23:40  19 32 40.27    +30 35 40.3   127468 1.0040  87.0  m  14?  56.81 102.5   23  69 122  70
   2024 04 17 23:50  19 33 22.88    +30 33 34.1   126763 1.0040  86.8  m  14?  56.12 103.0   24  70 122  70
   2024 04 18 00:00  19 34 04.88    +30 31 24.6   126051 1.0040  86.7  m  14?  55.43 103.5   26  71 122  70
   2024 04 18 00:10  19 34 46.24    +30 29 11.2   125333 1.0040  86.6  m  14?  54.76 104.1   28  73 123  70
   2024 04 18 00:20  19 35 26.98    +30 26 53.8   124608 1.0040  86.4  m  14?  54.11 104.8   29  74 123  70
   2024 04 18 00:30  19 36 07.11    +30 24 31.9   123877 1.0040  86.3  m  14?  53.49 105.5   31  76 123  70
   2024 04 18 00:40  19 36 46.61    +30 22 05.2   123140 1.0040  86.2  m  14?  52.88 106.2   32  77 123  70
   2024 04 18 00:50  19 37 25.51    +30 19 33.4   122397 1.0040  86.0  m  14?  52.31 107.0   34  79 123  70
   2024 04 18 01:00  19 38 03.80    +30 16 56.0   121648 1.0040  85.9  m  14?  51.76 107.8   36  80 123  70
   2024 04 18 01:10  19 38 41.51    +30 14 12.7   120894 1.0040  85.8  m  14?  51.26 108.7   37  81 123  70
   2024 04 18 01:20  19 39 18.63    +30 11 23.1   120135 1.0040  85.7  m  14?  50.79 109.7   39  83 123  70
   2024 04 18 01:30  19 39 55.18    +30 08 26.8   119371 1.0040  85.6  m  14?  50.37 110.7   41  85 123  71
   2024 04 18 01:40  19 40 31.19    +30 05 23.5   118601 1.0040  85.4  m  14?  50.00 111.8   42  86 124  71
   2024 04 18 01:50  19 41 06.66    +30 02 12.7   117827 1.0040  85.3  m  14?  49.69 112.9   44  88 124  71
   2024 04 18 02:00  19 41 41.61    +29 58 54.1   117048 1.0040  85.2  m  14?  49.43 114.0   46  89 124  71
   2024 04 18 02:10  19 42 16.06    +29 55 27.3   116264 1.0040  85.1  m  14?  49.23 115.2   47  91 124  71
   2024 04 18 02:20  19 42 50.04    +29 51 51.7   115477 1.0040  85.0  m  14?  49.11 116.4   49  93 124  71
   2024 04 18 02:30  19 43 23.57    +29 48 07.1   114685 1.0040  84.9  m  14?  49.05 117.7   51  95 124  71
   2024 04 18 02:40  19 43 56.68    +29 44 13.1   113888 1.0040  84.8  m  14?  49.07 119.0   52  97 124  71
   2024 04 18 02:50  19 44 29.39    +29 40 09.1   113088 1.0040  84.7  m  14?  49.17 120.2   54  99 124  71
   2024 04 18 03:00  19 45 01.74    +29 35 54.7   112284 1.0040  84.6     13?  49.35 121.6   56 101 124  71
   2024 04 18 03:10  19 45 33.76    +29 31 29.6   111476 1.0040  84.5 A   13?  49.62 122.9   57 103 125  71
   2024 04 18 03:20  19 46 05.48    +29 26 53.3   110664 1.0040  84.4 A   13?  49.97 124.2   59 106 125  71
   2024 04 18 03:30  19 46 36.93    +29 22 05.4   109849 1.0040  84.3 A   13?  50.42 125.5   60 109 125  71
   2024 04 18 03:40  19 47 08.17    +29 17 05.4   109030 1.0040  84.2 A   13?  50.96 126.7   62 111 125  71
   2024 04 18 03:50  19 47 39.22    +29 11 52.9   108207 1.0040  84.1 N   13?  51.59 128.0   63 115 125  71
   2024 04 18 04:00  19 48 10.13    +29 06 27.4   107381 1.0040  84.0 N   13?  52.33 129.2   65 118 125  72
   2024 04 18 04:10  19 48 40.95    +29 00 48.5   106551 1.0040  83.9 N   13?  53.16 130.4   66 122 125  72
   2024 04 18 04:20  19 49 11.72    +28 54 55.8   105717 1.0040  83.8 C   13?  54.09 131.5   68 126 125  72
   2024 04 18 04:30  19 49 42.48    +28 48 48.8   104880 1.0040  83.8 C   13?  55.12 132.6   69 131 126  72
   2024 04 18 04:40  19 50 13.30    +28 42 27.0   104039 1.0040  83.7 C   13?  56.26 133.6   70 136 126  72
   ................
   2024 04 18 18:40  14 51 23.04    +28 36 34.2    35649 1.0045 137.4 Cm  12? 687.49  54.4   19  68  63  77
   2024 04 18 18:50  14 58 10.99    +29 38 36.1    37563 1.0045 135.8 Cm  12? 617.34  55.7   20  68  65  77
   2024 04 18 19:00  15 04 27.62    +30 32 48.5    39422 1.0045 134.4 Nm  12? 558.53  56.8   21  68  66  77
   2024 04 18 19:10  15 10 16.83    +31 20 35.0    41231 1.0045 133.1 Nm  12? 508.59  57.9   22  68  67  77
   2024 04 18 19:20  15 15 41.81    +32 03 00.1    42991 1.0045 131.9 Nm  12? 465.71  58.8   24  68  68  77
   2024 04 18 19:30  15 20 45.24    +32 40 54.9    44705 1.0045 130.8 Nm  13? 428.53  59.7   25  68  69  77
   2024 04 18 19:40  15 25 29.36    +33 14 59.9    46376 1.0045 129.8 Am  13? 396.00  60.5   26  68  70  77
   2024 04 18 19:50  15 29 56.08    +33 45 47.9    48007 1.0045 128.9 Am  13? 367.31  61.3   27  68  71  77
   2024 04 18 20:00  15 34 07.04    +34 13 45.6    49600 1.0045 128.0 Am  13? 341.84  62.0   29  69  72  77
   2024 04 18 20:10  15 38 03.66    +34 39 14.9    51156 1.0045 127.2 Am  13? 319.08  62.6   30  69  73  77
   2024 04 18 20:20  15 41 47.16    +35 02 34.1    52677 1.0045 126.5  m  13? 298.61  63.2   31  70  73  77
   2024 04 18 20:30  15 45 18.63    +35 23 58.5    54166 1.0045 125.8  m  13? 280.12  63.8   32  70  74  77
   2024 04 18 20:40  15 48 39.01    +35 43 40.8    55623 1.0045 125.1  m  13? 263.33  64.3   34  71  75  78
   2024 04 18 20:50  15 51 49.15    +36 01 52.1    57051 1.0045 124.5  m  13? 248.02  64.8   35  71  75  78
   2024 04 18 21:00  15 54 49.80    +36 18 41.5    58450 1.0045 123.9  m  13? 234.00  65.3   36  72  76  78
   2024 04 18 21:10  15 57 41.63    +36 34 17.0    59822 1.0045 123.3  m  13? 221.12  65.8   38  73  76  78
   2024 04 18 21:20  16 00 25.24    +36 48 45.4    61169 1.0045 122.8  m  13? 209.24  66.3   39  73  77  78
   2024 04 18 21:30  16 03 01.19    +37 02 12.9    62491 1.0046 122.3  m  13? 198.26  66.7   41  74  77  78
   2024 04 18 21:40  16 05 29.95    +37 14 44.3    63789 1.0046 121.8  m  13? 188.08  67.2   42  75  78  78
   2024 04 18 21:50  16 07 52.00    +37 26 24.4    65064 1.0046 121.3  m  13? 178.61  67.6   43  76  78  78
   2024 04 18 22:00  16 10 07.73    +37 37 17.0    66319 1.0046 120.9  m  13? 169.79  68.1   45  76  79  78
   2024 04 18 22:10  16 12 17.53    +37 47 25.6    67552 1.0046 120.5  m  13? 161.56  68.5   46  77  79  78
   2024 04 18 22:20  16 14 21.76    +37 56 53.2    68766 1.0046 120.1  m  13? 153.86  69.0   48  78  79  78
   2024 04 18 22:30  16 16 20.72    +38 05 42.7    69961 1.0046 119.7  m  13? 146.65  69.5   49  79  80  78
   2024 04 18 22:40  16 18 14.73    +38 13 56.3    71138 1.0046 119.4  m  13? 139.89  69.9   51  80  80  78
   2024 04 18 22:50  16 20 04.07    +38 21 36.2    72297 1.0046 119.0  m  13? 133.54  70.4   52  81  80  78
   2024 04 18 23:00  16 21 48.99    +38 28 44.3    73441 1.0046 118.7  m  13? 127.58  71.0   54  82  81  78
   2024 04 18 23:10  16 23 29.74    +38 35 22.4    74568 1.0046 118.4  m  13? 121.96  71.5   55  83  81  78
   2024 04 18 23:20  16 25 06.56    +38 41 32.0    75680 1.0046 118.1  m  13? 116.68  72.1   57  84  81  78
   2024 04 18 23:30  16 26 39.65    +38 47 14.5    76778 1.0046 117.8  m  13? 111.71  72.7   59  85  81  78
   2024 04 18 23:40  16 28 09.22    +38 52 31.1    77861 1.0046 117.6  m  13? 107.04  73.3   60  86  82  78
   2024 04 18 23:50  16 29 35.47    +38 57 23.0    78932 1.0046 117.3  m  13? 102.63  74.0   62  87  82  78
   2024 04 19 00:00  16 30 58.59    +39 01 51.3    79990 1.0046 117.1  m  13?  98.49  74.7   63  88  82  78
   2024 04 19 00:10  16 32 18.74    +39 05 57.0    81035 1.0046 116.9  m  13?  94.60  75.5   65  90  82  78
   2024 04 19 00:20  16 33 36.09    +39 09 40.8    82069 1.0046 116.6  m  13?  90.94  76.3   66  91  83  78
   2024 04 19 00:30  16 34 50.81    +39 13 03.6    83092 1.0046 116.4  m  13?  87.51  77.1   68  93  83  78
   2024 04 19 00:40  16 36 03.04    +39 16 06.2    84104 1.0046 116.2  m  14?  84.29  78.0   70  94  83  78
   2024 04 19 00:50  16 37 12.94    +39 18 49.3    85105 1.0046 116.0  m  14?  81.28  79.0   71  96  83  79
   2024 04 19 01:00  16 38 20.63    +39 21 13.5    86097 1.0046 115.8  m  14?  78.47  79.9   73  98  83  79
   2024 04 19 01:10  16 39 26.27    +39 23 19.5    87080 1.0046 115.7  m  14?  75.85  81.0   74 101  84  79
   2024 04 19 01:20  16 40 29.97    +39 25 07.8    88053 1.0046 115.5  m  14?  73.42  82.0   76 103  84  79
   2024 04 19 01:30  16 41 31.86    +39 26 39.1    89018 1.0046 115.3  m  14?  71.17  83.2   78 107  84  79
   2024 04 19 01:40  16 42 32.05    +39 27 53.8    89975 1.0046 115.2  m  14?  69.10  84.3   79 111  84  79
   2024 04 19 01:50  16 43 30.68    +39 28 52.4    90923 1.0046 115.0  m  14?  67.19  85.5   81 117  84  79
   2024 04 19 02:00  16 44 27.84    +39 29 35.5    91865 1.0046 114.9  m  14?  65.45  86.7   82 124  84  79
   2024 04 19 02:10  16 45 23.64    +39 30 03.5    92798 1.0046 114.7  m  14?  63.87  88.0   83 134  85  79
   2024 04 19 02:20  16 46 18.18    +39 30 16.9    93725 1.0046 114.6  m  14?  62.45  89.3   84 149  85  79
   2024 04 19 02:30  16 47 11.57    +39 30 16.1    94645 1.0046 114.5  m  14?  61.17  90.6   85 169  85  79
   2024 04 19 02:40  16 48 03.91    +39 30 01.6    95558 1.0046 114.3  t  14?  60.03  91.9   85 191  85  79
   2024 04 19 02:50  16 48 55.27    +39 29 33.9    96465 1.0046 114.2  m  14?  59.03  93.2   84 211  85  79
   2024 04 19 03:00  16 49 45.75    +39 28 53.2    97366 1.0047 114.1 Am  14?  58.16  94.5   83 225  85  79
   2024 04 19 03:10  16 50 35.44    +39 28 00.1    98261 1.0047 114.0 Am  14?  57.42  95.8   82 235  85  79
   2024 04 19 03:20  16 51 24.42    +39 26 55.0    99151 1.0047 113.9 A   14?  56.79  97.0   81 243  85  79
   2024 04 19 03:30  16 52 12.76    +39 25 38.2   100035 1.0047 113.8 A   14?  56.28  98.3   79 248  86  79
   2024 04 19 03:40  16 53 00.54    +39 24 10.3   100913 1.0047 113.7 N   14?  55.88  99.5   77 252  86  79
   2024 04 19 03:50  16 53 47.84    +39 22 31.5   101786 1.0047 113.6 N   14?  55.57 100.6   76 256  86  80
   2024 04 19 04:00  16 54 34.72    +39 20 42.4   102654 1.0047 113.5 N   14?  55.36 101.7   74 259  86  80
   2024 04 19 04:10  16 55 21.26    +39 18 43.3   103517 1.0047 113.4 N   14?  55.24 102.8   73 261  86  80
   2024 04 19 04:20  16 56 07.51    +39 16 34.5   104375 1.0047 113.3 C   14?  55.20 103.8   71 263  86  80
   2024 04 19 04:30  16 56 53.53    +39 14 16.6   105229 1.0047 113.2 C   14?  55.23 104.7   69 265  86  80
   2024 04 19 04:40  16 57 39.38    +39 11 49.8   106077 1.0047 113.1 C   14?  55.33 105.6   67 267  86  80
   ................
   2024 04 19 19:10  18 18 13.02    +35 22 57.7   150656 1.0048 101.5 Nm  14?  61.14  89.3    0  36  99  85
   2024 04 19 19:20  18 19 02.64    +35 23 05.0   150708 1.0048 101.4 Nm  14?  60.23  89.0    1  38  99  85
   2024 04 19 19:30  18 19 51.50    +35 23 15.3   150751 1.0048 101.2 Nm  14?  59.30  88.7    2  39  99  85
   2024 04 19 19:40  18 20 39.59    +35 23 28.5   150784 1.0048 101.1 Am  14?  58.34  88.4    3  41 100  85
   2024 04 19 19:50  18 21 26.89    +35 23 44.4   150807 1.0048 100.9 Am  14?  57.37  88.1    4  42 100  85
   2024 04 19 20:00  18 22 13.39    +35 24 02.9   150822 1.0048 100.8 Am  14?  56.38  87.8    5  44 100  85
   2024 04 19 20:10  18 22 59.06    +35 24 23.6   150828 1.0048 100.6 Am  14?  55.37  87.6    6  45 100  85
   2024 04 19 20:20  18 23 43.89    +35 24 46.4   150824 1.0048 100.5  m  14?  54.35  87.3    7  47 100  85
   2024 04 19 20:30  18 24 27.88    +35 25 11.2   150813 1.0048 100.4  m  14?  53.31  87.1    9  48 100  85
   2024 04 19 20:40  18 25 11.00    +35 25 37.7   150793 1.0048 100.2  m  14?  52.25  86.8   10  49 100  85
   2024 04 19 20:50  18 25 53.26    +35 26 05.7   150765 1.0048 100.1  m  14?  51.18  86.6   11  51 100  85
   2024 04 19 21:00  18 26 34.63    +35 26 35.0   150729 1.0048 100.0  m  14?  50.10  86.4   12  52 101  85
   2024 04 19 21:10  18 27 15.11    +35 27 05.3   150686 1.0048  99.8  m  14?  49.01  86.2   14  54 101  85
   2024 04 19 21:20  18 27 54.69    +35 27 36.5   150635 1.0048  99.7  m  14?  47.91  86.1   15  55 101  85
   2024 04 19 21:30  18 28 33.37    +35 28 08.3   150578 1.0048  99.6  m  14?  46.80  85.9   17  56 101  85
   2024 04 19 21:40  18 29 11.13    +35 28 40.5   150513 1.0048  99.5  m  14?  45.68  85.8   18  58 101  85
   2024 04 19 21:50  18 29 47.97    +35 29 12.8   150443 1.0048  99.4  m  14?  44.56  85.7   19  59 101  85
   2024 04 19 22:00  18 30 23.90    +35 29 45.0   150366 1.0048  99.2  m  14?  43.43  85.6   21  60 101  85
   2024 04 19 22:10  18 30 58.90    +35 30 16.8   150282 1.0048  99.1  m  14?  42.29  85.6   22  62 101  85
   2024 04 19 22:20  18 31 32.98    +35 30 48.1   150194 1.0048  99.0  m  14?  41.16  85.5   24  63 101  85
   2024 04 19 22:30  18 32 06.13    +35 31 18.5   150099 1.0048  98.9  m  14?  40.02  85.6   26  64 101  85
   2024 04 19 22:40  18 32 38.36    +35 31 47.8   150000 1.0048  98.8  m  14?  38.89  85.6   27  65 102  85
   2024 04 19 22:50  18 33 09.67    +35 32 15.8   149896 1.0048  98.7  m  14?  37.76  85.7   29  67 102  85
   2024 04 19 23:00  18 33 40.07    +35 32 42.1   149787 1.0048  98.6  m  14?  36.63  85.8   30  68 102  85
   2024 04 19 23:10  18 34 09.56    +35 33 06.6   149673 1.0048  98.5  m  14?  35.51  86.0   32  69 102  85
   2024 04 19 23:20  18 34 38.14    +35 33 29.0   149556 1.0048  98.4  m  14?  34.40  86.3   33  71 102  85
   2024 04 19 23:30  18 35 05.83    +35 33 48.9   149435 1.0048  98.4  m  14?  33.30  86.6   35  72 102  85
   2024 04 19 23:40  18 35 32.64    +35 34 06.3   149310 1.0048  98.3  m  14?  32.22  87.0   37  73 102  85
   2024 04 19 23:50  18 35 58.58    +35 34 20.7   149182 1.0048  98.2  m  14?  31.15  87.5   38  74 102  85
   2024 04 20 00:00  18 36 23.66    +35 34 32.0   149050 1.0048  98.1  m  14?  30.10  88.0   40  76 102  86
   2024 04 20 00:10  18 36 47.90    +35 34 39.9   148916 1.0048  98.0  m  14?  29.07  88.6   42  77 102  86
   2024 04 20 00:20  18 37 11.30    +35 34 44.1   148780 1.0048  98.0  m  14?  28.06  89.4   44  78 102  86
   2024 04 20 00:30  18 37 33.90    +35 34 44.4   148641 1.0048  97.9  m  14?  27.08  90.2   45  80 102  86
   2024 04 20 00:40  18 37 55.71    +35 34 40.5   148500 1.0048  97.8  m  14?  26.14  91.2   47  81 102  86
   2024 04 20 00:50  18 38 16.74    +35 34 32.3   148357 1.0048  97.8  m  14?  25.22  92.2   49  83 102  86
   2024 04 20 01:00  18 38 37.03    +35 34 19.4   148213 1.0048  97.7  m  14?  24.35  93.4   50  84 102  86
   2024 04 20 01:10  18 38 56.59    +35 34 01.7   148067 1.0048  97.7  m  14?  23.52  94.8   52  85 103  86
   2024 04 20 01:20  18 39 15.45    +35 33 38.9   147920 1.0048  97.6  m  14?  22.74  96.3   54  87 103  86
   2024 04 20 01:30  18 39 33.64    +35 33 10.8   147772 1.0048  97.5  m  14?  22.01  97.9   56  89 103  86
   2024 04 20 01:40  18 39 51.18    +35 32 37.2   147623 1.0048  97.5  m  14?  21.34  99.7   57  90 103  86
   2024 04 20 01:50  18 40 08.10    +35 31 57.8   147474 1.0048  97.5  m  14?  20.73 101.6   59  92 103  86
   2024 04 20 02:00  18 40 24.44    +35 31 12.5   147324 1.0048  97.4  m  14?  20.18 103.6   61  94 103  86
   2024 04 20 02:10  18 40 40.22    +35 30 21.1   147174 1.0048  97.4  m  14?  19.71 105.8   63  96 103  86
   2024 04 20 02:20  18 40 55.47    +35 29 23.4   147024 1.0048  97.3  m  14?  19.31 108.2   64  98 103  86
   2024 04 20 02:30  18 41 10.24    +35 28 19.3   146874 1.0048  97.3  m  14?  18.99 110.6   66 101 103  86
   2024 04 20 02:40  18 41 24.56    +35 27 08.5   146724 1.0048  97.3  m  14?  18.75 113.1   68 103 103  86
   2024 04 20 02:50  18 41 38.45    +35 25 51.0   146575 1.0048  97.2  m  14?  18.60 115.6   69 106 103  86
   2024 04 20 03:00  18 41 51.96    +35 24 26.5   146426 1.0048  97.2 Am  14?  18.52 118.1   71 110 103  86
   2024 04 20 03:10  18 42 05.13    +35 22 55.0   146278 1.0048  97.2 Am  14?  18.53 120.6   73 114 103  86
   2024 04 20 03:20  18 42 18.00    +35 21 16.4   146130 1.0048  97.1 Am  14?  18.63 123.1   74 118 103  86
   2024 04 20 03:30  18 42 30.60    +35 19 30.5   145984 1.0048  97.1 Am  14?  18.80 125.4   76 124 103  86
   2024 04 20 03:40  18 42 42.97    +35 17 37.2   145838 1.0048  97.1 N   14?  19.04 127.7   77 130 103  86
   2024 04 20 03:50  18 42 55.16    +35 15 36.5   145693 1.0048  97.1 N   14?  19.36 129.8   78 138 103  86
   2024 04 20 04:00  18 43 07.20    +35 13 28.2   145549 1.0048  97.0 N   14?  19.75 131.7   79 147 103  87
   2024 04 20 04:10  18 43 19.15    +35 11 12.5   145406 1.0048  97.0 N   14?  20.19 133.5   80 158 103  87
   2024 04 20 04:20  18 43 31.03    +35 08 49.1   145264 1.0048  97.0 C   14?  20.70 135.1   81 171 103  87
   2024 04 20 04:30  18 43 42.89    +35 06 18.0   145123 1.0048  97.0 Ct  14?  21.26 136.5   81 184 103  87
   2024 04 20 04:40  18 43 54.77    +35 03 39.4   144983 1.0048  96.9 C   14?  21.86 137.8   80 197 103  87
   ................
   2024 04 20 22:00  20 09 17.95    +25 25 09.5   100178 1.0048  81.8  m  13? 121.58 111.2    0  53 119  91
   2024 04 20 22:10  20 10 41.77    +25 17 41.2    99113 1.0048  81.5  m  13? 122.71 111.5    1  54 119  91
   2024 04 20 22:20  20 12 06.10    +25 10 02.1    98034 1.0048  81.2  m  13? 123.90 111.9    2  56 120  91
   2024 04 20 22:30  20 13 30.97    +25 02 11.3    96939 1.0048  80.9  m  13? 125.17 112.2    3  57 120  91
   2024 04 20 22:40  20 14 56.41    +24 54 08.0    95831 1.0048  80.6  m  13? 126.51 112.6    4  59 120  91
   2024 04 20 22:50  20 16 22.44    +24 45 51.1    94708 1.0048  80.4  m  13? 127.94 113.0    5  60 121  91
   2024 04 20 23:00  20 17 49.11    +24 37 19.9    93570 1.0048  80.1  m  13? 129.47 113.4    7  62 121  91
   2024 04 20 23:10  20 19 16.44    +24 28 33.2    92418 1.0048  79.8  m  13? 131.11 113.9    8  63 121  91
   2024 04 20 23:20  20 20 44.49    +24 19 30.0    91252 1.0048  79.4  m  13? 132.86 114.4    9  65 122  91
   2024 04 20 23:30  20 22 13.30    +24 10 09.0    90071 1.0048  79.1  m  13? 134.74 114.9   11  66 122  91
   2024 04 20 23:40  20 23 42.92    +24 00 29.1    88875 1.0048  78.8  m  13? 136.76 115.4   12  68 123  91
   2024 04 20 23:50  20 25 13.42    +23 50 29.0    87665 1.0048  78.5  m  13? 138.93 115.9   13  69 123  91
   2024 04 21 00:00  20 26 44.85    +23 40 07.1    86441 1.0048  78.2  m  13? 141.27 116.5   15  71 123  91
   2024 04 21 00:10  20 28 17.30    +23 29 22.0    85201 1.0048  77.9  m  13? 143.80 117.0   16  72 124  91
   2024 04 21 00:20  20 29 50.83    +23 18 12.1    83947 1.0048  77.6  m  13? 146.52 117.6   17  74 124  91
   2024 04 21 00:30  20 31 25.53    +23 06 35.6    82678 1.0048  77.2  m  13? 149.47 118.2   19  75 124  92
   2024 04 21 00:40  20 33 01.50    +22 54 30.6    81394 1.0048  76.9  m  13? 152.66 118.8   20  77 125  92
   2024 04 21 00:50  20 34 38.84    +22 41 55.0    80095 1.0048  76.6  m  13? 156.11 119.5   21  78 125  92
   2024 04 21 01:00  20 36 17.67    +22 28 46.7    78781 1.0048  76.2  m  13? 159.84 120.1   23  80 126  92
   2024 04 21 01:10  20 37 58.12    +22 15 03.3    77451 1.0048  75.9  m  13? 163.90 120.7   24  81 126  92
   2024 04 21 01:20  20 39 40.31    +22 00 42.1    76106 1.0048  75.5  m  13? 168.30 121.4   25  83 126  92
   2024 04 21 01:30  20 41 24.41    +21 45 40.3    74745 1.0048  75.1  m  13? 173.09 122.1   27  85 127  92
   2024 04 21 01:40  20 43 10.59    +21 29 54.9    73367 1.0048  74.8  m  13? 178.30 122.7   28  86 127  92
   2024 04 21 01:50  20 44 59.02    +21 13 22.4    71974 1.0048  74.4  m  13? 183.97 123.4   29  88 128  92
   2024 04 21 02:00  20 46 49.92    +20 55 59.1    70563 1.0048  74.0  m  13? 190.16 124.1   31  89 128  92
   2024 04 21 02:10  20 48 43.50    +20 37 40.9    69136 1.0048  73.6  m  13? 196.91 124.8   32  91 129  92
   2024 04 21 02:20  20 50 40.04    +20 18 23.3    67691 1.0048  73.2  m  13? 204.30 125.4   33  93 129  92
   2024 04 21 02:30  20 52 39.79    +19 58 01.2    66228 1.0048  72.8  m  13? 212.38 126.1   34  95 130  92
   2024 04 21 02:40  20 54 43.09    +19 36 29.0    64747 1.0048  72.3  m  13? 221.25 126.8   35  96 130  92
   2024 04 21 02:50  20 56 50.27    +19 13 40.6    63247 1.0048  71.9  m  13? 231.00 127.4   37  98 131  92
   2024 04 21 03:00  20 59 01.73    +18 49 28.7    61728 1.0048  71.4 Am  13? 241.74 128.1   38 100 131  92
   2024 04 21 03:10  21 01 17.92    +18 23 45.6    60189 1.0048  71.0 Am  13? 253.59 128.7   39 102 132  92
   2024 04 21 03:20  21 03 39.32    +17 56 22.3    58630 1.0048  70.5 Am  13? 266.70 129.4   40 104 133  92
   2024 04 21 03:30  21 06 06.51    +17 27 08.6    57049 1.0048  69.9 Am  12? 281.26 130.0   41 106 133  92
   2024 04 21 03:40  21 08 40.12    +16 55 52.8    55446 1.0048  69.4 Nm  12? 297.45 130.6   42 109 134  92
   2024 04 21 03:50  21 11 20.91    +16 22 21.6    53820 1.0048  68.8 Nm  12? 315.55 131.2   43 111 135  92
   2024 04 21 04:00  21 14 09.70    +15 46 19.3    52171 1.0048  68.2 N   12? 335.83 131.8   43 113 135  92
   2024 04 21 04:10  21 17 07.50    +15 07 28.0    50497 1.0048  67.6 N   12? 358.68 132.3   44 115 136  92
   2024 04 21 04:20  21 20 15.45    +14 25 26.5    48797 1.0048  67.0 C   12? 384.53 132.9   45 118 137  92
   2024 04 21 04:30  21 23 34.90    +13 39 49.8    47070 1.0048  66.3 C   12? 413.93 133.4   45 120 138  92
   ................
   2024 04 21 18:40  17 03 46.25    +37 04 33.3   103760 1.0054 114.3 Cm  14? 108.51  77.8    7  44  74  95
   2024 04 21 18:50  17 05 13.77    +37 08 18.4   104502 1.0054 114.1 Cm  14? 105.67  77.6    8  45  75  95
   2024 04 21 19:00  17 06 39.01    +37 12 00.2   105231 1.0054 113.8 Nm  14? 102.88  77.5    9  46  75  95
   2024 04 21 19:10  17 08 02.01    +37 15 38.7   105946 1.0054 113.5 Nm  14? 100.14  77.3   10  47  75  95
   2024 04 21 19:20  17 09 22.81    +37 19 13.9   106649 1.0054 113.3 Nm  14?  97.45  77.2   12  49  75  95
   2024 04 21 19:30  17 10 41.44    +37 22 45.9   107339 1.0054 113.1 Nm  14?  94.81  77.0   13  50  76  95
   2024 04 21 19:40  17 11 57.94    +37 26 14.5   108017 1.0054 112.8 Am  14?  92.21  76.9   14  51  76  95
   2024 04 21 19:50  17 13 12.34    +37 29 39.7   108683 1.0054 112.6 Am  14?  89.65  76.7   15  52  76  95
   2024 04 21 20:00  17 14 24.67    +37 33 01.4   109337 1.0054 112.4 Am  14?  87.13  76.6   17  54  76  95
   2024 04 21 20:10  17 15 34.97    +37 36 19.5   109980 1.0054 112.2 Am  14?  84.66  76.4   18  55  77  95
   2024 04 21 20:20  17 16 43.28    +37 39 33.9   110612 1.0054 111.9  m  14?  82.22  76.3   19  56  77  95
   2024 04 21 20:30  17 17 49.62    +37 42 44.5   111234 1.0054 111.7  m  14?  79.83  76.2   21  57  77  96
   2024 04 21 20:40  17 18 54.02    +37 45 51.1   111845 1.0054 111.5  m  14?  77.47  76.0   22  58  77  96
   2024 04 21 20:50  17 19 56.52    +37 48 53.7   112447 1.0054 111.4  m  14?  75.15  75.9   24  59  77  96
   2024 04 21 21:00  17 20 57.15    +37 51 52.0   113039 1.0054 111.2  m  14?  72.87  75.8   25  61  78  96
   2024 04 21 21:10  17 21 55.95    +37 54 46.0   113621 1.0054 111.0  m  14?  70.63  75.8   27  62  78  96
   2024 04 21 21:20  17 22 52.94    +37 57 35.4   114195 1.0054 110.8  m  14?  68.42  75.7   28  63  78  96
   2024 04 21 21:30  17 23 48.16    +38 00 20.1   114760 1.0054 110.6  m  14?  66.26  75.7   30  64  78  96
   2024 04 21 21:40  17 24 41.65    +38 03 00.0   115317 1.0054 110.5  m  14?  64.13  75.6   31  65  78  96
   2024 04 21 21:50  17 25 33.44    +38 05 34.8   115866 1.0054 110.3  m  14?  62.04  75.6   33  66  79  96
   2024 04 21 22:00  17 26 23.56    +38 08 04.4   116407 1.0054 110.1  m  14?  59.99  75.7   34  67  79  96
   2024 04 21 22:10  17 27 12.05    +38 10 28.5   116941 1.0054 110.0  m  14?  57.98  75.7   36  69  79  96
   2024 04 21 22:20  17 27 58.94    +38 12 47.1   117468 1.0054 109.9  m  14?  56.02  75.8   37  70  79  96
   2024 04 21 22:30  17 28 44.28    +38 14 59.9   117988 1.0054 109.7  m  14?  54.09  75.9   39  71  79  96
   2024 04 21 22:40  17 29 28.11    +38 17 06.8   118502 1.0054 109.6  m  14?  52.21  76.1   41  72  79  96
   2024 04 21 22:50  17 30 10.45    +38 19 07.4   119010 1.0054 109.4  m  14?  50.37  76.3   42  73  79  96
   2024 04 21 23:00  17 30 51.35    +38 21 01.8   119512 1.0054 109.3  m  14?  48.58  76.6   44  74  80  96
   2024 04 21 23:10  17 31 30.86    +38 22 49.7   120009 1.0054 109.2  m  14?  46.83  76.9   45  75  80  96
   2024 04 21 23:20  17 32 09.01    +38 24 30.8   120500 1.0054 109.1  m  14?  45.13  77.3   47  77  80  96
   2024 04 21 23:30  17 32 45.84    +38 26 05.2   120987 1.0054 109.0  m  14?  43.48  77.8   49  78  80  96
   2024 04 21 23:40  17 33 21.40    +38 27 32.5   121469 1.0054 108.9  m  14?  41.89  78.3   50  79  80  96
   2024 04 21 23:50  17 33 55.73    +38 28 52.6   121946 1.0054 108.8  m  14?  40.34  78.9   52  80  80  96
   2024 04 22 00:00  17 34 28.88    +38 30 05.3   122420 1.0054 108.7  m  14?  38.86  79.6   54  81  80  96
   2024 04 22 00:10  17 35 00.90    +38 31 10.6   122890 1.0054 108.6  m  14?  37.43  80.4   56  83  80  96
   2024 04 22 00:20  17 35 31.82    +38 32 08.2   123356 1.0054 108.5  m  14?  36.06  81.3   57  84  80  96
   2024 04 22 00:30  17 36 01.70    +38 32 58.1   123820 1.0054 108.4  m  14?  34.76  82.2   59  85  80  96
   2024 04 22 00:40  17 36 30.58    +38 33 40.1   124280 1.0054 108.3  m  14?  33.53  83.3   61  87  81  96
   2024 04 22 00:50  17 36 58.52    +38 34 14.1   124737 1.0054 108.2  m  14?  32.37  84.5   62  88  81  96
   2024 04 22 01:00  17 37 25.56    +38 34 40.0   125192 1.0054 108.2  m  14?  31.28  85.8   64  90  81  96
   2024 04 22 01:10  17 37 51.75    +38 34 57.6   125644 1.0054 108.1  m  14?  30.26  87.3   66  92  81  96
   2024 04 22 01:20  17 38 17.14    +38 35 07.0   126094 1.0054 108.0  m  14?  29.33  88.8   68  94  81  96
   2024 04 22 01:30  17 38 41.79    +38 35 08.0   126542 1.0054 108.0  m  14?  28.48  90.5   69  96  81  96
   2024 04 22 01:40  17 39 05.73    +38 35 00.6   126989 1.0054 107.9  m  14?  27.72  92.2   71  98  81  96
   2024 04 22 01:50  17 39 29.04    +38 34 44.7   127433 1.0054 107.8  m  14?  27.04  94.1   73 101  81  96
   2024 04 22 02:00  17 39 51.75    +38 34 20.3   127877 1.0055 107.8  m  14?  26.46  96.0   74 104  81  96
   2024 04 22 02:10  17 40 13.91    +38 33 47.4   128319 1.0055 107.7  m  14?  25.97  98.1   76 107  81  96
   2024 04 22 02:20  17 40 35.59    +38 33 05.9   128759 1.0055 107.7  m  14?  25.57 100.1   78 112  81  96
   2024 04 22 02:30  17 40 56.83    +38 32 15.9   129199 1.0055 107.6  m  14?  25.27 102.2   79 117  81  96
   2024 04 22 02:40  17 41 17.67    +38 31 17.4   129638 1.0055 107.6  m  14?  25.06 104.3   81 125  81  96
   2024 04 22 02:50  17 41 38.18    +38 30 10.3   130076 1.0055 107.5  m  14?  24.94 106.4   82 134  81  96
   2024 04 22 03:00  17 41 58.41    +38 28 54.9   130514 1.0055 107.5 Am  14?  24.91 108.4   83 147  81  96
   2024 04 22 03:10  17 42 18.40    +38 27 31.0   130950 1.0055 107.4 Am  14?  24.96 110.4   84 164  81  96
   2024 04 22 03:20  17 42 38.20    +38 25 58.9   131386 1.0055 107.4 At  14?  25.10 112.3   84 184  81  96
   2024 04 22 03:30  17 42 57.86    +38 24 18.5   131822 1.0055 107.4 Am  14?  25.31 114.2   84 202  81  96
   2024 04 22 03:40  17 43 17.44    +38 22 29.9   132257 1.0055 107.3 Nm  14?  25.59 115.9   83 217  81  96
   2024 04 22 03:50  17 43 36.97    +38 20 33.4   132692 1.0055 107.3 Nm  14?  25.95 117.5   81 228  81  96
   2024 04 22 04:00  17 43 56.51    +38 18 28.9   133126 1.0055 107.3 Nm  14?  26.36 118.9   80 237  81  96
   2024 04 22 04:10  17 44 16.10    +38 16 16.6   133560 1.0055 107.2 N   14?  26.83 120.3   78 243  81  96
   2024 04 22 04:20  17 44 35.79    +38 13 56.8   133993 1.0055 107.2 C   14?  27.35 121.5   77 248  82  96
   2024 04 22 04:30  17 44 55.62    +38 11 29.4   134426 1.0055 107.2 C   14?  27.91 122.5   75 252  82  96
   ................
   2024 04 22 19:40  18 49 11.31    +33 30 33.4   151581 1.0055  97.8 Am  14?  59.58  93.9    0  39  89  98
   2024 04 22 19:50  18 49 58.54    +33 29 52.2   151325 1.0055  97.7 Am  14?  58.84  93.7    0  40  89  98
   2024 04 22 20:00  18 50 45.17    +33 29 13.6   151060 1.0055  97.5 Am  14?  58.09  93.5    1  42  89  98
   2024 04 22 20:10  18 51 31.20    +33 28 37.4   150786 1.0055  97.4 Am  14?  57.31  93.3    2  44  90  98
   2024 04 22 20:20  18 52 16.60    +33 28 03.5   150503 1.0055  97.2  m  14?  56.50  93.2    4  45  90  98
   2024 04 22 20:30  18 53 01.35    +33 27 31.6   150210 1.0055  97.1  m  14?  55.68  93.0    5  47  90  98
   2024 04 22 20:40  18 53 45.44    +33 27 01.5   149909 1.0055  97.0  m  14?  54.84  92.9    6  48  90  98
   2024 04 22 20:50  18 54 28.86    +33 26 33.2   149599 1.0055  96.8  m  14?  53.98  92.8    7  50  90  98
   2024 04 22 21:00  18 55 11.58    +33 26 06.3   149281 1.0055  96.7  m  14?  53.10  92.7    9  51  90  98
   2024 04 22 21:10  18 55 53.59    +33 25 40.6   148954 1.0055  96.6  m  14?  52.21  92.6   10  53  90  98
   2024 04 22 21:20  18 56 34.88    +33 25 16.0   148620 1.0055  96.4  m  14?  51.29  92.5   11  54  91  98
   2024 04 22 21:30  18 57 15.44    +33 24 52.3   148278 1.0055  96.3  m  14?  50.37  92.5   13  55  91  98
   2024 04 22 21:40  18 57 55.25    +33 24 29.1   147928 1.0055  96.2  m  14?  49.43  92.5   14  57  91  98
   2024 04 22 21:50  18 58 34.31    +33 24 06.2   147571 1.0055  96.1  m  14?  48.49  92.5   15  58  91  98
   2024 04 22 22:00  18 59 12.60    +33 23 43.5   147208 1.0055  95.9  m  14?  47.53  92.6   17  60  91  98
   2024 04 22 22:10  18 59 50.12    +33 23 20.7   146837 1.0055  95.8  m  14?  46.56  92.7   18  61  91  98
   2024 04 22 22:20  19 00 26.86    +33 22 57.5   146460 1.0055  95.7  m  14?  45.59  92.8   20  62  91  98
   2024 04 22 22:30  19 01 02.82    +33 22 33.7   146077 1.0055  95.6  m  14?  44.61  93.0   21  64  91  99
   2024 04 22 22:40  19 01 37.98    +33 22 09.1   145688 1.0055  95.5  m  14?  43.63  93.2   23  65  91  99
   2024 04 22 22:50  19 02 12.35    +33 21 43.3   145293 1.0055  95.4  m  14?  42.65  93.4   25  66  92  99
   2024 04 22 23:00  19 02 45.93    +33 21 16.2   144893 1.0055  95.3  m  14?  41.67  93.7   26  68  92  99
   2024 04 22 23:10  19 03 18.71    +33 20 47.4   144487 1.0055  95.2  m  14?  40.69  94.0   28  69  92  99
   2024 04 22 23:20  19 03 50.70    +33 20 16.6   144077 1.0055  95.1  m  14?  39.72  94.4   29  70  92  99
   2024 04 22 23:30  19 04 21.89    +33 19 43.7   143662 1.0055  95.0  m  14?  38.75  94.9   31  72  92  99
   2024 04 22 23:40  19 04 52.30    +33 19 08.4   143242 1.0055  94.9  m  14?  37.80  95.4   33  73  92  99
   2024 04 22 23:50  19 05 21.92    +33 18 30.3   142818 1.0055  94.8  m  14?  36.86  96.0   34  74  92  99
   2024 04 23 00:00  19 05 50.77    +33 17 49.2   142390 1.0055  94.7  m  14?  35.94  96.7   36  76  92  99
   2024 04 23 00:10  19 06 18.85    +33 17 04.8   141959 1.0055  94.6  m  14?  35.03  97.4   38  77  92  99
   2024 04 23 00:20  19 06 46.17    +33 16 16.8   141524 1.0055  94.5  m  14?  34.16  98.2   39  78  92  99
   2024 04 23 00:30  19 07 12.74    +33 15 25.0   141085 1.0055  94.5  m  14?  33.30  99.1   41  80  92  99
   2024 04 23 00:40  19 07 38.57    +33 14 29.1   140644 1.0055  94.4  m  14?  32.48 100.1   43  81  92  99
   2024 04 23 00:50  19 08 03.69    +33 13 28.8   140200 1.0055  94.3  m  14?  31.69 101.2   44  83  92  99
   2024 04 23 01:00  19 08 28.10    +33 12 23.8   139753 1.0055  94.2  m  14?  30.95 102.4   46  84  93  99
   2024 04 23 01:10  19 08 51.83    +33 11 13.8   139304 1.0055  94.2  m  14?  30.24 103.7   48  86  93  99
   2024 04 23 01:20  19 09 14.88    +33 09 58.7   138852 1.0055  94.1  m  14?  29.58 105.1   49  87  93  99
   2024 04 23 01:30  19 09 37.29    +33 08 38.0   138399 1.0055  94.0  m  14?  28.98 106.5   51  89  93  99
   2024 04 23 01:40  19 09 59.08    +33 07 11.7   137944 1.0055  94.0  m  14?  28.43 108.1   53  91  93  99
   2024 04 23 01:50  19 10 20.27    +33 05 39.3   137487 1.0055  93.9  m  14?  27.94 109.8   55  93  93  99
   2024 04 23 02:00  19 10 40.88    +33 04 00.6   137029 1.0055  93.9  m  14?  27.52 111.5   56  95  93  99
   2024 04 23 02:10  19 11 00.94    +33 02 15.5   136569 1.0055  93.8  m  14?  27.16 113.3   58  97  93  99
   2024 04 23 02:20  19 11 20.49    +33 00 23.5   136108 1.0055  93.8  m  14?  26.88 115.2   60  99  93  99
   2024 04 23 02:30  19 11 39.54    +32 58 24.6   135647 1.0055  93.7  m  14?  26.67 117.1   61 101  93  99
   2024 04 23 02:40  19 11 58.14    +32 56 18.4   135184 1.0055  93.7  m  14?  26.53 119.1   63 104  93  99
   2024 04 23 02:50  19 12 16.32    +32 54 04.8   134721 1.0055  93.6  m  14?  26.48 121.1   65 106  93  99
   2024 04 23 03:00  19 12 34.10    +32 51 43.5   134258 1.0055  93.6 Am  14?  26.51 123.0   66 109  93  99
   2024 04 23 03:10  19 12 51.53    +32 49 14.4   133793 1.0055  93.5 Am  14?  26.61 124.9   68 113  93  99
   2024 04 23 03:20  19 13 08.64    +32 46 37.1   133329 1.0055  93.5 Am  14?  26.80 126.8   70 116  93  99
   2024 04 23 03:30  19 13 25.47    +32 43 51.6   132864 1.0055  93.5 Am  14?  27.06 128.6   71 121  93  99
   2024 04 23 03:40  19 13 42.06    +32 40 57.6   132399 1.0055  93.4 Nm  14?  27.40 130.4   73 125  93  99
   2024 04 23 03:50  19 13 58.45    +32 37 55.0   131934 1.0055  93.4 Nm  14?  27.82 132.0   74 131  93  99
   2024 04 23 04:00  19 14 14.69    +32 34 43.6   131468 1.0055  93.3 Nm  14?  28.30 133.6   75 138  93  99
   2024 04 23 04:10  19 14 30.80    +32 31 23.3   131003 1.0055  93.3 Cm  14?  28.86 135.0   76 145  93  99
   2024 04 23 04:20  19 14 46.84    +32 27 53.9   130537 1.0055  93.3 Cm  14?  29.48 136.3   77 153  93  99
   2024 04 23 04:30  19 15 02.86    +32 24 15.2   130071 1.0055  93.2 C   14?  30.16 137.6   78 163  93  99
   ................
   2024 04 23 23:50  09 39 52.31    -17 57 53.7    11528 1.0057 115.7  r   9? 7937.2  50.0    0 243  63  99
   2024 04 24 00:00  10 40 00.69    -04 55 46.4    12613 1.0058 128.3  m  10? 6180.2  47.6   18 242  51  99
   2024 04 24 00:10  11 23 56.74    +05 05 47.8    14312 1.0058 135.7  m  10? 4585.2  48.0   31 242  44  99
   2024 04 24 00:20  11 57 26.85    +12 22 05.0    16330 1.0058 139.1  m  11? 3414.3  49.6   41 243  42  99
   2024 04 24 00:30  12 23 58.15    +17 38 06.4    18492 1.0058 140.3  m  11? 2604.9  51.6   47 244  41  99
   2024 04 24 00:40  12 45 36.65    +21 31 31.7    20704 1.0058 140.2  m  11? 2044.7  53.7   52 245  41  99
   2024 04 24 00:50  13 03 42.21    +24 28 11.2    22916 1.0058 139.6  m  11? 1648.4  55.7   55 246  42  99
   2024 04 24 01:00  13 19 07.68    +26 45 03.4    25106 1.0058 138.7  m  12? 1360.2  57.7   58 248  43  99
   2024 04 24 01:10  13 32 29.41    +28 33 19.2    27259 1.0059 137.7  m  12? 1144.9  59.5   59 249  44  99
   2024 04 24 01:20  13 44 13.24    +30 00 29.7    29370 1.0059 136.7  m  12? 980.05  61.2   61 251  45  99
   2024 04 24 01:30  13 54 38.10    +31 11 45.5    31437 1.0059 135.8  m  12? 851.03  62.8   61 253  46  99
   2024 04 24 01:40  14 03 58.19    +32 10 45.4    33461 1.0059 134.9  m  12? 748.12  64.3   62 255  47  99
   2024 04 24 01:50  14 12 24.39    +33 00 07.7    35440 1.0059 134.1  m  12? 664.66  65.8   62 257  48  99
   2024 04 24 02:00  14 20 05.20    +33 41 49.0    37378 1.0059 133.3  e  12? 595.98  67.2   62 259  49  99
   2024 04 24 02:10  14 27 07.39    +34 17 16.7    39276 1.0059 132.6  m  12? 538.76  68.5   62 261  50  99
   2024 04 24 02:20  14 33 36.39    +34 47 37.9    41136 1.0059 131.9  m  12? 490.55  69.8   61 262  50  99
   2024 04 24 02:30  14 39 36.65    +35 13 44.7    42959 1.0059 131.2  m  12? 449.53  71.0   61 264  51  99
   2024 04 24 02:40  14 45 11.82    +35 36 18.1    44747 1.0059 130.6  m  13? 414.33  72.2   60 265  52  99
   2024 04 24 02:50  14 50 24.96    +35 55 50.6    46502 1.0059 130.1 Am  13? 383.90  73.4   60 267  52  99
   2024 04 24 03:00  14 55 18.65    +36 12 48.9    48226 1.0059 129.6 Am  13? 357.40  74.5   59 268  53  99
   2024 04 24 03:10  14 59 55.07    +36 27 34.4    49920 1.0059 129.1 Am  13? 334.19  75.6   58 270  53  99
   2024 04 24 03:20  15 04 16.08    +36 40 24.9    51586 1.0059 128.6 Am  13? 313.75  76.7   57 271  54  99
   2024 04 24 03:30  15 08 23.30    +36 51 35.2    53224 1.0060 128.2 Am  13? 295.67  77.7   56 272  54  99
   2024 04 24 03:40  15 12 18.12    +37 01 17.7    54836 1.0060 127.8 Nm  13? 279.60  78.7   55 274  55  99
   2024 04 24 03:50  15 16 01.74    +37 09 42.8    56424 1.0060 127.4 Nm  13? 265.26  79.7   54 275  55  99
   2024 04 24 04:00  15 19 35.24    +37 16 59.5    57988 1.0060 127.0 Nm  13? 252.42  80.6   53 276  55  99
   2024 04 24 04:10  15 22 59.55    +37 23 15.5    59529 1.0060 126.6 Cm  13? 240.89  81.6   52 277  56  99
   2024 04 24 04:20  15 26 15.50    +37 28 37.3    61049 1.0060 126.3 Cm  13? 230.50  82.5   50 278  56  99
   2024 04 24 04:30  15 29 23.82    +37 33 10.6    62547 1.0060 126.0 Cm  13? 221.11  83.3   49 279  56  99
   ................
   2024 04 24 18:40  17 49 43.84    +36 29 35.6   136980 1.0062 108.3 C   14?  70.07  84.8    2  38  70  99
   2024 04 24 18:50  17 50 41.18    +36 30 38.0   137298 1.0062 108.1 C   14?  68.77  84.5    3  40  70  99
   2024 04 24 19:00  17 51 37.42    +36 31 42.7   137606 1.0062 108.0 C   14?  67.45  84.2    5  41  70  99
   2024 04 24 19:10  17 52 32.57    +36 32 49.6   137904 1.0062 107.8 N   14?  66.13  83.9    6  43  71  99
   2024 04 24 19:20  17 53 26.60    +36 33 58.3   138193 1.0062 107.6 Nm  14?  64.80  83.7    7  44  71  99
   2024 04 24 19:30  17 54 19.52    +36 35 08.8   138471 1.0062 107.5 Nm  14?  63.46  83.4    8  46  71  99
   2024 04 24 19:40  17 55 11.31    +36 36 20.9   138741 1.0062 107.3 Nm  14?  62.11  83.1    9  47  71  99
   2024 04 24 19:50  17 56 01.97    +36 37 34.2   139001 1.0062 107.2 Am  14?  60.76  82.8   11  48  71  99
   2024 04 24 20:00  17 56 51.50    +36 38 48.7   139252 1.0062 107.0 Am  14?  59.40  82.6   12  50  71  99
   2024 04 24 20:10  17 57 39.89    +36 40 04.0   139495 1.0062 106.9 Am  14?  58.03  82.3   13  51  71  99
   2024 04 24 20:20  17 58 27.14    +36 41 20.0   139729 1.0062 106.7 Am  14?  56.66  82.1   14  53  71  99
   2024 04 24 20:30  17 59 13.25    +36 42 36.4   139955 1.0062 106.6  m  14?  55.29  81.9   16  54  72  99
   2024 04 24 20:40  17 59 58.21    +36 43 53.0   140174 1.0062 106.5  m  14?  53.91  81.7   17  55  72  99
   2024 04 24 20:50  18 00 42.03    +36 45 09.6   140385 1.0062 106.3  m  14?  52.54  81.5   19  56  72  99
   2024 04 24 21:00  18 01 24.70    +36 46 26.0   140588 1.0062 106.2  m  14?  51.16  81.3   20  58  72  99
   2024 04 24 21:10  18 02 06.24    +36 47 41.8   140785 1.0062 106.1  m  14?  49.78  81.1   21  59  72  99
   2024 04 24 21:20  18 02 46.64    +36 48 56.8   140975 1.0062 105.9  m  14?  48.41  81.0   23  60  72  99
   2024 04 24 21:30  18 03 25.90    +36 50 10.9   141158 1.0062 105.8  m  14?  47.04  80.8   24  61  72  99
   2024 04 24 21:40  18 04 04.04    +36 51 23.6   141335 1.0062 105.7  m  14?  45.67  80.8   26  63  72  99
   2024 04 24 21:50  18 04 41.06    +36 52 34.9   141507 1.0062 105.6  m  14?  44.32  80.7   27  64  72  99
   2024 04 24 22:00  18 05 16.97    +36 53 44.4   141672 1.0062 105.5  m  14?  42.97  80.7   29  65  73  99
   2024 04 24 22:10  18 05 51.78    +36 54 51.9   141833 1.0062 105.4  m  14?  41.62  80.7   31  66  73  98
   2024 04 24 22:20  18 06 25.50    +36 55 57.1   141988 1.0062 105.3  m  14?  40.30  80.7   32  68  73  98
   2024 04 24 22:30  18 06 58.15    +36 56 59.8   142138 1.0062 105.2  m  14?  38.98  80.8   34  69  73  98
   2024 04 24 22:40  18 07 29.73    +36 57 59.7   142284 1.0062 105.1  m  14?  37.68  80.9   35  70  73  98
   2024 04 24 22:50  18 08 00.26    +36 58 56.6   142426 1.0062 105.0  m  14?  36.39  81.1   37  71  73  98
   2024 04 24 23:00  18 08 29.77    +36 59 50.1   142564 1.0062 104.9  m  14?  35.12  81.3   39  72  73  98
   2024 04 24 23:10  18 08 58.26    +37 00 40.2   142698 1.0062 104.8  m  14?  33.88  81.7   40  74  73  98
   2024 04 24 23:20  18 09 25.76    +37 01 26.4   142829 1.0062 104.7  m  14?  32.65  82.0   42  75  73  98
   2024 04 24 23:30  18 09 52.30    +37 02 08.7   142956 1.0062 104.6  m  14?  31.45  82.5   44  76  73  98
   2024 04 24 23:40  18 10 17.88    +37 02 46.7   143081 1.0062 104.6  m  14?  30.28  83.0   45  77  73  98
   2024 04 24 23:50  18 10 42.54    +37 03 20.2   143203 1.0062 104.5  m  14?  29.14  83.7   47  79  73  98
   2024 04 25 00:00  18 11 06.30    +37 03 48.9   143323 1.0062 104.4  m  14?  28.04  84.4   49  80  73  98
   2024 04 25 00:10  18 11 29.19    +37 04 12.7   143440 1.0062 104.4  m  14?  26.97  85.3   50  81  74  98
   2024 04 25 00:20  18 11 51.23    +37 04 31.4   143556 1.0062 104.3  m  14?  25.94  86.3   52  83  74  98
   2024 04 25 00:30  18 12 12.46    +37 04 44.6   143669 1.0062 104.2  m  14?  24.95  87.4   54  84  74  98
   2024 04 25 00:40  18 12 32.91    +37 04 52.3   143782 1.0062 104.2  m  14?  24.01  88.7   56  86  74  98
   2024 04 25 00:50  18 12 52.60    +37 04 54.2   143893 1.0062 104.1  m  14?  23.13  90.1   57  87  74  98
   2024 04 25 01:00  18 13 11.57    +37 04 50.2   144003 1.0062 104.1  m  14?  22.30  91.7   59  89  74  98
   2024 04 25 01:10  18 13 29.86    +37 04 40.0   144112 1.0062 104.0  m  14?  21.53  93.4   61  91  74  98
   2024 04 25 01:20  18 13 47.50    +37 04 23.5   144221 1.0062 104.0  m  14?  20.83  95.3   63  92  74  98
   2024 04 25 01:30  18 14 04.53    +37 04 00.5   144329 1.0062 103.9  m  14?  20.20  97.3   64  94  74  98
   2024 04 25 01:40  18 14 20.98    +37 03 30.9   144437 1.0062 103.9  m  14?  19.64  99.5   66  96  74  98
   2024 04 25 01:50  18 14 36.89    +37 02 54.6   144544 1.0062 103.8  m  14?  19.16 101.8   68  99  74  98
   2024 04 25 02:00  18 14 52.31    +37 02 11.4   144652 1.0062 103.8  m  14?  18.77 104.2   70 101  74  98
   2024 04 25 02:10  18 15 07.27    +37 01 21.2   144760 1.0062 103.8  m  14?  18.45 106.7   71 104  74  98
   2024 04 25 02:20  18 15 21.81    +37 00 23.9   144868 1.0062 103.7  m  14?  18.23 109.3   73 108  74  98
   2024 04 25 02:30  18 15 35.97    +36 59 19.4   144976 1.0062 103.7  m  14?  18.09 111.9   75 111  74  98
   2024 04 25 02:40  18 15 49.80    +36 58 07.6   145085 1.0062 103.7  m  14?  18.04 114.5   76 116  74  98
   2024 04 25 02:50  18 16 03.33    +36 56 48.5   145195 1.0062 103.7 Am  14?  18.07 117.0   78 122  74  98
   2024 04 25 03:00  18 16 16.62    +36 55 22.1   145305 1.0062 103.6 Am  14?  18.19 119.5   79 129  74  98
   2024 04 25 03:10  18 16 29.69    +36 53 48.2   145416 1.0062 103.6 Am  14?  18.38 121.8   80 138  74  98
   2024 04 25 03:20  18 16 42.61    +36 52 06.9   145528 1.0062 103.6 Am  14?  18.65 124.1   81 149  74  98
   2024 04 25 03:30  18 16 55.40    +36 50 18.1   145641 1.0062 103.6 Nm  14?  18.99 126.1   82 163  74  98
   2024 04 25 03:40  18 17 08.11    +36 48 21.9   145754 1.0062 103.6 Ne  14?  19.39 128.0   82 179  74  98
   2024 04 25 03:50  18 17 20.79    +36 46 18.3   145869 1.0062 103.5 Nt  14?  19.85 129.7   82 194  74  98
   2024 04 25 04:00  18 17 33.47    +36 44 07.2   145984 1.0062 103.5 Nm  14?  20.36 131.2   81 208  74  98
   2024 04 25 04:10  18 17 46.21    +36 41 48.8   146101 1.0062 103.5 Cm  14?  20.92 132.5   80 219  74  98
   2024 04 25 04:20  18 17 59.04    +36 39 23.1   146218 1.0062 103.5 Cm  14?  21.53 133.7   79 228  74  98
   2024 04 25 04:30  18 18 12.00    +36 36 50.2   146337 1.0062 103.5 Cm  14?  22.17 134.7   78 235  74  98
   ................
   2024 04 25 20:30  19 24 03.71    +30 32 01.2   134611 1.0063  93.5  m  14?  70.78 100.6    0  45  76  96
   2024 04 25 20:40  19 24 57.32    +30 29 49.1   133998 1.0063  93.4  m  14?  70.27 100.6    1  47  76  96
   2024 04 25 20:50  19 25 50.52    +30 27 37.6   133375 1.0063  93.2  m  14?  69.75 100.7    2  48  76  96
   2024 04 25 21:00  19 26 43.28    +30 25 26.4   132742 1.0063  93.0  m  14?  69.21 100.7    4  50  76  96
   2024 04 25 21:10  19 27 35.59    +30 23 15.4   132098 1.0063  92.9  m  14?  68.65 100.8    5  51  77  96
   2024 04 25 21:20  19 28 27.44    +30 21 04.2   131445 1.0063  92.7  m  14?  68.08 100.9    6  53  77  96
   2024 04 25 21:30  19 29 18.80    +30 18 52.7   130782 1.0063  92.5  m  14?  67.50 101.1    7  54  77  96
   2024 04 25 21:40  19 30 09.67    +30 16 40.6   130109 1.0063  92.4  m  14?  66.90 101.2    9  56  77  96
   2024 04 25 21:50  19 31 00.04    +30 14 27.7   129427 1.0063  92.2  m  14?  66.29 101.4   10  57  77  96
   2024 04 25 22:00  19 31 49.89    +30 12 13.5   128736 1.0063  92.1  m  14?  65.68 101.6   12  59  77  96
   2024 04 25 22:10  19 32 39.21    +30 09 58.0   128036 1.0063  91.9  m  14?  65.06 101.9   13  60  77  96
   2024 04 25 22:20  19 33 27.99    +30 07 40.7   127328 1.0063  91.8  m  14?  64.44 102.2   14  62  77  96
   2024 04 25 22:30  19 34 16.23    +30 05 21.4   126610 1.0063  91.6  m  14?  63.81 102.5   16  63  77  96
   2024 04 25 22:40  19 35 03.91    +30 02 59.7   125885 1.0063  91.5  m  14?  63.18 102.9   17  65  77  95
   2024 04 25 22:50  19 35 51.03    +30 00 35.4   125151 1.0063  91.3  m  14?  62.56 103.3   19  66  77  95
   2024 04 25 23:00  19 36 37.59    +29 58 08.2   124409 1.0063  91.2  m  14?  61.94 103.7   20  67  78  95
   2024 04 25 23:10  19 37 23.58    +29 55 37.6   123659 1.0063  91.0  m  14?  61.33 104.2   22  69  78  95
   2024 04 25 23:20  19 38 08.99    +29 53 03.4   122902 1.0063  90.9  m  14?  60.74 104.7   23  70  78  95
   2024 04 25 23:30  19 38 53.84    +29 50 25.2   122138 1.0063  90.7  m  14?  60.15 105.3   25  72  78  95
   2024 04 25 23:40  19 39 38.11    +29 47 42.6   121366 1.0063  90.6  m  14?  59.58 105.9   27  73  78  95
   2024 04 25 23:50  19 40 21.81    +29 44 55.3   120588 1.0063  90.5  m  14?  59.04 106.5   28  74  78  95
   2024 04 26 00:00  19 41 04.95    +29 42 02.9   119802 1.0063  90.3  m  14?  58.52 107.2   30  76  78  95
   2024 04 26 00:10  19 41 47.52    +29 39 05.1   119010 1.0063  90.2  m  14?  58.03 108.0   31  77  78  95
   2024 04 26 00:20  19 42 29.55    +29 36 01.3   118211 1.0063  90.1  m  14?  57.56 108.7   33  79  78  95
   2024 04 26 00:30  19 43 11.02    +29 32 51.3   117407 1.0063  90.0  m  14?  57.14 109.6   35  80  78  95
   2024 04 26 00:40  19 43 51.97    +29 29 34.6   116596 1.0062  89.8  m  14?  56.76 110.5   36  82  78  95
   2024 04 26 00:50  19 44 32.38    +29 26 10.8   115779 1.0062  89.7  m  14?  56.42 111.4   38  83  78  95
   2024 04 26 01:00  19 45 12.29    +29 22 39.5   114956 1.0062  89.6  m  14?  56.13 112.4   39  85  78  95
   2024 04 26 01:10  19 45 51.71    +29 19 00.2   114128 1.0062  89.5  m  13?  55.89 113.4   41  86  78  95
   2024 04 26 01:20  19 46 30.65    +29 15 12.6   113294 1.0062  89.4  m  13?  55.72 114.4   43  88  78  95
   2024 04 26 01:30  19 47 09.13    +29 11 16.0   112455 1.0062  89.2  m  13?  55.60 115.5   44  90  79  95
   2024 04 26 01:40  19 47 47.18    +29 07 10.2   111610 1.0062  89.1  m  13?  55.56 116.6   46  91  79  95
   2024 04 26 01:50  19 48 24.82    +29 02 54.6   110761 1.0062  89.0  m  13?  55.58 117.8   48  93  79  95
   2024 04 26 02:00  19 49 02.07    +28 58 28.8   109906 1.0062  88.9  m  13?  55.69 118.9   49  95  79  95
   2024 04 26 02:10  19 49 38.96    +28 53 52.3   109047 1.0062  88.8  m  13?  55.87 120.1   51  97  79  95
   2024 04 26 02:20  19 50 15.53    +28 49 04.5   108183 1.0062  88.7  m  13?  56.14 121.3   53  99  79  95
   2024 04 26 02:30  19 50 51.80    +28 44 05.1   107313 1.0062  88.6  m  13?  56.50 122.5   54 101  79  95
   2024 04 26 02:40  19 51 27.81    +28 38 53.4   106440 1.0062  88.5  m  13?  56.95 123.8   56 104  79  95
   2024 04 26 02:50  19 52 03.59    +28 33 29.0   105561 1.0062  88.4 Am  13?  57.49 125.0   57 106  79  95
   2024 04 26 03:00  19 52 39.19    +28 27 51.4   104678 1.0062  88.3 Am  13?  58.14 126.1   59 109  79  95
   2024 04 26 03:10  19 53 14.65    +28 22 00.0   103791 1.0062  88.2 Am  13?  58.89 127.3   61 112  79  95
   2024 04 26 03:20  19 53 50.00    +28 15 54.3   102899 1.0062  88.1 Am  13?  59.74 128.5   62 115  79  95
   2024 04 26 03:30  19 54 25.30    +28 09 33.7   102002 1.0062  88.0 Nm  13?  60.70 129.6   63 118  79  95
   2024 04 26 03:40  19 55 00.59    +28 02 57.7   101101 1.0062  87.9 Nm  13?  61.77 130.7   65 122  79  95
   2024 04 26 03:50  19 55 35.93    +27 56 05.6   100195 1.0062  87.8 Nm  13?  62.96 131.7   66 125  79  95
   2024 04 26 04:00  19 56 11.36    +27 48 57.0    99285 1.0062  87.7 Nm  13?  64.25 132.7   67 130  79  95
   2024 04 26 04:10  19 56 46.94    +27 41 31.2    98369 1.0062  87.6 Cm  13?  65.67 133.6   69 135  79  95
   2024 04 26 04:20  19 57 22.74    +27 33 47.6    97449 1.0062  87.6 Cm  13?  67.20 134.5   70 140  79  95
   2024 04 26 04:30  19 57 58.80    +27 25 45.5    96524 1.0062  87.5 Cm  13?  68.86 135.4   70 145  79  95
   ................
   2024 04 26 18:40  15 41 07.59    +34 13 06.0    53470 1.0067 128.0 C   13? 319.43  63.6   19  61  61  91
   2024 04 26 18:50  15 44 52.54    +34 35 42.0    54957 1.0067 127.3 C   13? 300.21  64.2   21  61  61  91
   2024 04 26 19:00  15 48 26.03    +34 56 33.9    56413 1.0067 126.7 C   13? 282.74  64.7   22  62  62  91
   2024 04 26 19:10  15 51 48.93    +35 15 53.1    57838 1.0067 126.1 N   13? 266.79  65.1   23  63  62  91
   2024 04 26 19:20  15 55 01.98    +35 33 49.3    59234 1.0067 125.5 N   13? 252.17  65.6   25  63  62  91
   2024 04 26 19:30  15 58 05.86    +35 50 30.7    60601 1.0067 124.9 N   13? 238.72  66.0   26  64  62  91
   2024 04 26 19:40  16 01 01.19    +36 06 04.6    61942 1.0067 124.4 N   13? 226.30  66.4   27  65  63  91
   2024 04 26 19:50  16 03 48.50    +36 20 37.1    63257 1.0067 123.9 A   13? 214.79  66.7   28  66  63  91
   2024 04 26 20:00  16 06 28.31    +36 34 13.7    64547 1.0067 123.5 A   13? 204.10  67.1   30  66  63  91
   2024 04 26 20:10  16 09 01.06    +36 46 59.0    65813 1.0067 123.0 A   13? 194.14  67.4   31  67  63  91
   2024 04 26 20:20  16 11 27.16    +36 58 57.1    67056 1.0067 122.6 A   13? 184.83  67.7   33  68  63  91
   2024 04 26 20:30  16 13 46.99    +37 10 11.6    68278 1.0067 122.2     13? 176.12  68.1   34  69  64  91
   2024 04 26 20:40  16 16 00.91    +37 20 45.7    69478 1.0067 121.8     13? 167.95  68.4   35  70  64  91
   2024 04 26 20:50  16 18 09.22    +37 30 42.2    70659 1.0067 121.4     13? 160.26  68.7   37  70  64  91
   2024 04 26 21:00  16 20 12.22    +37 40 03.5    71820 1.0067 121.0     13? 153.03  69.0   38  71  64  91
   2024 04 26 21:10  16 22 10.20    +37 48 51.9    72962 1.0067 120.7     13? 146.21  69.3   40  72  64  91
   2024 04 26 21:20  16 24 03.41    +37 57 09.3    74087 1.0067 120.4     13? 139.76  69.7   41  73  64  91
   2024 04 26 21:30  16 25 52.08    +38 04 57.3    75195 1.0067 120.0     13? 133.67  70.0   43  74  65  91
   2024 04 26 21:40  16 27 36.45    +38 12 17.7    76286 1.0067 119.7  m  13? 127.90  70.3   44  75  65  91
   2024 04 26 21:50  16 29 16.72    +38 19 11.7    77361 1.0067 119.4  m  13? 122.44  70.7   46  76  65  91
   2024 04 26 22:00  16 30 53.10    +38 25 40.7    78421 1.0067 119.2  m  13? 117.26  71.1   47  77  65  91
   2024 04 26 22:10  16 32 25.78    +38 31 45.7    79467 1.0067 118.9  m  13? 112.35  71.5   49  78  65  91
   2024 04 26 22:20  16 33 54.93    +38 37 27.7    80499 1.0067 118.7  m  13? 107.68  72.0   50  79  65  91
   2024 04 26 22:30  16 35 20.73    +38 42 47.6    81517 1.0068 118.4  m  14? 103.26  72.4   52  80  65  91
   2024 04 26 22:40  16 36 43.33    +38 47 46.4    82523 1.0068 118.2  m  14?  99.06  72.9   53  81  65  91
   2024 04 26 22:50  16 38 02.90    +38 52 24.6    83516 1.0068 118.0  m  14?  95.07  73.5   55  82  66  91
   2024 04 26 23:00  16 39 19.58    +38 56 43.1    84498 1.0068 117.7  m  14?  91.29  74.0   57  83  66  90
   2024 04 26 23:10  16 40 33.52    +39 00 42.5    85468 1.0068 117.5  m  14?  87.70  74.6   58  84  66  90
   2024 04 26 23:20  16 41 44.85    +39 04 23.2    86428 1.0068 117.4  m  14?  84.30  75.3   60  85  66  90
   2024 04 26 23:30  16 42 53.71    +39 07 45.9    87377 1.0068 117.2  m  14?  81.09  76.0   61  86  66  90
   2024 04 26 23:40  16 44 00.23    +39 10 51.1    88316 1.0068 117.0  m  14?  78.05  76.8   63  88  66  90
   2024 04 26 23:50  16 45 04.52    +39 13 39.2    89246 1.0068 116.8  m  14?  75.18  77.6   65  89  66  90
   2024 04 27 00:00  16 46 06.71    +39 16 10.6    90167 1.0068 116.7  m  14?  72.47  78.4   66  91  66  90
   2024 04 27 00:10  16 47 06.91    +39 18 25.8    91079 1.0068 116.5  m  14?  69.93  79.3   68  92  66  90
   2024 04 27 00:20  16 48 05.24    +39 20 25.2    91982 1.0068 116.4  m  14?  67.55  80.3   70  94  66  90
   2024 04 27 00:30  16 49 01.80    +39 22 09.1    92878 1.0068 116.2  m  14?  65.32  81.4   71  96  66  90
   2024 04 27 00:40  16 49 56.71    +39 23 37.8    93767 1.0068 116.1  m  14?  63.25  82.5   73  98  66  90
   2024 04 27 00:50  16 50 50.06    +39 24 51.8    94648 1.0068 116.0  m  14?  61.32  83.6   74 101  66  90
   2024 04 27 01:00  16 51 41.95    +39 25 51.3    95522 1.0068 115.8  m  14?  59.55  84.8   76 104  66  90
   2024 04 27 01:10  16 52 32.48    +39 26 36.8    96389 1.0068 115.7  m  14?  57.91  86.0   78 107  67  90
   2024 04 27 01:20  16 53 21.75    +39 27 08.4    97250 1.0068 115.6  m  14?  56.42  87.3   79 111  67  90
   2024 04 27 01:30  16 54 09.84    +39 27 26.6    98105 1.0068 115.5  m  14?  55.07  88.6   81 117  67  90
   2024 04 27 01:40  16 54 56.85    +39 27 31.6    98954 1.0068 115.4  m  14?  53.85  90.0   82 125  67  90
   2024 04 27 01:50  16 55 42.86    +39 27 23.7    99798 1.0068 115.3  m  14?  52.76  91.4   83 136  67  90
   2024 04 27 02:00  16 56 27.96    +39 27 03.4   100636 1.0068 115.2  m  14?  51.80  92.8   84 152  67  90
   2024 04 27 02:10  16 57 12.22    +39 26 30.8   101469 1.0068 115.1  m  14?  50.97  94.2   85 172  67  90
   2024 04 27 02:20  16 57 55.73    +39 25 46.2   102297 1.0068 115.0  t  14?  50.26  95.6   85 195  67  90
   2024 04 27 02:30  16 58 38.56    +39 24 50.1   103120 1.0068 115.0  m  14?  49.66  97.0   84 214  67  90
   2024 04 27 02:40  16 59 20.79    +39 23 42.7   103938 1.0068 114.9  m  14?  49.17  98.4   83 227  67  90
   2024 04 27 02:50  17 00 02.49    +39 22 24.4   104752 1.0068 114.8 Am  14?  48.79  99.7   82 237  67  90
   2024 04 27 03:00  17 00 43.73    +39 20 55.3   105561 1.0068 114.7 Am  14?  48.52 101.0   80 244  67  90
   2024 04 27 03:10  17 01 24.57    +39 19 16.0   106367 1.0068 114.7 Am  14?  48.33 102.3   79 249  67  90
   2024 04 27 03:20  17 02 05.08    +39 17 26.7   107168 1.0068 114.6 Am  14?  48.23 103.5   77 253  67  90
   2024 04 27 03:30  17 02 45.33    +39 15 27.7   107965 1.0068 114.5 Nm  14?  48.22 104.7   75 256  67  90
   2024 04 27 03:40  17 03 25.36    +39 13 19.4   108758 1.0068 114.5 Nm  14?  48.29 105.8   74 259  67  90
   2024 04 27 03:50  17 04 05.24    +39 11 02.1   109547 1.0068 114.4 Nm  14?  48.42 106.8   72 261  67  90
   2024 04 27 04:00  17 04 45.03    +39 08 36.1   110332 1.0068 114.3 Nm  14?  48.63 107.8   70 264  67  90
   2024 04 27 04:10  17 05 24.77    +39 06 01.8   111113 1.0068 114.3 Cm  14?  48.89 108.7   69 265  67  90
   2024 04 27 04:20  17 06 04.52    +39 03 19.5   111891 1.0068 114.2 Cm  14?  49.21 109.5   67 267  67  90
   ................
   2024 04 27 18:50  18 22 35.46    +35 06 35.7   151735 1.0070 104.6 C   14?  59.68  89.8    0  37  64  85
   2024 04 27 19:00  18 23 23.74    +35 06 37.0   151740 1.0070 104.5 C   14?  58.78  89.6    1  39  65  85
   2024 04 27 19:10  18 24 11.27    +35 06 41.3   151735 1.0070 104.3 N   14?  57.86  89.3    2  40  65  85
   2024 04 27 19:20  18 24 58.04    +35 06 48.2   151721 1.0070 104.2 N   14?  56.92  89.0    3  42  65  85
   2024 04 27 19:30  18 25 44.04    +35 06 57.8   151698 1.0070 104.0 N   14?  55.97  88.7    4  44  65  85
   2024 04 27 19:40  18 26 29.24    +35 07 09.6   151666 1.0070 103.9 N   14?  54.99  88.5    6  45  65  85
   2024 04 27 19:50  18 27 13.65    +35 07 23.7   151625 1.0070 103.8 A   14?  54.00  88.2    7  46  65  85
   2024 04 27 20:00  18 27 57.23    +35 07 39.7   151576 1.0070 103.6 A   14?  52.99  88.0    8  48  65  85
   2024 04 27 20:10  18 28 39.98    +35 07 57.4   151518 1.0070 103.5 A   14?  51.96  87.8    9  49  65  85
   2024 04 27 20:20  18 29 21.89    +35 08 16.8   151452 1.0070 103.4 A   14?  50.92  87.6   11  51  65  85
   2024 04 27 20:30  18 30 02.94    +35 08 37.4   151379 1.0070 103.3     14?  49.87  87.4   12  52  65  84
   2024 04 27 20:40  18 30 43.13    +35 08 59.2   151298 1.0070 103.2     14?  48.81  87.2   13  54  65  84
   2024 04 27 20:50  18 31 22.45    +35 09 21.9   151209 1.0070 103.0     14?  47.73  87.1   15  55  65  84
   2024 04 27 21:00  18 32 00.88    +35 09 45.2   151114 1.0070 102.9     14?  46.65  86.9   16  56  65  84
   2024 04 27 21:10  18 32 38.43    +35 10 09.0   151011 1.0070 102.8     14?  45.55  86.8   18  58  65  84
   2024 04 27 21:20  18 33 15.08    +35 10 33.0   150903 1.0070 102.7     14?  44.45  86.7   19  59  65  84
   2024 04 27 21:30  18 33 50.84    +35 10 56.9   150788 1.0070 102.6     14?  43.35  86.7   20  60  65  84
   2024 04 27 21:40  18 34 25.69    +35 11 20.6   150666 1.0070 102.5     14?  42.24  86.7   22  62  65  84
   2024 04 27 21:50  18 34 59.64    +35 11 43.7   150540 1.0070 102.4     14?  41.13  86.7   23  63  65  84
   2024 04 27 22:00  18 35 32.69    +35 12 06.0   150407 1.0070 102.3     14?  40.01  86.7   25  64  65  84
   2024 04 27 22:10  18 36 04.83    +35 12 27.3   150270 1.0070 102.2     14?  38.90  86.8   27  65  65  84
   2024 04 27 22:20  18 36 36.08    +35 12 47.3   150127 1.0070 102.1     14?  37.79  86.9   28  67  65  84
   2024 04 27 22:30  18 37 06.42    +35 13 05.8   149980 1.0070 102.0     14?  36.68  87.1   30  68  65  84
   2024 04 27 22:40  18 37 35.88    +35 13 22.5   149828 1.0070 101.9     14?  35.58  87.3   31  69  65  84
   2024 04 27 22:50  18 38 04.44    +35 13 37.1   149673 1.0070 101.8  m  14?  34.49  87.6   33  71  65  84
   2024 04 27 23:00  18 38 32.13    +35 13 49.4   149513 1.0070 101.7  m  14?  33.41  87.9   35  72  65  84
   2024 04 27 23:10  18 38 58.95    +35 13 59.1   149350 1.0070 101.7  m  14?  32.34  88.3   36  73  65  84
   2024 04 27 23:20  18 39 24.91    +35 14 06.0   149183 1.0070 101.6  m  14?  31.29  88.8   38  75  65  84
   2024 04 27 23:30  18 39 50.03    +35 14 09.8   149013 1.0070 101.5  m  14?  30.26  89.4   40  76  66  84
   2024 04 27 23:40  18 40 14.31    +35 14 10.3   148841 1.0070 101.4  m  14?  29.24  90.1   41  77  66  84
   2024 04 27 23:50  18 40 37.77    +35 14 07.1   148665 1.0070 101.4  m  14?  28.26  90.8   43  78  66  84
   2024 04 28 00:00  18 41 00.43    +35 14 00.1   148488 1.0070 101.3  m  14?  27.30  91.7   45  80  66  83
   

James Webb Space Telescope (JPL-ID: -170)

   Date (UTC) HH:MM   RA              Dec         delta   r     elong SM  mag  '/hr    PA   alt  az moo ill
   ---- -- -- -----  -------------   -----------  ------ ------ ----- --  --- ------ ------ --- --- --- ---
   2024 04 14 00:00  15 13 39.68    -07 12 11.1   0.0090 1.0111 154.1  m  15?   2.50 160.8   35 154 133  31
   2024 04 14 00:10  15 13 40.21    -07 12 34.6   0.0090 1.0111 154.1  m  15?   2.47 161.7   36 157 133  31
   2024 04 14 00:20  15 13 40.71    -07 12 57.9   0.0090 1.0111 154.1  m  15?   2.44 162.4   36 160 133  31
   2024 04 14 00:30  15 13 41.19    -07 13 21.1   0.0090 1.0111 154.1  m  15?   2.41 163.0   37 163 133  31
   2024 04 14 00:40  15 13 41.65    -07 13 44.1   0.0090 1.0111 154.1     15?   2.39 163.5   37 166 132  31
   2024 04 14 00:50  15 13 42.10    -07 14 06.9   0.0090 1.0111 154.2     15?   2.37 163.9   38 170 132  32
   2024 04 14 01:00  15 13 42.53    -07 14 29.6   0.0090 1.0111 154.2     15?   2.35 164.2   38 173 132  32
   2024 04 14 01:10  15 13 42.95    -07 14 52.1   0.0090 1.0111 154.2     15?   2.33 164.3   38 176 132  32
   2024 04 14 01:20  15 13 43.37    -07 15 14.4   0.0090 1.0111 154.2     15?   2.31 164.3   38 179 132  32
   2024 04 14 01:30  15 13 43.78    -07 15 36.6   0.0090 1.0111 154.2  t  15?   2.29 164.1   38 182 132  32
   2024 04 14 01:40  15 13 44.20    -07 15 58.5   0.0090 1.0111 154.2     15?   2.28 163.8   38 185 132  32
   2024 04 14 01:50  15 13 44.63    -07 16 20.3   0.0090 1.0111 154.2     15?   2.26 163.4   38 189 132  32
   2024 04 14 02:00  15 13 45.07    -07 16 41.9   0.0090 1.0111 154.2     15?   2.25 162.8   37 192 132  32
   2024 04 14 02:10  15 13 45.52    -07 17 03.4   0.0090 1.0111 154.2     15?   2.24 162.0   37 195 132  32
   2024 04 14 02:20  15 13 45.99    -07 17 24.7   0.0090 1.0111 154.2     15?   2.24 161.1   36 198 131  32
   2024 04 14 02:30  15 13 46.49    -07 17 45.8   0.0090 1.0111 154.2     15?   2.23 160.1   36 201 131  32
   2024 04 14 02:40  15 13 47.01    -07 18 06.7   0.0090 1.0111 154.2     15?   2.23 158.9   35 204 131  33
   2024 04 14 02:50  15 13 47.56    -07 18 27.5   0.0090 1.0111 154.2     15?   2.24 157.6   34 207 131  33
   2024 04 14 03:00  15 13 48.15    -07 18 48.1   0.0090 1.0111 154.2     15?   2.24 156.2   34 210 131  33
   2024 04 14 03:10  15 13 48.77    -07 19 08.5   0.0090 1.0111 154.2     15?   2.25 154.6   33 212 131  33
   2024 04 14 03:20  15 13 49.44    -07 19 28.8   0.0090 1.0111 154.2 A   15?   2.26 153.0   32 215 131  33
   2024 04 14 03:30  15 13 50.15    -07 19 49.0   0.0090 1.0111 154.2 A   15?   2.28 151.3   30 218 131  33
   2024 04 14 03:40  15 13 50.91    -07 20 08.9   0.0090 1.0111 154.2 A   15?   2.31 149.5   29 220 131  33
   2024 04 14 03:50  15 13 51.72    -07 20 28.8   0.0090 1.0111 154.2 N   15?   2.34 147.6   28 223 131  33
   2024 04 14 04:00  15 13 52.58    -07 20 48.5   0.0090 1.0111 154.2 N   15?   2.37 145.8   27 225 130  33
   2024 04 14 04:10  15 13 53.50    -07 21 08.0   0.0090 1.0111 154.2 N   15?   2.41 143.8   26 227 130  33
   2024 04 14 04:20  15 13 54.49    -07 21 27.4   0.0090 1.0111 154.2 N   15?   2.45 141.9   24 230 130  33
   2024 04 14 04:30  15 13 55.53    -07 21 46.7   0.0090 1.0111 154.2 C   15?   2.51 140.0   23 232 130  34
   2024 04 14 04:40  15 13 56.64    -07 22 05.9   0.0090 1.0111 154.3 C   15?   2.56 138.1   21 234 130  34
   2024 04 14 04:50  15 13 57.83    -07 22 25.0   0.0090 1.0111 154.3 C   15?   2.62 136.2   20 236 130  34
   ................
   2024 04 14 20:00  15 19 06.06    -07 55 12.9   0.0090 1.0113 153.6 Am  15?   4.09 129.5    0 102 124  40
   2024 04 14 20:10  15 19 08.14    -07 55 39.0   0.0090 1.0113 153.6  m  15?   3.99 130.7    2 103 124  40
   2024 04 14 20:20  15 19 10.13    -07 56 05.1   0.0090 1.0113 153.6  m  15?   3.89 131.9    4 105 124  40
   2024 04 14 20:30  15 19 12.03    -07 56 31.2   0.0090 1.0113 153.6  m  15?   3.79 133.2    6 107 124  40
   2024 04 14 20:40  15 19 13.85    -07 56 57.2   0.0090 1.0113 153.6  m  15?   3.70 134.5    7 109 124  40
   2024 04 14 20:50  15 19 15.57    -07 57 23.1   0.0090 1.0113 153.6  m  15?   3.61 135.8    9 111 124  40
   2024 04 14 21:00  15 19 17.22    -07 57 49.0   0.0090 1.0113 153.6  m  15?   3.52 137.2   11 112 124  40
   2024 04 14 21:10  15 19 18.78    -07 58 14.8   0.0090 1.0114 153.6  m  15?   3.43 138.6   12 114 123  40
   2024 04 14 21:20  15 19 20.27    -07 58 40.5   0.0090 1.0114 153.6  m  15?   3.35 140.0   14 116 123  40
   2024 04 14 21:30  15 19 21.67    -07 59 06.2   0.0090 1.0114 153.6  m  15?   3.26 141.5   16 118 123  40
   2024 04 14 21:40  15 19 23.00    -07 59 31.7   0.0090 1.0114 153.6  m  15?   3.19 142.9   17 120 123  40
   2024 04 14 21:50  15 19 24.25    -07 59 57.1   0.0090 1.0114 153.6  m  15?   3.11 144.4   19 122 123  40
   2024 04 14 22:00  15 19 25.43    -08 00 22.4   0.0090 1.0114 153.6  m  15?   3.05 145.9   20 124 123  40
   2024 04 14 22:10  15 19 26.54    -08 00 47.7   0.0090 1.0114 153.6  m  15?   2.98 147.4   22 126 123  40
   2024 04 14 22:20  15 19 27.58    -08 01 12.7   0.0090 1.0114 153.6  m  15?   2.92 148.9   23 129 123  40
   2024 04 14 22:30  15 19 28.56    -08 01 37.7   0.0090 1.0114 153.6  m  15?   2.86 150.4   24 131 123  40
   2024 04 14 22:40  15 19 29.47    -08 02 02.5   0.0090 1.0114 153.6  m  15?   2.80 151.9   26 133 123  41
   2024 04 14 22:50  15 19 30.33    -08 02 27.2   0.0090 1.0114 153.6  m  15?   2.75 153.3   27 136 123  41
   2024 04 14 23:00  15 19 31.13    -08 02 51.7   0.0090 1.0114 153.6  m  15?   2.70 154.7   28 138 123  41
   2024 04 14 23:10  15 19 31.87    -08 03 16.1   0.0090 1.0114 153.6  m  15?   2.65 156.1   29 141 123  41
   2024 04 14 23:20  15 19 32.57    -08 03 40.3   0.0090 1.0114 153.6  m  15?   2.61 157.4   30 143 123  41
   2024 04 14 23:30  15 19 33.22    -08 04 04.4   0.0090 1.0114 153.6  m  15?   2.57 158.6   31 146 122  41
   2024 04 14 23:40  15 19 33.83    -08 04 28.2   0.0090 1.0114 153.6  m  15?   2.53 159.7   32 149 122  41
   2024 04 14 23:50  15 19 34.39    -08 04 52.0   0.0090 1.0114 153.7  m  15?   2.50 160.8   33 151 122  41
   2024 04 15 00:00  15 19 34.93    -08 05 15.5   0.0090 1.0114 153.7  m  15?   2.47 161.8   34 154 122  41
   2024 04 15 00:10  15 19 35.42    -08 05 38.8   0.0090 1.0114 153.7  m  15?   2.44 162.7   35 157 122  41
   2024 04 15 00:20  15 19 35.89    -08 06 02.0   0.0090 1.0114 153.7  m  15?   2.41 163.5   35 160 122  41
   2024 04 15 00:30  15 19 36.34    -08 06 25.0   0.0090 1.0114 153.7  m  15?   2.38 164.1   36 163 122  41
   2024 04 15 00:40  15 19 36.76    -08 06 47.8   0.0090 1.0114 153.7  m  15?   2.35 164.7   36 166 122  41
   2024 04 15 00:50  15 19 37.17    -08 07 10.4   0.0090 1.0114 153.7  m  15?   2.33 165.1   37 169 122  42
   2024 04 15 01:00  15 19 37.57    -08 07 32.9   0.0090 1.0114 153.7  m  15?   2.31 165.4   37 172 122  42
   2024 04 15 01:10  15 19 37.95    -08 07 55.1   0.0090 1.0114 153.7  m  15?   2.29 165.5   37 175 122  42
   2024 04 15 01:20  15 19 38.33    -08 08 17.2   0.0090 1.0114 153.7  m  15?   2.27 165.5   37 178 121  42
   2024 04 15 01:30  15 19 38.71    -08 08 39.0   0.0090 1.0114 153.7  t  15?   2.25 165.4   37 182 121  42
   2024 04 15 01:40  15 19 39.09    -08 09 00.7   0.0090 1.0114 153.7     15?   2.23 165.1   37 185 121  42
   2024 04 15 01:50  15 19 39.47    -08 09 22.1   0.0090 1.0114 153.7     15?   2.21 164.6   37 188 121  42
   2024 04 15 02:00  15 19 39.87    -08 09 43.4   0.0090 1.0114 153.7     15?   2.20 164.0   37 191 121  42
   2024 04 15 02:10  15 19 40.28    -08 10 04.5   0.0090 1.0114 153.7     15?   2.19 163.3   36 194 121  42
   2024 04 15 02:20  15 19 40.71    -08 10 25.3   0.0090 1.0114 153.7     15?   2.18 162.4   36 197 121  42
   2024 04 15 02:30  15 19 41.16    -08 10 46.0   0.0090 1.0114 153.7     15?   2.17 161.4   35 200 121  42
   2024 04 15 02:40  15 19 41.64    -08 11 06.5   0.0090 1.0114 153.7     15?   2.17 160.2   34 203 121  42
   2024 04 15 02:50  15 19 42.15    -08 11 26.9   0.0090 1.0114 153.7     15?   2.17 158.9   34 206 121  43
   2024 04 15 03:00  15 19 42.69    -08 11 47.0   0.0090 1.0114 153.8     15?   2.17 157.4   33 209 121  43
   2024 04 15 03:10  15 19 43.27    -08 12 07.0   0.0090 1.0114 153.8 A   15?   2.18 155.8   32 211 120  43
   2024 04 15 03:20  15 19 43.88    -08 12 26.8   0.0091 1.0114 153.8 A   15?   2.19 154.1   31 214 120  43
   2024 04 15 03:30  15 19 44.54    -08 12 46.4   0.0091 1.0114 153.8 A   15?   2.20 152.4   30 217 120  43
   2024 04 15 03:40  15 19 45.25    -08 13 05.8   0.0091 1.0114 153.8 A   15?   2.22 150.5   29 219 120  43
   2024 04 15 03:50  15 19 46.01    -08 13 25.1   0.0091 1.0114 153.8 N   15?   2.25 148.6   28 222 120  43
   2024 04 15 04:00  15 19 46.83    -08 13 44.2   0.0091 1.0114 153.8 N   15?   2.28 146.6   26 224 120  43
   2024 04 15 04:10  15 19 47.69    -08 14 03.2   0.0091 1.0114 153.8 N   15?   2.31 144.6   25 226 120  43
   2024 04 15 04:20  15 19 48.62    -08 14 22.0   0.0091 1.0114 153.8 N   15?   2.36 142.6   24 229 120  43
   2024 04 15 04:30  15 19 49.62    -08 14 40.7   0.0091 1.0114 153.8 C   15?   2.40 140.6   22 231 120  43
   2024 04 15 04:40  15 19 50.67    -08 14 59.3   0.0091 1.0114 153.8 C   15?   2.46 138.6   21 233 119  44
   ................
   2024 04 15 20:00  15 24 54.83    -08 47 29.2   0.0091 1.0116 153.2 Ar  15?   4.06 130.1    0 102 113  50
   2024 04 15 20:10  15 24 56.87    -08 47 55.4   0.0091 1.0116 153.2  m  15?   3.96 131.3    1 104 113  50
   2024 04 15 20:20  15 24 58.83    -08 48 21.6   0.0091 1.0116 153.2  m  15?   3.86 132.5    3 105 113  50
   2024 04 15 20:30  15 25 00.70    -08 48 47.7   0.0091 1.0117 153.2  m  15?   3.76 133.8    5 107 113  50
   2024 04 15 20:40  15 25 02.49    -08 49 13.8   0.0091 1.0117 153.2  m  15?   3.67 135.1    6 109 113  50
   2024 04 15 20:50  15 25 04.19    -08 49 39.8   0.0091 1.0117 153.2  m  15?   3.58 136.4    8 111 113  50
   2024 04 15 21:00  15 25 05.81    -08 50 05.7   0.0091 1.0117 153.2  m  15?   3.49 137.8   10 113 113  50
   2024 04 15 21:10  15 25 07.34    -08 50 31.6   0.0091 1.0117 153.2  m  15?   3.40 139.2   11 114 113  50
   2024 04 15 21:20  15 25 08.80    -08 50 57.3   0.0091 1.0117 153.2  m  15?   3.32 140.7   13 116 113  50
   2024 04 15 21:30  15 25 10.17    -08 51 23.0   0.0091 1.0117 153.2  m  15?   3.24 142.1   15 118 113  50
   2024 04 15 21:40  15 25 11.47    -08 51 48.6   0.0091 1.0117 153.2  m  15?   3.16 143.6   16 120 113  50
   2024 04 15 21:50  15 25 12.69    -08 52 14.0   0.0091 1.0117 153.2  m  15?   3.09 145.1   18 122 113  50
   2024 04 15 22:00  15 25 13.85    -08 52 39.4   0.0091 1.0117 153.2  m  15?   3.02 146.6   19 124 113  50
   2024 04 15 22:10  15 25 14.93    -08 53 04.6   0.0091 1.0117 153.2  m  15?   2.95 148.2   21 127 113  50
   2024 04 15 22:20  15 25 15.94    -08 53 29.7   0.0091 1.0117 153.2  m  15?   2.89 149.7   22 129 112  50
   2024 04 15 22:30  15 25 16.89    -08 53 54.6   0.0091 1.0117 153.2  m  15?   2.83 151.2   23 131 112  51
   2024 04 15 22:40  15 25 17.77    -08 54 19.4   0.0091 1.0117 153.2  m  15?   2.78 152.7   25 133 112  51
   2024 04 15 22:50  15 25 18.60    -08 54 44.0   0.0091 1.0117 153.2  m  15?   2.72 154.1   26 136 112  51
   2024 04 15 23:00  15 25 19.37    -08 55 08.5   0.0091 1.0117 153.2  m  15?   2.68 155.5   27 138 112  51
   2024 04 15 23:10  15 25 20.09    -08 55 32.8   0.0091 1.0117 153.2  m  15?   2.63 156.9   28 141 112  51
   2024 04 15 23:20  15 25 20.76    -08 55 56.9   0.0091 1.0117 153.2  m  15?   2.59 158.2   29 143 112  51
   2024 04 15 23:30  15 25 21.38    -08 56 20.8   0.0091 1.0117 153.2  m  15?   2.54 159.5   30 146 112  51
   2024 04 15 23:40  15 25 21.95    -08 56 44.6   0.0091 1.0117 153.2  m  15?   2.51 160.7   31 148 112  51
   2024 04 15 23:50  15 25 22.49    -08 57 08.2   0.0091 1.0117 153.2  m  15?   2.47 161.8   32 151 112  51
   2024 04 16 00:00  15 25 22.99    -08 57 31.6   0.0091 1.0117 153.2  m  15?   2.44 162.8   33 154 112  51
   2024 04 16 00:10  15 25 23.46    -08 57 54.7   0.0091 1.0117 153.2  m  15?   2.40 163.7   34 157 112  51
   2024 04 16 00:20  15 25 23.89    -08 58 17.7   0.0091 1.0117 153.2  m  15?   2.37 164.5   34 160 112  51
   2024 04 16 00:30  15 25 24.31    -08 58 40.5   0.0091 1.0117 153.2  m  15?   2.35 165.2   35 163 112  51
   2024 04 16 00:40  15 25 24.70    -08 59 03.1   0.0091 1.0117 153.2  m  15?   2.32 165.7   36 166 111  51
   2024 04 16 00:50  15 25 25.07    -08 59 25.5   0.0091 1.0117 153.2  m  15?   2.29 166.2   36 169 111  52
   2024 04 16 01:00  15 25 25.43    -08 59 47.7   0.0091 1.0117 153.2  m  15?   2.27 166.5   36 172 111  52
   2024 04 16 01:10  15 25 25.78    -09 00 09.6   0.0091 1.0117 153.3  m  15?   2.24 166.7   36 175 111  52
   2024 04 16 01:20  15 25 26.12    -09 00 31.4   0.0091 1.0117 153.3  m  15?   2.22 166.7   36 178 111  52
   2024 04 16 01:30  15 25 26.47    -09 00 52.9   0.0091 1.0117 153.3  t  15?   2.20 166.6   36 181 111  52
   2024 04 16 01:40  15 25 26.81    -09 01 14.2   0.0091 1.0117 153.3  m  15?   2.18 166.3   36 184 111  52
   2024 04 16 01:50  15 25 27.16    -09 01 35.3   0.0091 1.0117 153.3  m  15?   2.16 165.9   36 187 111  52
   2024 04 16 02:00  15 25 27.52    -09 01 56.2   0.0091 1.0117 153.3  m  15?   2.15 165.3   36 190 111  52
   2024 04 16 02:10  15 25 27.89    -09 02 16.9   0.0091 1.0117 153.3     15?   2.13 164.6   35 193 111  52
   2024 04 16 02:20  15 25 28.28    -09 02 37.4   0.0091 1.0117 153.3     15?   2.12 163.7   35 196 111  52
   2024 04 16 02:30  15 25 28.69    -09 02 57.7   0.0091 1.0117 153.3     15?   2.11 162.6   34 199 110  52
   2024 04 16 02:40  15 25 29.12    -09 03 17.7   0.0091 1.0117 153.3     15?   2.10 161.4   34 202 110  52
   2024 04 16 02:50  15 25 29.59    -09 03 37.6   0.0091 1.0117 153.3     15?   2.10 160.1   33 205 110  52
   2024 04 16 03:00  15 25 30.08    -09 03 57.3   0.0091 1.0117 153.3     15?   2.10 158.6   32 208 110  53
   2024 04 16 03:10  15 25 30.61    -09 04 16.7   0.0091 1.0117 153.3 A   15?   2.10 157.0   31 210 110  53
   2024 04 16 03:20  15 25 31.19    -09 04 36.0   0.0091 1.0117 153.3 A   15?   2.11 155.2   30 213 110  53
   2024 04 16 03:30  15 25 31.80    -09 04 55.1   0.0091 1.0117 153.3 A   15?   2.12 153.4   29 216 110  53
   2024 04 16 03:40  15 25 32.46    -09 05 14.0   0.0091 1.0117 153.3 A   15?   2.14 151.5   28 218 110  53
   2024 04 16 03:50  15 25 33.17    -09 05 32.7   0.0091 1.0117 153.3 N   15?   2.16 149.5   27 221 110  53
   2024 04 16 04:00  15 25 33.94    -09 05 51.3   0.0091 1.0117 153.3 N   15?   2.19 147.4   26 223 110  53
   2024 04 16 04:10  15 25 34.76    -09 06 09.7   0.0091 1.0118 153.3 N   15?   2.22 145.4   25 225 109  53
   2024 04 16 04:20  15 25 35.63    -09 06 27.9   0.0091 1.0118 153.3 N   15?   2.26 143.3   23 228 109  53
   2024 04 16 04:30  15 25 36.57    -09 06 45.9   0.0091 1.0118 153.3 C   15?   2.30 141.2   22 230 109  53
   2024 04 16 04:40  15 25 37.58    -09 07 03.9   0.0091 1.0118 153.3 C   15?   2.35 139.1   20 232 109  53
   ................
   2024 04 16 20:10  15 30 38.68    -09 39 21.0   0.0092 1.0120 152.7  m  15?   3.92 131.8    0 104 103  60
   2024 04 16 20:20  15 30 40.60    -09 39 47.3   0.0092 1.0120 152.7  m  15?   3.83 133.1    2 106 103  60
   2024 04 16 20:30  15 30 42.45    -09 40 13.4   0.0092 1.0120 152.7  m  15?   3.73 134.3    4 107 103  60
   2024 04 16 20:40  15 30 44.20    -09 40 39.5   0.0092 1.0120 152.7  m  15?   3.64 135.7    5 109 103  60
   2024 04 16 20:50  15 30 45.87    -09 41 05.6   0.0092 1.0120 152.7  m  15?   3.55 137.0    7 111 103  60
   2024 04 16 21:00  15 30 47.46    -09 41 31.5   0.0092 1.0120 152.7  m  15?   3.46 138.4    9 113 103  60
   2024 04 16 21:10  15 30 48.97    -09 41 57.4   0.0092 1.0120 152.7  m  15?   3.37 139.8   10 115 102  60
   2024 04 16 21:20  15 30 50.40    -09 42 23.2   0.0092 1.0120 152.7  m  15?   3.29 141.3   12 117 102  60
   2024 04 16 21:30  15 30 51.74    -09 42 48.9   0.0092 1.0120 152.7  m  15?   3.21 142.8   14 119 102  60
   2024 04 16 21:40  15 30 53.01    -09 43 14.4   0.0092 1.0120 152.7  m  15?   3.14 144.3   15 121 102  60
   2024 04 16 21:50  15 30 54.21    -09 43 39.9   0.0092 1.0120 152.7  m  15?   3.06 145.8   17 123 102  60
   2024 04 16 22:00  15 30 55.33    -09 44 05.2   0.0092 1.0120 152.7  m  15?   2.99 147.3   18 125 102  60
   2024 04 16 22:10  15 30 56.39    -09 44 30.4   0.0092 1.0120 152.8  m  15?   2.93 148.9   20 127 102  60
   2024 04 16 22:20  15 30 57.37    -09 44 55.4   0.0092 1.0120 152.8  m  15?   2.87 150.4   21 129 102  60
   2024 04 16 22:30  15 30 58.29    -09 45 20.3   0.0092 1.0120 152.8  m  15?   2.81 151.9   22 131 102  60
   2024 04 16 22:40  15 30 59.15    -09 45 45.0   0.0092 1.0120 152.8  m  15?   2.75 153.4   24 133 102  60
   2024 04 16 22:50  15 30 59.95    -09 46 09.6   0.0092 1.0120 152.8  m  15?   2.70 154.9   25 136 102  60
   2024 04 16 23:00  15 31 00.69    -09 46 33.9   0.0092 1.0120 152.8  m  15?   2.65 156.3   26 138 102  61
   2024 04 16 23:10  15 31 01.38    -09 46 58.1   0.0092 1.0120 152.8  m  15?   2.60 157.7   27 141 102  61
   2024 04 16 23:20  15 31 02.02    -09 47 22.1   0.0092 1.0120 152.8  m  15?   2.56 159.1   28 143 102  61
   2024 04 16 23:30  15 31 02.61    -09 47 45.9   0.0092 1.0120 152.8  m  15?   2.52 160.3   29 146 102  61
   2024 04 16 23:40  15 31 03.16    -09 48 09.6   0.0092 1.0120 152.8  m  15?   2.48 161.5   30 148 102  61
   2024 04 16 23:50  15 31 03.66    -09 48 33.0   0.0092 1.0120 152.8  m  15?   2.44 162.7   31 151 101  61
   2024 04 17 00:00  15 31 04.13    -09 48 56.2   0.0092 1.0120 152.8  m  15?   2.41 163.7   32 154 101  61
   2024 04 17 00:10  15 31 04.57    -09 49 19.2   0.0092 1.0120 152.8  m  15?   2.37 164.6   33 157 101  61
   2024 04 17 00:20  15 31 04.98    -09 49 42.0   0.0092 1.0120 152.8  m  15?   2.34 165.5   34 159 101  61
   2024 04 17 00:30  15 31 05.36    -09 50 04.5   0.0092 1.0120 152.8  m  15?   2.31 166.2   34 162 101  61
   2024 04 17 00:40  15 31 05.72    -09 50 26.9   0.0092 1.0120 152.8  m  15?   2.28 166.8   35 165 101  61
   2024 04 17 00:50  15 31 06.06    -09 50 49.0   0.0092 1.0120 152.8  m  15?   2.25 167.2   35 168 101  61
   2024 04 17 01:00  15 31 06.39    -09 51 10.9   0.0092 1.0120 152.8  m  15?   2.23 167.6   35 171 101  61
   2024 04 17 01:10  15 31 06.70    -09 51 32.6   0.0092 1.0120 152.8  m  15?   2.20 167.8   35 174 101  61
   2024 04 17 01:20  15 31 07.01    -09 51 54.0   0.0092 1.0120 152.8  m  15?   2.18 167.8   36 177 101  61
   2024 04 17 01:30  15 31 07.32    -09 52 15.2   0.0092 1.0120 152.8  t  15?   2.16 167.7   36 180 101  61
   2024 04 17 01:40  15 31 07.62    -09 52 36.2   0.0092 1.0120 152.9  m  15?   2.14 167.5   36 183 101  62
   2024 04 17 01:50  15 31 07.93    -09 52 56.9   0.0092 1.0120 152.9  m  15?   2.12 167.1   35 187 101  62
   2024 04 17 02:00  15 31 08.26    -09 53 17.4   0.0092 1.0120 152.9  m  15?   2.10 166.5   35 190 100  62
   2024 04 17 02:10  15 31 08.59    -09 53 37.7   0.0092 1.0120 152.9  m  15?   2.08 165.8   35 193 100  62
   2024 04 17 02:20  15 31 08.94    -09 53 57.8   0.0092 1.0120 152.9  m  15?   2.06 164.9   34 196 100  62
   2024 04 17 02:30  15 31 09.31    -09 54 17.6   0.0092 1.0120 152.9  m  15?   2.05 163.9   34 198 100  62
   2024 04 17 02:40  15 31 09.71    -09 54 37.2   0.0092 1.0120 152.9     15?   2.04 162.7   33 201 100  62
   2024 04 17 02:50  15 31 10.13    -09 54 56.6   0.0092 1.0120 152.9     15?   2.03 161.3   32 204 100  62
   2024 04 17 03:00  15 31 10.58    -09 55 15.8   0.0092 1.0120 152.9     15?   2.03 159.8   32 207 100  62
   2024 04 17 03:10  15 31 11.07    -09 55 34.8   0.0092 1.0120 152.9 A   15?   2.03 158.1   31 210 100  62
   2024 04 17 03:20  15 31 11.60    -09 55 53.5   0.0092 1.0121 152.9 A   15?   2.03 156.3   30 212 100  62
   2024 04 17 03:30  15 31 12.17    -09 56 12.1   0.0092 1.0121 152.9 A   15?   2.04 154.5   29 215 100  62
   2024 04 17 03:40  15 31 12.79    -09 56 30.4   0.0092 1.0121 152.9 A   15?   2.06 152.5   28 217 100  62
   2024 04 17 03:50  15 31 13.45    -09 56 48.6   0.0092 1.0121 152.9 N   15?   2.07 150.4   26 220  99  63
   2024 04 17 04:00  15 31 14.17    -09 57 06.6   0.0092 1.0121 152.9 N   15?   2.10 148.3   25 222  99  63
   2024 04 17 04:10  15 31 14.94    -09 57 24.3   0.0092 1.0121 152.9 N   15?   2.13 146.1   24 225  99  63
   2024 04 17 04:20  15 31 15.77    -09 57 41.9   0.0092 1.0121 152.9 C   15?   2.16 143.9   23 227  99  63
   2024 04 17 04:30  15 31 16.66    -09 57 59.4   0.0092 1.0121 152.9 C   15?   2.21 141.7   21 229  99  63
   2024 04 17 04:40  15 31 17.61    -09 58 16.7   0.0092 1.0121 152.9 C   15?   2.25 139.5   20 231  99  63
   ................
   2024 04 17 20:10  15 36 13.76    -10 29 53.1   0.0093 1.0123 152.3 Ar  15?   3.89 132.3    0 104  92  69
   2024 04 17 20:20  15 36 15.66    -10 30 19.3   0.0093 1.0123 152.3  m  15?   3.79 133.6    1 106  92  69
   2024 04 17 20:30  15 36 17.47    -10 30 45.5   0.0093 1.0123 152.3  m  15?   3.69 134.9    3 108  92  69
   2024 04 17 20:40  15 36 19.20    -10 31 11.6   0.0093 1.0123 152.3  m  15?   3.60 136.2    5 109  92  69
   2024 04 17 20:50  15 36 20.85    -10 31 37.6   0.0093 1.0123 152.3  m  15?   3.51 137.6    6 111  92  69
   2024 04 17 21:00  15 36 22.41    -10 32 03.6   0.0093 1.0123 152.3  m  15?   3.43 139.0    8 113  92  69
   2024 04 17 21:10  15 36 23.88    -10 32 29.5   0.0093 1.0123 152.3  m  15?   3.34 140.4   10 115  92  69
   2024 04 17 21:20  15 36 25.28    -10 32 55.2   0.0093 1.0123 152.3  m  15?   3.26 141.9   11 117  92  69
   2024 04 17 21:30  15 36 26.60    -10 33 20.9   0.0093 1.0123 152.3  m  15?   3.18 143.4   13 119  92  69
   2024 04 17 21:40  15 36 27.85    -10 33 46.4   0.0093 1.0123 152.3  m  15?   3.11 144.9   14 121  92  69
   2024 04 17 21:50  15 36 29.02    -10 34 11.8   0.0093 1.0123 152.3  m  15?   3.03 146.5   16 123  92  69
   2024 04 17 22:00  15 36 30.11    -10 34 37.1   0.0093 1.0123 152.4  m  15?   2.97 148.0   17 125  92  69
   2024 04 17 22:10  15 36 31.14    -10 35 02.2   0.0093 1.0123 152.4  m  15?   2.90 149.6   19 127  92  69
   2024 04 17 22:20  15 36 32.10    -10 35 27.2   0.0093 1.0123 152.4  m  15?   2.84 151.1   20 129  92  70
   2024 04 17 22:30  15 36 32.99    -10 35 52.0   0.0093 1.0123 152.4  m  15?   2.78 152.6   21 131  92  70
   2024 04 17 22:40  15 36 33.82    -10 36 16.6   0.0093 1.0123 152.4  m  15?   2.72 154.2   23 134  92  70
   2024 04 17 22:50  15 36 34.59    -10 36 41.0   0.0093 1.0123 152.4  m  15?   2.67 155.7   24 136  92  70
   2024 04 17 23:00  15 36 35.31    -10 37 05.3   0.0093 1.0123 152.4  m  15?   2.62 157.1   25 138  92  70
   2024 04 17 23:10  15 36 35.97    -10 37 29.4   0.0093 1.0123 152.4  m  15?   2.57 158.5   26 141  92  70
   2024 04 17 23:20  15 36 36.58    -10 37 53.2   0.0093 1.0123 152.4  m  15?   2.53 159.9   28 143  91  70
   2024 04 17 23:30  15 36 37.14    -10 38 16.9   0.0093 1.0123 152.4  m  15?   2.49 161.2   29 146  91  70
   2024 04 17 23:40  15 36 37.66    -10 38 40.3   0.0093 1.0123 152.4  m  15?   2.45 162.4   30 148  91  70
   2024 04 17 23:50  15 36 38.13    -10 39 03.6   0.0093 1.0123 152.4  m  15?   2.41 163.6   30 151  91  70
   2024 04 18 00:00  15 36 38.57    -10 39 26.6   0.0093 1.0123 152.4  m  15?   2.37 164.6   31 154  91  70
   2024 04 18 00:10  15 36 38.98    -10 39 49.4   0.0093 1.0123 152.4  m  15?   2.34 165.6   32 156  91  70
   2024 04 18 00:20  15 36 39.36    -10 40 11.9   0.0093 1.0123 152.4  m  15?   2.31 166.4   33 159  91  70
   2024 04 18 00:30  15 36 39.71    -10 40 34.2   0.0093 1.0123 152.4  m  15?   2.28 167.2   33 162  91  70
   2024 04 18 00:40  15 36 40.03    -10 40 56.3   0.0093 1.0123 152.4  m  15?   2.25 167.8   34 165  91  70
   2024 04 18 00:50  15 36 40.34    -10 41 18.2   0.0093 1.0123 152.4  m  15?   2.22 168.3   34 168  91  70
   2024 04 18 01:00  15 36 40.64    -10 41 39.8   0.0093 1.0123 152.4  m  15?   2.19 168.7   34 171  91  70
   2024 04 18 01:10  15 36 40.92    -10 42 01.1   0.0093 1.0123 152.4  m  15?   2.16 168.9   35 174  91  70
   2024 04 18 01:20  15 36 41.19    -10 42 22.2   0.0093 1.0123 152.4  m  15?   2.14 169.0   35 177  91  70
   2024 04 18 01:30  15 36 41.47    -10 42 43.1   0.0093 1.0123 152.4  t  15?   2.11 168.9   35 180  91  71
   2024 04 18 01:40  15 36 41.74    -10 43 03.7   0.0093 1.0123 152.5  m  15?   2.09 168.7   35 183  90  71
   2024 04 18 01:50  15 36 42.01    -10 43 24.1   0.0093 1.0123 152.5  m  15?   2.07 168.3   35 186  90  71
   2024 04 18 02:00  15 36 42.30    -10 43 44.2   0.0093 1.0123 152.5  m  15?   2.05 167.8   34 189  90  71
   2024 04 18 02:10  15 36 42.60    -10 44 04.1   0.0093 1.0123 152.5  m  15?   2.03 167.1   34 192  90  71
   2024 04 18 02:20  15 36 42.91    -10 44 23.7   0.0093 1.0123 152.5  m  15?   2.01 166.2   34 195  90  71
   2024 04 18 02:30  15 36 43.24    -10 44 43.1   0.0093 1.0124 152.5  m  15?   1.99 165.1   33 198  90  71
   2024 04 18 02:40  15 36 43.60    -10 45 02.2   0.0093 1.0124 152.5  m  15?   1.98 163.9   32 201  90  71
   2024 04 18 02:50  15 36 43.98    -10 45 21.1   0.0093 1.0124 152.5  m  15?   1.97 162.5   32 203  90  71
   2024 04 18 03:00  15 36 44.39    -10 45 39.8   0.0093 1.0124 152.5     15?   1.96 161.0   31 206  90  71
   2024 04 18 03:10  15 36 44.84    -10 45 58.3   0.0093 1.0124 152.5 A   15?   1.96 159.3   30 209  90  71
   2024 04 18 03:20  15 36 45.33    -10 46 16.5   0.0093 1.0124 152.5 A   15?   1.96 157.5   29 211  90  71
   2024 04 18 03:30  15 36 45.85    -10 46 34.5   0.0093 1.0124 152.5 A   15?   1.96 155.5   28 214  89  71
   2024 04 18 03:40  15 36 46.43    -10 46 52.3   0.0093 1.0124 152.5 A   15?   1.97 153.4   27 217  89  71
   2024 04 18 03:50  15 36 47.05    -10 47 09.9   0.0093 1.0124 152.5 N   15?   1.99 151.3   26 219  89  71
   2024 04 18 04:00  15 36 47.72    -10 47 27.3   0.0093 1.0124 152.5 N   15?   2.01 149.1   25 221  89  72
   2024 04 18 04:10  15 36 48.44    -10 47 44.4   0.0093 1.0124 152.5 N   15?   2.04 146.8   24 224  89  72
   2024 04 18 04:20  15 36 49.23    -10 48 01.4   0.0093 1.0124 152.5 C   15?   2.07 144.5   22 226  89  72
   2024 04 18 04:30  15 36 50.07    -10 48 18.2   0.0093 1.0124 152.5 C   15?   2.11 142.2   21 228  89  72
   2024 04 18 04:40  15 36 50.98    -10 48 34.9   0.0093 1.0124 152.5 C   15?   2.16 140.0   20 230  89  72
   ................
   2024 04 18 20:20  15 41 44.17    -11 19 55.2   0.0094 1.0126 152.0  m  15?   3.75 134.1    0 106  82  77
   2024 04 18 20:30  15 41 45.96    -11 20 21.3   0.0094 1.0126 152.0  m  15?   3.66 135.4    2 108  82  77
   2024 04 18 20:40  15 41 47.66    -11 20 47.4   0.0094 1.0126 152.0  m  15?   3.57 136.7    4 110  82  78
   2024 04 18 20:50  15 41 49.27    -11 21 13.4   0.0094 1.0126 152.0  m  15?   3.48 138.1    5 112  82  78
   2024 04 18 21:00  15 41 50.80    -11 21 39.3   0.0094 1.0126 152.0  m  15?   3.39 139.6    7 113  82  78
   2024 04 18 21:10  15 41 52.25    -11 22 05.2   0.0093 1.0126 152.0  m  15?   3.31 141.0    9 115  82  78
   2024 04 18 21:20  15 41 53.62    -11 22 30.9   0.0093 1.0126 152.0  m  15?   3.23 142.5   10 117  82  78
   2024 04 18 21:30  15 41 54.92    -11 22 56.5   0.0093 1.0126 152.0  m  15?   3.15 144.0   12 119  82  78
   2024 04 18 21:40  15 41 56.13    -11 23 21.9   0.0093 1.0126 152.0  m  15?   3.07 145.5   13 121  82  78
   2024 04 18 21:50  15 41 57.27    -11 23 47.3   0.0093 1.0126 152.0  m  15?   3.00 147.1   15 123  82  78
   2024 04 18 22:00  15 41 58.34    -11 24 12.5   0.0093 1.0126 152.0  m  15?   2.93 148.7   16 125  82  78
   2024 04 18 22:10  15 41 59.34    -11 24 37.5   0.0093 1.0126 152.0  m  15?   2.87 150.2   18 127  82  78
   2024 04 18 22:20  15 42 00.27    -11 25 02.4   0.0093 1.0126 152.0  m  15?   2.81 151.8   19 129  82  78
   2024 04 18 22:30  15 42 01.14    -11 25 27.0   0.0093 1.0126 152.0  m  15?   2.75 153.3   21 131  82  78
   2024 04 18 22:40  15 42 01.94    -11 25 51.6   0.0093 1.0126 152.0  m  15?   2.69 154.9   22 134  81  78
   2024 04 18 22:50  15 42 02.68    -11 26 15.9   0.0093 1.0126 152.0  m  15?   2.64 156.4   23 136  81  78
   2024 04 18 23:00  15 42 03.37    -11 26 40.0   0.0093 1.0126 152.0  m  15?   2.59 157.9   24 138  81  78
   2024 04 18 23:10  15 42 04.00    -11 27 03.9   0.0093 1.0126 152.0  m  15?   2.54 159.3   26 141  81  78
   2024 04 18 23:20  15 42 04.58    -11 27 27.6   0.0093 1.0126 152.0  m  15?   2.50 160.7   27 143  81  78
   2024 04 18 23:30  15 42 05.12    -11 27 51.1   0.0093 1.0126 152.0  m  15?   2.46 162.0   28 146  81  78
   2024 04 18 23:40  15 42 05.61    -11 28 14.4   0.0093 1.0126 152.0  m  15?   2.41 163.3   29 148  81  78
   2024 04 18 23:50  15 42 06.05    -11 28 37.4   0.0093 1.0126 152.0  m  15?   2.38 164.4   30 151  81  78
   2024 04 19 00:00  15 42 06.46    -11 29 00.2   0.0093 1.0126 152.0  m  15?   2.34 165.5   30 154  81  78
   2024 04 19 00:10  15 42 06.84    -11 29 22.7   0.0093 1.0126 152.0  m  15?   2.30 166.5   31 156  81  78
   2024 04 19 00:20  15 42 07.19    -11 29 45.0   0.0093 1.0126 152.0  m  15?   2.27 167.4   32 159  81  78
   2024 04 19 00:30  15 42 07.51    -11 30 07.1   0.0093 1.0126 152.0  m  15?   2.24 168.2   32 162  81  78
   2024 04 19 00:40  15 42 07.80    -11 30 28.9   0.0093 1.0126 152.0  m  15?   2.21 168.9   33 165  81  78
   2024 04 19 00:50  15 42 08.08    -11 30 50.4   0.0093 1.0126 152.1  m  15?   2.18 169.4   33 168  81  79
   2024 04 19 01:00  15 42 08.34    -11 31 11.7   0.0093 1.0126 152.1  m  15?   2.15 169.8   34 171  81  79
   2024 04 19 01:10  15 42 08.59    -11 31 32.8   0.0093 1.0126 152.1  m  15?   2.12 170.0   34 174  81  79
   2024 04 19 01:20  15 42 08.83    -11 31 53.5   0.0093 1.0126 152.1  m  15?   2.09 170.2   34 177  80  79
   2024 04 19 01:30  15 42 09.07    -11 32 14.0   0.0093 1.0126 152.1  e  15?   2.07 170.1   34 179  80  79
   2024 04 19 01:40  15 42 09.31    -11 32 34.3   0.0093 1.0127 152.1  t  15?   2.04 169.9   34 182  80  79
   2024 04 19 01:50  15 42 09.55    -11 32 54.2   0.0093 1.0127 152.1  m  15?   2.02 169.6   34 185  80  79
   2024 04 19 02:00  15 42 09.80    -11 33 14.0   0.0093 1.0127 152.1  m  15?   1.99 169.0   34 188  80  79
   2024 04 19 02:10  15 42 10.06    -11 33 33.4   0.0093 1.0127 152.1  m  15?   1.97 168.3   33 191  80  79
   2024 04 19 02:20  15 42 10.34    -11 33 52.6   0.0093 1.0127 152.1  m  15?   1.95 167.5   33 194  80  79
   2024 04 19 02:30  15 42 10.63    -11 34 11.5   0.0094 1.0127 152.1  m  15?   1.93 166.4   32 197  80  79
   2024 04 19 02:40  15 42 10.95    -11 34 30.2   0.0094 1.0127 152.1  m  15?   1.92 165.2   32 200  80  79
   2024 04 19 02:50  15 42 11.29    -11 34 48.6   0.0094 1.0127 152.1  m  15?   1.90 163.8   31 203  80  79
   2024 04 19 03:00  15 42 11.67    -11 35 06.8   0.0094 1.0127 152.1 Am  15?   1.89 162.2   30 205  80  79
   2024 04 19 03:10  15 42 12.08    -11 35 24.8   0.0094 1.0127 152.1 Am  15?   1.89 160.5   29 208  80  79
   2024 04 19 03:20  15 42 12.52    -11 35 42.4   0.0094 1.0127 152.1 A   15?   1.89 158.6   29 211  79  79
   2024 04 19 03:30  15 42 13.01    -11 35 59.9   0.0094 1.0127 152.1 A   15?   1.89 156.6   28 213  79  79
   2024 04 19 03:40  15 42 13.54    -11 36 17.1   0.0094 1.0127 152.1 N   15?   1.89 154.4   26 216  79  79
   2024 04 19 03:50  15 42 14.11    -11 36 34.1   0.0094 1.0127 152.2 N   15?   1.91 152.2   25 218  79  80
   2024 04 19 04:00  15 42 14.74    -11 36 50.9   0.0094 1.0127 152.2 N   15?   1.92 149.9   24 221  79  80
   2024 04 19 04:10  15 42 15.42    -11 37 07.5   0.0094 1.0127 152.2 N   15?   1.95 147.5   23 223  79  80
   2024 04 19 04:20  15 42 16.16    -11 37 23.9   0.0094 1.0127 152.2 C   15?   1.98 145.1   22 225  79  80
   2024 04 19 04:30  15 42 16.96    -11 37 40.0   0.0094 1.0127 152.2 C   15?   2.02 142.7   20 227  79  80
   2024 04 19 04:40  15 42 17.81    -11 37 56.0   0.0094 1.0127 152.2 C   15?   2.06 140.4   19 230  79  80
   ................
   2024 04 19 20:20  15 47 06.26    -12 08 32.6   0.0094 1.0129 151.6  r  15?   3.71 134.6    0 107  72  85
   2024 04 19 20:30  15 47 08.02    -12 08 58.7   0.0094 1.0129 151.6  m  15?   3.62 135.9    1 108  72  85
   2024 04 19 20:40  15 47 09.68    -12 09 24.7   0.0094 1.0129 151.6  m  15?   3.53 137.3    3 110  72  85
   2024 04 19 20:50  15 47 11.27    -12 09 50.7   0.0094 1.0129 151.6  m  15?   3.44 138.7    5 112  72  85
   2024 04 19 21:00  15 47 12.77    -12 10 16.5   0.0094 1.0129 151.6  m  15?   3.35 140.1    6 114  72  85
   2024 04 19 21:10  15 47 14.20    -12 10 42.3   0.0094 1.0129 151.6  m  15?   3.27 141.6    8 116  72  85
   2024 04 19 21:20  15 47 15.54    -12 11 07.9   0.0094 1.0129 151.6  m  15?   3.19 143.1    9 117  72  85
   2024 04 19 21:30  15 47 16.80    -12 11 33.4   0.0094 1.0129 151.6  m  15?   3.12 144.6   11 119  72  85
   2024 04 19 21:40  15 47 17.99    -12 11 58.8   0.0094 1.0129 151.6  m  15?   3.04 146.2   13 121  72  85
   2024 04 19 21:50  15 47 19.10    -12 12 24.1   0.0094 1.0129 151.6  m  15?   2.97 147.7   14 123  71  85
   2024 04 19 22:00  15 47 20.14    -12 12 49.1   0.0094 1.0129 151.6  m  15?   2.90 149.3   16 125  71  85
   2024 04 19 22:10  15 47 21.11    -12 13 14.1   0.0094 1.0129 151.6  m  15?   2.84 150.9   17 127  71  85
   2024 04 19 22:20  15 47 22.02    -12 13 38.8   0.0094 1.0129 151.6  m  15?   2.78 152.5   18 129  71  85
   2024 04 19 22:30  15 47 22.85    -12 14 03.4   0.0094 1.0129 151.6  m  15?   2.72 154.1   20 132  71  85
   2024 04 19 22:40  15 47 23.63    -12 14 27.7   0.0094 1.0129 151.6  m  15?   2.66 155.6   21 134  71  85
   2024 04 19 22:50  15 47 24.34    -12 14 51.9   0.0094 1.0129 151.6  m  15?   2.61 157.2   22 136  71  85
   2024 04 19 23:00  15 47 25.00    -12 15 15.9   0.0094 1.0129 151.6  m  15?   2.56 158.7   23 138  71  85
   2024 04 19 23:10  15 47 25.61    -12 15 39.6   0.0094 1.0129 151.7  m  15?   2.51 160.1   25 141  71  85
   2024 04 19 23:20  15 47 26.16    -12 16 03.1   0.0094 1.0129 151.7  m  15?   2.47 161.5   26 143  71  85
   2024 04 19 23:30  15 47 26.66    -12 16 26.4   0.0094 1.0129 151.7  m  15?   2.42 162.9   27 146  71  85
   2024 04 19 23:40  15 47 27.12    -12 16 49.5   0.0094 1.0129 151.7  m  15?   2.38 164.2   28 148  71  85
   2024 04 19 23:50  15 47 27.54    -12 17 12.3   0.0094 1.0129 151.7  m  15?   2.34 165.4   29 151  71  85
   2024 04 20 00:00  15 47 27.92    -12 17 34.8   0.0094 1.0129 151.7  m  15?   2.31 166.5   29 153  71  86
   2024 04 20 00:10  15 47 28.27    -12 17 57.1   0.0094 1.0129 151.7  m  15?   2.27 167.5   30 156  71  86
   2024 04 20 00:20  15 47 28.59    -12 18 19.2   0.0094 1.0129 151.7  m  15?   2.24 168.4   31 159  71  86
   2024 04 20 00:30  15 47 28.87    -12 18 40.9   0.0094 1.0129 151.7  m  15?   2.20 169.2   31 162  71  86
   2024 04 20 00:40  15 47 29.14    -12 19 02.4   0.0094 1.0130 151.7  m  15?   2.17 169.9   32 165  71  86
   2024 04 20 00:50  15 47 29.39    -12 19 23.7   0.0094 1.0130 151.7  m  15?   2.14 170.5   32 167  70  86
   2024 04 20 01:00  15 47 29.62    -12 19 44.6   0.0094 1.0130 151.7  m  15?   2.11 170.9   33 170  70  86
   2024 04 20 01:10  15 47 29.83    -12 20 05.3   0.0094 1.0130 151.7  m  15?   2.08 171.2   33 173  70  86
   2024 04 20 01:20  15 47 30.04    -12 20 25.7   0.0094 1.0130 151.7  m  15?   2.05 171.4   33 176  70  86
   2024 04 20 01:30  15 47 30.25    -12 20 45.9   0.0094 1.0130 151.7  m  15?   2.02 171.3   33 179  70  86
   2024 04 20 01:40  15 47 30.45    -12 21 05.7   0.0094 1.0130 151.7  t  15?   1.99 171.2   33 182  70  86
   2024 04 20 01:50  15 47 30.66    -12 21 25.3   0.0094 1.0130 151.7  m  15?   1.97 170.8   33 185  70  86
   2024 04 20 02:00  15 47 30.87    -12 21 44.6   0.0094 1.0130 151.7  m  15?   1.94 170.3   33 188  70  86
   2024 04 20 02:10  15 47 31.10    -12 22 03.6   0.0094 1.0130 151.8  m  15?   1.92 169.7   32 191  70  86
   2024 04 20 02:20  15 47 31.34    -12 22 22.4   0.0094 1.0130 151.8  m  15?   1.90 168.8   32 194  70  86
   2024 04 20 02:30  15 47 31.59    -12 22 40.8   0.0094 1.0130 151.8  m  15?   1.87 167.7   32 196  70  86
   2024 04 20 02:40  15 47 31.87    -12 22 59.0   0.0094 1.0130 151.8  m  15?   1.86 166.5   31 199  70  86
   2024 04 20 02:50  15 47 32.18    -12 23 17.0   0.0094 1.0130 151.8  m  15?   1.84 165.1   30 202  70  86
   2024 04 20 03:00  15 47 32.51    -12 23 34.6   0.0094 1.0130 151.8 Am  15?   1.83 163.5   30 205  70  86
   2024 04 20 03:10  15 47 32.88    -12 23 52.0   0.0094 1.0130 151.8 Am  15?   1.82 161.7   29 207  69  86
   2024 04 20 03:20  15 47 33.29    -12 24 09.2   0.0094 1.0130 151.8 Am  15?   1.81 159.8   28 210  69  86
   2024 04 20 03:30  15 47 33.73    -12 24 26.1   0.0094 1.0130 151.8 Am  15?   1.81 157.7   27 213  69  86
   2024 04 20 03:40  15 47 34.22    -12 24 42.7   0.0094 1.0130 151.8 N   15?   1.82 155.5   26 215  69  86
   2024 04 20 03:50  15 47 34.75    -12 24 59.2   0.0094 1.0130 151.8 N   15?   1.82 153.2   25 217  69  86
   2024 04 20 04:00  15 47 35.34    -12 25 15.3   0.0094 1.0130 151.8 N   15?   1.84 150.8   24 220  69  87
   2024 04 20 04:10  15 47 35.97    -12 25 31.3   0.0094 1.0130 151.8 N   15?   1.86 148.3   22 222  69  87
   2024 04 20 04:20  15 47 36.67    -12 25 47.1   0.0094 1.0130 151.8 C   15?   1.89 145.8   21 224  69  87
   2024 04 20 04:30  15 47 37.42    -12 26 02.6   0.0094 1.0130 151.8 C   15?   1.92 143.3   20 227  69  87
   2024 04 20 04:40  15 47 38.23    -12 26 17.9   0.0094 1.0130 151.8 C   15?   1.96 140.8   19 229  69  87
   ................
   2024 04 20 20:30  15 52 23.72    -12 56 35.8   0.0095 1.0132 151.3  m  15?   3.58 136.4    0 109  62  91
   2024 04 20 20:40  15 52 25.36    -12 57 01.7   0.0095 1.0132 151.3  m  15?   3.49 137.8    2 110  62  91
   2024 04 20 20:50  15 52 26.92    -12 57 27.5   0.0095 1.0132 151.3  m  15?   3.40 139.2    4 112  61  91
   2024 04 20 21:00  15 52 28.39    -12 57 53.3   0.0095 1.0132 151.3  m  15?   3.32 140.7    5 114  61  91
   2024 04 20 21:10  15 52 29.78    -12 58 19.0   0.0095 1.0132 151.3  m  15?   3.23 142.2    7 116  61  91
   2024 04 20 21:20  15 52 31.10    -12 58 44.5   0.0095 1.0132 151.3  m  15?   3.16 143.7    9 118  61  91
   2024 04 20 21:30  15 52 32.33    -12 59 09.9   0.0095 1.0132 151.3  m  15?   3.08 145.2   10 120  61  91
   2024 04 20 21:40  15 52 33.49    -12 59 35.2   0.0095 1.0132 151.3  m  15?   3.01 146.8   12 121  61  91
   2024 04 20 21:50  15 52 34.57    -13 00 00.3   0.0095 1.0132 151.3  m  15?   2.93 148.4   13 123  61  91
   2024 04 20 22:00  15 52 35.59    -13 00 25.2   0.0095 1.0132 151.3  m  15?   2.87 150.0   15 125  61  91
   2024 04 20 22:10  15 52 36.53    -13 00 50.0   0.0095 1.0132 151.3  m  15?   2.80 151.6   16 128  61  91
   2024 04 20 22:20  15 52 37.40    -13 01 14.6   0.0095 1.0132 151.3  m  15?   2.74 153.2   18 130  61  91
   2024 04 20 22:30  15 52 38.21    -13 01 39.0   0.0095 1.0132 151.3  m  15?   2.68 154.8   19 132  61  91
   2024 04 20 22:40  15 52 38.96    -13 02 03.2   0.0095 1.0132 151.3  m  15?   2.63 156.4   20 134  61  91
   2024 04 20 22:50  15 52 39.64    -13 02 27.2   0.0095 1.0132 151.3  m  15?   2.57 157.9   21 136  61  91
   2024 04 20 23:00  15 52 40.27    -13 02 51.0   0.0095 1.0132 151.3  m  15?   2.52 159.5   23 138  61  91
   2024 04 20 23:10  15 52 40.85    -13 03 14.6   0.0095 1.0132 151.3  m  15?   2.48 160.9   24 141  61  91
   2024 04 20 23:20  15 52 41.37    -13 03 37.9   0.0095 1.0132 151.3  m  15?   2.43 162.4   25 143  61  91
   2024 04 20 23:30  15 52 41.85    -13 04 00.9   0.0095 1.0132 151.3  m  15?   2.39 163.8   26 146  61  91
   2024 04 20 23:40  15 52 42.28    -13 04 23.8   0.0095 1.0132 151.3  m  15?   2.35 165.1   27 148  61  91
   2024 04 20 23:50  15 52 42.67    -13 04 46.3   0.0095 1.0133 151.3  m  15?   2.31 166.3   28 151  61  91
   2024 04 21 00:00  15 52 43.02    -13 05 08.6   0.0095 1.0133 151.4  m  15?   2.27 167.5   29 153  61  91
   2024 04 21 00:10  15 52 43.33    -13 05 30.7   0.0095 1.0133 151.4  m  15?   2.23 168.5   29 156  60  91
   2024 04 21 00:20  15 52 43.62    -13 05 52.4   0.0095 1.0133 151.4  m  15?   2.20 169.5   30 159  60  91
   2024 04 21 00:30  15 52 43.88    -13 06 13.9   0.0095 1.0133 151.4  m  15?   2.16 170.3   31 162  60  92
   2024 04 21 00:40  15 52 44.11    -13 06 35.1   0.0095 1.0133 151.4  m  15?   2.13 171.0   31 164  60  92
   2024 04 21 00:50  15 52 44.32    -13 06 56.0   0.0095 1.0133 151.4  m  15?   2.10 171.6   32 167  60  92
   2024 04 21 01:00  15 52 44.52    -13 07 16.6   0.0095 1.0133 151.4  m  15?   2.07 172.1   32 170  60  92
   2024 04 21 01:10  15 52 44.70    -13 07 37.0   0.0095 1.0133 151.4  m  15?   2.04 172.4   32 173  60  92
   2024 04 21 01:20  15 52 44.88    -13 07 57.0   0.0095 1.0133 151.4  m  15?   2.01 172.6   32 176  60  92
   2024 04 21 01:30  15 52 45.05    -13 08 16.8   0.0095 1.0133 151.4  m  15?   1.98 172.6   32 179  60  92
   2024 04 21 01:40  15 52 45.22    -13 08 36.2   0.0095 1.0133 151.4  t  15?   1.95 172.5   32 182  60  92
   2024 04 21 01:50  15 52 45.39    -13 08 55.4   0.0095 1.0133 151.4  m  15?   1.92 172.2   32 184  60  92
   2024 04 21 02:00  15 52 45.57    -13 09 14.3   0.0095 1.0133 151.4  m  15?   1.89 171.7   32 187  60  92
   2024 04 21 02:10  15 52 45.76    -13 09 32.8   0.0095 1.0133 151.4  m  15?   1.87 171.0   32 190  60  92
   2024 04 21 02:20  15 52 45.96    -13 09 51.1   0.0095 1.0133 151.4  m  15?   1.84 170.2   31 193  60  92
   2024 04 21 02:30  15 52 46.18    -13 10 09.1   0.0095 1.0133 151.4  m  15?   1.82 169.1   31 196  60  92
   2024 04 21 02:40  15 52 46.43    -13 10 26.8   0.0095 1.0133 151.4  m  15?   1.80 167.9   30 199  59  92
   2024 04 21 02:50  15 52 46.69    -13 10 44.3   0.0095 1.0133 151.5  m  15?   1.78 166.5   30 201  59  92
   2024 04 21 03:00  15 52 46.99    -13 11 01.4   0.0095 1.0133 151.5 Am  15?   1.76 164.8   29 204  59  92
   2024 04 21 03:10  15 52 47.32    -13 11 18.3   0.0095 1.0133 151.5 Am  15?   1.75 163.0   28 207  59  92
   2024 04 21 03:20  15 52 47.68    -13 11 34.9   0.0095 1.0133 151.5 Am  15?   1.74 161.0   27 209  59  92
   2024 04 21 03:30  15 52 48.09    -13 11 51.2   0.0095 1.0133 151.5 Am  15?   1.74 158.9   26 212  59  92
   2024 04 21 03:40  15 52 48.53    -13 12 07.3   0.0095 1.0133 151.5 Nm  15?   1.74 156.6   25 214  59  92
   2024 04 21 03:50  15 52 49.03    -13 12 23.2   0.0095 1.0133 151.5 Nm  15?   1.74 154.2   24 217  59  92
   2024 04 21 04:00  15 52 49.57    -13 12 38.8   0.0095 1.0133 151.5 N   15?   1.75 151.7   23 219  59  92
   2024 04 21 04:10  15 52 50.16    -13 12 54.1   0.0095 1.0133 151.5 N   15?   1.77 149.1   22 221  59  92
   2024 04 21 04:20  15 52 50.81    -13 13 09.2   0.0095 1.0133 151.5 C   15?   1.80 146.4   21 224  59  92
   2024 04 21 04:30  15 52 51.52    -13 13 24.1   0.0095 1.0133 151.5 C   15?   1.83 143.8   19 226  59  92
   ................
   2024 04 21 20:30  15 57 33.11    -13 43 10.9   0.0096 1.0135 151.0  r  15?   3.53 136.9    0 109  51  96
   2024 04 21 20:40  15 57 34.72    -13 43 36.7   0.0096 1.0135 151.0  m  15?   3.44 138.3    1 111  51  96
   2024 04 21 20:50  15 57 36.24    -13 44 02.4   0.0096 1.0135 151.0  m  15?   3.36 139.8    3 112  51  96
   2024 04 21 21:00  15 57 37.68    -13 44 28.1   0.0096 1.0135 151.0  m  15?   3.27 141.2    5 114  51  96
   2024 04 21 21:10  15 57 39.05    -13 44 53.6   0.0096 1.0135 151.0  m  15?   3.19 142.7    6 116  51  96
   2024 04 21 21:20  15 57 40.33    -13 45 19.0   0.0096 1.0135 151.0  m  15?   3.12 144.3    8 118  51  96
   2024 04 21 21:30  15 57 41.53    -13 45 44.3   0.0096 1.0135 151.0  m  15?   3.04 145.8    9 120  51  96
   2024 04 21 21:40  15 57 42.66    -13 46 09.4   0.0096 1.0135 151.0  m  15?   2.97 147.4   11 122  51  96
   2024 04 21 21:50  15 57 43.71    -13 46 34.4   0.0096 1.0135 151.0  m  15?   2.90 149.0   12 124  51  96
   2024 04 21 22:00  15 57 44.70    -13 46 59.2   0.0096 1.0135 151.0  m  15?   2.83 150.7   14 126  51  96
   2024 04 21 22:10  15 57 45.61    -13 47 23.9   0.0096 1.0135 151.0  m  15?   2.77 152.3   15 128  51  96
   2024 04 21 22:20  15 57 46.45    -13 47 48.3   0.0096 1.0135 151.0  m  15?   2.71 153.9   17 130  51  96
   2024 04 21 22:30  15 57 47.23    -13 48 12.5   0.0096 1.0135 151.0  m  15?   2.65 155.6   18 132  51  96
   2024 04 21 22:40  15 57 47.95    -13 48 36.6   0.0096 1.0135 151.0  m  15?   2.59 157.2   19 134  51  96
   2024 04 21 22:50  15 57 48.60    -13 49 00.4   0.0096 1.0136 151.0  m  15?   2.54 158.7   21 136  51  96
   2024 04 21 23:00  15 57 49.20    -13 49 23.9   0.0096 1.0136 151.0  m  15?   2.49 160.3   22 139  50  96
   2024 04 21 23:10  15 57 49.75    -13 49 47.3   0.0096 1.0136 151.0  m  15?   2.44 161.8   23 141  50  96
   2024 04 21 23:20  15 57 50.24    -13 50 10.4   0.0096 1.0136 151.0  m  15?   2.40 163.3   24 143  50  96
   2024 04 21 23:30  15 57 50.69    -13 50 33.2   0.0096 1.0136 151.0  m  15?   2.35 164.7   25 146  50  96
   2024 04 21 23:40  15 57 51.09    -13 50 55.8   0.0096 1.0136 151.0  m  15?   2.31 166.0   26 148  50  96
   2024 04 21 23:50  15 57 51.44    -13 51 18.1   0.0096 1.0136 151.0  m  15?   2.27 167.3   27 151  50  96
   2024 04 22 00:00  15 57 51.76    -13 51 40.1   0.0096 1.0136 151.1  m  15?   2.23 168.5   28 153  50  96
   2024 04 22 00:10  15 57 52.05    -13 52 01.9   0.0096 1.0136 151.1  m  15?   2.20 169.6   29 156  50  96
   2024 04 22 00:20  15 57 52.30    -13 52 23.3   0.0096 1.0136 151.1  m  15?   2.16 170.6   29 159  50  96
   2024 04 22 00:30  15 57 52.53    -13 52 44.5   0.0096 1.0136 151.1  m  15?   2.13 171.4   30 161  50  96
   2024 04 22 00:40  15 57 52.73    -13 53 05.4   0.0096 1.0136 151.1  m  15?   2.09 172.2   30 164  50  96
   2024 04 22 00:50  15 57 52.91    -13 53 26.0   0.0096 1.0136 151.1  m  15?   2.06 172.8   31 167  50  96
   2024 04 22 01:00  15 57 53.08    -13 53 46.2   0.0096 1.0136 151.1  m  15?   2.03 173.3   31 170  50  96
   2024 04 22 01:10  15 57 53.23    -13 54 06.2   0.0096 1.0136 151.1  m  15?   1.99 173.7   31 173  50  96
   2024 04 22 01:20  15 57 53.37    -13 54 25.9   0.0096 1.0136 151.1  m  15?   1.96 173.9   32 175  50  96
   2024 04 22 01:30  15 57 53.51    -13 54 45.2   0.0096 1.0136 151.1  m  15?   1.93 174.0   32 178  50  96
   2024 04 22 01:40  15 57 53.64    -13 55 04.3   0.0096 1.0136 151.1  t  15?   1.90 173.9   32 181  50  96
   2024 04 22 01:50  15 57 53.78    -13 55 23.0   0.0096 1.0136 151.1  m  15?   1.87 173.6   31 184  50  96
   2024 04 22 02:00  15 57 53.92    -13 55 41.5   0.0096 1.0136 151.1  m  15?   1.84 173.1   31 187  49  96
   2024 04 22 02:10  15 57 54.07    -13 55 59.6   0.0096 1.0136 151.1  m  15?   1.81 172.5   31 190  49  96
   2024 04 22 02:20  15 57 54.24    -13 56 17.4   0.0096 1.0136 151.1  m  15?   1.79 171.7   31 193  49  96
   2024 04 22 02:30  15 57 54.42    -13 56 35.0   0.0096 1.0136 151.1  m  15?   1.76 170.6   30 195  49  96
   2024 04 22 02:40  15 57 54.63    -13 56 52.2   0.0096 1.0136 151.2  m  15?   1.74 169.4   30 198  49  96
   2024 04 22 02:50  15 57 54.86    -13 57 09.1   0.0096 1.0136 151.2  m  15?   1.71 167.9   29 201  49  96
   2024 04 22 03:00  15 57 55.11    -13 57 25.7   0.0096 1.0136 151.2 Am  15?   1.70 166.3   28 204  49  96
   2024 04 22 03:10  15 57 55.40    -13 57 42.1   0.0096 1.0136 151.2 Am  15?   1.68 164.4   28 206  49  96
   2024 04 22 03:20  15 57 55.73    -13 57 58.1   0.0096 1.0136 151.2 Am  15?   1.67 162.4   27 209  49  96
   2024 04 22 03:30  15 57 56.09    -13 58 13.9   0.0096 1.0136 151.2 Am  15?   1.66 160.2   26 211  49  96
   2024 04 22 03:40  15 57 56.50    -13 58 29.4   0.0096 1.0136 151.2 Nm  15?   1.66 157.8   25 214  49  96
   2024 04 22 03:50  15 57 56.95    -13 58 44.7   0.0096 1.0136 151.2 Nm  15?   1.66 155.3   24 216  49  96
   2024 04 22 04:00  15 57 57.44    -13 58 59.7   0.0096 1.0136 151.2 Nm  15?   1.67 152.7   23 218  49  96
   2024 04 22 04:10  15 57 58.00    -13 59 14.4   0.0096 1.0136 151.2 N   15?   1.69 149.9   21 221  49  96
   2024 04 22 04:20  15 57 58.60    -13 59 28.9   0.0096 1.0136 151.2 C   15?   1.71 147.2   20 223  48  96
   2024 04 22 04:30  15 57 59.26    -13 59 43.2   0.0096 1.0136 151.2 C   15?   1.74 144.4   19 225  48  96
   ................
   2024 04 22 20:40  16 02 37.73    -14 29 08.6   0.0097 1.0138 150.7  m  15?   3.40 138.9    1 111  41  98
   2024 04 22 20:50  16 02 39.22    -14 29 34.2   0.0097 1.0138 150.7  m  15?   3.31 140.3    2 113  41  98
   2024 04 22 21:00  16 02 40.63    -14 29 59.7   0.0097 1.0138 150.7  m  15?   3.23 141.8    4 115  41  98
   2024 04 22 21:10  16 02 41.96    -14 30 25.1   0.0097 1.0138 150.7  m  15?   3.15 143.3    5 116  41  98
   2024 04 22 21:20  16 02 43.21    -14 30 50.4   0.0097 1.0138 150.7  m  15?   3.07 144.9    7 118  41  98
   2024 04 22 21:30  16 02 44.38    -14 31 15.5   0.0097 1.0138 150.7  m  15?   3.00 146.5    9 120  40  98
   2024 04 22 21:40  16 02 45.48    -14 31 40.5   0.0097 1.0138 150.7  m  15?   2.93 148.1   10 122  40  98
   2024 04 22 21:50  16 02 46.50    -14 32 05.3   0.0097 1.0139 150.7  m  15?   2.86 149.7   12 124  40  98
   2024 04 22 22:00  16 02 47.45    -14 32 29.9   0.0097 1.0139 150.7  m  15?   2.79 151.4   13 126  40  98
   2024 04 22 22:10  16 02 48.33    -14 32 54.4   0.0097 1.0139 150.7  m  15?   2.73 153.1   15 128  40  98
   2024 04 22 22:20  16 02 49.15    -14 33 18.6   0.0097 1.0139 150.7  m  15?   2.67 154.7   16 130  40  98
   2024 04 22 22:30  16 02 49.90    -14 33 42.7   0.0097 1.0139 150.7  m  15?   2.61 156.4   17 132  40  99
   2024 04 22 22:40  16 02 50.58    -14 34 06.5   0.0097 1.0139 150.7  m  15?   2.55 158.0   19 134  40  99
   2024 04 22 22:50  16 02 51.21    -14 34 30.1   0.0097 1.0139 150.7  m  15?   2.50 159.6   20 137  40  99
   2024 04 22 23:00  16 02 51.77    -14 34 53.5   0.0097 1.0139 150.8  m  15?   2.45 161.2   21 139  40  99
   2024 04 22 23:10  16 02 52.29    -14 35 16.6   0.0097 1.0139 150.8  m  15?   2.40 162.7   22 141  40  99
   2024 04 22 23:20  16 02 52.75    -14 35 39.4   0.0097 1.0139 150.8  m  15?   2.36 164.2   23 143  40  99
   2024 04 22 23:30  16 02 53.16    -14 36 02.0   0.0097 1.0139 150.8  m  15?   2.32 165.7   24 146  40  99
   2024 04 22 23:40  16 02 53.53    -14 36 24.3   0.0097 1.0139 150.8  m  15?   2.27 167.1   25 148  40  99
   2024 04 22 23:50  16 02 53.86    -14 36 46.4   0.0097 1.0139 150.8  m  15?   2.23 168.4   26 151  40  99
   2024 04 23 00:00  16 02 54.14    -14 37 08.1   0.0097 1.0139 150.8  m  15?   2.20 169.6   27 153  40  99
   2024 04 23 00:10  16 02 54.39    -14 37 29.6   0.0097 1.0139 150.8  m  15?   2.16 170.7   28 156  40  99
   2024 04 23 00:20  16 02 54.62    -14 37 50.7   0.0097 1.0139 150.8  m  15?   2.12 171.7   28 159  40  99
   2024 04 23 00:30  16 02 54.81    -14 38 11.6   0.0097 1.0139 150.8  m  15?   2.09 172.6   29 161  40  99
   2024 04 23 00:40  16 02 54.98    -14 38 32.1   0.0097 1.0139 150.8  m  15?   2.05 173.4   30 164  40  99
   2024 04 23 00:50  16 02 55.12    -14 38 52.4   0.0097 1.0139 150.8  m  15?   2.02 174.1   30 167  39  99
   2024 04 23 01:00  16 02 55.25    -14 39 12.3   0.0097 1.0139 150.8  m  15?   1.98 174.7   30 170  39  99
   2024 04 23 01:10  16 02 55.37    -14 39 31.9   0.0097 1.0139 150.8  m  15?   1.95 175.1   31 172  39  99
   2024 04 23 01:20  16 02 55.48    -14 39 51.2   0.0097 1.0139 150.8  m  15?   1.92 175.3   31 175  39  99
   2024 04 23 01:30  16 02 55.58    -14 40 10.1   0.0097 1.0139 150.8  m  15?   1.89 175.4   31 178  39  99
   2024 04 23 01:40  16 02 55.68    -14 40 28.8   0.0097 1.0139 150.8  t  15?   1.85 175.4   31 181  39  99
   2024 04 23 01:50  16 02 55.78    -14 40 47.1   0.0097 1.0139 150.8  m  15?   1.82 175.1   31 184  39  99
   2024 04 23 02:00  16 02 55.89    -14 41 05.1   0.0097 1.0139 150.9  m  15?   1.79 174.7   31 187  39  99
   2024 04 23 02:10  16 02 56.00    -14 41 22.8   0.0097 1.0139 150.9  m  15?   1.76 174.1   30 189  39  99
   2024 04 23 02:20  16 02 56.13    -14 41 40.1   0.0097 1.0139 150.9  m  15?   1.73 173.3   30 192  39  99
   2024 04 23 02:30  16 02 56.28    -14 41 57.2   0.0097 1.0139 150.9  m  15?   1.70 172.2   29 195  39  99
   2024 04 23 02:40  16 02 56.44    -14 42 13.9   0.0097 1.0139 150.9  m  15?   1.68 171.0   29 198  39  99
   2024 04 23 02:50  16 02 56.63    -14 42 30.3   0.0097 1.0139 150.9  m  15?   1.65 169.5   28 200  39  99
   2024 04 23 03:00  16 02 56.85    -14 42 46.4   0.0097 1.0139 150.9 Am  15?   1.63 167.9   28 203  39  99
   2024 04 23 03:10  16 02 57.10    -14 43 02.2   0.0097 1.0139 150.9 Am  15?   1.61 166.0   27 206  39  99
   2024 04 23 03:20  16 02 57.38    -14 43 17.8   0.0097 1.0139 150.9 Am  15?   1.60 163.9   26 208  39  99
   2024 04 23 03:30  16 02 57.70    -14 43 33.0   0.0097 1.0139 150.9 Am  15?   1.59 161.6   25 211  38  99
   2024 04 23 03:40  16 02 58.07    -14 43 47.9   0.0097 1.0139 150.9 Nm  15?   1.58 159.1   24 213  38  99
   2024 04 23 03:50  16 02 58.48    -14 44 02.6   0.0097 1.0139 150.9 Nm  15?   1.58 156.5   23 215  38  99
   2024 04 23 04:00  16 02 58.93    -14 44 17.0   0.0097 1.0139 150.9 Nm  15?   1.59 153.8   22 218  38  99
   2024 04 23 04:10  16 02 59.44    -14 44 31.1   0.0097 1.0139 150.9 Cm  15?   1.60 150.9   21 220  38  99
   2024 04 23 04:20  16 03 00.00    -14 44 45.0   0.0097 1.0139 150.9 Cm  15?   1.62 148.0   20 222  38  99
   2024 04 23 04:30  16 03 00.62    -14 44 58.6   0.0097 1.0139 150.9 C   15?   1.65 145.0   18 225  38  99
   ................
   2024 04 23 20:40  16 07 34.33    -15 13 36.5   0.0097 1.0141 150.5  m  15?   3.35 139.4    0 111  30  99
   2024 04 23 20:50  16 07 35.79    -15 14 01.9   0.0097 1.0142 150.5  m  15?   3.27 140.9    2 113  30  99
   2024 04 23 21:00  16 07 37.17    -15 14 27.3   0.0097 1.0142 150.5  m  15?   3.18 142.4    3 115  30  99
   2024 04 23 21:10  16 07 38.46    -15 14 52.5   0.0097 1.0142 150.5  m  15?   3.11 144.0    5 117  30  99
   2024 04 23 21:20  16 07 39.68    -15 15 17.6   0.0097 1.0142 150.5  m  15?   3.03 145.6    6 119  30  99
   2024 04 23 21:30  16 07 40.82    -15 15 42.6   0.0097 1.0142 150.5  m  15?   2.96 147.2    8 120  30  99
   2024 04 23 21:40  16 07 41.88    -15 16 07.4   0.0097 1.0142 150.5  m  15?   2.88 148.8    9 122  30  99
   2024 04 23 21:50  16 07 42.87    -15 16 32.0   0.0097 1.0142 150.5  m  15?   2.82 150.5   11 124  30  99
   2024 04 23 22:00  16 07 43.79    -15 16 56.5   0.0097 1.0142 150.5  m  15?   2.75 152.2   12 126  30  99
   2024 04 23 22:10  16 07 44.64    -15 17 20.8   0.0097 1.0142 150.5  m  15?   2.69 153.9   14 128  30  99
   2024 04 23 22:20  16 07 45.42    -15 17 44.8   0.0097 1.0142 150.5  m  15?   2.63 155.5   15 130  30  99
   2024 04 23 22:30  16 07 46.13    -15 18 08.7   0.0097 1.0142 150.5  m  15?   2.57 157.2   17 132  30  99
   2024 04 23 22:40  16 07 46.78    -15 18 32.3   0.0097 1.0142 150.5  m  15?   2.52 158.9   18 134  30  99
   2024 04 23 22:50  16 07 47.37    -15 18 55.6   0.0097 1.0142 150.5  m  15?   2.46 160.5   19 137  30  99
   2024 04 23 23:00  16 07 47.91    -15 19 18.8   0.0097 1.0142 150.5  m  15?   2.41 162.2   20 139  30  99
   2024 04 23 23:10  16 07 48.39    -15 19 41.6   0.0097 1.0142 150.5  m  15?   2.37 163.7   21 141  30  99
   2024 04 23 23:20  16 07 48.82    -15 20 04.3   0.0097 1.0142 150.5  m  15?   2.32 165.3   22 144  29  99
   2024 04 23 23:30  16 07 49.20    -15 20 26.6   0.0097 1.0142 150.5  m  15?   2.28 166.7   24 146  29  99
   2024 04 23 23:40  16 07 49.53    -15 20 48.6   0.0097 1.0142 150.5  m  15?   2.24 168.2   24 148  29  99
   2024 04 23 23:50  16 07 49.82    -15 21 10.4   0.0097 1.0142 150.5  m  15?   2.20 169.5   25 151  29  99
   2024 04 24 00:00  16 07 50.08    -15 21 31.8   0.0097 1.0142 150.5  m  15?   2.16 170.8   26 153  29  99
   2024 04 24 00:10  16 07 50.30    -15 21 53.0   0.0097 1.0142 150.5  m  15?   2.12 171.9   27 156  29  99
   2024 04 24 00:20  16 07 50.48    -15 22 13.8   0.0097 1.0142 150.5  m  15?   2.08 173.0   28 159  29  99
   2024 04 24 00:30  16 07 50.64    -15 22 34.4   0.0097 1.0142 150.6  m  16?   2.05 173.9   28 161  29  99
   2024 04 24 00:40  16 07 50.77    -15 22 54.6   0.0097 1.0142 150.6  m  16?   2.01 174.8   29 164  29  99
   2024 04 24 00:50  16 07 50.88    -15 23 14.5   0.0097 1.0142 150.6  m  16?   1.98 175.5   29 167  29  99
   2024 04 24 01:00  16 07 50.98    -15 23 34.0   0.0097 1.0142 150.6  m  16?   1.94 176.1   30 169  29  99
   2024 04 24 01:10  16 07 51.06    -15 23 53.2   0.0097 1.0142 150.6  m  16?   1.91 176.6   30 172  29  99
   2024 04 24 01:20  16 07 51.13    -15 24 12.1   0.0097 1.0142 150.6  m  16?   1.88 176.9   30 175  29  99
   2024 04 24 01:30  16 07 51.20    -15 24 30.7   0.0097 1.0142 150.6  m  16?   1.84 177.0   30 178  29  99
   2024 04 24 01:40  16 07 51.26    -15 24 48.9   0.0097 1.0142 150.6  t  16?   1.81 177.0   30 181  29  99
   2024 04 24 01:50  16 07 51.32    -15 25 06.8   0.0097 1.0142 150.6  m  16?   1.77 176.8   30 183  29  99
   2024 04 24 02:00  16 07 51.39    -15 25 24.4   0.0097 1.0142 150.6  m  16?   1.74 176.4   30 186  29  99
   2024 04 24 02:10  16 07 51.47    -15 25 41.6   0.0097 1.0142 150.6  m  16?   1.71 175.8   30 189  29  99
   2024 04 24 02:20  16 07 51.56    -15 25 58.5   0.0097 1.0142 150.6  m  16?   1.68 175.0   29 192  29  99
   2024 04 24 02:30  16 07 51.66    -15 26 15.0   0.0097 1.0142 150.6  m  16?   1.65 174.0   29 194  28  99
   2024 04 24 02:40  16 07 51.79    -15 26 31.3   0.0097 1.0142 150.6  m  16?   1.62 172.8   28 197  28  99
   2024 04 24 02:50  16 07 51.94    -15 26 47.2   0.0097 1.0142 150.6 Am  16?   1.59 171.3   28 200  28  99
   2024 04 24 03:00  16 07 52.12    -15 27 02.8   0.0097 1.0142 150.6 Am  16?   1.57 169.6   27 202  28  99
   2024 04 24 03:10  16 07 52.33    -15 27 18.0   0.0097 1.0142 150.7 Am  16?   1.55 167.7   26 205  28  99
   2024 04 24 03:20  16 07 52.57    -15 27 33.0   0.0097 1.0142 150.7 Am  16?   1.53 165.6   25 208  28  99
   2024 04 24 03:30  16 07 52.85    -15 27 47.7   0.0097 1.0142 150.7 Am  16?   1.52 163.2   25 210  28  99
   2024 04 24 03:40  16 07 53.17    -15 28 02.0   0.0097 1.0142 150.7 Nm  16?   1.51 160.6   24 212  28  99
   2024 04 24 03:50  16 07 53.54    -15 28 16.1   0.0097 1.0142 150.7 Nm  16?   1.50 157.9   23 215  28  99
   2024 04 24 04:00  16 07 53.95    -15 28 29.9   0.0097 1.0142 150.7 Nm  16?   1.51 155.0   22 217  28  99
   2024 04 24 04:10  16 07 54.41    -15 28 43.5   0.0097 1.0142 150.7 Cm  16?   1.52 152.0   20 220  28  99
   2024 04 24 04:20  16 07 54.93    -15 28 56.7   0.0097 1.0142 150.7 Cm  16?   1.53 148.9   19 222  28  99
   2024 04 24 04:30  16 07 55.50    -15 29 09.7   0.0097 1.0143 150.7 Cm  16?   1.56 145.8   18 224  28  99
   ................
   2024 04 24 20:40  16 12 24.41    -15 56 59.9   0.0098 1.0145 150.2  r  16?   3.30 140.0    0 112  20  99
   2024 04 24 20:50  16 12 25.83    -15 57 25.2   0.0098 1.0145 150.2  m  16?   3.22 141.5    1 113  20  99
   2024 04 24 21:00  16 12 27.17    -15 57 50.4   0.0098 1.0145 150.2  m  16?   3.14 143.1    2 115  20  99
   2024 04 24 21:10  16 12 28.43    -15 58 15.4   0.0098 1.0145 150.2  m  16?   3.06 144.7    4 117  20  99
   2024 04 24 21:20  16 12 29.62    -15 58 40.4   0.0098 1.0145 150.2  m  16?   2.98 146.3    6 119  20  99
   2024 04 24 21:30  16 12 30.72    -15 59 05.1   0.0098 1.0145 150.3  m  16?   2.91 147.9    7 121  20  99
   2024 04 24 21:40  16 12 31.75    -15 59 29.8   0.0098 1.0145 150.3  m  16?   2.84 149.6    9 123  20  99
   2024 04 24 21:50  16 12 32.70    -15 59 54.2   0.0098 1.0145 150.3  m  16?   2.77 151.3   10 125  20  99
   2024 04 24 22:00  16 12 33.58    -16 00 18.5   0.0098 1.0145 150.3  m  16?   2.71 153.0   12 126  20  99
   2024 04 24 22:10  16 12 34.40    -16 00 42.5   0.0098 1.0145 150.3  m  16?   2.65 154.7   13 128  20  98
   2024 04 24 22:20  16 12 35.14    -16 01 06.4   0.0098 1.0145 150.3  m  16?   2.59 156.4   14 131  20  98
   2024 04 24 22:30  16 12 35.82    -16 01 30.0   0.0098 1.0145 150.3  m  16?   2.53 158.2   16 133  19  98
   2024 04 24 22:40  16 12 36.44    -16 01 53.4   0.0098 1.0145 150.3  m  16?   2.48 159.9   17 135  19  98
   2024 04 24 22:50  16 12 36.99    -16 02 16.5   0.0098 1.0145 150.3  m  16?   2.42 161.5   18 137  19  98
   2024 04 24 23:00  16 12 37.49    -16 02 39.4   0.0098 1.0145 150.3  m  16?   2.37 163.2   20 139  19  98
   2024 04 24 23:10  16 12 37.94    -16 03 02.0   0.0098 1.0145 150.3  m  16?   2.33 164.8   21 141  19  98
   2024 04 24 23:20  16 12 38.33    -16 03 24.4   0.0098 1.0145 150.3  m  16?   2.28 166.4   22 144  19  98
   2024 04 24 23:30  16 12 38.67    -16 03 46.5   0.0098 1.0145 150.3  m  16?   2.24 167.9   23 146  19  98
   2024 04 24 23:40  16 12 38.97    -16 04 08.2   0.0098 1.0145 150.3  m  16?   2.20 169.4   24 148  19  98
   2024 04 24 23:50  16 12 39.23    -16 04 29.7   0.0098 1.0145 150.3  m  16?   2.16 170.7   25 151  19  98
   2024 04 25 00:00  16 12 39.45    -16 04 50.8   0.0098 1.0145 150.3  m  16?   2.12 172.0   25 153  19  98
   2024 04 25 00:10  16 12 39.63    -16 05 11.7   0.0098 1.0145 150.3  m  16?   2.08 173.2   26 156  19  98
   2024 04 25 00:20  16 12 39.78    -16 05 32.2   0.0098 1.0145 150.3  m  16?   2.05 174.4   27 159  19  98
   2024 04 25 00:30  16 12 39.90    -16 05 52.4   0.0098 1.0145 150.3  m  16?   2.01 175.4   27 161  19  98
   2024 04 25 00:40  16 12 40.00    -16 06 12.3   0.0098 1.0145 150.3  m  16?   1.97 176.3   28 164  19  98
   2024 04 25 00:50  16 12 40.07    -16 06 31.8   0.0098 1.0145 150.3  m  16?   1.94 177.0   28 167  19  98
   2024 04 25 01:00  16 12 40.13    -16 06 51.0   0.0098 1.0145 150.4  m  16?   1.90 177.7   29 169  19  98
   2024 04 25 01:10  16 12 40.17    -16 07 09.8   0.0098 1.0145 150.4  m  16?   1.87 178.2   29 172  19  98
   2024 04 25 01:20  16 12 40.21    -16 07 28.3   0.0098 1.0145 150.4  m  16?   1.83 178.5   29 175  19  98
   2024 04 25 01:30  16 12 40.23    -16 07 46.5   0.0098 1.0145 150.4  m  16?   1.80 178.7   29 178  19  98
   2024 04 25 01:40  16 12 40.26    -16 08 04.3   0.0098 1.0145 150.4  t  16?   1.76 178.7   29 180  19  98
   2024 04 25 01:50  16 12 40.28    -16 08 21.7   0.0098 1.0145 150.4  m  16?   1.73 178.6   29 183  19  98
   2024 04 25 02:00  16 12 40.31    -16 08 38.8   0.0098 1.0145 150.4  m  16?   1.69 178.2   29 186  18  98
   2024 04 25 02:10  16 12 40.35    -16 08 55.6   0.0098 1.0145 150.4  m  16?   1.66 177.7   29 189  18  98
   2024 04 25 02:20  16 12 40.40    -16 09 12.0   0.0098 1.0145 150.4  m  16?   1.63 176.9   29 191  18  98
   2024 04 25 02:30  16 12 40.46    -16 09 28.1   0.0098 1.0145 150.4  m  16?   1.59 175.9   28 194  18  98
   2024 04 25 02:40  16 12 40.55    -16 09 43.8   0.0098 1.0145 150.4  m  16?   1.56 174.7   28 197  18  98
   2024 04 25 02:50  16 12 40.66    -16 09 59.2   0.0098 1.0145 150.4 Am  16?   1.53 173.3   27 199  18  98
   2024 04 25 03:00  16 12 40.79    -16 10 14.3   0.0098 1.0145 150.4 Am  16?   1.51 171.6   26 202  18  98
   2024 04 25 03:10  16 12 40.96    -16 10 29.1   0.0098 1.0145 150.4 Am  16?   1.48 169.6   26 205  18  98
   2024 04 25 03:20  16 12 41.16    -16 10 43.5   0.0098 1.0145 150.4 Am  16?   1.46 167.4   25 207  18  98
   2024 04 25 03:30  16 12 41.40    -16 10 57.6   0.0098 1.0146 150.4 Nm  16?   1.44 165.0   24 210  18  98
   2024 04 25 03:40  16 12 41.68    -16 11 11.4   0.0098 1.0146 150.5 Nm  16?   1.43 162.3   23 212  18  98
   2024 04 25 03:50  16 12 42.00    -16 11 24.9   0.0098 1.0146 150.5 Nm  16?   1.43 159.5   22 214  18  98
   2024 04 25 04:00  16 12 42.36    -16 11 38.1   0.0098 1.0146 150.5 Nm  16?   1.42 156.4   21 217  18  98
   2024 04 25 04:10  16 12 42.78    -16 11 51.1   0.0098 1.0146 150.5 Cm  16?   1.43 153.2   20 219  18  98
   2024 04 25 04:20  16 12 43.25    -16 12 03.7   0.0098 1.0146 150.5 Cm  16?   1.44 150.0   19 221  18  98
   2024 04 25 04:30  16 12 43.78    -16 12 16.1   0.0098 1.0146 150.5 Cm  16?   1.47 146.7   17 223  18  98
   ................
   2024 04 25 20:50  16 17 09.20    -16 39 43.8   0.0099 1.0148 150.1  m  16?   3.16 142.2    0 114  11  96
   2024 04 25 21:00  16 17 10.50    -16 40 08.8   0.0099 1.0148 150.1  m  16?   3.08 143.8    2 116  11  96
   2024 04 25 21:10  16 17 11.72    -16 40 33.7   0.0099 1.0148 150.1  m  16?   3.01 145.4    3 117  11  96
   2024 04 25 21:20  16 17 12.86    -16 40 58.4   0.0099 1.0148 150.1  m  16?   2.93 147.1    5 119  11  96
   2024 04 25 21:30  16 17 13.93    -16 41 23.0   0.0099 1.0148 150.1  m  16?   2.86 148.8    7 121  11  96
   2024 04 25 21:40  16 17 14.92    -16 41 47.5   0.0099 1.0148 150.1  m  16?   2.79 150.5    8 123  11  96
   2024 04 25 21:50  16 17 15.84    -16 42 11.7   0.0099 1.0148 150.1  m  16?   2.73 152.2   10 125  11  96
   2024 04 25 22:00  16 17 16.68    -16 42 35.8   0.0099 1.0148 150.1  m  16?   2.66 153.9   11 127  11  96
   2024 04 25 22:10  16 17 17.46    -16 42 59.6   0.0099 1.0148 150.1  m  16?   2.60 155.7   12 129  11  96
   2024 04 25 22:20  16 17 18.16    -16 43 23.2   0.0099 1.0148 150.1  m  16?   2.54 157.4   14 131  11  96
   2024 04 25 22:30  16 17 18.81    -16 43 46.6   0.0099 1.0148 150.1  m  16?   2.49 159.2   15 133  11  96
   2024 04 25 22:40  16 17 19.38    -16 44 09.8   0.0099 1.0148 150.1  m  16?   2.43 160.9   16 135  11  95
   2024 04 25 22:50  16 17 19.90    -16 44 32.7   0.0099 1.0148 150.1  m  16?   2.38 162.7   18 137  11  95
   2024 04 25 23:00  16 17 20.36    -16 44 55.3   0.0099 1.0148 150.1  m  16?   2.33 164.3   19 139  11  95
   2024 04 25 23:10  16 17 20.77    -16 45 17.7   0.0099 1.0148 150.1  m  16?   2.29 166.0   20 142  11  95
   2024 04 25 23:20  16 17 21.13    -16 45 39.8   0.0099 1.0148 150.1  m  16?   2.24 167.6   21 144  11  95
   2024 04 25 23:30  16 17 21.43    -16 46 01.5   0.0099 1.0148 150.1  m  16?   2.20 169.2   22 146  11  95
   2024 04 25 23:40  16 17 21.69    -16 46 23.0   0.0099 1.0148 150.1  m  16?   2.16 170.7   23 149  10  95
   2024 04 25 23:50  16 17 21.91    -16 46 44.2   0.0099 1.0148 150.1  m  16?   2.12 172.1   24 151  10  95
   2024 04 26 00:00  16 17 22.09    -16 47 05.0   0.0099 1.0148 150.1  m  16?   2.08 173.4   25 153  10  95
   2024 04 26 00:10  16 17 22.24    -16 47 25.6   0.0099 1.0148 150.1  m  16?   2.04 174.7   25 156  10  95
   2024 04 26 00:20  16 17 22.35    -16 47 45.8   0.0099 1.0148 150.1  m  16?   2.01 175.9   26 159  10  95
   2024 04 26 00:30  16 17 22.43    -16 48 05.6   0.0099 1.0148 150.1  m  16?   1.97 176.9   27 161  10  95
   2024 04 26 00:40  16 17 22.49    -16 48 25.1   0.0099 1.0148 150.1  m  16?   1.93 177.9   27 164  10  95
   2024 04 26 00:50  16 17 22.52    -16 48 44.3   0.0099 1.0148 150.2  m  16?   1.90 178.7   28 166  10  95
   2024 04 26 01:00  16 17 22.54    -16 49 03.1   0.0099 1.0148 150.2  m  16?   1.86 179.4   28 169  10  95
   2024 04 26 01:10  16 17 22.54    -16 49 21.6   0.0099 1.0148 150.2  m  16?   1.83 179.9   28 172  10  95
   2024 04 26 01:20  16 17 22.54    -16 49 39.7   0.0099 1.0148 150.2  m  16?   1.79 180.3   29 175  10  95
   2024 04 26 01:30  16 17 22.52    -16 49 57.4   0.0099 1.0148 150.2  m  16?   1.76 180.6   29 177  10  95
   2024 04 26 01:40  16 17 22.51    -16 50 14.8   0.0099 1.0148 150.2  t  16?   1.72 180.6   29 180  10  95
   2024 04 26 01:50  16 17 22.49    -16 50 31.8   0.0099 1.0148 150.2  m  16?   1.68 180.5   29 183  10  95
   2024 04 26 02:00  16 17 22.48    -16 50 48.5   0.0099 1.0148 150.2  m  16?   1.65 180.2   28 186  10  95
   2024 04 26 02:10  16 17 22.48    -16 51 04.8   0.0099 1.0148 150.2  m  16?   1.61 179.7   28 188  10  95
   2024 04 26 02:20  16 17 22.48    -16 51 20.7   0.0099 1.0148 150.2  m  16?   1.58 179.0   28 191  10  95
   2024 04 26 02:30  16 17 22.51    -16 51 36.3   0.0099 1.0149 150.2  m  16?   1.54 178.1   27 194  10  95
   2024 04 26 02:40  16 17 22.55    -16 51 51.6   0.0099 1.0149 150.2  m  16?   1.51 176.9   27 196  10  95
   2024 04 26 02:50  16 17 22.62    -16 52 06.5   0.0099 1.0149 150.2 Am  16?   1.48 175.4   26 199  10  95
   2024 04 26 03:00  16 17 22.71    -16 52 21.0   0.0099 1.0149 150.2 Am  16?   1.45 173.7   26 202  10  95
   2024 04 26 03:10  16 17 22.83    -16 52 35.3   0.0099 1.0149 150.2 Am  16?   1.42 171.8   25 204  10  95
   2024 04 26 03:20  16 17 22.99    -16 52 49.1   0.0099 1.0149 150.3 Am  16?   1.39 169.5   24 207  10  95
   2024 04 26 03:30  16 17 23.18    -16 53 02.7   0.0099 1.0149 150.3 Nm  16?   1.37 167.0   23 209  10  95
   2024 04 26 03:40  16 17 23.41    -16 53 16.0   0.0099 1.0149 150.3 Nm  16?   1.36 164.3   22 211  10  95
   2024 04 26 03:50  16 17 23.69    -16 53 28.9   0.0099 1.0149 150.3 Nm  16?   1.35 161.3   21 214  10  95
   2024 04 26 04:00  16 17 24.01    -16 53 41.5   0.0099 1.0149 150.3 Nm  16?   1.34 158.1   20 216  10  95
   2024 04 26 04:10  16 17 24.38    -16 53 53.9   0.0099 1.0149 150.3 Cm  16?   1.35 154.7   19 218  10  95
   2024 04 26 04:20  16 17 24.81    -16 54 05.9   0.0099 1.0149 150.3 Cm  16?   1.36 151.3   18 221  10  95
   2024 04 26 04:30  16 17 25.29    -16 54 17.7   0.0099 1.0149 150.3 Cm  16?   1.38 147.7   17 223  10  95
   ................
   2024 04 26 20:50  16 21 45.68    -17 20 58.1   0.0099 1.0151 149.9  r  16?   3.11 143.0    0 114  10  91
   2024 04 26 21:00  16 21 46.94    -17 21 22.9   0.0099 1.0151 149.9     16?   3.03 144.6    1 116  10  91
   2024 04 26 21:10  16 21 48.12    -17 21 47.6   0.0099 1.0151 149.9     16?   2.95 146.2    3 118  10  91
   2024 04 26 21:20  16 21 49.23    -17 22 12.1   0.0099 1.0151 149.9     16?   2.88 147.9    4 120  10  91
   2024 04 26 21:30  16 21 50.25    -17 22 36.5   0.0099 1.0151 149.9     16?   2.81 149.6    6 121  10  91
   2024 04 26 21:40  16 21 51.20    -17 23 00.7   0.0099 1.0151 149.9  m  16?   2.74 151.4    7 123  10  91
   2024 04 26 21:50  16 21 52.08    -17 23 24.7   0.0099 1.0151 149.9  m  16?   2.68 153.2    9 125  10  91
   2024 04 26 22:00  16 21 52.88    -17 23 48.6   0.0099 1.0151 149.9  m  16?   2.62 154.9   10 127  10  91
   2024 04 26 22:10  16 21 53.61    -17 24 12.2   0.0099 1.0151 149.9  m  16?   2.56 156.7   12 129  10  91
   2024 04 26 22:20  16 21 54.28    -17 24 35.6   0.0099 1.0151 149.9  m  16?   2.50 158.5   13 131  10  91
   2024 04 26 22:30  16 21 54.88    -17 24 58.8   0.0099 1.0151 149.9  m  16?   2.44 160.3   14 133  10  91
   2024 04 26 22:40  16 21 55.42    -17 25 21.7   0.0099 1.0151 149.9  m  16?   2.39 162.1   16 135  10  91
   2024 04 26 22:50  16 21 55.90    -17 25 44.3   0.0099 1.0151 149.9  m  16?   2.34 163.9   17 137  10  91
   2024 04 26 23:00  16 21 56.32    -17 26 06.7   0.0099 1.0151 149.9  m  16?   2.29 165.6   18 139  10  90
   2024 04 26 23:10  16 21 56.69    -17 26 28.8   0.0099 1.0151 149.9  m  16?   2.25 167.3   19 142  10  90
   2024 04 26 23:20  16 21 57.00    -17 26 50.6   0.0099 1.0151 149.9  m  16?   2.20 169.0   20 144  10  90
   2024 04 26 23:30  16 21 57.27    -17 27 12.1   0.0099 1.0151 149.9  m  16?   2.16 170.6   21 146  10  90
   2024 04 26 23:40  16 21 57.49    -17 27 33.3   0.0099 1.0151 149.9  m  16?   2.12 172.1   22 149  10  90
   2024 04 26 23:50  16 21 57.67    -17 27 54.2   0.0099 1.0151 150.0  m  16?   2.08 173.6   23 151  10  90
   2024 04 27 00:00  16 21 57.81    -17 28 14.7   0.0099 1.0151 150.0  m  16?   2.04 175.0   24 154  10  90
   2024 04 27 00:10  16 21 57.91    -17 28 34.9   0.0099 1.0151 150.0  m  16?   2.01 176.3   25 156  10  90
   2024 04 27 00:20  16 21 57.98    -17 28 54.8   0.0099 1.0151 150.0  m  16?   1.97 177.5   25 159  10  90
   2024 04 27 00:30  16 21 58.02    -17 29 14.3   0.0099 1.0151 150.0  m  16?   1.93 178.6   26 161  10  90
   2024 04 27 00:40  16 21 58.04    -17 29 33.4   0.0099 1.0151 150.0  m  16?   1.90 179.6   27 164  10  90
   2024 04 27 00:50  16 21 58.03    -17 29 52.2   0.0099 1.0151 150.0  m  16?   1.86 180.5   27 166  10  90
   2024 04 27 01:00  16 21 58.01    -17 30 10.7   0.0099 1.0151 150.0  m  16?   1.83 181.2   27 169  10  90
   2024 04 27 01:10  16 21 57.97    -17 30 28.7   0.0099 1.0151 150.0  m  16?   1.79 181.9   28 172  10  90
   2024 04 27 01:20  16 21 57.92    -17 30 46.4   0.0099 1.0151 150.0  m  16?   1.75 182.3   28 175  10  90
   2024 04 27 01:30  16 21 57.86    -17 31 03.8   0.0099 1.0152 150.0  m  16?   1.72 182.6   28 177  10  90
   2024 04 27 01:40  16 21 57.80    -17 31 20.7   0.0099 1.0152 150.0  t  16?   1.68 182.7   28 180  11  90
   2024 04 27 01:50  16 21 57.75    -17 31 37.3   0.0099 1.0152 150.0  m  16?   1.64 182.7   28 183  11  90
   2024 04 27 02:00  16 21 57.69    -17 31 53.6   0.0099 1.0152 150.0  m  16?   1.61 182.5   28 185  11  90
   2024 04 27 02:10  16 21 57.64    -17 32 09.4   0.0099 1.0152 150.0  m  16?   1.57 182.0   28 188  11  90
   2024 04 27 02:20  16 21 57.61    -17 32 24.9   0.0099 1.0152 150.1  m  16?   1.53 181.3   27 191  11  90
   2024 04 27 02:30  16 21 57.59    -17 32 40.0   0.0099 1.0152 150.1  m  16?   1.49 180.4   27 193  11  90
   2024 04 27 02:40  16 21 57.59    -17 32 54.8   0.0099 1.0152 150.1  m  16?   1.46 179.3   26 196  11  90
   2024 04 27 02:50  16 21 57.61    -17 33 09.2   0.0099 1.0152 150.1 Am  16?   1.42 177.9   26 199  11  90
   2024 04 27 03:00  16 21 57.65    -17 33 23.2   0.0099 1.0152 150.1 Am  16?   1.39 176.2   25 201  11  90
   2024 04 27 03:10  16 21 57.73    -17 33 36.9   0.0099 1.0152 150.1 Am  16?   1.36 174.2   24 204  11  90
   2024 04 27 03:20  16 21 57.84    -17 33 50.3   0.0099 1.0152 150.1 Am  16?   1.33 171.9   24 206  11  90
   2024 04 27 03:30  16 21 57.99    -17 34 03.3   0.0099 1.0152 150.1 Nm  16?   1.31 169.4   23 209  11  90
   2024 04 27 03:40  16 21 58.17    -17 34 16.0   0.0099 1.0152 150.1 Nm  16?   1.29 166.5   22 211  11  90
   2024 04 27 03:50  16 21 58.40    -17 34 28.4   0.0099 1.0152 150.1 Nm  16?   1.27 163.4   21 213  11  90
   2024 04 27 04:00  16 21 58.68    -17 34 40.4   0.0100 1.0152 150.1 Nm  16?   1.27 160.0   20 216  11  90
   2024 04 27 04:10  16 21 59.00    -17 34 52.2   0.0100 1.0152 150.1 Cm  16?   1.26 156.5   19 218  11  90
   2024 04 27 04:20  16 21 59.38    -17 35 03.7   0.0100 1.0152 150.1 Cm  16?   1.27 152.8   18 220  11  90
   ................
   2024 04 27 20:50  16 26 15.05    -18 01 08.5   0.0100 1.0154 149.7  r  16?   3.05 143.8    0 115  18  84
   2024 04 27 21:00  16 26 16.27    -18 01 33.1   0.0100 1.0154 149.8     16?   2.97 145.5    1 116  18  84
   2024 04 27 21:10  16 26 17.41    -18 01 57.6   0.0100 1.0154 149.8     16?   2.90 147.2    2 118  18  84
   2024 04 27 21:20  16 26 18.46    -18 02 21.9   0.0100 1.0154 149.8     16?   2.83 148.9    4 120  18  84
   2024 04 27 21:30  16 26 19.45    -18 02 46.1   0.0100 1.0154 149.8     16?   2.76 150.6    5 122  18  84
   2024 04 27 21:40  16 26 20.35    -18 03 10.1   0.0100 1.0154 149.8     16?   2.69 152.4    7 124  18  84
   2024 04 27 21:50  16 26 21.18    -18 03 33.9   0.0100 1.0154 149.8     16?   2.63 154.2    8 125  18  84
   2024 04 27 22:00  16 26 21.95    -18 03 57.5   0.0100 1.0154 149.8     16?   2.57 156.1   10 127  18  84
   2024 04 27 22:10  16 26 22.64    -18 04 20.9   0.0100 1.0154 149.8     16?   2.51 157.9   11 129  18  84
   2024 04 27 22:20  16 26 23.26    -18 04 44.1   0.0100 1.0154 149.8     16?   2.45 159.7   13 131  18  84
   2024 04 27 22:30  16 26 23.82    -18 05 07.0   0.0100 1.0154 149.8     16?   2.40 161.6   14 133  18  84
   2024 04 27 22:40  16 26 24.31    -18 05 29.7   0.0100 1.0154 149.8     16?   2.35 163.4   15 135  18  84
   2024 04 27 22:50  16 26 24.75    -18 05 52.1   0.0100 1.0154 149.8  m  16?   2.30 165.2   16 138  19  84
   2024 04 27 23:00  16 26 25.13    -18 06 14.2   0.0100 1.0154 149.8  m  16?   2.25 167.0   18 140  19  84
   2024 04 27 23:10  16 26 25.45    -18 06 36.0   0.0100 1.0154 149.8  m  16?   2.21 168.8   19 142  19  84
   2024 04 27 23:20  16 26 25.72    -18 06 57.6   0.0100 1.0154 149.8  m  16?   2.17 170.5   20 144  19  84
   2024 04 27 23:30  16 26 25.95    -18 07 18.8   0.0100 1.0154 149.8  m  16?   2.12 172.1   21 146  19  84
   2024 04 27 23:40  16 26 26.12    -18 07 39.7   0.0100 1.0154 149.8  m  16?   2.08 173.7   22 149  19  84
   2024 04 27 23:50  16 26 26.26    -18 08 00.2   0.0100 1.0154 149.8  m  16?   2.05 175.3   23 151  19  84
   2024 04 28 00:00  16 26 26.35    -18 08 20.4   0.0100 1.0154 149.8  m  16?   2.01 176.7   23 154  19  83
   

INTEGRAL (JPL-ID: -198)

   Date (UTC) HH:MM   RA              Dec         delta   r     elong SM  mag  '/hr    PA   alt  az moo ill
   ---- -- -- -----  -------------   -----------  ------ ------ ----- --  --- ------ ------ --- --- --- ---
   2024 04 14 00:00  13 29 07.79    +07 25 30.1    28953 1.0032 163.1  m  16? 1296.4 185.8   53 189 103  31
   2024 04 14 00:10  13 27 33.06    +03 35 02.3    27132 1.0032 167.0  m  16? 1489.2 185.7   48 193 104  31
   2024 04 14 00:20  13 25 44.72    -00 51 00.4    25324 1.0032 171.4  m  16? 1727.1 185.7   43 196 106  31
   2024 04 14 00:30  13 23 37.55    -06 01 06.9    23544 1.0032 176.3  m  16? 2022.9 185.8   38 198 108  31
   2024 04 14 00:40  13 21 03.04    -12 06 03.6    21819 1.0032 176.5     16? 2391.9 186.0   31 200 110  31
   2024 04 14 00:50  13 17 46.35    -19 19 09.5    20184 1.0031 169.6     15? 2849.9 186.3   23 201 112  32
   2024 04 14 01:00  13 13 19.30    -27 55 51.1    18690 1.0031 161.0     15? 3407.6 187.0   14 202 114  32
   2024 04 14 01:10  13 06 41.57    -38 11 35.9    17407 1.0031 150.7     15? 4058.0 188.2    3 202 116  32
   ................
   2024 04 14 04:00  02 11 57.73    +33 20 40.9    33807 1.0028  25.7 Nr  16? 1185.4   2.9    2  43  53  33
   2024 04 14 04:10  02 12 44.36    +36 28 18.7    35440 1.0028  28.6 N   16? 1071.2   3.1    5  42  53  33
   2024 04 14 04:20  02 13 32.23    +39 18 20.8    37058 1.0028  31.3 N   16? 973.98   3.4    9  42  52  33
   2024 04 14 04:30  02 14 20.81    +41 53 20.9    38660 1.0028  33.8 C   16? 890.58   3.6   12  42  52  34
   2024 04 14 04:40  02 15 09.67    +44 15 24.8    40243 1.0028  36.1 C   16? 818.51   3.8   15  41  52  34
   2024 04 14 04:50  02 15 58.47    +46 26 15.8    41808 1.0028  38.2 C   16? 755.79   3.9   17  41  51  34
   ................
   2024 04 14 18:30  23 01 18.71    +88 46 35.7   122712 1.0030  79.3 Cm  17?  41.41 335.2   43 359  62  39
   2024 04 14 18:40  22 52 30.15    +88 52 58.4   123265 1.0030  79.4 Cm  17?  41.76 334.2   43 359  62  39
   2024 04 14 18:50  22 42 26.01    +88 59 22.7   123810 1.0030  79.5 Cm  17?  42.20 332.6   43 359  62  39
   2024 04 14 19:00  22 30 34.63    +89 05 47.8   124346 1.0031  79.7 Nm  17?  42.71 330.3   43 359  62  39
   2024 04 14 19:10  22 16 07.27    +89 12 11.9   124875 1.0031  79.8 Nm  17?  43.30 326.8   43 359  62  39
   2024 04 14 19:20  21 57 46.23    +89 18 31.8   125394 1.0031  79.9 Nm  17?  43.96 321.7   43 359  62  39
   2024 04 14 19:30  21 33 23.58    +89 24 41.2   125906 1.0031  80.0 At  17?  44.67 314.1   43   0  62  39
   2024 04 14 19:40  20 59 26.27    +89 30 28.2   126410 1.0031  80.1 Am  17?  45.44 302.7   43   0  62  39
   2024 04 14 19:50  20 10 21.77    +89 35 29.6   126906 1.0031  80.2 Am  17?  46.25 286.6   43   0  62  40
   2024 04 14 20:00  19 00 09.88    +89 39 02.6   127394 1.0031  80.3 Am  17?  47.10 266.5   43   0  62  40
   2024 04 14 20:10  17 31 32.43    +89 40 07.9   127874 1.0031  80.4  m  17?  47.98 246.8   43   0  62  40
   2024 04 14 20:20  16 04 41.93    +89 38 13.0   128347 1.0031  80.6  m  17?  48.89 231.4   44   0  62  40
   2024 04 14 20:30  14 57 56.40    +89 33 48.1   128813 1.0031  80.7  m  17?  49.82 220.5   44   0  62  40
   2024 04 14 20:40  14 11 57.30    +89 27 46.6   129271 1.0031  80.8  m  17?  50.77 212.9   44   0  62  40
   2024 04 14 20:50  13 40 29.63    +89 20 46.2   129721 1.0031  80.9  m  17?  51.74 207.6   44   0  62  40
   2024 04 14 21:00  13 18 16.97    +89 13 07.6   130165 1.0031  81.0  m  17?  52.72 203.6   44   0  62  40
   2024 04 14 21:10  13 02 00.05    +89 05 01.8   130602 1.0031  81.2  m  17?  53.70 200.5   44   0  62  40
   2024 04 14 21:20  12 49 39.30    +88 56 34.9   131032 1.0031  81.3  m  17?  54.69 198.1   45   0  62  40
   2024 04 14 21:30  12 40 01.73    +88 47 50.4   131455 1.0031  81.4  m  17?  55.68 196.1   45   0  62  40
   2024 04 14 21:40  12 32 21.24    +88 38 50.5   131871 1.0031  81.5  m  17?  56.67 194.5   45   0  62  40
   2024 04 14 21:50  12 26 07.63    +88 29 36.6   132281 1.0031  81.7  m  17?  57.65 193.0   45   0  62  40
   2024 04 14 22:00  12 21 00.42    +88 20 09.6   132684 1.0031  81.8  m  17?  58.63 191.8   45   0  62  40
   2024 04 14 22:10  12 16 45.25    +88 10 30.4   133081 1.0031  82.0  m  17?  59.60 190.6   45   0  62  40
   2024 04 14 22:20  12 13 11.81    +88 00 39.5   133472 1.0031  82.1  t  17?  60.56 189.6   46 359  62  40
   2024 04 14 22:30  12 10 12.47    +87 50 37.4   133857 1.0031  82.2  m  17?  61.50 188.7   46 359  62  40
   2024 04 14 22:40  12 07 41.48    +87 40 24.4   134235 1.0031  82.4  m  17?  62.44 187.8   46 359  62  41
   2024 04 14 22:50  12 05 34.41    +87 30 00.9   134608 1.0031  82.5  m  17?  63.35 186.9   46 359  62  41
   2024 04 14 23:00  12 03 47.79    +87 19 27.3   134975 1.0032  82.7  m  17?  64.26 186.1   46 359  62  41
   2024 04 14 23:10  12 02 18.86    +87 08 43.8   135337 1.0032  82.9  m  17?  65.14 185.4   46 358  62  41
   2024 04 14 23:20  12 01 05.39    +86 57 50.9   135692 1.0032  83.0  m  17?  66.01 184.7   46 358  62  41
   2024 04 14 23:30  12 00 05.54    +86 46 48.8   136043 1.0032  83.2  m  17?  66.85 183.9   47 358  61  41
   2024 04 14 23:40  11 59 17.79    +86 35 37.7   136388 1.0032  83.3  m  17?  67.68 183.3   47 357  61  41
   2024 04 14 23:50  11 58 40.88    +86 24 18.1   136727 1.0032  83.5  m  17?  68.48 182.6   47 357  61  41
   2024 04 15 00:00  11 58 13.72    +86 12 50.3   137061 1.0032  83.7  m  17?  69.26 181.9   47 357  61  41
   2024 04 15 00:10  11 57 55.39    +86 01 14.4   137391 1.0032  83.8  m  17?  70.02 181.3   47 356  61  41
   2024 04 15 00:20  11 57 45.10    +85 49 31.0   137715 1.0032  84.0  m  17?  70.75 180.6   47 356  61  41
   2024 04 15 00:30  11 57 42.15    +85 37 40.3   138034 1.0032  84.2  m  17?  71.46 180.0   47 355  61  41
   2024 04 15 00:40  11 57 45.94    +85 25 42.6   138348 1.0032  84.4  m  17?  72.15 179.4   47 355  61  41
   2024 04 15 00:50  11 57 55.93    +85 13 38.3   138658 1.0032  84.6  e  17?  72.80 178.8   47 355  61  42
   2024 04 15 01:00  11 58 11.64    +85 01 27.7   138963 1.0032  84.8  m  17?  73.44 178.2   47 354  61  42
   2024 04 15 01:10  11 58 32.65    +84 49 11.1   139263 1.0032  84.9  m  17?  74.04 177.6   47 354  61  42
   2024 04 15 01:20  11 58 58.57    +84 36 49.0   139558 1.0032  85.1  m  17?  74.62 177.0   47 353  61  42
   2024 04 15 01:30  11 59 29.07    +84 24 21.6   139849 1.0032  85.3     17?  75.17 176.4   47 353  61  42
   2024 04 15 01:40  12 00 03.81    +84 11 49.4   140136 1.0032  85.5     17?  75.69 175.8   47 352  61  42
   2024 04 15 01:50  12 00 42.53    +83 59 12.7   140418 1.0032  85.7     17?  76.19 175.2   47 352  61  42
   2024 04 15 02:00  12 01 24.96    +83 46 31.8   140695 1.0032  85.9     17?  76.66 174.6   46 352  61  42
   2024 04 15 02:10  12 02 10.85    +83 33 47.1   140968 1.0032  86.1     17?  77.10 174.0   46 351  61  42
   2024 04 15 02:20  12 02 59.99    +83 20 59.0   141237 1.0032  86.3     17?  77.50 173.5   46 351  61  42
   2024 04 15 02:30  12 03 52.16    +83 08 07.9   141501 1.0032  86.5     17?  77.88 172.9   46 350  61  42
   2024 04 15 02:40  12 04 47.18    +82 55 14.0   141761 1.0032  86.7     17?  78.24 172.3   46 350  61  42
   2024 04 15 02:50  12 05 44.86    +82 42 17.9   142017 1.0032  86.9     17?  78.56 171.8   46 349  61  43
   2024 04 15 03:00  12 06 45.05    +82 29 19.8   142269 1.0033  87.1     17?  78.85 171.2   45 349  61  43
   2024 04 15 03:10  12 07 47.58    +82 16 20.2   142516 1.0033  87.4 A   17?  79.11 170.6   45 349  61  43
   2024 04 15 03:20  12 08 52.30    +82 03 19.3   142759 1.0033  87.6 A   17?  79.35 170.1   45 348  61  43
   2024 04 15 03:30  12 09 59.09    +81 50 17.7   142998 1.0033  87.8 A   17?  79.55 169.5   44 348  61  43
   2024 04 15 03:40  12 11 07.80    +81 37 15.5   143232 1.0033  88.0 A   17?  79.73 168.9   44 348  61  43
   2024 04 15 03:50  12 12 18.31    +81 24 13.3   143462 1.0033  88.2 N   17?  79.87 168.4   44 347  61  43
   2024 04 15 04:00  12 13 30.51    +81 11 11.3   143688 1.0033  88.4 N   17?  79.99 167.8   43 347  61  43
   2024 04 15 04:10  12 14 44.29    +80 58 09.9   143909 1.0033  88.7 N   17?  80.07 167.3   43 347  61  43
   2024 04 15 04:20  12 15 59.53    +80 45 09.5   144126 1.0033  88.9 N   17?  80.13 166.7   43 347  61  43
   2024 04 15 04:30  12 17 16.13    +80 32 10.4   144339 1.0033  89.1 C   17?  80.16 166.2   42 346  61  43
   2024 04 15 04:40  12 18 34.01    +80 19 13.0   144547 1.0033  89.3 C   17?  80.16 165.6   42 346  61  44
   ................
   2024 04 15 18:30  13 39 48.05    +68 51 38.1   139708 1.0036 101.1 Cm  18?  29.57 191.7   44  29  64  49
   2024 04 15 18:40  13 39 35.58    +68 46 46.8   139346 1.0036 101.2 Cm  18?  30.29 193.9   45  30  64  49
   2024 04 15 18:50  13 39 20.87    +68 41 50.9   138978 1.0037 101.2 Cm  18?  31.10 195.9   46  30  64  49
   2024 04 15 19:00  13 39 03.95    +68 36 49.5   138604 1.0037 101.3 Nm  18?  32.00 197.7   47  30  64  49
   2024 04 15 19:10  13 38 44.87    +68 31 42.2   138224 1.0037 101.4 Nm  18?  32.98 199.4   48  30  64  49
   2024 04 15 19:20  13 38 23.68    +68 26 28.3   137840 1.0037 101.5 Nm  18?  34.04 200.9   49  30  64  50
   2024 04 15 19:30  13 38 00.42    +68 21 07.1   137449 1.0037 101.6 Am  18?  35.18 202.2   50  30  64  50
   2024 04 15 19:40  13 37 35.15    +68 15 38.2   137054 1.0037 101.7 Am  18?  36.37 203.4   51  30  64  50
   2024 04 15 19:50  13 37 07.93    +68 10 00.9   136654 1.0037 101.7 Am  18?  37.63 204.5   52  30  64  50
   2024 04 15 20:00  13 36 38.83    +68 04 14.6   136248 1.0037 101.8 Am  18?  38.94 205.4   53  30  64  50
   2024 04 15 20:10  13 36 07.92    +67 58 18.7   135838 1.0037 101.9  m  18?  40.30 206.1   54  30  64  50
   2024 04 15 20:20  13 35 35.26    +67 52 12.5   135423 1.0037 102.0  m  18?  41.70 206.8   55  30  64  50
   2024 04 15 20:30  13 35 00.95    +67 45 55.6   135004 1.0037 102.1  m  18?  43.14 207.3   56  29  64  50
   2024 04 15 20:40  13 34 25.06    +67 39 27.3   134580 1.0037 102.2  m  18?  44.63 207.7   57  29  64  50
   2024 04 15 20:50  13 33 47.68    +67 32 47.1   134152 1.0037 102.4  m  18?  46.14 208.0   58  28  64  50
   2024 04 15 21:00  13 33 08.91    +67 25 54.3   133720 1.0037 102.5  m  18?  47.68 208.2   59  27  64  50
   2024 04 15 21:10  13 32 28.84    +67 18 48.6   133283 1.0037 102.6  m  18?  49.25 208.3   60  26  64  50
   2024 04 15 21:20  13 31 47.57    +67 11 29.2   132843 1.0037 102.7  m  18?  50.84 208.4   60  25  64  50
   2024 04 15 21:30  13 31 05.20    +67 03 55.8   132399 1.0037 102.8  m  18?  52.45 208.3   61  24  64  50
   2024 04 15 21:40  13 30 21.83    +66 56 07.8   131951 1.0037 102.9  m  18?  54.08 208.2   62  23  64  50
   2024 04 15 21:50  13 29 37.59    +66 48 04.7   131499 1.0037 103.1  m  18?  55.73 208.1   63  21  63  50
   2024 04 15 22:00  13 28 52.56    +66 39 46.1   131044 1.0037 103.2  m  18?  57.39 207.8   64  20  63  50
   2024 04 15 22:10  13 28 06.88    +66 31 11.5   130585 1.0037 103.3  m  18?  59.06 207.5   65  18  63  50
   2024 04 15 22:20  13 27 20.65    +66 22 20.5   130123 1.0037 103.5  m  18?  60.74 207.2   65  16  63  50
   2024 04 15 22:30  13 26 33.99    +66 13 12.8   129658 1.0037 103.6  m  18?  62.43 206.8   66  14  63  51
   2024 04 15 22:40  13 25 47.00    +66 03 48.0   129189 1.0037 103.8  m  18?  64.12 206.4   67  11  63  51
   2024 04 15 22:50  13 24 59.82    +65 54 05.7   128718 1.0037 103.9  m  18?  65.82 205.9   67   9  63  51
   2024 04 15 23:00  13 24 12.56    +65 44 05.6   128243 1.0037 104.1  m  18?  67.53 205.4   68   6  63  51
   2024 04 15 23:10  13 23 25.32    +65 33 47.4   127765 1.0037 104.3  m  18?  69.23 204.8   68   3  63  51
   2024 04 15 23:20  13 22 38.23    +65 23 10.9   127284 1.0038 104.4  m  18?  70.94 204.3   68   0  63  51
   2024 04 15 23:30  13 21 51.40    +65 12 15.8   126801 1.0038 104.6  t  18?  72.65 203.7   68 357  63  51
   2024 04 15 23:40  13 21 04.94    +65 01 01.9   126314 1.0038 104.8  e  18?  74.35 203.0   68 354  63  51
   2024 04 15 23:50  13 20 18.96    +64 49 29.0   125825 1.0038 105.0  m  18?  76.05 202.4   68 351  63  51
   2024 04 16 00:00  13 19 33.57    +64 37 37.1   125332 1.0038 105.2  m  18?  77.75 201.7   68 347  62  51
   2024 04 16 00:10  13 18 48.87    +64 25 25.9   124837 1.0038 105.3  m  18?  79.45 201.0   68 344  62  51
   2024 04 16 00:20  13 18 04.97    +64 12 55.4   124339 1.0038 105.5  m  18?  81.14 200.3   67 341  62  51
   2024 04 16 00:30  13 17 21.96    +64 00 05.5   123838 1.0038 105.7  m  18?  82.83 199.6   67 338  62  51
   2024 04 16 00:40  13 16 39.93    +63 46 56.2   123334 1.0038 106.0  m  18?  84.51 198.8   66 336  62  51
   2024 04 16 00:50  13 15 58.99    +63 33 27.4   122827 1.0038 106.2  m  18?  86.18 198.1   66 333  62  52
   2024 04 16 01:00  13 15 19.21    +63 19 39.2   122317 1.0038 106.4  m  18?  87.85 197.3   65 331  62  52
   2024 04 16 01:10  13 14 40.67    +63 05 31.5   121804 1.0038 106.6  m  18?  89.51 196.5   64 328  62  52
   2024 04 16 01:20  13 14 03.47    +62 51 04.5   121288 1.0038 106.8  m  18?  91.16 195.8   63 326  62  52
   2024 04 16 01:30  13 13 27.66    +62 36 18.2   120769 1.0038 107.1  m  18?  92.81 195.0   62 325  62  52
   2024 04 16 01:40  13 12 53.31    +62 21 12.8   120246 1.0038 107.3  m  18?  94.44 194.2   61 323  62  52
   2024 04 16 01:50  13 12 20.50    +62 05 48.2   119721 1.0038 107.6  m  18?  96.07 193.4   60 322  61  52
   2024 04 16 02:00  13 11 49.28    +61 50 04.8   119191 1.0038 107.8  m  18?  97.69 192.6   59 320  61  52
   2024 04 16 02:10  13 11 19.71    +61 34 02.6   118659 1.0038 108.1     18?  99.30 191.8   58 319  61  52
   2024 04 16 02:20  13 10 51.82    +61 17 41.7   118122 1.0038 108.3     17? 100.91 191.0   57 318  61  52
   2024 04 16 02:30  13 10 25.68    +61 01 02.5   117582 1.0038 108.6     17? 102.50 190.2   56 317  61  52
   2024 04 16 02:40  13 10 01.32    +60 44 05.0   117038 1.0038 108.9     17? 104.09 189.4   54 317  61  52
   2024 04 16 02:50  13 09 38.77    +60 26 49.4   116490 1.0038 109.1     17? 105.67 188.6   53 316  61  52
   2024 04 16 03:00  13 09 18.06    +60 09 16.1   115938 1.0038 109.4     17? 107.24 187.8   52 316  61  53
   2024 04 16 03:10  13 08 59.22    +59 51 25.1   115381 1.0038 109.7 A   17? 108.81 187.0   51 315  61  53
   2024 04 16 03:20  13 08 42.28    +59 33 16.7   114820 1.0038 110.0 A   17? 110.37 186.2   49 315  61  53
   2024 04 16 03:30  13 08 27.24    +59 14 51.1   114254 1.0038 110.3 A   17? 111.93 185.4   48 315  61  53
   2024 04 16 03:40  13 08 14.13    +58 56 08.6   113683 1.0038 110.6 A   17? 113.48 184.6   47 315  61  53
   2024 04 16 03:50  13 08 02.94    +58 37 09.4   113107 1.0038 110.9 N   17? 115.03 183.8   45 315  61  53
   2024 04 16 04:00  13 07 53.70    +58 17 53.6   112526 1.0038 111.2 N   17? 116.58 183.1   44 315  61  53
   2024 04 16 04:10  13 07 46.39    +57 58 21.6   111938 1.0039 111.5 N   17? 118.12 182.3   42 315  60  53
   2024 04 16 04:20  13 07 41.01    +57 38 33.4   111345 1.0039 111.9 N   17? 119.67 181.6   41 315  60  53
   2024 04 16 04:30  13 07 37.57    +57 18 29.3   110746 1.0039 112.2 C   17? 121.21 180.8   40 315  60  53
   2024 04 16 04:40  13 07 36.05    +56 58 09.6   110141 1.0039 112.5 C   17? 122.76 180.1   38 315  60  53
   ................
   2024 04 16 20:00  01 08 40.32    +35 39 13.2    36070 1.0035  26.2 Am  16? 970.57   7.9    0 324  95  60
   2024 04 16 20:10  01 10 27.18    +38 11 08.2    37903 1.0035  28.5  m  16? 872.91   8.2    1 326  93  60
   2024 04 16 20:20  01 12 09.98    +40 28 11.7    39703 1.0035  30.7  m  16? 791.00   8.4    2 329  92  60
   2024 04 16 20:30  01 13 49.84    +42 32 43.2    41469 1.0035  32.6  m  16? 721.66   8.8    3 331  91  60
   2024 04 16 20:40  01 15 27.64    +44 26 35.0    43201 1.0035  34.4  m  16? 662.48   9.1    4 333  89  60
   2024 04 16 20:50  01 17 04.06    +46 11 18.3    44899 1.0035  36.1  m  16? 611.59   9.4    5 335  88  60
   2024 04 16 21:00  01 18 39.64    +47 48 07.7    46564 1.0035  37.6  m  16? 567.52   9.8    6 337  87  60
   2024 04 16 21:10  01 20 14.82    +49 18 05.0    48197 1.0035  39.1  m  16? 529.10  10.2    7 339  86  60
   2024 04 16 21:20  01 21 49.96    +50 42 01.7    49797 1.0035  40.4  m  17? 495.42  10.6    8 341  86  60
   2024 04 16 21:30  01 23 25.35    +52 00 41.0    51366 1.0035  41.7  m  17? 465.74  11.0    8 343  85  60
   2024 04 16 21:40  01 25 01.23    +53 14 39.6    52905 1.0035  42.9  m  17? 439.44  11.4    9 344  84  60
   2024 04 16 21:50  01 26 37.82    +54 24 28.6    54415 1.0035  44.0  m  17? 416.03  11.8   10 346  83  60
   2024 04 16 22:00  01 28 15.28    +55 30 34.7    55896 1.0035  45.1  m  17? 395.11  12.3   11 347  83  60
   2024 04 16 22:10  01 29 53.77    +56 33 20.9    57349 1.0035  46.1  m  17? 376.33  12.7   11 349  82  60
   2024 04 16 22:20  01 31 33.42    +57 33 07.3    58775 1.0035  47.1  m  17? 359.42  13.1   12 350  81  60
   2024 04 16 22:30  01 33 14.34    +58 30 11.1    60175 1.0035  48.0  m  17? 344.12  13.5   13 352  81  60
   2024 04 16 22:40  01 34 56.63    +59 24 47.6    61550 1.0035  48.9  m  17? 330.25  13.9   14 353  80  60
   2024 04 16 22:50  01 36 40.38    +60 17 10.1    62901 1.0035  49.8  m  17? 317.62  14.3   14 354  80  60
   2024 04 16 23:00  01 38 25.68    +61 07 30.3    64228 1.0035  50.6  m  17? 306.08  14.7   15 355  79  61
   2024 04 16 23:10  01 40 12.58    +61 55 58.6    65532 1.0035  51.4  m  17? 295.52  15.0   16 356  79  61
   2024 04 16 23:20  01 42 01.17    +62 42 44.2    66814 1.0035  52.2  m  17? 285.83  15.4   16 357  78  61
   2024 04 16 23:30  01 43 51.51    +63 27 55.4    68074 1.0035  53.0  m  17? 276.90  15.8   17 358  78  61
   2024 04 16 23:40  01 45 43.66    +64 11 39.4    69313 1.0035  53.7  m  17? 268.65  16.1   18 359  77  61
   2024 04 16 23:50  01 47 37.67    +64 54 02.8    70532 1.0035  54.4  t  17? 261.01  16.4   18   0  77  61
   2024 04 17 00:00  01 49 33.62    +65 35 11.5    71731 1.0035  55.1  m  17? 253.92  16.7   19   1  76  61
   2024 04 17 00:10  01 51 31.55    +66 15 10.8    72912 1.0035  55.8  m  17? 247.32  17.1   20   2  76  61
   2024 04 17 00:20  01 53 31.53    +66 54 05.4    74074 1.0036  56.4  m  17? 241.16  17.3   21   3  76  61
   2024 04 17 00:30  01 55 33.62    +67 31 59.5    75218 1.0036  57.1  m  17? 235.41  17.6   21   3  75  61
   2024 04 17 00:40  01 57 37.88    +68 08 57.1    76344 1.0036  57.7  m  17? 230.00  17.9   22   4  75  61
   2024 04 17 00:50  01 59 44.38    +68 45 01.7    77454 1.0036  58.3  m  17? 224.93  18.2   23   5  75  61
   2024 04 17 01:00  02 01 53.19    +69 20 16.3    78548 1.0036  58.9  m  17? 220.14  18.4   23   5  74  61
   2024 04 17 01:10  02 04 04.38    +69 54 44.0    79625 1.0036  59.5  m  17? 215.62  18.7   24   6  74  61
   2024 04 17 01:20  02 06 18.04    +70 28 27.2    80687 1.0036  60.1  m  17? 211.34  18.9   25   6  74  61
   2024 04 17 01:30  02 08 34.24    +71 01 28.3    81735 1.0036  60.7  m  17? 207.28  19.1   26   7  73  61
   2024 04 17 01:40  02 10 53.09    +71 33 49.5    82767 1.0036  61.2  m  17? 203.42  19.3   26   7  73  62
   2024 04 17 01:50  02 13 14.68    +72 05 32.7    83786 1.0036  61.8  m  17? 199.73  19.5   27   8  73  62
   2024 04 17 02:00  02 15 39.13    +72 36 39.6    84791 1.0036  62.3  m  17? 196.21  19.7   28   8  73  62
   2024 04 17 02:10  02 18 06.55    +73 07 11.9    85782 1.0036  62.8  m  17? 192.84  19.9   28   9  72  62
   2024 04 17 02:20  02 20 37.08    +73 37 11.0    86761 1.0036  63.3  m  17? 189.60  20.1   29   9  72  62
   2024 04 17 02:30  02 23 10.86    +74 06 38.2    87727 1.0036  63.9  m  17? 186.48  20.3   30   9  72  62
   2024 04 17 02:40  02 25 48.04    +74 35 34.6    88680 1.0036  64.4     17? 183.48  20.5   30   9  72  62
   2024 04 17 02:50  02 28 28.81    +75 04 01.4    89622 1.0036  64.9     17? 180.58  20.7   31  10  71  62
   2024 04 17 03:00  02 31 13.36    +75 31 59.5    90552 1.0036  65.4     17? 177.76  20.9   32  10  71  62
   2024 04 17 03:10  02 34 01.90    +75 59 29.7    91471 1.0036  65.8 A   17? 175.04  21.1   32  10  71  62
   2024 04 17 03:20  02 36 54.66    +76 26 32.9    92379 1.0036  66.3 A   17? 172.39  21.3   33  10  71  62
   2024 04 17 03:30  02 39 51.90    +76 53 09.6    93276 1.0036  66.8 A   17? 169.81  21.5   33  10  71  62
   2024 04 17 03:40  02 42 53.91    +77 19 20.6    94162 1.0036  67.2 A   17? 167.29  21.7   34  10  70  62
   2024 04 17 03:50  02 46 01.02    +77 45 06.2    95038 1.0036  67.7 N   17? 164.83  21.9   35  10  70  63
   2024 04 17 04:00  02 49 13.58    +78 10 27.1    95905 1.0036  68.2 N   17? 162.42  22.2   35  10  70  63
   2024 04 17 04:10  02 52 31.98    +78 35 23.4    96761 1.0036  68.6 N   17? 160.06  22.4   36  10  70  63
   2024 04 17 04:20  02 55 56.67    +78 59 55.7    97608 1.0036  69.0 C   17? 157.74  22.7   36  10  70  63
   2024 04 17 04:30  02 59 28.15    +79 24 04.0    98446 1.0036  69.5 C   17? 155.47  23.0   37  10  70  63
   2024 04 17 04:40  03 03 06.97    +79 47 48.7    99274 1.0036  69.9 C   17? 153.22  23.3   37  10  69  63
   ................
   2024 04 17 18:30  13 48 51.98    +82 42 30.4   141832 1.0040  86.5 Cm  17?  27.96 202.4   45  10  68  69
   2024 04 17 18:40  13 47 52.48    +82 38 12.0   142043 1.0040  86.6 Cm  17?  28.64 204.2   45  10  68  69
   2024 04 17 18:50  13 46 48.08    +82 33 50.7   142248 1.0040  86.7 Cm  17?  29.38 205.8   45  10  68  69
   2024 04 17 19:00  13 45 39.03    +82 29 25.6   142447 1.0040  86.7 Nm  17?  30.20 207.2   46  10  68  69
   2024 04 17 19:10  13 44 25.60    +82 24 56.3   142640 1.0040  86.8 Nm  17?  31.07 208.4   46  10  68  69
   2024 04 17 19:20  13 43 08.07    +82 20 21.9   142826 1.0040  86.9 Nm  17?  32.00 209.4   46  10  68  69
   2024 04 17 19:30  13 41 46.74    +82 15 41.9   143008 1.0040  87.0 Nm  17?  32.97 210.3   47  10  68  69
   2024 04 17 19:40  13 40 21.89    +82 10 55.6   143183 1.0040  87.0 Am  17?  33.97 210.9   47  10  68  69
   2024 04 17 19:50  13 38 53.85    +82 06 02.3   143353 1.0040  87.1 Am  17?  35.01 211.5   48   9  67  69
   2024 04 17 20:00  13 37 22.91    +82 01 01.6   143517 1.0040  87.2 Am  17?  36.08 211.8   48   9  67  69
   2024 04 17 20:10  13 35 49.39    +81 55 52.8   143676 1.0040  87.3 Am  17?  37.17 212.1   48   9  67  69
   2024 04 17 20:20  13 34 13.63    +81 50 35.3   143830 1.0040  87.4  m  17?  38.28 212.2   49   9  67  69
   2024 04 17 20:30  13 32 35.94    +81 45 08.6   143979 1.0040  87.4  m  17?  39.40 212.2   49   8  67  69
   2024 04 17 20:40  13 30 56.65    +81 39 32.2   144122 1.0040  87.5  m  17?  40.53 212.1   50   8  67  69
   2024 04 17 20:50  13 29 16.10    +81 33 45.6   144261 1.0040  87.6  m  17?  41.67 211.9   50   8  67  69
   2024 04 17 21:00  13 27 34.62    +81 27 48.4   144394 1.0040  87.7  m  17?  42.82 211.7   50   7  67  69
   2024 04 17 21:10  13 25 52.52    +81 21 40.2   144523 1.0040  87.8  m  17?  43.97 211.3   51   7  67  69
   2024 04 17 21:20  13 24 10.14    +81 15 20.6   144648 1.0040  87.9  m  17?  45.12 210.9   51   6  67  69
   2024 04 17 21:30  13 22 27.78    +81 08 49.3   144767 1.0040  88.0  m  17?  46.26 210.4   51   6  67  69
   2024 04 17 21:40  13 20 45.77    +81 02 05.9   144883 1.0040  88.1  m  17?  47.40 209.8   52   5  67  69
   2024 04 17 21:50  13 19 04.38    +80 55 10.3   144993 1.0040  88.2  m  17?  48.54 209.2   52   5  67  69
   2024 04 17 22:00  13 17 23.93    +80 48 02.1   145100 1.0040  88.3  m  17?  49.66 208.6   52   4  66  69
   2024 04 17 22:10  13 15 44.68    +80 40 41.2   145202 1.0040  88.4  m  17?  50.78 207.9   53   3  66  69
   2024 04 17 22:20  13 14 06.90    +80 33 07.5   145300 1.0040  88.5  m  17?  51.89 207.1   53   3  66  70
   2024 04 17 22:30  13 12 30.84    +80 25 20.9   145395 1.0041  88.7  m  17?  52.98 206.4   53   2  66  70
   2024 04 17 22:40  13 10 56.74    +80 17 21.2   145485 1.0041  88.8  m  17?  54.06 205.6   53   1  66  70
   2024 04 17 22:50  13 09 24.83    +80 09 08.6   145571 1.0041  88.9  m  17?  55.13 204.8   53   0  66  70
   2024 04 17 23:00  13 07 55.31    +80 00 42.9   145654 1.0041  89.0  t  17?  56.18 203.9   54 359  66  70
   2024 04 17 23:10  13 06 28.37    +79 52 04.2   145732 1.0041  89.2  m  17?  57.21 203.0   54 359  66  70
   2024 04 17 23:20  13 05 04.18    +79 43 12.7   145808 1.0041  89.3  m  17?  58.22 202.2   54 358  66  70
   2024 04 17 23:30  13 03 42.91    +79 34 08.3   145879 1.0041  89.4  m  17?  59.22 201.3   54 357  66  70
   2024 04 17 23:40  13 02 24.69    +79 24 51.4   145947 1.0041  89.6  m  17?  60.20 200.3   54 356  65  70
   2024 04 17 23:50  13 01 09.65    +79 15 21.9   146012 1.0041  89.7  e  17?  61.15 199.4   54 355  65  70
   2024 04 18 00:00  12 59 57.91    +79 05 40.3   146073 1.0041  89.9  m  17?  62.09 198.5   54 354  65  70
   2024 04 18 00:10  12 58 49.54    +78 55 46.6   146131 1.0041  90.0  m  17?  63.00 197.6   54 353  65  70
   2024 04 18 00:20  12 57 44.64    +78 45 41.1   146185 1.0041  90.2  m  17?  63.90 196.6   54 352  65  70
   2024 04 18 00:30  12 56 43.26    +78 35 24.2   146236 1.0041  90.3  m  17?  64.76 195.7   54 351  65  70
   2024 04 18 00:40  12 55 45.46    +78 24 56.1   146284 1.0041  90.5  m  17?  65.61 194.7   53 350  65  70
   2024 04 18 00:50  12 54 51.28    +78 14 17.1   146328 1.0041  90.6  m  17?  66.43 193.8   53 349  65  70
   2024 04 18 01:00  12 54 00.73    +78 03 27.6   146370 1.0041  90.8  m  17?  67.23 192.8   53 348  65  70
   2024 04 18 01:10  12 53 13.84    +77 52 28.0   146408 1.0041  91.0  m  17?  68.00 191.9   53 347  64  70
   2024 04 18 01:20  12 52 30.60    +77 41 18.6   146443 1.0041  91.1  m  17?  68.75 191.0   52 346  64  70
   2024 04 18 01:30  12 51 51.01    +77 29 59.8   146474 1.0041  91.3  m  17?  69.47 190.0   52 346  64  71
   2024 04 18 01:40  12 51 15.05    +77 18 32.0   146503 1.0041  91.5  m  17?  70.17 189.1   52 345  64  71
   2024 04 18 01:50  12 50 42.70    +77 06 55.7   146528 1.0041  91.7  m  17?  70.83 188.1   51 344  64  71
   2024 04 18 02:00  12 50 13.91    +76 55 11.2   146550 1.0041  91.8  m  17?  71.48 187.2   51 343  64  71
   2024 04 18 02:10  12 49 48.65    +76 43 18.9   146569 1.0041  92.0  m  18?  72.09 186.3   51 343  64  71
   2024 04 18 02:20  12 49 26.88    +76 31 19.4   146585 1.0042  92.2  m  18?  72.68 185.4   50 342  64  71
   2024 04 18 02:30  12 49 08.53    +76 19 13.0   146597 1.0042  92.4  m  18?  73.25 184.5   50 341  63  71
   2024 04 18 02:40  12 48 53.55    +76 07 00.2   146606 1.0042  92.6  m  18?  73.78 183.6   49 341  63  71
   2024 04 18 02:50  12 48 41.87    +75 54 41.5   146612 1.0042  92.8  m  18?  74.29 182.7   48 340  63  71
   2024 04 18 03:00  12 48 33.43    +75 42 17.2   146614 1.0042  93.0     18?  74.77 181.8   48 340  63  71
   2024 04 18 03:10  12 48 28.16    +75 29 47.9   146613 1.0042  93.2 A   18?  75.22 180.9   47 339  63  71
   2024 04 18 03:20  12 48 25.98    +75 17 14.0   146608 1.0042  93.4 A   18?  75.65 180.1   47 339  63  71
   2024 04 18 03:30  12 48 26.82    +75 04 35.9   146600 1.0042  93.6 A   18?  76.04 179.2   46 338  63  71
   2024 04 18 03:40  12 48 30.59    +74 51 54.2   146588 1.0042  93.8 A   18?  76.41 178.3   45 338  63  71
   2024 04 18 03:50  12 48 37.21    +74 39 09.1   146572 1.0042  94.0 N   18?  76.76 177.5   45 338  62  71
   2024 04 18 04:00  12 48 46.61    +74 26 21.3   146553 1.0042  94.2 N   18?  77.07 176.6   44 338  62  72
   2024 04 18 04:10  12 48 58.70    +74 13 31.1   146529 1.0042  94.4 N   18?  77.36 175.8   43 337  62  72
   2024 04 18 04:20  12 49 13.39    +74 00 38.9   146502 1.0042  94.6 C   18?  77.62 175.0   43 337  62  72
   2024 04 18 04:30  12 49 30.60    +73 47 45.3   146471 1.0042  94.8 C   18?  77.85 174.2   42 337  62  72
   2024 04 18 04:40  12 49 50.24    +73 34 50.5   146435 1.0042  95.0 C   18?  78.05 173.4   41 337  62  72
   ................
   2024 04 18 18:40  13 40 29.86    +59 58 45.0   117057 1.0045 108.9 Cm  18?  51.44 189.2   45  42  58  77
   2024 04 18 18:50  13 40 17.70    +59 50 12.0   116330 1.0045 109.0 Cm  17?  52.78 190.6   46  43  58  77
   2024 04 18 19:00  13 40 03.63    +59 41 27.6   115595 1.0045 109.2 Nm  17?  54.23 191.9   47  43  58  77
   2024 04 18 19:10  13 39 47.65    +59 32 30.9   114852 1.0045 109.3 Nm  17?  55.80 193.1   48  44  58  77
   2024 04 18 19:20  13 39 29.80    +59 23 21.1   114103 1.0045 109.5 Nm  17?  57.47 194.3   50  44  58  77
   2024 04 18 19:30  13 39 10.12    +59 13 57.3   113346 1.0046 109.6 Nm  17?  59.24 195.3   51  45  58  77
   2024 04 18 19:40  13 38 48.62    +59 04 18.6   112582 1.0046 109.8 Am  17?  61.12 196.2   52  45  58  77
   2024 04 18 19:50  13 38 25.36    +58 54 24.1   111811 1.0046 109.9 Am  17?  63.09 197.1   54  46  57  77
   2024 04 18 20:00  13 38 00.36    +58 44 12.7   111033 1.0046 110.1 Am  17?  65.17 197.8   55  46  57  77
   2024 04 18 20:10  13 37 33.69    +58 33 43.7   110248 1.0046 110.3 Am  17?  67.33 198.5   56  46  57  77
   2024 04 18 20:20  13 37 05.38    +58 22 55.9   109457 1.0046 110.4  m  17?  69.59 199.0   58  46  57  77
   2024 04 18 20:30  13 36 35.49    +58 11 48.6   108659 1.0046 110.6  m  17?  71.93 199.5   59  46  57  77
   2024 04 18 20:40  13 36 04.08    +58 00 20.5   107855 1.0046 110.8  m  17?  74.37 199.9   61  46  57  78
   2024 04 18 20:50  13 35 31.21    +57 48 30.9   107045 1.0046 111.0  m  17?  76.88 200.3   62  46  57  78
   2024 04 18 21:00  13 34 56.95    +57 36 18.6   106228 1.0046 111.2  m  17?  79.49 200.5   64  45  57  78
   2024 04 18 21:10  13 34 21.36    +57 23 42.7   105406 1.0046 111.4  m  17?  82.17 200.7   65  45  56  78
   2024 04 18 21:20  13 33 44.52    +57 10 42.1   104577 1.0046 111.6  m  17?  84.94 200.8   66  44  56  78
   2024 04 18 21:30  13 33 06.50    +56 57 15.7   103742 1.0046 111.8  m  17?  87.79 200.9   68  43  56  78
   2024 04 18 21:40  13 32 27.38    +56 43 22.6   102902 1.0046 112.0  m  17?  90.72 200.9   69  42  56  78
   2024 04 18 21:50  13 31 47.24    +56 29 01.7   102056 1.0046 112.3  m  17?  93.72 200.9   71  40  56  78
   2024 04 18 22:00  13 31 06.17    +56 14 11.9   101204 1.0046 112.5  m  17?  96.81 200.8   72  38  55  78
   2024 04 18 22:10  13 30 24.26    +55 58 52.2   100346 1.0046 112.7  m  17?  99.98 200.6   73  36  55  78
   2024 04 18 22:20  13 29 41.58    +55 43 01.4    99482 1.0046 113.0  m  17? 103.23 200.5   75  33  55  78
   2024 04 18 22:30  13 28 58.24    +55 26 38.6    98613 1.0046 113.3  m  17? 106.56 200.2   76  29  55  78
   2024 04 18 22:40  13 28 14.33    +55 09 42.5    97738 1.0046 113.5  m  17? 109.98 200.0   77  24  55  78
   2024 04 18 22:50  13 27 29.94    +54 52 12.1    96858 1.0046 113.8  m  17? 113.47 199.7   78  18  54  78
   2024 04 18 23:00  13 26 45.16    +54 34 06.2    95972 1.0046 114.1  m  17? 117.06 199.4   79  11  54  78
   2024 04 18 23:10  13 26 00.09    +54 15 23.8    95081 1.0046 114.4  m  17? 120.73 199.0   79   3  54  78
   2024 04 18 23:20  13 25 14.83    +53 56 03.7    94183 1.0046 114.7  t  17? 124.49 198.6   80 354  54  78
   2024 04 18 23:30  13 24 29.47    +53 36 04.7    93280 1.0046 115.0  e  17? 128.35 198.2   80 344  53  78
   2024 04 18 23:40  13 23 44.11    +53 15 25.6    92372 1.0046 115.3  m  17? 132.30 197.8   79 335  53  78
   2024 04 18 23:50  13 22 58.84    +52 54 05.3    91457 1.0046 115.7  m  17? 136.35 197.3   79 327  53  78
   2024 04 19 00:00  13 22 13.77    +52 32 02.4    90537 1.0046 116.0  m  17? 140.51 196.8   78 320  52  78
   2024 04 19 00:10  13 21 28.97    +52 09 15.8    89611 1.0046 116.4  m  17? 144.77 196.3   77 314  52  78
   2024 04 19 00:20  13 20 44.55    +51 45 44.1    88678 1.0046 116.8  m  17? 149.15 195.8   75 309  52  78
   2024 04 19 00:30  13 20 00.59    +51 21 26.1    87739 1.0046 117.1  m  17? 153.65 195.3   74 305  52  78
   2024 04 19 00:40  13 19 17.19    +50 56 20.2    86794 1.0046 117.5  m  17? 158.28 194.8   72 301  51  78
   2024 04 19 00:50  13 18 34.42    +50 30 25.2    85843 1.0046 117.9  m  17? 163.04 194.2   71 299  51  79
   2024 04 19 01:00  13 17 52.37    +50 03 39.5    84884 1.0046 118.4  m  17? 167.94 193.7   69 297  51  79
   2024 04 19 01:10  13 17 11.12    +49 36 01.5    83919 1.0046 118.8  m  17? 172.99 193.1   68 295  50  79
   2024 04 19 01:20  13 16 30.75    +49 07 29.7    82947 1.0046 119.3  m  17? 178.21 192.6   66 294  50  79
   2024 04 19 01:30  13 15 51.34    +48 38 02.3    81967 1.0046 119.7  m  17? 183.59 192.0   64 293  49  79
   2024 04 19 01:40  13 15 12.94    +48 07 37.6    80980 1.0047 120.2  m  17? 189.16 191.4   62 292  49  79
   2024 04 19 01:50  13 14 35.63    +47 36 13.5    79985 1.0047 120.7  m  17? 194.93 190.9   60 291  49  79
   2024 04 19 02:00  13 13 59.47    +47 03 48.0    78982 1.0047 121.2  m  17? 200.91 190.3   58 291  48  79
   2024 04 19 02:10  13 13 24.53    +46 30 19.0    77970 1.0047 121.7  m  17? 207.11 189.7   57 291  48  79
   2024 04 19 02:20  13 12 50.84    +45 55 44.1    76949 1.0047 122.3  m  17? 213.57 189.2   55 291  48  79
   2024 04 19 02:30  13 12 18.48    +45 20 00.8    75920 1.0047 122.8  m  17? 220.29 188.6   53 290  47  79
   2024 04 19 02:40  13 11 47.47    +44 43 06.3    74881 1.0047 123.4  m  17? 227.30 188.1   51 290  47  79
   2024 04 19 02:50  13 11 17.88    +44 04 57.7    73831 1.0047 124.0  m  17? 234.63 187.5   49 290  46  79
   2024 04 19 03:00  13 10 49.72    +43 25 31.9    72772 1.0047 124.7 Am  17? 242.30 187.0   47 291  46  79
   2024 04 19 03:10  13 10 23.04    +42 44 45.2    71702 1.0047 125.3 Am  17? 250.34 186.4   45 291  45  79
   2024 04 19 03:20  13 09 57.87    +42 02 33.9    70620 1.0047 126.0 A   17? 258.80 185.9   43 291  45  79
   2024 04 19 03:30  13 09 34.22    +41 18 53.8    69527 1.0047 126.7 A   17? 267.71 185.4   41 291  45  79
   2024 04 19 03:40  13 09 12.13    +40 33 40.3    68421 1.0047 127.4 N   17? 277.11 184.9   39 292  44  79
   2024 04 19 03:50  13 08 51.60    +39 46 48.4    67303 1.0047 128.1 N   17? 287.06 184.4   36 292  44  80
   2024 04 19 04:00  13 08 32.65    +38 58 12.3    66171 1.0047 128.9 N   17? 297.61 184.0   34 293  43  80
   2024 04 19 04:10  13 08 15.29    +38 07 46.0    65025 1.0047 129.7 N   17? 308.83 183.5   32 293  43  80
   2024 04 19 04:20  13 07 59.50    +37 15 22.6    63864 1.0047 130.5 C   17? 320.79 183.1   30 293  42  80
   2024 04 19 04:30  13 07 45.30    +36 20 54.2    62689 1.0047 131.4 C   17? 333.57 182.7   28 294  42  80
   2024 04 19 04:40  13 07 32.67    +35 24 12.5    61497 1.0047 132.3 C   17? 347.28 182.3   26 294  41  80
   ................
   2024 04 19 18:40  01 06 36.74    +76 05 08.4    89131 1.0043  64.9 Cm  17? 103.91   9.7   36 344  93  85
   2024 04 19 18:50  01 07 27.02    +76 22 04.5    90140 1.0043  65.2 Cm  17? 102.66  10.7   36 345  93  85
   2024 04 19 19:00  01 08 22.79    +76 38 45.8    91135 1.0043  65.4 Nm  17? 101.57  11.7   36 346  93  85
   2024 04 19 19:10  01 09 24.14    +76 55 13.6    92115 1.0043  65.7 Nm  17? 100.63  12.7   35 346  92  85
   2024 04 19 19:20  01 10 31.19    +77 11 29.2    93080 1.0043  65.9 Nm  17?  99.82  13.7   35 347  92  85
   2024 04 19 19:30  01 11 44.05    +77 27 33.6    94031 1.0043  66.2 Nm  17?  99.14  14.6   35 348  92  85
   2024 04 19 19:40  01 13 02.85    +77 43 27.9    94967 1.0043  66.4 Am  17?  98.57  15.5   35 348  92  85
   2024 04 19 19:50  01 14 27.72    +77 59 13.0    95890 1.0043  66.7 Am  17?  98.10  16.5   35 349  92  85
   2024 04 19 20:00  01 15 58.82    +78 14 49.7    96799 1.0043  66.9 Am  17?  97.72  17.3   35 349  91  85
   2024 04 19 20:10  01 17 36.31    +78 30 18.9    97695 1.0043  67.1 Am  17?  97.43  18.2   35 350  91  85
   2024 04 19 20:20  01 19 20.37    +78 45 41.1    98578 1.0043  67.4  m  17?  97.21  19.1   35 351  91  85
   2024 04 19 20:30  01 21 11.19    +79 00 57.1    99448 1.0043  67.6  m  17?  97.06  19.9   35 351  91  85
   2024 04 19 20:40  01 23 08.99    +79 16 07.4   100305 1.0043  67.9  m  17?  96.97  20.7   35 352  91  85
   2024 04 19 20:50  01 25 14.02    +79 31 12.4   101150 1.0043  68.1  m  17?  96.94  21.5   35 352  90  85
   2024 04 19 21:00  01 27 26.55    +79 46 12.5   101983 1.0043  68.3  m  17?  96.95  22.3   35 353  90  85
   2024 04 19 21:10  01 29 46.87    +80 01 08.2   102803 1.0043  68.6  m  17?  97.00  23.0   35 353  90  85
   2024 04 19 21:20  01 32 15.30    +80 15 59.6   103612 1.0043  68.8  m  17?  97.09  23.8   35 354  90  85
   2024 04 19 21:30  01 34 52.23    +80 30 47.0   104410 1.0044  69.0  m  17?  97.21  24.5   35 354  89  85
   2024 04 19 21:40  01 37 38.05    +80 45 30.6   105196 1.0044  69.3  m  17?  97.35  25.3   35 355  89  85
   2024 04 19 21:50  01 40 33.22    +81 00 10.5   105971 1.0044  69.5  m  17?  97.52  26.0   35 355  89  85
   2024 04 19 22:00  01 43 38.25    +81 14 46.7   106735 1.0044  69.7  m  17?  97.70  26.8   35 355  89  85
   2024 04 19 22:10  01 46 53.69    +81 29 19.1   107488 1.0044  70.0  m  17?  97.90  27.5   36 356  89  85
   2024 04 19 22:20  01 50 20.18    +81 43 47.6   108231 1.0044  70.2  m  17?  98.11  28.2   36 356  88  85
   2024 04 19 22:30  01 53 58.41    +81 58 12.2   108964 1.0044  70.4  m  17?  98.32  29.0   36 357  88  85
   2024 04 19 22:40  01 57 49.18    +82 12 32.5   109687 1.0044  70.7  m  17?  98.54  29.8   36 357  88  85
   2024 04 19 22:50  02 01 53.36    +82 26 48.2   110400 1.0044  70.9  m  17?  98.76  30.6   36 357  88  85
   2024 04 19 23:00  02 06 11.93    +82 40 59.0   111103 1.0044  71.2  m  17?  98.98  31.4   36 357  87  85
   2024 04 19 23:10  02 10 46.00    +82 55 04.4   111797 1.0044  71.4  m  17?  99.19  32.3   37 358  87  85
   2024 04 19 23:20  02 15 36.79    +83 09 03.7   112481 1.0044  71.7  m  17?  99.40  33.2   37 358  87  85
   2024 04 19 23:30  02 20 45.68    +83 22 56.3   113157 1.0044  71.9  m  17?  99.60  34.2   37 358  87  85
   2024 04 19 23:40  02 26 14.23    +83 36 41.3   113823 1.0044  72.1  m  17?  99.79  35.2   37 358  87  85
   2024 04 19 23:50  02 32 04.16    +83 50 17.9   114481 1.0044  72.4  m  17?  99.97  36.3   37 359  86  85
   2024 04 20 00:00  02 38 17.40    +84 03 45.0   115130 1.0044  72.6  m  17? 100.14  37.5   38 359  86  86
   2024 04 20 00:10  02 44 56.13    +84 17 01.2   115771 1.0044  72.9  m  17? 100.29  38.8   38 359  86  86
   2024 04 20 00:20  02 52 02.74    +84 30 05.2   116404 1.0044  73.1  m  17? 100.43  40.1   38 359  86  86
   2024 04 20 00:30  02 59 39.90    +84 42 55.3   117029 1.0044  73.4  m  17? 100.55  41.6   38 359  85  86
   2024 04 20 00:40  03 07 50.56    +84 55 29.7   117646 1.0044  73.7  m  17? 100.65  43.2   38 359  85  86
   2024 04 20 00:50  03 16 37.91    +85 07 46.1   118255 1.0044  73.9  m  17? 100.74  44.9   39 359  85  86
   2024 04 20 01:00  03 26 05.44    +85 19 42.1   118856 1.0044  74.2  m  17? 100.80  46.8   39 359  85  86
   2024 04 20 01:10  03 36 16.83    +85 31 14.9   119451 1.0044  74.4  m  17? 100.84  48.9   39 359  84  86
   2024 04 20 01:20  03 47 15.94    +85 42 21.2   120037 1.0044  74.7  m  17? 100.87  51.1   39 359  84  86
   2024 04 20 01:30  03 59 06.62    +85 52 57.5   120617 1.0044  74.9  m  17? 100.87  53.6   39 359  84  86
   2024 04 20 01:40  04 11 52.60    +86 02 59.7   121190 1.0044  75.2  m  17? 100.84  56.3   40 359  84  86
   2024 04 20 01:50  04 25 37.15    +86 12 23.4   121755 1.0044  75.5  m  17? 100.80  59.2   40 359  84  86
   2024 04 20 02:00  04 40 22.79    +86 21 03.8   122314 1.0045  75.7  m  17? 100.73  62.4   40 359  83  86
   2024 04 20 02:10  04 56 10.81    +86 28 55.5   122867 1.0045  76.0  m  17? 100.63  65.8   40 359  83  86
   2024 04 20 02:20  05 13 00.74    +86 35 53.3   123412 1.0045  76.3  m  17? 100.51  69.4   40 359  83  86
   2024 04 20 02:30  05 30 49.87    +86 41 51.8   123952 1.0045  76.5  m  17? 100.37  73.2   40 358  83  86
   2024 04 20 02:40  05 49 32.72    +86 46 45.9   124484 1.0045  76.8  m  17? 100.20  77.3   40 358  83  86
   2024 04 20 02:50  06 09 00.86    +86 50 30.9   125011 1.0045  77.1  m  17? 100.00  81.5   40 358  82  86
   2024 04 20 03:00  06 29 02.95    +86 53 03.4   125531 1.0045  77.3 Am  17?  99.78  85.8   40 358  82  86
   2024 04 20 03:10  06 49 25.20    +86 54 21.0   126046 1.0045  77.6 Am  17?  99.53  90.1   41 358  82  86
   2024 04 20 03:20  07 09 52.32    +86 54 22.9   126554 1.0045  77.9 Am  17?  99.26  94.4   41 358  82  86
   2024 04 20 03:30  07 30 08.67    +86 53 09.8   127056 1.0045  78.1 Am  17?  98.96  98.7   41 358  82  86
   2024 04 20 03:40  07 49 59.51    +86 50 44.0   127553 1.0045  78.4 N   17?  98.63 102.7   41 357  81  86
   2024 04 20 03:50  08 09 12.08    +86 47 09.3   128043 1.0045  78.7 Ne  17?  98.28 106.6   41 357  81  86
   2024 04 20 04:00  08 27 36.33    +86 42 30.4   128528 1.0045  78.9 N   17?  97.90 110.3   41 357  81  87
   2024 04 20 04:10  08 45 05.17    +86 36 52.7   129007 1.0045  79.2 N   17?  97.49 113.7   41 357  81  87
   2024 04 20 04:20  09 01 34.45    +86 30 22.0   129481 1.0045  79.5 C   17?  97.06 116.9   41 357  81  87
   2024 04 20 04:30  09 17 02.53    +86 23 04.3   129948 1.0045  79.7 C   17?  96.60 119.8   41 356  80  87
   2024 04 20 04:40  09 31 29.81    +86 15 05.3   130410 1.0045  80.0 C   17?  96.11 122.5   40 356  80  87
   ................
   2024 04 20 18:40  13 39 46.53    +75 47 01.3   146696 1.0049  92.4 Cm  18?  27.18 203.3   47  20  74  91
   2024 04 20 18:50  13 39 15.67    +75 42 50.3   146609 1.0049  92.4 Cm  18?  28.07 204.9   47  19  74  91
   2024 04 20 19:00  13 38 42.05    +75 38 34.2   146517 1.0049  92.5 Nm  18?  29.03 206.4   48  19  74  91
   2024 04 20 19:10  13 38 05.76    +75 34 12.3   146420 1.0049  92.6 Nm  18?  30.04 207.7   49  19  74  91
   2024 04 20 19:20  13 37 26.91    +75 29 44.2   146318 1.0049  92.6 Nm  18?  31.10 208.7   49  19  74  91
   2024 04 20 19:30  13 36 45.62    +75 25 09.2   146211 1.0049  92.7 Nm  18?  32.20 209.7   50  19  74  91
   2024 04 20 19:40  13 36 02.00    +75 20 26.9   146099 1.0049  92.8 Am  18?  33.34 210.4   51  19  74  91
   2024 04 20 19:50  13 35 16.18    +75 15 36.5   145983 1.0049  92.9 Am  18?  34.51 211.0   51  18  74  91
   2024 04 20 20:00  13 34 28.29    +75 10 37.7   145862 1.0049  92.9 Am  18?  35.71 211.5   52  18  74  91
   2024 04 20 20:10  13 33 38.46    +75 05 29.9   145736 1.0049  93.0 Am  18?  36.93 211.8   53  18  74  91
   2024 04 20 20:20  13 32 46.83    +75 00 12.6   145607 1.0049  93.1  m  18?  38.17 212.0   53  17  74  91
   2024 04 20 20:30  13 31 53.56    +74 54 45.4   145473 1.0049  93.2  m  18?  39.43 212.1   54  17  74  91
   2024 04 20 20:40  13 30 58.79    +74 49 07.6   145335 1.0049  93.3  m  18?  40.70 212.2   55  16  73  91
   2024 04 20 20:50  13 30 02.67    +74 43 19.0   145193 1.0049  93.4  m  18?  41.98 212.1   55  15  73  91
   2024 04 20 21:00  13 29 05.37    +74 37 19.0   145048 1.0049  93.4  m  18?  43.26 211.9   56  14  73  91
   2024 04 20 21:10  13 28 07.03    +74 31 07.2   144898 1.0049  93.5  m  18?  44.56 211.7   56  14  73  91
   2024 04 20 21:20  13 27 07.84    +74 24 43.4   144745 1.0049  93.6  m  18?  45.85 211.4   57  13  73  91
   2024 04 20 21:30  13 26 07.93    +74 18 07.1   144588 1.0049  93.7  m  18?  47.15 211.0   57  12  73  91
   2024 04 20 21:40  13 25 07.49    +74 11 17.9   144428 1.0049  93.8  m  18?  48.44 210.6   58  10  73  91
   2024 04 20 21:50  13 24 06.67    +74 04 15.7   144264 1.0049  93.9  m  18?  49.73 210.1   58   9  73  91
   2024 04 20 22:00  13 23 05.64    +73 57 00.1   144097 1.0049  94.0  m  18?  51.02 209.6   59   8  73  91
   2024 04 20 22:10  13 22 04.57    +73 49 30.9   143927 1.0050  94.2  m  18?  52.30 209.0   59   7  73  91
   2024 04 20 22:20  13 21 03.60    +73 41 47.9   143754 1.0050  94.3  m  18?  53.58 208.4   59   5  73  91
   2024 04 20 22:30  13 20 02.90    +73 33 50.9   143578 1.0050  94.4  m  18?  54.84 207.7   60   4  72  91
   2024 04 20 22:40  13 19 02.63    +73 25 39.7   143398 1.0050  94.5  m  18?  56.10 207.1   60   2  72  91
   2024 04 20 22:50  13 18 02.93    +73 17 14.3   143216 1.0050  94.6  m  18?  57.34 206.3   60   1  72  91
   2024 04 20 23:00  13 17 03.96    +73 08 34.5   143031 1.0050  94.8  t  18?  58.58 205.6   60 359  72  91
   2024 04 20 23:10  13 16 05.85    +72 59 40.4   142843 1.0050  94.9  m  18?  59.80 204.8   61 357  72  91
   2024 04 20 23:20  13 15 08.75    +72 50 31.8   142652 1.0050  95.0  m  18?  61.00 204.0   61 356  72  91
   2024 04 20 23:30  13 14 12.78    +72 41 08.8   142459 1.0050  95.2  e  18?  62.19 203.2   61 354  72  91
   2024 04 20 23:40  13 13 18.08    +72 31 31.4   142263 1.0050  95.3  m  18?  63.36 202.4   60 352  72  91
   2024 04 20 23:50  13 12 24.75    +72 21 39.7   142064 1.0050  95.5  m  18?  64.52 201.6   60 350  71  91
   2024 04 21 00:00  13 11 32.92    +72 11 33.8   141863 1.0050  95.6  m  18?  65.66 200.7   60 349  71  91
   2024 04 21 00:10  13 10 42.69    +72 01 13.9   141659 1.0050  95.8  m  18?  66.78 199.9   60 347  71  91
   2024 04 21 00:20  13 09 54.15    +71 50 40.0   141452 1.0050  95.9  m  18?  67.88 199.0   60 345  71  91
   2024 04 21 00:30  13 09 07.41    +71 39 52.4   141243 1.0050  96.1  m  18?  68.97 198.1   59 344  71  92
   2024 04 21 00:40  13 08 22.54    +71 28 51.2   141031 1.0050  96.2  m  18?  70.03 197.2   59 342  71  92
   2024 04 21 00:50  13 07 39.63    +71 17 36.7   140816 1.0050  96.4  m  18?  71.07 196.3   58 341  70  92
   2024 04 21 01:00  13 06 58.74    +71 06 09.2   140599 1.0050  96.6  m  18?  72.09 195.4   58 339  70  92
   2024 04 21 01:10  13 06 19.93    +70 54 28.8   140379 1.0050  96.8  m  18?  73.09 194.5   57 338  70  92
   2024 04 21 01:20  13 05 43.27    +70 42 36.0   140157 1.0050  96.9  m  18?  74.07 193.6   57 337  70  92
   2024 04 21 01:30  13 05 08.79    +70 30 31.0   139931 1.0050  97.1  m  18?  75.03 192.7   56 336  70  92
   2024 04 21 01:40  13 04 36.55    +70 18 14.1   139703 1.0050  97.3  m  18?  75.96 191.8   55 335  70  92
   2024 04 21 01:50  13 04 06.57    +70 05 45.7   139473 1.0050  97.5  m  18?  76.87 190.9   55 334  69  92
   2024 04 21 02:00  13 03 38.89    +69 53 06.2   139239 1.0050  97.7  m  18?  77.76 190.0   54 333  69  92
   2024 04 21 02:10  13 03 13.52    +69 40 15.9   139002 1.0050  97.9  m  18?  78.62 189.1   53 332  69  92
   2024 04 21 02:20  13 02 50.49    +69 27 15.1   138762 1.0051  98.1  m  18?  79.46 188.2   52 331  69  92
   2024 04 21 02:30  13 02 29.79    +69 14 04.4   138520 1.0051  98.3  m  18?  80.27 187.3   52 330  69  92
   2024 04 21 02:40  13 02 11.45    +69 00 44.1   138273 1.0051  98.5  m  18?  81.07 186.4   51 330  68  92
   2024 04 21 02:50  13 01 55.45    +68 47 14.6   138024 1.0051  98.7  m  18?  81.83 185.5   50 329  68  92
   2024 04 21 03:00  13 01 41.79    +68 33 36.3   137771 1.0051  98.9 Am  18?  82.58 184.6   49 329  68  92
   2024 04 21 03:10  13 01 30.46    +68 19 49.6   137515 1.0051  99.1 Am  18?  83.30 183.7   48 328  68  92
   2024 04 21 03:20  13 01 21.44    +68 05 55.1   137255 1.0051  99.4 Am  18?  83.99 182.9   47 328  68  92
   2024 04 21 03:30  13 01 14.72    +67 51 53.0   136991 1.0051  99.6 Am  18?  84.67 182.0   46 328  68  92
   2024 04 21 03:40  13 01 10.27    +67 37 43.8   136724 1.0051  99.8 Nm  18?  85.31 181.1   45 328  67  92
   2024 04 21 03:50  13 01 08.07    +67 23 28.0   136452 1.0051 100.0 Nm  18?  85.94 180.3   44 328  67  92
   2024 04 21 04:00  13 01 08.08    +67 09 06.0   136176 1.0051 100.3 N   18?  86.54 179.4   43 328  67  92
   2024 04 21 04:10  13 01 10.27    +66 54 38.2   135896 1.0051 100.5 N   18?  87.12 178.6   42 328  67  92
   2024 04 21 04:20  13 01 14.61    +66 40 05.0   135612 1.0051 100.7 C   18?  87.67 177.8   41 328  67  92
   2024 04 21 04:30  13 01 21.05    +66 25 26.8   135322 1.0051 101.0 C   18?  88.20 177.0   40 328  66  92
   ................
   2024 04 21 18:40  13 45 08.90    +43 35 29.2    74393 1.0054 124.2 Cm  17? 165.64 181.8   40  64  49  95
   2024 04 21 18:50  13 45 02.94    +43 07 19.2    73077 1.0054 124.6 Cm  17? 172.52 182.4   42  66  49  95
   2024 04 21 19:00  13 44 55.06    +42 37 58.5    71745 1.0054 125.1 Nm  17? 179.96 183.0   43  67  48  95
   2024 04 21 19:10  13 44 45.27    +42 07 21.5    70396 1.0054 125.6 Nm  17? 187.99 183.5   45  69  48  95
   2024 04 21 19:20  13 44 33.53    +41 35 22.3    69030 1.0054 126.2 Nm  17? 196.66 184.0   46  71  47  95
   2024 04 21 19:30  13 44 19.84    +41 01 54.2    67648 1.0054 126.7 Nm  17? 206.04 184.5   48  73  47  95
   2024 04 21 19:40  13 44 04.18    +40 26 50.0    66248 1.0054 127.3 Am  17? 216.20 184.9   49  75  46  95
   2024 04 21 19:50  13 43 46.55    +39 50 01.8    64831 1.0054 127.9 Am  17? 227.21 185.3   51  77  46  95
   2024 04 21 20:00  13 43 26.93    +39 11 20.6    63396 1.0054 128.5 Am  17? 239.15 185.6   52  79  45  95
   2024 04 21 20:10  13 43 05.31    +38 30 36.7    61944 1.0054 129.2 Am  17? 252.13 185.9   54  82  44  95
   2024 04 21 20:20  13 42 41.66    +37 47 39.3    60473 1.0054 129.9  m  17? 266.27 186.2   55  84  44  95
   2024 04 21 20:30  13 42 15.99    +37 02 16.2    58984 1.0054 130.6  m  17? 281.69 186.4   57  87  43  96
   2024 04 21 20:40  13 41 48.25    +36 14 13.8    57477 1.0054 131.4  m  17? 298.57 186.6   58  90  42  96
   2024 04 21 20:50  13 41 18.44    +35 23 16.8    55950 1.0054 132.3  m  17? 317.07 186.7   60  94  42  96
   2024 04 21 21:00  13 40 46.52    +34 29 07.6    54405 1.0054 133.1  m  17? 337.43 186.8   61  98  41  96
   2024 04 21 21:10  13 40 12.45    +33 31 26.7    52840 1.0054 134.1  m  17? 359.89 186.9   63 102  40  96
   2024 04 21 21:20  13 39 36.18    +32 29 51.4    51256 1.0054 135.1  m  16? 384.77 186.9   64 107  39  96
   2024 04 21 21:30  13 38 57.65    +31 23 55.7    49651 1.0054 136.2  m  16? 412.44 187.0   65 112  38  96
   2024 04 21 21:40  13 38 16.80    +30 13 09.7    48026 1.0054 137.3  m  16? 443.34 187.0   66 118  37  96
   2024 04 21 21:50  13 37 33.51    +28 56 58.4    46381 1.0054 138.5  m  16? 478.00 186.9   67 125  36  96
   2024 04 21 22:00  13 36 47.66    +27 34 40.9    44715 1.0054 139.9  m  16? 517.10 186.9   67 132  34  96
   2024 04 21 22:10  13 35 59.09    +26 05 28.9    43028 1.0054 141.3  e  16? 561.46 186.8   68 139  33  96
   2024 04 21 22:20  13 35 07.59    +24 28 25.1    41321 1.0054 142.9  m  16? 612.07 186.7   67 147  31  96
   2024 04 21 22:30  13 34 12.90    +22 42 20.9    39593 1.0054 144.6  m  16? 670.23 186.6   67 155  30  96
   2024 04 21 22:40  13 33 14.64    +20 45 53.1    37846 1.0054 146.4  m  16? 737.53 186.5   65 162  28  96
   2024 04 21 22:50  13 32 12.36    +18 37 20.8    36080 1.0054 148.5  m  16? 816.04 186.3   64 169  26  96
   2024 04 21 23:00  13 31 05.43    +16 14 39.5    34296 1.0054 150.7  m  16? 908.40 186.2   62 176  24  96
   2024 04 21 23:10  13 29 53.00    +13 35 14.8    32498 1.0054 153.2  t  16? 1018.0 186.1   59 181  22  96
   2024 04 21 23:20  13 28 33.90    +10 35 53.3    30688 1.0054 155.9  m  16? 1149.4 186.0   56 186  19  96
   2024 04 21 23:30  13 27 06.51    +07 12 30.5    28873 1.0053 159.0  m  16? 1308.5 185.9   52 190  17  96
   2024 04 21 23:40  13 25 28.43    +03 19 54.9    27060 1.0053 162.3  m  16? 1502.8 185.9   48 194  14  96
   2024 04 21 23:50  13 23 36.16    -01 08 31.7    25261 1.0053 165.8  m  16? 1742.5 185.9   43 197  12  96
   2024 04 22 00:00  13 21 24.19    -06 21 18.9    23493 1.0053 168.9  m  16? 2040.1 186.0   37 199  11  96
   2024 04 22 00:10  13 18 43.58    -12 29 11.1    21780 1.0053 170.0  m  16? 2410.4 186.2   30 201  13  96
   2024 04 22 00:20  13 15 18.71    -19 45 19.8    20161 1.0053 166.9  m  15? 2868.8 186.5   23 202  18  96
   2024 04 22 00:30  13 10 39.86    -28 24 53.7    18685 1.0053 160.1  m  15? 3424.7 187.3   13 203  25  96
   2024 04 22 00:40  13 03 43.26    -38 42 44.4    17425 1.0053 150.7  m  15? 4069.3 188.6    2 202  34  96
   ................
   2024 04 22 03:30  02 09 57.42    +32 58 39.6    33825 1.0050  20.8 Ar  16? 1185.6   2.6    2  44 145  96
   2024 04 22 03:40  02 10 39.60    +36 06 22.6    35452 1.0050  24.0 Nm  16? 1071.8   2.9    6  43 142  96
   2024 04 22 03:50  02 11 23.06    +38 56 33.1    37065 1.0050  26.8 Nm  16? 974.81   3.1    9  43 140  96
   2024 04 22 04:00  02 12 07.25    +41 31 44.0    38661 1.0050  29.4 Nm  16? 891.59   3.3   12  43 138  96
   2024 04 22 04:10  02 12 51.70    +43 54 00.1    40240 1.0050  31.7 N   16? 819.63   3.5   15  42 136  96
   2024 04 22 04:20  02 13 36.07    +46 05 04.0    41801 1.0050  33.9 C   16? 756.96   3.6   18  42 134  96
   2024 04 22 04:30  02 14 20.05    +48 06 21.2    43341 1.0050  35.9 C   16? 702.04   3.7   20  41 132  96
   ................
   2024 04 22 18:40  22 50 57.16    +88 54 21.4   124831 1.0052  76.8 Cm  17?  43.94 338.8   43 359  99  98
   2024 04 22 18:50  22 42 08.94    +89 01 19.6   125351 1.0052  76.9 Cm  17?  44.60 337.2   43 359  99  98
   2024 04 22 19:00  22 31 25.59    +89 08 21.0   125863 1.0052  77.0 Cm  17?  45.33 334.6   43 359  99  98
   2024 04 22 19:10  22 17 45.81    +89 15 23.9   126367 1.0052  77.1 Nm  17?  46.10 330.8   43 359  99  98
   2024 04 22 19:20  21 59 22.90    +89 22 24.4   126863 1.0052  77.2 Nt  17?  46.91 324.9   43   0  99  98
   2024 04 22 19:30  21 32 59.67    +89 29 14.6   127351 1.0052  77.3 Nm  17?  47.77 315.5   43   0  99  98
   2024 04 22 19:40  20 52 15.16    +89 35 37.6   127832 1.0052  77.4 Am  18?  48.65 300.2   43   0  99  98
   2024 04 22 19:50  19 45 40.30    +89 40 53.9   128304 1.0052  77.5 Am  18?  49.57 277.1   43   0  98  98
   2024 04 22 20:00  18 02 56.46    +89 43 41.1   128770 1.0052  77.6 Am  18?  50.50 250.9   43   0  98  98
   2024 04 22 20:10  16 07 44.29    +89 42 30.5   129228 1.0052  77.7 Am  18?  51.45 230.5   44   0  98  98
   2024 04 22 20:20  14 42 54.68    +89 37 48.2   129678 1.0052  77.9  m  18?  52.42 217.4   44   0  98  98
   2024 04 22 20:30  13 51 05.97    +89 31 06.1   130122 1.0052  78.0  m  18?  53.39 209.2   44   0  98  98
   2024 04 22 20:40  13 19 06.54    +89 23 21.9   130558 1.0052  78.1  m  18?  54.37 203.7   44   0  98  98
   2024 04 22 20:50  12 58 06.23    +89 15 01.4   130988 1.0052  78.2  m  18?  55.36 199.8   44   0  98  98
   2024 04 22 21:00  12 43 28.61    +89 06 16.2   131411 1.0052  78.3  m  18?  56.35 196.9   44   0  98  98
   2024 04 22 21:10  12 32 48.23    +88 57 12.2   131827 1.0052  78.5  m  18?  57.33 194.6   45   0  98  98
   2024 04 22 21:20  12 24 44.02    +88 47 52.4   132236 1.0052  78.6  m  18?  58.31 192.8   45   0  98  98
   2024 04 22 21:30  12 18 27.99    +88 38 18.8   132639 1.0052  78.7  m  18?  59.28 191.3   45   0  97  98
   2024 04 22 21:40  12 13 30.16    +88 28 32.4   133036 1.0052  78.8  m  18?  60.25 190.0   45   0  97  98
   2024 04 22 21:50  12 09 30.89    +88 18 34.3   133426 1.0052  79.0  t  18?  61.20 188.9   45 359  97  98
   2024 04 22 22:00  12 06 16.83    +88 08 24.8   133811 1.0052  79.1  m  18?  62.14 187.9   45 359  97  98
   2024 04 22 22:10  12 03 38.58    +87 58 04.7   134189 1.0053  79.2  m  18?  63.07 187.0   46 359  97  98
   2024 04 22 22:20  12 01 29.31    +87 47 34.1   134561 1.0053  79.4  m  18?  63.98 186.1   46 359  97  98
   2024 04 22 22:30  11 59 43.96    +87 36 53.6   134928 1.0053  79.5  m  18?  64.88 185.3   46 359  97  99
   2024 04 22 22:40  11 58 18.66    +87 26 03.5   135288 1.0053  79.7  m  18?  65.75 184.6   46 358  97  99
   2024 04 22 22:50  11 57 10.43    +87 15 04.0   135644 1.0053  79.8  m  18?  66.61 183.8   46 358  97  99
   2024 04 22 23:00  11 56 16.90    +87 03 55.5   135993 1.0053  80.0  m  18?  67.45 183.1   46 358  96  99
   2024 04 22 23:10  11 55 36.19    +86 52 38.3   136337 1.0053  80.1  m  18?  68.27 182.5   46 357  96  99
   2024 04 22 23:20  11 55 06.73    +86 41 12.8   136676 1.0053  80.3  m  18?  69.07 181.8   46 357  96  99
   2024 04 22 23:30  11 54 47.27    +86 29 39.1   137010 1.0053  80.4  m  18?  69.84 181.2   47 357  96  99
   2024 04 22 23:40  11 54 36.74    +86 17 57.7   137339 1.0053  80.6  m  18?  70.59 180.6   47 356  96  99
   2024 04 22 23:50  11 54 34.24    +86 06 08.8   137662 1.0053  80.8  m  18?  71.32 180.0   47 356  96  99
   2024 04 23 00:00  11 54 39.00    +85 54 12.8   137980 1.0053  80.9  m  18?  72.02 179.4   47 356  96  99
   2024 04 23 00:10  11 54 50.36    +85 42 10.0   138294 1.0053  81.1  m  18?  72.70 178.8   47 355  95  99
   2024 04 23 00:20  11 55 07.76    +85 30 00.7   138603 1.0053  81.3  e  18?  73.35 178.2   47 355  95  99
   2024 04 23 00:30  11 55 30.69    +85 17 45.3   138907 1.0053  81.4  m  18?  73.97 177.6   47 354  95  99
   2024 04 23 00:40  11 55 58.71    +85 05 24.1   139206 1.0053  81.6  m  18?  74.57 177.0   47 354  95  99
   2024 04 23 00:50  11 56 31.43    +84 52 57.5   139500 1.0053  81.8  m  18?  75.14 176.5   47 354  95  99
   2024 04 23 01:00  11 57 08.49    +84 40 25.7   139790 1.0053  82.0  m  18?  75.68 175.9   47 353  95  99
   2024 04 23 01:10  11 57 49.57    +84 27 49.2   140076 1.0053  82.2  m  18?  76.20 175.3   46 353  94  99
   2024 04 23 01:20  11 58 34.40    +84 15 08.4   140357 1.0053  82.4  m  18?  76.69 174.8   46 352  94  99
   2024 04 23 01:30  11 59 22.72    +84 02 23.5   140633 1.0053  82.5  m  18?  77.15 174.2   46 352  94  99
   2024 04 23 01:40  12 00 14.28    +83 49 34.9   140905 1.0053  82.7  m  18?  77.58 173.6   46 351  94  99
   2024 04 23 01:50  12 01 08.87    +83 36 43.0   141173 1.0053  82.9  m  18?  77.98 173.1   46 351  94  99
   2024 04 23 02:00  12 02 06.29    +83 23 48.2   141436 1.0053  83.1  m  18?  78.35 172.5   46 351  94  99
   2024 04 23 02:10  12 03 06.35    +83 10 50.8   141695 1.0054  83.3  m  18?  78.69 172.0   46 350  93  99
   2024 04 23 02:20  12 04 08.88    +82 57 51.2   141950 1.0054  83.5  m  18?  79.01 171.4   45 350  93  99
   2024 04 23 02:30  12 05 13.73    +82 44 49.7   142201 1.0054  83.7  m  18?  79.29 170.9   45 349  93  99
   2024 04 23 02:40  12 06 20.73    +82 31 46.8   142447 1.0054  83.9  m  18?  79.54 170.4   45 349  93  99
   2024 04 23 02:50  12 07 29.76    +82 18 42.7   142689 1.0054  84.1  m  18?  79.77 169.8   45 349  93  99
   2024 04 23 03:00  12 08 40.67    +82 05 37.9   142926 1.0054  84.4 Am  18?  79.96 169.3   44 348  93  99
   2024 04 23 03:10  12 09 53.35    +81 52 32.7   143159 1.0054  84.6 Am  18?  80.13 168.7   44 348  92  99
   2024 04 23 03:20  12 11 07.68    +81 39 27.5   143388 1.0054  84.8 Am  18?  80.27 168.2   44 348  92  99
   2024 04 23 03:30  12 12 23.54    +81 26 22.6   143613 1.0054  85.0 Am  18?  80.37 167.6   43 347  92  99
   2024 04 23 03:40  12 13 40.84    +81 13 18.5   143833 1.0054  85.2 Nm  18?  80.45 167.1   43 347  92  99
   2024 04 23 03:50  12 14 59.46    +81 00 15.3   144049 1.0054  85.4 Nm  18?  80.50 166.6   43 347  92  99
   2024 04 23 04:00  12 16 19.32    +80 47 13.6   144261 1.0054  85.6 Nm  18?  80.52 166.0   42 347  91  99
   2024 04 23 04:10  12 17 40.31    +80 34 13.6   144468 1.0054  85.8 Cm  18?  80.51 165.5   42 347  91  99
   2024 04 23 04:20  12 19 02.36    +80 21 15.7   144671 1.0054  86.1 Cm  18?  80.47 165.0   41 346  91  99
   2024 04 23 04:30  12 20 25.38    +80 08 20.2   144869 1.0054  86.3 C   18?  80.40 164.4   41 346  91  99
   ................
   2024 04 23 18:40  13 38 28.63    +68 44 31.9   138093 1.0058  98.3 Cm  18?  33.46 200.0   48  30  82  99
   2024 04 23 18:50  13 38 06.39    +68 39 15.0   137709 1.0058  98.4 Cm  18?  34.54 201.4   49  30  82  99
   2024 04 23 19:00  13 37 42.07    +68 33 50.7   137319 1.0058  98.5 Cm  18?  35.69 202.7   50  30  82  99
   2024 04 23 19:10  13 37 15.75    +68 28 18.5   136924 1.0058  98.5 Nm  18?  36.90 203.9   51  30  82  99
   2024 04 23 19:20  13 36 47.47    +68 22 37.8   136523 1.0058  98.6 Nm  18?  38.17 204.9   52  30  82  99
   2024 04 23 19:30  13 36 17.31    +68 16 47.9   136118 1.0058  98.7 Nm  18?  39.50 205.7   53  30  82  99
   2024 04 23 19:40  13 35 45.33    +68 10 48.3   135708 1.0058  98.8 Am  18?  40.87 206.4   54  29  82  99
   2024 04 23 19:50  13 35 11.62    +68 04 38.3   135293 1.0058  98.9 Am  18?  42.28 207.1   55  29  82  99
   2024 04 23 20:00  13 34 36.26    +67 58 17.4   134874 1.0058  99.0 Am  18?  43.74 207.5   56  29  82  99
   2024 04 23 20:10  13 33 59.33    +67 51 45.0   134451 1.0058  99.1 Am  18?  45.23 207.9   57  28  82  99
   2024 04 23 20:20  13 33 20.92    +67 45 00.5   134023 1.0058  99.2 Am  18?  46.75 208.2   58  27  82  99
   2024 04 23 20:30  13 32 41.13    +67 38 03.3   133590 1.0058  99.3  m  18?  48.30 208.4   59  27  82  99
   2024 04 23 20:40  13 32 00.05    +67 30 53.0   133154 1.0058  99.4  m  18?  49.88 208.5   60  26  82  99
   2024 04 23 20:50  13 31 17.79    +67 23 28.9   132714 1.0058  99.5  m  17?  51.48 208.5   61  25  82  99
   2024 04 23 21:00  13 30 34.45    +67 15 50.7   132270 1.0058  99.6  m  17?  53.10 208.4   61  24  82  99
   2024 04 23 21:10  13 29 50.14    +67 07 57.7   131822 1.0058  99.7  m  17?  54.73 208.3   62  22  81  99
   2024 04 23 21:20  13 29 04.97    +66 59 49.4   131371 1.0058  99.9  m  17?  56.38 208.1   63  21  81  99
   2024 04 23 21:30  13 28 19.04    +66 51 25.6   130916 1.0058 100.0  m  17?  58.05 207.9   64  19  81  99
   2024 04 23 21:40  13 27 32.49    +66 42 45.6   130457 1.0058 100.1  m  17?  59.73 207.5   65  17  81  99
   2024 04 23 21:50  13 26 45.41    +66 33 49.1   129995 1.0058 100.2  m  17?  61.41 207.2   65  15  81  99
   2024 04 23 22:00  13 25 57.93    +66 24 35.7   129530 1.0058 100.4  m  17?  63.11 206.8   66  13  81  99
   2024 04 23 22:10  13 25 10.16    +66 15 05.1   129062 1.0058 100.5  m  17?  64.81 206.3   67  11  81  99
   2024 04 23 22:20  13 24 22.23    +66 05 16.9   128590 1.0058 100.7  m  17?  66.51 205.9   67   8  81  99
   2024 04 23 22:30  13 23 34.25    +65 55 10.8   128115 1.0059 100.8  m  17?  68.22 205.3   67   5  81  99
   2024 04 23 22:40  13 22 46.33    +65 44 46.4   127638 1.0059 101.0  m  17?  69.93 204.8   68   3  81  99
   2024 04 23 22:50  13 21 58.60    +65 34 03.7   127157 1.0059 101.1  m  17?  71.64 204.2   68   0  80  99
   2024 04 23 23:00  13 21 11.16    +65 23 02.2   126673 1.0059 101.3  t  17?  73.35 203.6   68 356  80  99
   2024 04 23 23:10  13 20 24.13    +65 11 41.9   126187 1.0059 101.4  e  17?  75.06 202.9   68 353  80  99
   2024 04 23 23:20  13 19 37.61    +65 00 02.5   125697 1.0059 101.6  m  17?  76.76 202.3   68 350  80  99
   2024 04 23 23:30  13 18 51.73    +64 48 03.9   125204 1.0059 101.8  m  17?  78.47 201.6   68 347  80  99
   2024 04 23 23:40  13 18 06.58    +64 35 46.1   124709 1.0059 102.0  m  17?  80.16 200.9   68 344  80  99
   2024 04 23 23:50  13 17 22.26    +64 23 08.8   124211 1.0059 102.2  m  17?  81.86 200.2   67 341  80  99
   2024 04 24 00:00  13 16 38.87    +64 10 12.0   123710 1.0059 102.3  m  17?  83.55 199.5   67 338  79  99
   2024 04 24 00:10  13 15 56.51    +63 56 55.7   123206 1.0059 102.5  m  17?  85.23 198.7   66 335  79  99
   2024 04 24 00:20  13 15 15.26    +63 43 20.0   122698 1.0059 102.7  m  17?  86.91 198.0   66 333  79  99
   2024 04 24 00:30  13 14 35.22    +63 29 24.7   122188 1.0059 102.9  m  17?  88.58 197.2   65 331  79  99
   2024 04 24 00:40  13 13 56.46    +63 15 10.0   121675 1.0059 103.2  m  17?  90.24 196.4   64 328  79  99
   2024 04 24 00:50  13 13 19.07    +63 00 35.9   121159 1.0059 103.4  m  17?  91.89 195.6   63 326  79  99
   2024 04 24 01:00  13 12 43.10    +62 45 42.4   120640 1.0059 103.6  m  17?  93.54 194.8   62 325  78  99
   2024 04 24 01:10  13 12 08.64    +62 30 29.8   120117 1.0059 103.8  m  17?  95.18 194.1   61 323  78  99
   2024 04 24 01:20  13 11 35.75    +62 14 58.0   119591 1.0059 104.1  m  17?  96.81 193.3   60 322  78  99
   2024 04 24 01:30  13 11 04.48    +61 59 07.3   119061 1.0059 104.3  m  17?  98.43 192.5   59 320  78  99
   2024 04 24 01:40  13 10 34.88    +61 42 57.8   118528 1.0059 104.5  m  17? 100.04 191.7   58 319  78  99
   2024 04 24 01:50  13 10 07.01    +61 26 29.7   117992 1.0059 104.8  m  17? 101.65 190.8   57 318  77  99
   2024 04 24 02:00  13 09 40.90    +61 09 43.2   117451 1.0059 105.0  m  17? 103.25 190.0   55 318  77  99
   2024 04 24 02:10  13 09 16.60    +60 52 38.4   116907 1.0059 105.3  m  17? 104.84 189.2   54 317  77  99
   2024 04 24 02:20  13 08 54.14    +60 35 15.5   116358 1.0059 105.6  m  17? 106.42 188.4   53 316  77  99
   2024 04 24 02:30  13 08 33.55    +60 17 34.8   115805 1.0059 105.8  m  17? 107.99 187.6   52 316  77  99
   2024 04 24 02:40  13 08 14.85    +59 59 36.5   115248 1.0059 106.1  m  17? 109.56 186.9   50 315  76  99
   2024 04 24 02:50  13 07 58.07    +59 41 20.9   114686 1.0059 106.4 Am  17? 111.13 186.1   49 315  76  99
   2024 04 24 03:00  13 07 43.21    +59 22 48.0   114120 1.0060 106.7 Am  17? 112.69 185.3   48 315  76  99
   2024 04 24 03:10  13 07 30.30    +59 03 58.2   113548 1.0060 107.0 Am  17? 114.24 184.5   46 315  76  99
   2024 04 24 03:20  13 07 19.33    +58 44 51.6   112971 1.0060 107.3 Am  17? 115.79 183.7   45 315  75  99
   2024 04 24 03:30  13 07 10.32    +58 25 28.6   112389 1.0060 107.6 Am  17? 117.34 183.0   44 315  75  99
   2024 04 24 03:40  13 07 03.26    +58 05 49.2   111801 1.0060 107.9 Nm  17? 118.89 182.2   42 315  75  99
   2024 04 24 03:50  13 06 58.14    +57 45 53.8   111207 1.0060 108.2 Nm  17? 120.44 181.5   41 315  74  99
   2024 04 24 04:00  13 06 54.97    +57 25 42.4   110607 1.0060 108.5 Nm  17? 121.98 180.7   39 315  74  99
   2024 04 24 04:10  13 06 53.73    +57 05 15.3   110000 1.0060 108.8 Cm  17? 123.53 180.0   38 316  74  99
   2024 04 24 04:20  13 06 54.41    +56 44 32.7   109387 1.0060 109.2 Cm  17? 125.09 179.3   37 316  74  99
   2024 04 24 04:30  13 06 57.00    +56 23 34.6   108767 1.0060 109.5 Cm  17? 126.65 178.6   35 316  73  99
   ................
   2024 04 24 19:30  01 07 57.78    +35 20 31.4    36320 1.0057  26.2 Nr  16? 962.36   7.9    0 324 153  99
   2024 04 24 19:40  01 09 43.01    +37 51 18.8    38145 1.0057  28.1 Nm  16? 866.55   8.1    0 326 151  99
   2024 04 24 19:50  01 11 24.28    +40 07 30.4    39937 1.0057  29.9 Am  16? 786.04   8.4    2 329 150  99
   2024 04 24 20:00  01 13 02.68    +42 11 22.2    41696 1.0057  31.5 Am  16? 717.80   8.7    3 331 149  99
   2024 04 24 20:10  01 14 39.05    +44 04 43.7    43421 1.0057  33.1 Am  16? 659.47   9.0    4 334 148  99
   2024 04 24 20:20  01 16 14.05    +45 49 04.1    45113 1.0057  34.6 Am  16? 609.25   9.4    5 336 147  99
   2024 04 24 20:30  01 17 48.21    +47 25 36.4    46771 1.0057  36.0  m  17? 565.71   9.8    6 338 146  99
   2024 04 24 20:40  01 19 21.95    +48 55 21.3    48398 1.0057  37.3  m  17? 527.73  10.1    6 340 145  99
   2024 04 24 20:50  01 20 55.62    +50 19 09.3    49992 1.0057  38.5  m  17? 494.39  10.5    7 341 144  99
   2024 04 24 21:00  01 22 29.51    +51 37 43.0    51556 1.0057  39.6  m  17? 464.99  10.9    8 343 143  99
   2024 04 24 21:10  01 24 03.84    +52 51 38.4    53089 1.0057  40.7  m  17? 438.92  11.3    9 345 142  99
   2024 04 24 21:20  01 25 38.82    +54 01 26.2    54593 1.0057  41.8  m  17? 415.70  11.7    9 346 142  99
   2024 04 24 21:30  01 27 14.61    +55 07 32.9    56069 1.0057  42.8  m  17? 394.93  12.1   10 348 141  99
   2024 04 24 21:40  01 28 51.36    +56 10 21.1    57517 1.0057  43.7  m  17? 376.27  12.5   11 349 140  99
   2024 04 24 21:50  01 30 29.18    +57 10 10.6    58939 1.0057  44.6  m  17? 359.46  12.9   12 351 139  99
   2024 04 24 22:00  01 32 08.20    +58 07 18.5    60334 1.0057  45.5  m  17? 344.25  13.3   12 352 139  99
   2024 04 24 22:10  01 33 48.50    +59 01 59.9    61705 1.0057  46.3  m  17? 330.45  13.7   13 353 138  98
   2024 04 24 22:20  01 35 30.16    +59 54 28.0    63051 1.0057  47.2  m  17? 317.87  14.1   14 354 137  98
   2024 04 24 22:30  01 37 13.25    +60 44 54.3    64373 1.0057  47.9  m  17? 306.39  14.5   15 355 137  98
   2024 04 24 22:40  01 38 57.86    +61 33 29.3    65673 1.0057  48.7  m  17? 295.87  14.8   15 357 136  98
   2024 04 24 22:50  01 40 44.03    +62 20 22.1    66951 1.0057  49.4  m  17? 286.20  15.2   16 358 135  98
   2024 04 24 23:00  01 42 31.82    +63 05 40.8    68207 1.0057  50.1  m  17? 277.30  15.5   17 359 135  98
   2024 04 24 23:10  01 44 21.29    +63 49 32.6    69442 1.0057  50.8  t  17? 269.07  15.9   17   0 134  98
   2024 04 24 23:20  01 46 12.50    +64 32 04.2    70657 1.0057  51.5  m  17? 261.45  16.2   18   0 134  98
   2024 04 24 23:30  01 48 05.49    +65 13 21.3    71853 1.0057  52.2  m  17? 254.37  16.5   19   1 133  98
   2024 04 24 23:40  01 50 00.31    +65 53 29.1    73030 1.0057  52.8  m  17? 247.78  16.8   20   2 133  98
   2024 04 24 23:50  01 51 57.01    +66 32 32.5    74188 1.0057  53.4  m  17? 241.63  17.0   20   3 132  98
   2024 04 25 00:00  01 53 55.65    +67 10 35.6    75328 1.0057  54.0  m  17? 235.87  17.3   21   4 132  98
   2024 04 25 00:10  01 55 56.28    +67 47 42.4    76451 1.0057  54.6  m  17? 230.47  17.6   22   4 131  98
   2024 04 25 00:20  01 57 58.96    +68 23 56.2    77557 1.0057  55.2  m  17? 225.40  17.8   22   5 131  98
   2024 04 25 00:30  02 00 03.73    +68 59 20.4    78647 1.0057  55.8  m  17? 220.61  18.0   23   6 130  98
   2024 04 25 00:40  02 02 10.67    +69 33 57.6    79722 1.0057  56.4  m  17? 216.09  18.3   24   6 130  98
   2024 04 25 00:50  02 04 19.85    +70 07 50.5    80780 1.0057  56.9  m  17? 211.81  18.5   25   7 129  98
   2024 04 25 01:00  02 06 31.32    +70 41 01.5    81824 1.0057  57.5  m  17? 207.74  18.7   25   7 129  98
   2024 04 25 01:10  02 08 45.18    +71 13 32.7    82854 1.0057  58.0  m  17? 203.87  18.9   26   8 128  98
   2024 04 25 01:20  02 11 01.49    +71 45 26.1    83869 1.0057  58.5  m  17? 200.18  19.0   27   8 128  98
   2024 04 25 01:30  02 13 20.37    +72 16 43.3    84871 1.0057  59.0  m  17? 196.65  19.2   27   9 127  98
   2024 04 25 01:40  02 15 41.90    +72 47 26.0    85859 1.0057  59.6  m  17? 193.27  19.4   28   9 127  98
   2024 04 25 01:50  02 18 06.19    +73 17 35.7    86835 1.0057  60.1  m  17? 190.03  19.6   29   9 126  98
   2024 04 25 02:00  02 20 33.36    +73 47 13.6    87797 1.0057  60.6  m  17? 186.90  19.7   30  10 126  98
   2024 04 25 02:10  02 23 03.55    +74 16 21.0    88748 1.0057  61.1  m  17? 183.89  19.9   30  10 126  98
   2024 04 25 02:20  02 25 36.90    +74 44 58.9    89687 1.0057  61.5  m  17? 180.98  20.0   31  10 125  98
   2024 04 25 02:30  02 28 13.57    +75 13 08.3    90614 1.0057  62.0  m  17? 178.16  20.2   31  10 125  98
   2024 04 25 02:40  02 30 53.74    +75 40 50.0    91530 1.0057  62.5  m  17? 175.42  20.3   32  11 124  98
   2024 04 25 02:50  02 33 37.60    +76 08 04.8    92435 1.0057  63.0 Am  17? 172.76  20.5   33  11 124  98
   2024 04 25 03:00  02 36 25.37    +76 34 53.5    93329 1.0057  63.4 Am  17? 170.17  20.7   33  11 124  98
   2024 04 25 03:10  02 39 17.29    +77 01 16.7    94212 1.0057  63.9 Am  17? 167.65  20.8   34  11 123  98
   2024 04 25 03:20  02 42 13.62    +77 27 14.9    95086 1.0057  64.3 Am  17? 165.18  21.0   35  11 123  98
   2024 04 25 03:30  02 45 14.67    +77 52 48.5    95949 1.0057  64.8 Nm  17? 162.76  21.2   35  11 122  98
   2024 04 25 03:40  02 48 20.77    +78 17 58.0    96803 1.0057  65.2 Nm  17? 160.39  21.4   36  11 122  98
   2024 04 25 03:50  02 51 32.28    +78 42 43.7    97647 1.0057  65.6 Nm  17? 158.06  21.6   36  11 122  98
   2024 04 25 04:00  02 54 49.61    +79 07 06.0    98482 1.0057  66.1 Nm  17? 155.77  21.8   37  11 121  98
   2024 04 25 04:10  02 58 13.24    +79 31 05.0    99308 1.0057  66.5 Cm  17? 153.52  22.1   37  10 121  98
   2024 04 25 04:20  03 01 43.68    +79 54 41.0   100125 1.0057  66.9 Cm  17? 151.30  22.3   38  10 120  98
   2024 04 25 04:30  03 05 21.52    +80 17 54.0   100933 1.0057  67.3 Cm  17? 149.11  22.6   38  10 120  98
   ................
   2024 04 25 18:40  13 45 41.30    +82 43 11.5   142607 1.0061  83.8 C   18?  31.45 209.0   46   9 106  96
   2024 04 25 18:50  13 44 17.79    +82 38 35.6   142794 1.0061  83.8 C   18?  32.39 210.0   46   9 106  96
   2024 04 25 19:00  13 42 50.46    +82 33 54.0   142975 1.0061  83.9 C   18?  33.36 210.8   47   9 106  96
   2024 04 25 19:10  13 41 19.63    +82 29 06.0   143151 1.0061  84.0 N   18?  34.37 211.4   47   9 106  96
   2024 04 25 19:20  13 39 45.63    +82 24 10.9   143320 1.0061  84.0 N   18?  35.42 211.9   48   9 106  96
   2024 04 25 19:30  13 38 08.77    +82 19 08.2   143485 1.0061  84.1 N   18?  36.49 212.2   48   9 106  96
   2024 04 25 19:40  13 36 29.41    +82 13 57.2   143644 1.0061  84.2 N   18?  37.58 212.4   48   9 106  96
   2024 04 25 19:50  13 34 47.87    +82 08 37.4   143798 1.0061  84.3 A   18?  38.69 212.5   49   8 106  96
   2024 04 25 20:00  13 33 04.51    +82 03 08.3   143946 1.0061  84.3 A   18?  39.82 212.5   49   8 106  96
   2024 04 25 20:10  13 31 19.67    +81 57 29.4   144090 1.0061  84.4 A   18?  40.95 212.3   49   8 106  96
   2024 04 25 20:20  13 29 33.69    +81 51 40.1   144228 1.0061  84.5 A   18?  42.09 212.1   50   7 106  96
   2024 04 25 20:30  13 27 46.91    +81 45 40.1   144362 1.0061  84.6  m  18?  43.24 211.8   50   7 106  96
   2024 04 25 20:40  13 25 59.69    +81 39 28.9   144491 1.0061  84.7  m  18?  44.39 211.4   50   7 106  96
   2024 04 25 20:50  13 24 12.35    +81 33 06.1   144615 1.0061  84.8  m  18?  45.53 210.9   51   6 106  96
   2024 04 25 21:00  13 22 25.21    +81 26 31.5   144734 1.0061  84.8  m  18?  46.68 210.4   51   6 106  96
   2024 04 25 21:10  13 20 38.61    +81 19 44.7   144849 1.0061  84.9  m  18?  47.82 209.8   51   5 106  96
   2024 04 25 21:20  13 18 52.84    +81 12 45.5   144960 1.0061  85.0  m  18?  48.95 209.2   52   4 106  96
   2024 04 25 21:30  13 17 08.21    +81 05 33.7   145066 1.0061  85.1  m  18?  50.08 208.5   52   4 106  96
   2024 04 25 21:40  13 15 25.00    +80 58 09.1   145168 1.0061  85.2  m  18?  51.19 207.8   52   3 106  96
   2024 04 25 21:50  13 13 43.48    +80 50 31.5   145266 1.0061  85.3  m  18?  52.30 207.0   53   2 106  96
   2024 04 25 22:00  13 12 03.90    +80 42 40.9   145360 1.0061  85.4  m  18?  53.39 206.3   53   2 106  96
   2024 04 25 22:10  13 10 26.52    +80 34 37.2   145449 1.0061  85.6  m  18?  54.47 205.4   53   1 106  96
   2024 04 25 22:20  13 08 51.54    +80 26 20.4   145535 1.0062  85.7  m  18?  55.53 204.6   53   0 106  96
   2024 04 25 22:30  13 07 19.17    +80 17 50.5   145617 1.0062  85.8  t  18?  56.58 203.7   53 359 106  96
   2024 04 25 22:40  13 05 49.61    +80 09 07.6   145696 1.0062  85.9  m  18?  57.61 202.9   53 358 106  95
   2024 04 25 22:50  13 04 23.03    +80 00 11.8   145770 1.0062  86.0  m  18?  58.62 202.0   53 358 106  95
   2024 04 25 23:00  13 02 59.57    +79 51 03.2   145841 1.0062  86.2  m  18?  59.61 201.0   54 357 106  95
   2024 04 25 23:10  13 01 39.38    +79 41 41.9   145909 1.0062  86.3  m  18?  60.59 200.1   54 356 106  95
   2024 04 25 23:20  13 00 22.58    +79 32 08.1   145973 1.0062  86.4  e  18?  61.54 199.2   54 355 106  95
   2024 04 25 23:30  12 59 09.27    +79 22 22.1   146033 1.0062  86.5  m  18?  62.47 198.3   54 354 106  95
   2024 04 25 23:40  12 57 59.53    +79 12 24.1   146090 1.0062  86.7  m  18?  63.39 197.3   54 353 105  95
   2024 04 25 23:50  12 56 53.44    +79 02 14.4   146144 1.0062  86.8  m  18?  64.27 196.4   53 352 105  95
   2024 04 26 00:00  12 55 51.05    +78 51 53.2   146194 1.0062  87.0  m  18?  65.14 195.4   53 351 105  95
   2024 04 26 00:10  12 54 52.41    +78 41 20.9   146241 1.0062  87.1  m  18?  65.98 194.5   53 350 105  95
   2024 04 26 00:20  12 53 57.54    +78 30 37.7   146284 1.0062  87.3  m  18?  66.80 193.5   53 349 105  95
   2024 04 26 00:30  12 53 06.47    +78 19 44.1   146325 1.0062  87.4  m  18?  67.59 192.6   53 348 105  95
   2024 04 26 00:40  12 52 19.19    +78 08 40.4   146362 1.0062  87.6  m  18?  68.36 191.6   52 348 105  95
   2024 04 26 00:50  12 51 35.71    +77 57 27.0   146396 1.0062  87.7  m  18?  69.10 190.7   52 347 105  95
   2024 04 26 01:00  12 50 55.99    +77 46 04.3   146427 1.0062  87.9  m  18?  69.82 189.7   52 346 105  95
   2024 04 26 01:10  12 50 20.03    +77 34 32.7   146454 1.0062  88.1  m  18?  70.51 188.8   51 345 105  95
   2024 04 26 01:20  12 49 47.78    +77 22 52.6   146478 1.0062  88.2  m  18?  71.18 187.9   51 344 105  95
   2024 04 26 01:30  12 49 19.20    +77 11 04.4   146499 1.0062  88.4  m  18?  71.82 187.0   51 344 105  95
   2024 04 26 01:40  12 48 54.25    +76 59 08.6   146517 1.0062  88.6  m  18?  72.43 186.0   50 343 104  95
   2024 04 26 01:50  12 48 32.86    +76 47 05.5   146532 1.0062  88.8  m  18?  73.02 185.1   50 342 104  95
   2024 04 26 02:00  12 48 14.98    +76 34 55.7   146543 1.0062  88.9  m  18?  73.57 184.2   49 342 104  95
   2024 04 26 02:10  12 48 00.54    +76 22 39.7   146550 1.0062  89.1  m  18?  74.11 183.3   49 341 104  95
   2024 04 26 02:20  12 47 49.48    +76 10 17.7   146555 1.0063  89.3  m  18?  74.61 182.4   48 340 104  95
   2024 04 26 02:30  12 47 41.71    +75 57 50.3   146556 1.0063  89.5  m  18?  75.08 181.6   48 340 104  95
   2024 04 26 02:40  12 47 37.16    +75 45 18.0   146553 1.0063  89.7  m  18?  75.53 180.7   47 340 104  95
   2024 04 26 02:50  12 47 35.75    +75 32 41.2   146547 1.0063  89.9 Am  18?  75.95 179.8   47 339 104  95
   2024 04 26 03:00  12 47 37.41    +75 20 00.3   146537 1.0063  90.1 Am  18?  76.35 178.9   46 339 104  95
   2024 04 26 03:10  12 47 42.03    +75 07 15.9   146524 1.0063  90.3 Am  18?  76.71 178.1   45 338 103  95
   2024 04 26 03:20  12 47 49.54    +74 54 28.2   146507 1.0063  90.5 Am  18?  77.05 177.3   45 338 103  95
   2024 04 26 03:30  12 47 59.86    +74 41 37.9   146486 1.0063  90.7 Nm  18?  77.36 176.4   44 338 103  95
   2024 04 26 03:40  12 48 12.88    +74 28 45.2   146461 1.0063  90.9 Nm  18?  77.64 175.6   43 338 103  95
   2024 04 26 03:50  12 48 28.54    +74 15 50.8   146432 1.0063  91.1 Nm  18?  77.89 174.8   43 338 103  95
   2024 04 26 04:00  12 48 46.72    +74 02 54.9   146399 1.0063  91.3 Nm  18?  78.12 174.0   42 337 103  95
   2024 04 26 04:10  12 49 07.36    +73 49 58.0   146362 1.0063  91.5 Cm  18?  78.32 173.2   41 337 103  95
   2024 04 26 04:20  12 49 30.35    +73 37 00.5   146321 1.0063  91.7 Cm  18?  78.49 172.4   40 337 102  95
   2024 04 26 04:30  12 49 55.61    +73 24 02.9   146275 1.0063  91.9 Cm  18?  78.64 171.6   40 337 102  95
   ................
   2024 04 26 18:40  13 39 27.21    +59 46 38.9   114668 1.0066 106.0 C   17?  56.23 193.5   49  44  92  91
   2024 04 26 18:50  13 39 08.71    +59 37 26.4   113917 1.0066 106.2 C   17?  57.92 194.6   50  44  92  91
   2024 04 26 19:00  13 38 48.36    +59 27 59.6   113160 1.0067 106.3 C   17?  59.72 195.6   51  44  92  91
   2024 04 26 19:10  13 38 26.19    +59 18 17.7   112395 1.0067 106.5 N   17?  61.62 196.5   53  45  92  91
   2024 04 26 19:20  13 38 02.26    +59 08 19.9   111623 1.0067 106.6 N   17?  63.62 197.3   54  45  92  91
   2024 04 26 19:30  13 37 36.59    +58 58 05.0   110845 1.0067 106.8 N   17?  65.71 198.0   55  45  92  91
   2024 04 26 19:40  13 37 09.23    +58 47 32.3   110060 1.0067 106.9 N   17?  67.90 198.6   57  46  92  91
   2024 04 26 19:50  13 36 40.24    +58 36 40.6   109268 1.0067 107.1 A   17?  70.17 199.2   58  46  92  91
   2024 04 26 20:00  13 36 09.68    +58 25 29.1   108469 1.0067 107.3 A   17?  72.54 199.7   59  46  92  91
   2024 04 26 20:10  13 35 37.59    +58 13 56.7   107665 1.0067 107.4 A   17?  74.99 200.0   61  45  92  91
   2024 04 26 20:20  13 35 04.06    +58 02 02.5   106853 1.0067 107.6 A   17?  77.53 200.4   62  45  92  91
   2024 04 26 20:30  13 34 29.13    +57 49 45.4   106036 1.0067 107.8     17?  80.16 200.6   64  45  92  91
   2024 04 26 20:40  13 33 52.88    +57 37 04.5   105213 1.0067 108.0     17?  82.86 200.8   65  44  92  91
   2024 04 26 20:50  13 33 15.39    +57 23 58.6   104383 1.0067 108.2     17?  85.65 200.9   67  43  92  91
   2024 04 26 21:00  13 32 36.73    +57 10 26.7   103548 1.0067 108.4     17?  88.52 201.0   68  42  92  91
   2024 04 26 21:10  13 31 56.98    +56 56 27.9   102707 1.0067 108.6     17?  91.47 200.9   69  41  92  91
   2024 04 26 21:20  13 31 16.23    +56 42 00.9   101859 1.0067 108.8     17?  94.50 200.9   71  39  92  91
   2024 04 26 21:30  13 30 34.56    +56 27 04.8   101006 1.0067 109.0     17?  97.61 200.8   72  37  92  91
   2024 04 26 21:40  13 29 52.07    +56 11 38.5   100148 1.0067 109.3  m  17? 100.80 200.6   73  35  91  91
   2024 04 26 21:50  13 29 08.83    +55 55 41.0    99283 1.0067 109.5  m  17? 104.07 200.4   75  31  91  91
   2024 04 26 22:00  13 28 24.94    +55 39 11.0    98413 1.0067 109.7  m  17? 107.42 200.2   76  27  91  91
   2024 04 26 22:10  13 27 40.50    +55 22 07.5    97538 1.0067 110.0  m  17? 110.86 199.9   77  22  91  91
   2024 04 26 22:20  13 26 55.60    +55 04 29.4    96656 1.0067 110.2  m  17? 114.38 199.6   78  16  91  91
   2024 04 26 22:30  13 26 10.34    +54 46 15.6    95769 1.0067 110.5  m  17? 117.99 199.3   79   9  91  91
   2024 04 26 22:40  13 25 24.82    +54 27 24.9    94877 1.0067 110.8  m  17? 121.69 198.9   79   1  91  91
   2024 04 26 22:50  13 24 39.12    +54 07 56.2    93978 1.0067 111.1  t  17? 125.48 198.5   79 352  91  91
   2024 04 26 23:00  13 23 53.36    +53 47 48.2    93074 1.0067 111.4  e  17? 129.36 198.1   79 343  91  90
   2024 04 26 23:10  13 23 07.61    +53 26 59.9    92164 1.0067 111.7  m  17? 133.34 197.7   79 334  90  90
   2024 04 26 23:20  13 22 21.99    +53 05 30.0    91248 1.0067 112.0  m  17? 137.43 197.2   78 326  90  90
   2024 04 26 23:30  13 21 36.59    +52 43 17.2    90327 1.0067 112.3  m  17? 141.61 196.7   77 319  90  90
   2024 04 26 23:40  13 20 51.49    +52 20 20.3    89399 1.0067 112.7  m  17? 145.91 196.2   76 313  90  90
   2024 04 26 23:50  13 20 06.80    +51 56 38.0    88465 1.0067 113.0  m  17? 150.33 195.7   75 309  90  90
   2024 04 27 00:00  13 19 22.60    +51 32 08.9    87525 1.0067 113.4  m  17? 154.86 195.2   74 305  90  90
   2024 04 27 00:10  13 18 38.97    +51 06 51.6    86578 1.0067 113.7  m  17? 159.53 194.7   72 302  90  90
   2024 04 27 00:20  13 17 56.02    +50 40 44.7    85625 1.0067 114.1  m  17? 164.33 194.1   70 299  89  90
   2024 04 27 00:30  13 17 13.81    +50 13 46.7    84665 1.0068 114.5  m  17? 169.27 193.6   69 297  89  90
   2024 04 27 00:40  13 16 32.43    +49 45 56.1    83698 1.0068 114.9  m  17? 174.37 193.0   67 296  89  90
   2024 04 27 00:50  13 15 51.95    +49 17 11.1    82724 1.0068 115.4  m  17? 179.63 192.5   65 294  89  90
   2024 04 27 01:00  13 15 12.46    +48 47 30.0    81743 1.0068 115.8  m  17? 185.07 191.9   64 293  88  90
   2024 04 27 01:10  13 14 34.01    +48 16 51.0    80753 1.0068 116.2  m  17? 190.69 191.3   62 292  88  90
   2024 04 27 01:20  13 13 56.68    +47 45 12.2    79756 1.0068 116.7  m  17? 196.51 190.7   60 292  88  90
   2024 04 27 01:30  13 13 20.52    +47 12 31.4    78751 1.0068 117.2  m  17? 202.55 190.2   58 291  88  90
   2024 04 27 01:40  13 12 45.60    +46 38 46.4    77737 1.0068 117.7  m  17? 208.82 189.6   56 291  87  90
   2024 04 27 01:50  13 12 11.97    +46 03 54.9    76714 1.0068 118.2  m  17? 215.35 189.0   54 291  87  90
   2024 04 27 02:00  13 11 39.67    +45 27 54.2    75682 1.0068 118.8  m  17? 222.14 188.5   52 291  87  90
   2024 04 27 02:10  13 11 08.76    +44 50 41.7    74641 1.0068 119.3  m  17? 229.24 187.9   50 291  86  90
   2024 04 27 02:20  13 10 39.28    +44 12 14.2    73589 1.0068 119.9  m  17? 236.65 187.4   48 291  86  90
   2024 04 27 02:30  13 10 11.26    +43 32 28.5    72527 1.0068 120.5  m  17? 244.42 186.9   46 291  86  90
   2024 04 27 02:40  13 09 44.73    +42 51 21.1    71454 1.0068 121.1  m  17? 252.57 186.3   44 291  85  90
   2024 04 27 02:50  13 09 19.73    +42 08 48.1    70370 1.0068 121.7 Am  17? 261.14 185.8   42 291  85  90
   2024 04 27 03:00  13 08 56.27    +41 24 45.1    69274 1.0068 122.4 Am  17? 270.17 185.3   40 292  85  90
   2024 04 27 03:10  13 08 34.38    +40 39 07.5    68165 1.0068 123.1 Am  17? 279.70 184.8   38 292  84  90
   2024 04 27 03:20  13 08 14.07    +39 51 50.1    67044 1.0068 123.8 Am  17? 289.80 184.3   36 292  84  90
   2024 04 27 03:30  13 07 55.35    +39 02 47.1    65909 1.0068 124.5 Nm  17? 300.51 183.9   34 293  83  90
   2024 04 27 03:40  13 07 38.22    +38 11 52.2    64760 1.0068 125.3 Nm  17? 311.90 183.4   32 293  83  90
   2024 04 27 03:50  13 07 22.69    +37 18 58.4    63596 1.0068 126.1 Nm  17? 324.05 183.0   30 294  82  90
   2024 04 27 04:00  13 07 08.74    +36 23 57.8    62416 1.0068 126.9 Nm  17? 337.05 182.6   27 294  82  90
   2024 04 27 04:10  13 06 56.37    +35 26 41.5    61221 1.0068 127.8 Cm  17? 350.99 182.2   25 295  81  90
   2024 04 27 04:20  13 06 45.57    +34 26 59.8    60009 1.0068 128.7 Cm  17? 365.99 181.8   23 295  80  90
   ................
   2024 04 27 18:50  01 10 15.80    +76 54 55.0    93286 1.0064  63.5 C   17?  99.83  13.8   35 347 123  85
   2024 04 27 19:00  01 11 28.09    +77 11 00.0    94234 1.0064  63.7 C   17?  99.16  14.8   35 347 123  85
   2024 04 27 19:10  01 12 46.12    +77 26 55.1    95169 1.0064  63.9 N   17?  98.60  15.7   35 348 123  85
   2024 04 27 19:20  01 14 10.01    +77 42 41.1    96090 1.0064  64.2 N   17?  98.14  16.6   35 349 123  85
   2024 04 27 19:30  01 15 39.90    +77 58 18.8    96997 1.0064  64.4 N   17?  97.78  17.5   35 349 123  85
   2024 04 27 19:40  01 17 15.94    +78 13 49.1    97891 1.0064  64.6 N   17?  97.49  18.3   34 350 123  85
   2024 04 27 19:50  01 18 58.28    +78 29 12.6    98772 1.0064  64.8 A   17?  97.28  19.2   34 350 123  85
   2024 04 27 20:00  01 20 47.10    +78 44 30.0    99640 1.0064  65.0 A   17?  97.14  20.0   34 351 123  85
   2024 04 27 20:10  01 22 42.61    +78 59 41.7   100496 1.0064  65.2 A   17?  97.05  20.8   34 352 123  85
   2024 04 27 20:20  01 24 45.01    +79 14 48.3   101339 1.0064  65.5 A   17?  97.02  21.5   34 352 123  85
   2024 04 27 20:30  01 26 54.55    +79 29 50.2   102170 1.0064  65.7     17?  97.04  22.3   34 353 123  84
   2024 04 27 20:40  01 29 11.49    +79 44 47.7   102988 1.0065  65.9     17?  97.09  23.0   35 353 123  84
   2024 04 27 20:50  01 31 36.13    +79 59 41.1   103795 1.0065  66.1     17?  97.18  23.8   35 354 123  84
   2024 04 27 21:00  01 34 08.80    +80 14 30.8   104591 1.0065  66.3     17?  97.30  24.5   35 354 123  84
   2024 04 27 21:10  01 36 49.86    +80 29 16.7   105375 1.0065  66.5     17?  97.45  25.2   35 355 123  84
   2024 04 27 21:20  01 39 39.72    +80 43 59.1   106148 1.0065  66.8     17?  97.61  25.9   35 355 123  84
   2024 04 27 21:30  01 42 38.82    +80 58 38.1   106911 1.0065  67.0     17?  97.79  26.6   35 355 123  84
   2024 04 27 21:40  01 45 47.67    +81 13 13.5   107662 1.0065  67.2     17?  97.99  27.3   35 356 123  84
   2024 04 27 21:50  01 49 06.83    +81 27 45.4   108404 1.0065  67.4     17?  98.20  28.0   35 356 123  84
   2024 04 27 22:00  01 52 36.93    +81 42 13.6   109135 1.0065  67.6     17?  98.41  28.7   36 357 123  84
   2024 04 27 22:10  01 56 18.65    +81 56 37.9   109856 1.0065  67.8     17?  98.62  29.5   36 357 123  84
   2024 04 27 22:20  02 00 12.79    +82 10 58.0   110567 1.0065  68.1     17?  98.84  30.2   36 357 123  84
   2024 04 27 22:30  02 04 20.19    +82 25 13.6   111268 1.0065  68.3     17?  99.05  31.0   36 358 123  84
   2024 04 27 22:40  02 08 41.85    +82 39 24.3   111960 1.0065  68.5     17?  99.27  31.8   36 358 123  84
   2024 04 27 22:50  02 13 18.84    +82 53 29.5   112643 1.0065  68.7  m  18?  99.47  32.7   37 358 123  84
   2024 04 27 23:00  02 18 12.38    +83 07 28.8   113316 1.0065  69.0  m  18?  99.67  33.6   37 358 123  84
   2024 04 27 23:10  02 23 23.84    +83 21 21.2   113981 1.0065  69.2  m  18?  99.85  34.5   37 358 123  84
   2024 04 27 23:20  02 28 54.73    +83 35 06.1   114637 1.0065  69.4  m  18? 100.03  35.6   37 359 123  84
   2024 04 27 23:30  02 34 46.77    +83 48 42.5   115284 1.0065  69.7  m  18? 100.19  36.6   37 359 123  84
   2024 04 27 23:40  02 41 01.85    +84 02 09.2   115923 1.0065  69.9  m  18? 100.34  37.8   38 359 123  84
   2024 04 27 23:50  02 47 42.10    +84 15 25.1   116554 1.0065  70.1  m  18? 100.48  39.0   38 359 123  84
   2024 04 28 00:00  02 54 49.87    +84 28 28.7   117177 1.0065  70.4  m  18? 100.59  40.4   38 359 123  83
   

Spektr-R Observatory (JPL-ID: -557)

   Date (UTC) HH:MM   RA              Dec         delta   r     elong SM  mag  '/hr    PA   alt  az moo ill
   ---- -- -- -----  -------------   -----------  ------ ------ ----- --  --- ------ ------ --- --- --- ---
   2024 04 14 00:00  12 21 57.51    +42 21 50.0   217917 1.0039 125.9  m  15?  23.59 115.9   73 271  73  31
   2024 04 14 00:10  12 22 16.52    +42 20 05.7   217365 1.0039 126.0  m  15?  24.24 116.7   71 273  73  31
   2024 04 14 00:20  12 22 35.93    +42 18 15.6   216816 1.0039 126.0  m  15?  24.92 117.4   69 274  73  31
   2024 04 14 00:30  12 22 55.76    +42 16 19.6   216271 1.0039 126.1  m  15?  25.63 118.0   68 275  73  31
   2024 04 14 00:40  12 23 16.04    +42 14 18.0   215729 1.0039 126.1     15?  26.37 118.6   66 276  73  31
   2024 04 14 00:50  12 23 36.80    +42 12 10.6   215190 1.0039 126.2     15?  27.14 119.0   64 277  73  32
   2024 04 14 01:00  12 23 58.08    +42 09 57.7   214654 1.0039 126.2     15?  27.93 119.4   63 279  73  32
   2024 04 14 01:10  12 24 19.89    +42 07 39.4   214120 1.0039 126.3     15?  28.75 119.8   61 280  73  32
   2024 04 14 01:20  12 24 42.27    +42 05 15.6   213589 1.0039 126.3     15?  29.58 120.0   59 281  73  32
   2024 04 14 01:30  12 25 05.24    +42 02 46.6   213061 1.0039 126.4     15?  30.44 120.2   57 282  73  32
   2024 04 14 01:40  12 25 28.83    +42 00 12.5   212534 1.0039 126.5     15?  31.32 120.3   56 283  73  32
   2024 04 14 01:50  12 25 53.06    +41 57 33.3   212009 1.0039 126.5     15?  32.22 120.4   54 284  73  32
   2024 04 14 02:00  12 26 17.95    +41 54 49.2   211487 1.0039 126.6     15?  33.13 120.5   52 285  73  32
   2024 04 14 02:10  12 26 43.52    +41 52 00.4   210965 1.0039 126.7     15?  34.06 120.5   51 286  73  32
   2024 04 14 02:20  12 27 09.81    +41 49 06.9   210445 1.0039 126.7     15?  35.01 120.4   49 287  73  32
   2024 04 14 02:30  12 27 36.82    +41 46 09.0   209927 1.0039 126.8     15?  35.96 120.3   47 288  73  32
   2024 04 14 02:40  12 28 04.59    +41 43 06.8   209409 1.0039 126.9     15?  36.94 120.2   46 289  73  33
   2024 04 14 02:50  12 28 33.12    +41 40 00.4   208892 1.0039 126.9     15?  37.92 120.1   44 290  73  33
   2024 04 14 03:00  12 29 02.44    +41 36 50.0   208375 1.0039 127.0     15?  38.91 119.9   42 291  73  33
   2024 04 14 03:10  12 29 32.57    +41 33 35.7   207859 1.0039 127.1     15?  39.91 119.7   41 292  73  33
   2024 04 14 03:20  12 30 03.51    +41 30 17.8   207343 1.0039 127.2 A   15?  40.92 119.4   39 293  73  33
   2024 04 14 03:30  12 30 35.29    +41 26 56.4   206826 1.0039 127.3 A   15?  41.94 119.2   37 294  73  33
   2024 04 14 03:40  12 31 07.91    +41 23 31.7   206309 1.0039 127.3 A   15?  42.97 118.9   36 295  73  33
   2024 04 14 03:50  12 31 41.39    +41 20 03.9   205792 1.0039 127.4 N   15?  44.00 118.6   34 296  73  33
   2024 04 14 04:00  12 32 15.74    +41 16 33.1   205273 1.0039 127.5 N   15?  45.04 118.3   33 297  73  33
   2024 04 14 04:10  12 32 50.98    +41 12 59.5   204754 1.0039 127.6 N   15?  46.08 118.0   31 298  73  33
   2024 04 14 04:20  12 33 27.10    +41 09 23.3   204232 1.0039 127.7 N   15?  47.13 117.7   30 299  73  33
   2024 04 14 04:30  12 34 04.13    +41 05 44.7   203710 1.0039 127.8 C   15?  48.17 117.3   28 300  73  34
   2024 04 14 04:40  12 34 42.06    +41 02 03.9   203185 1.0039 127.9 C   15?  49.22 117.0   27 301  73  34
   2024 04 14 04:50  12 35 20.90    +40 58 21.0   202658 1.0039 128.0 C   15?  50.27 116.6   25 302  73  34
   ................
   2024 04 14 18:30  14 05 19.84    +36 15 10.2   137843 1.0038 133.4 Cm  15?  96.21 105.8   27  64  86  39
   2024 04 14 18:40  14 06 35.64    +36 10 46.3   136779 1.0038 133.4 Cm  15?  96.50 106.3   28  66  86  39
   2024 04 14 18:50  14 07 51.41    +36 06 14.0   135711 1.0038 133.4 Cm  15?  96.82 106.8   30  67  86  39
   2024 04 14 19:00  14 09 07.17    +36 01 32.9   134640 1.0038 133.5 Nm  15?  97.17 107.3   31  68  86  39
   2024 04 14 19:10  14 10 22.92    +35 56 42.3   133566 1.0038 133.5 Nm  14?  97.56 107.8   33  69  87  39
   2024 04 14 19:20  14 11 38.66    +35 51 41.9   132489 1.0038 133.5 Nm  14?  97.99 108.3   34  71  87  39
   2024 04 14 19:30  14 12 54.43    +35 46 31.1   131409 1.0038 133.5 Am  14?  98.46 108.9   35  72  87  39
   2024 04 14 19:40  14 14 10.22    +35 41 09.3   130326 1.0038 133.5 Am  14?  98.99 109.5   37  73  87  39
   2024 04 14 19:50  14 15 26.06    +35 35 36.0   129241 1.0038 133.6 Am  14?  99.56 110.1   38  75  87  40
   2024 04 14 20:00  14 16 41.95    +35 29 50.7   128154 1.0038 133.6 Am  14? 100.19 110.7   40  76  88  40
   2024 04 14 20:10  14 17 57.93    +35 23 52.8   127065 1.0038 133.6  m  14? 100.88 111.4   41  77  88  40
   2024 04 14 20:20  14 19 14.01    +35 17 41.6   125973 1.0038 133.6  m  14? 101.64 112.0   43  78  88  40
   2024 04 14 20:30  14 20 30.21    +35 11 16.6   124880 1.0038 133.7  m  14? 102.46 112.7   44  80  88  40
   2024 04 14 20:40  14 21 46.57    +35 04 37.1   123785 1.0038 133.7  m  14? 103.36 113.4   46  81  89  40
   2024 04 14 20:50  14 23 03.09    +34 57 42.5   122688 1.0038 133.7  m  14? 104.33 114.1   47  83  89  40
   2024 04 14 21:00  14 24 19.83    +34 50 32.2   121590 1.0038 133.8  m  14? 105.39 114.8   49  84  89  40
   2024 04 14 21:10  14 25 36.79    +34 43 05.5   120490 1.0038 133.8  m  14? 106.53 115.5   50  86  89  40
   2024 04 14 21:20  14 26 54.03    +34 35 21.6   119390 1.0038 133.9  m  14? 107.76 116.2   52  87  90  40
   2024 04 14 21:30  14 28 11.56    +34 27 19.9   118288 1.0038 133.9  m  14? 109.08 117.0   53  89  90  40
   2024 04 14 21:40  14 29 29.44    +34 18 59.7   117185 1.0038 133.9  m  14? 110.51 117.7   55  91  90  40
   2024 04 14 21:50  14 30 47.69    +34 10 20.2   116081 1.0038 134.0  m  14? 112.04 118.4   56  93  90  40
   2024 04 14 22:00  14 32 06.36    +34 01 20.6   114977 1.0038 134.0  m  14? 113.67 119.2   58  94  91  40
   2024 04 14 22:10  14 33 25.49    +33 52 00.2   113872 1.0038 134.1  m  14? 115.42 119.9   59  97  91  40
   2024 04 14 22:20  14 34 45.13    +33 42 18.2   112766 1.0038 134.1  m  14? 117.29 120.6   61  99  91  40
   2024 04 14 22:30  14 36 05.33    +33 32 13.7   111659 1.0038 134.2  m  14? 119.28 121.3   62 101  91  40
   2024 04 14 22:40  14 37 26.14    +33 21 45.9   110552 1.0038 134.2  m  14? 121.40 122.0   64 104  92  41
   2024 04 14 22:50  14 38 47.60    +33 10 54.0   109445 1.0038 134.3  m  14? 123.65 122.7   65 106  92  41
   2024 04 14 23:00  14 40 09.78    +32 59 36.9   108337 1.0038 134.3  m  14? 126.03 123.4   66 109  92  41
   2024 04 14 23:10  14 41 32.73    +32 47 53.9   107229 1.0038 134.4  m  14? 128.56 124.1   68 113  93  41
   2024 04 14 23:20  14 42 56.51    +32 35 44.0   106121 1.0038 134.5  m  14? 131.23 124.8   69 116  93  41
   2024 04 14 23:30  14 44 21.18    +32 23 06.1   105012 1.0038 134.5  m  14? 134.06 125.4   70 120  93  41
   2024 04 14 23:40  14 45 46.81    +32 09 59.4   103904 1.0038 134.6  m  14? 137.04 126.1   71 125  93  41
   2024 04 14 23:50  14 47 13.47    +31 56 22.6   102795 1.0038 134.7  m  14? 140.18 126.7   73 130  94  41
   2024 04 15 00:00  14 48 41.23    +31 42 14.9   101686 1.0038 134.8  m  14? 143.49 127.3   73 135  94  41
   2024 04 15 00:10  14 50 10.15    +31 27 35.0   100577 1.0038 134.8  m  14? 146.97 127.8   74 141  94  41
   2024 04 15 00:20  14 51 40.32    +31 12 21.9    99468 1.0037 134.9  m  14? 150.63 128.4   75 148  95  41
   2024 04 15 00:30  14 53 11.81    +30 56 34.3    98358 1.0037 135.0  m  14? 154.47 128.9   75 155  95  41
   2024 04 15 00:40  14 54 44.71    +30 40 11.0    97249 1.0037 135.1  m  14? 158.51 129.5   76 163  96  41
   2024 04 15 00:50  14 56 19.09    +30 23 10.8    96139 1.0037 135.1  e  14? 162.74 129.9   76 171  96  42
   2024 04 15 01:00  14 57 55.04    +30 05 32.2    95029 1.0037 135.2  m  14? 167.18 130.4   76 178  96  42
   2024 04 15 01:10  14 59 32.66    +29 47 14.0    93920 1.0037 135.3  t  14? 171.82 130.9   75 186  97  42
   2024 04 15 01:20  15 01 12.04    +29 28 14.6    92809 1.0037 135.4  m  14? 176.69 131.3   75 193  97  42
   2024 04 15 01:30  15 02 53.27    +29 08 32.7    91699 1.0037 135.5     14? 181.79 131.7   74 199  98  42
   2024 04 15 01:40  15 04 36.45    +28 48 06.5    90589 1.0037 135.6     14? 187.12 132.1   73 205  98  42
   2024 04 15 01:50  15 06 21.69    +28 26 54.6    89478 1.0037 135.7     14? 192.70 132.5   72 210  98  42
   2024 04 15 02:00  15 08 09.08    +28 04 55.1    88367 1.0037 135.7     14? 198.53 132.9   71 215  99  42
   2024 04 15 02:10  15 09 58.75    +27 42 06.2    87256 1.0037 135.8     14? 204.64 133.2   70 219  99  42
   2024 04 15 02:20  15 11 50.81    +27 18 26.2    86144 1.0037 135.9     14? 211.02 133.5   68 223 100  42
   2024 04 15 02:30  15 13 45.37    +26 53 52.9    85032 1.0037 136.0     14? 217.69 133.8   67 226 100  42
   2024 04 15 02:40  15 15 42.55    +26 28 24.3    83919 1.0037 136.0     14? 224.67 134.1   65 229 101  42
   2024 04 15 02:50  15 17 42.49    +26 01 58.3    82806 1.0037 136.1     14? 231.97 134.4   64 232 101  43
   2024 04 15 03:00  15 19 45.32    +25 34 32.4    81692 1.0037 136.2     14? 239.60 134.7   63 234 102  43
   2024 04 15 03:10  15 21 51.17    +25 06 04.2    80578 1.0037 136.2 A   13? 247.58 134.9   61 237 103  43
   2024 04 15 03:20  15 24 00.18    +24 36 31.2    79463 1.0037 136.3 A   13? 255.93 135.2   59 239 103  43
   2024 04 15 03:30  15 26 12.52    +24 05 50.6    78348 1.0037 136.4 A   13? 264.67 135.4   58 240 104  43
   2024 04 15 03:40  15 28 28.32    +23 33 59.6    77232 1.0037 136.4 A   13? 273.82 135.6   56 242 105  43
   2024 04 15 03:50  15 30 47.76    +23 00 54.9    76115 1.0037 136.4 N   13? 283.40 135.8   55 244 105  43
   2024 04 15 04:00  15 33 11.01    +22 26 33.4    74998 1.0037 136.4 N   13? 293.43 136.0   53 245 106  43
   2024 04 15 04:10  15 35 38.24    +21 50 51.5    73880 1.0037 136.5 N   13? 303.95 136.2   51 247 107  43
   2024 04 15 04:20  15 38 09.65    +21 13 45.6    72761 1.0037 136.4 N   13? 314.97 136.4   50 248 107  43
   2024 04 15 04:30  15 40 45.43    +20 35 11.8    71642 1.0037 136.4 C   13? 326.53 136.5   48 249 108  43
   2024 04 15 04:40  15 43 25.79    +19 55 05.9    70523 1.0036 136.4 C   13? 338.67 136.7   46 250 109  44
   ................
   2024 04 15 18:30  05 12 50.36    -06 47 45.1    74054 1.0032  56.4 Cm  13? 341.86  41.7   22 234  51  49
   

Euclid (JPL-ID: -680)

   Date (UTC) HH:MM   RA              Dec         delta   r     elong SM  mag  '/hr    PA   alt  az moo ill
   ---- -- -- -----  -------------   -----------  ------ ------ ----- --  --- ------ ------ --- --- --- ---
   2024 04 14 00:00  12 54 51.10    -21 56 42.5   0.0082 1.0109 164.9  m  20?   2.87 137.1   22 194 109  31
   2024 04 14 00:10  12 54 52.51    -21 57 03.3   0.0082 1.0109 164.9  m  20?   2.85 135.8   22 196 109  31
   2024 04 14 00:20  12 54 53.96    -21 57 23.5   0.0082 1.0109 164.9  m  20?   2.85 134.4   21 199 109  31
   2024 04 14 00:30  12 54 55.44    -21 57 43.2   0.0082 1.0109 164.9  m  20?   2.85 132.9   21 201 109  31
   2024 04 14 00:40  12 54 56.96    -21 58 02.4   0.0082 1.0109 164.9     20?   2.86 131.3   20 204 108  31
   2024 04 14 00:50  12 54 58.52    -21 58 21.0   0.0082 1.0109 164.9     20?   2.88 129.7   19 206 108  32
   2024 04 14 01:00  12 55 00.14    -21 58 39.2   0.0082 1.0109 164.8     20?   2.90 128.1   18 208 108  32
   2024 04 14 01:10  12 55 01.80    -21 58 56.8   0.0082 1.0109 164.8     20?   2.93 126.4   17 210 108  32
   2024 04 14 01:20  12 55 03.52    -21 59 14.0   0.0082 1.0109 164.8     20?   2.97 124.8   16 213 108  32
   2024 04 14 01:30  12 55 05.30    -21 59 30.8   0.0082 1.0109 164.8     20?   3.01 123.1   15 215 108  32
   2024 04 14 01:40  12 55 07.15    -21 59 47.0   0.0082 1.0109 164.8     20?   3.07 121.5   14 217 108  32
   2024 04 14 01:50  12 55 09.06    -22 00 02.9   0.0082 1.0109 164.8     20?   3.13 119.9   13 219 108  32
   2024 04 14 02:00  12 55 11.05    -22 00 18.3   0.0082 1.0109 164.8     20?   3.19 118.3   12 221 108  32
   2024 04 14 02:10  12 55 13.10    -22 00 33.3   0.0082 1.0109 164.8     20?   3.27 116.9   11 223 108  32
   2024 04 14 02:20  12 55 15.24    -22 00 47.9   0.0082 1.0109 164.8     20?   3.35 115.4    9 225 107  32
   2024 04 14 02:30  12 55 17.46    -22 01 02.2   0.0082 1.0109 164.8     20?   3.44 114.1    8 227 107  32
   2024 04 14 02:40  12 55 19.76    -22 01 16.1   0.0082 1.0109 164.8     20?   3.54 112.8    7 229 107  33
   2024 04 14 02:50  12 55 22.14    -22 01 29.6   0.0082 1.0109 164.8     20?   3.64 111.6    5 231 107  33
   2024 04 14 03:00  12 55 24.62    -22 01 42.9   0.0082 1.0109 164.8     20?   3.74 110.4    4 233 107  33
   2024 04 14 03:10  12 55 27.18    -22 01 55.9   0.0082 1.0109 164.8     20?   3.85 109.4    3 234 107  33
   2024 04 14 03:20  12 55 29.84    -22 02 08.6   0.0082 1.0110 164.8 A   20?   3.97 108.4    1 236 107  33
   2024 04 14 03:30  12 55 32.60    -22 02 21.0   0.0082 1.0110 164.9 A   20?   4.09 107.5    0 238 107  33
   ................
   2024 04 14 18:40  13 02 59.13    -22 38 18.8   0.0082 1.0111 165.2 Cr  20?   5.31 131.7    0 121 101  39
   2024 04 14 18:50  13 03 01.94    -22 38 54.0   0.0082 1.0111 165.2 Cm  20?   5.19 132.5    1 123 101  39
   2024 04 14 19:00  13 03 04.65    -22 39 29.0   0.0082 1.0111 165.2 Nm  20?   5.08 133.3    2 125 101  39
   2024 04 14 19:10  13 03 07.27    -22 40 03.8   0.0082 1.0111 165.2 Nm  20?   4.97 134.0    3 127 101  39
   2024 04 14 19:20  13 03 09.80    -22 40 38.2   0.0082 1.0111 165.2 Nm  20?   4.86 134.8    5 129 101  39
   2024 04 14 19:30  13 03 12.25    -22 41 12.4   0.0082 1.0111 165.2 Am  20?   4.75 135.6    6 130 101  39
   2024 04 14 19:40  13 03 14.60    -22 41 46.2   0.0082 1.0111 165.1 Am  20?   4.65 136.3    8 132 101  39
   2024 04 14 19:50  13 03 16.88    -22 42 19.7   0.0082 1.0111 165.1 Am  20?   4.54 137.0    9 134 101  40
   2024 04 14 20:00  13 03 19.07    -22 42 52.8   0.0082 1.0111 165.1 Am  20?   4.44 137.7   10 136 100  40
   2024 04 14 20:10  13 03 21.19    -22 43 25.5   0.0082 1.0111 165.1  m  20?   4.34 138.4   11 138 100  40
   2024 04 14 20:20  13 03 23.23    -22 43 57.8   0.0082 1.0112 165.1  m  20?   4.24 139.1   12 140 100  40
   2024 04 14 20:30  13 03 25.20    -22 44 29.7   0.0082 1.0112 165.1  m  20?   4.15 139.7   14 142 100  40
   2024 04 14 20:40  13 03 27.11    -22 45 01.1   0.0082 1.0112 165.1  m  20?   4.06 140.2   15 144 100  40
   2024 04 14 20:50  13 03 28.95    -22 45 32.1   0.0082 1.0112 165.1  m  20?   3.97 140.8   16 147 100  40
   2024 04 14 21:00  13 03 30.73    -22 46 02.6   0.0082 1.0112 165.1  m  20?   3.88 141.2   17 149 100  40
   2024 04 14 21:10  13 03 32.45    -22 46 32.6   0.0082 1.0112 165.1  m  20?   3.79 141.6   17 151 100  40
   2024 04 14 21:20  13 03 34.12    -22 47 02.1   0.0082 1.0112 165.1  m  20?   3.71 142.0   18 153 100  40
   2024 04 14 21:30  13 03 35.75    -22 47 31.1   0.0082 1.0112 165.1  m  20?   3.63 142.3   19 156 100  40
   2024 04 14 21:40  13 03 37.33    -22 47 59.6   0.0082 1.0112 165.1  m  20?   3.55 142.5   20 158 100  40
   2024 04 14 21:50  13 03 38.87    -22 48 27.6   0.0082 1.0112 165.1  m  20?   3.48 142.6   20 160 100  40
   2024 04 14 22:00  13 03 40.38    -22 48 55.0   0.0082 1.0112 165.1  m  20?   3.41 142.7   21 163 100  40
   2024 04 14 22:10  13 03 41.85    -22 49 21.8   0.0082 1.0112 165.1  m  20?   3.34 142.7   21 165 100  40
   2024 04 14 22:20  13 03 43.30    -22 49 48.1   0.0082 1.0112 165.1  m  20?   3.27 142.5   22 168 100  40
   2024 04 14 22:30  13 03 44.73    -22 50 13.8   0.0082 1.0112 165.1  m  20?   3.21 142.3   22 170  99  40
   2024 04 14 22:40  13 03 46.14    -22 50 39.0   0.0082 1.0112 165.1  m  20?   3.15 142.0   22 173  99  41
   2024 04 14 22:50  13 03 47.54    -22 51 03.6   0.0082 1.0112 165.1  m  20?   3.10 141.5   22 175  99  41
   2024 04 14 23:00  13 03 48.93    -22 51 27.6   0.0082 1.0112 165.1  m  20?   3.05 140.9   23 178  99  41
   2024 04 14 23:10  13 03 50.31    -22 51 51.0   0.0082 1.0112 165.1  t  20?   3.00 140.3   23 180  99  41
   2024 04 14 23:20  13 03 51.70    -22 52 13.8   0.0082 1.0112 165.0  m  20?   2.96 139.5   23 183  99  41
   2024 04 14 23:30  13 03 53.09    -22 52 36.1   0.0082 1.0112 165.0  m  20?   2.93 138.6   22 185  99  41
   2024 04 14 23:40  13 03 54.50    -22 52 57.8   0.0082 1.0112 165.0  m  20?   2.89 137.6   22 188  99  41
   2024 04 14 23:50  13 03 55.92    -22 53 18.9   0.0082 1.0112 165.0  m  20?   2.87 136.4   22 190  99  41
   2024 04 15 00:00  13 03 57.36    -22 53 39.4   0.0082 1.0112 165.0  m  20?   2.85 135.2   21 192  99  41
   2024 04 15 00:10  13 03 58.82    -22 53 59.4   0.0082 1.0112 165.0  m  20?   2.84 133.9   21 195  99  41
   2024 04 15 00:20  13 04 00.31    -22 54 18.8   0.0082 1.0112 165.0  m  20?   2.83 132.4   21 197  99  41
   2024 04 15 00:30  13 04 01.84    -22 54 37.6   0.0082 1.0112 165.0  m  20?   2.83 130.9   20 200  98  41
   2024 04 15 00:40  13 04 03.40    -22 54 55.9   0.0082 1.0112 165.0  m  20?   2.84 129.4   19 202  98  41
   2024 04 15 00:50  13 04 05.01    -22 55 13.7   0.0082 1.0112 165.0  m  20?   2.85 127.8   19 204  98  42
   2024 04 15 01:00  13 04 06.66    -22 55 30.9   0.0082 1.0112 165.0  m  20?   2.87 126.1   18 207  98  42
   2024 04 15 01:10  13 04 08.36    -22 55 47.6   0.0082 1.0112 165.0  m  20?   2.90 124.5   17 209  98  42
   2024 04 15 01:20  13 04 10.12    -22 56 03.8   0.0082 1.0112 165.0  m  20?   2.94 122.8   16 211  98  42
   2024 04 15 01:30  13 04 11.94    -22 56 19.5   0.0082 1.0112 165.0     20?   2.98 121.2   15 213  98  42
   2024 04 15 01:40  13 04 13.82    -22 56 34.8   0.0082 1.0112 165.0     20?   3.04 119.5   14 215  98  42
   2024 04 15 01:50  13 04 15.76    -22 56 49.6   0.0082 1.0112 165.0     20?   3.10 118.0   13 217  98  42
   2024 04 15 02:00  13 04 17.77    -22 57 03.9   0.0082 1.0112 165.0     20?   3.16 116.4   12 219  98  42
   2024 04 15 02:10  13 04 19.86    -22 57 17.8   0.0082 1.0112 165.0     20?   3.24 114.9   11 221  98  42
   2024 04 15 02:20  13 04 22.02    -22 57 31.3   0.0082 1.0112 165.0     20?   3.32 113.5    9 223  97  42
   2024 04 15 02:30  13 04 24.27    -22 57 44.4   0.0082 1.0112 165.0     20?   3.41 112.2    8 225  97  42
   2024 04 15 02:40  13 04 26.59    -22 57 57.1   0.0082 1.0112 165.0     20?   3.50 110.9    7 227  97  42
   2024 04 15 02:50  13 04 29.00    -22 58 09.5   0.0082 1.0112 165.0     20?   3.60 109.7    5 229  97  43
   2024 04 15 03:00  13 04 31.50    -22 58 21.6   0.0082 1.0112 165.0     20?   3.71 108.6    4 231  97  43
   2024 04 15 03:10  13 04 34.09    -22 58 33.3   0.0082 1.0112 165.0 A   20?   3.82 107.6    3 233  97  43
   2024 04 15 03:20  13 04 36.77    -22 58 44.7   0.0082 1.0112 165.0 A   20?   3.93 106.6    1 235  97  43
   2024 04 15 03:30  13 04 39.55    -22 58 55.9   0.0082 1.0112 165.0 A   20?   4.05 105.7    0 236  97  43
   ................
   2024 04 15 18:50  13 12 16.62    -23 33 46.3   0.0082 1.0114 165.3 Cr  20?   5.27 131.1    0 123  91  49
   2024 04 15 19:00  13 12 19.45    -23 34 20.9   0.0082 1.0114 165.2 Nm  20?   5.15 131.9    1 125  91  49
   2024 04 15 19:10  13 12 22.19    -23 34 55.2   0.0082 1.0114 165.2 Nm  20?   5.04 132.6    2 126  91  49
   2024 04 15 19:20  13 12 24.84    -23 35 29.2   0.0082 1.0114 165.2 Nm  20?   4.92 133.3    3 128  91  50
   2024 04 15 19:30  13 12 27.39    -23 36 02.9   0.0082 1.0114 165.2 Am  20?   4.81 134.1    5 130  91  50
   2024 04 15 19:40  13 12 29.86    -23 36 36.3   0.0082 1.0114 165.2 Am  20?   4.70 134.8    6 132  91  50
   2024 04 15 19:50  13 12 32.25    -23 37 09.3   0.0082 1.0114 165.2 Am  20?   4.60 135.5    7 134  91  50
   2024 04 15 20:00  13 12 34.55    -23 37 41.9   0.0082 1.0114 165.2 Am  20?   4.49 136.2    9 136  91  50
   2024 04 15 20:10  13 12 36.77    -23 38 14.2   0.0082 1.0114 165.2  m  20?   4.39 136.8   10 138  90  50
   2024 04 15 20:20  13 12 38.91    -23 38 46.0   0.0082 1.0114 165.2  m  20?   4.29 137.4   11 140  90  50
   2024 04 15 20:30  13 12 40.99    -23 39 17.4   0.0082 1.0114 165.2  m  20?   4.19 138.0   12 142  90  50
   2024 04 15 20:40  13 12 42.99    -23 39 48.4   0.0082 1.0114 165.2  m  20?   4.09 138.5   13 144  90  50
   2024 04 15 20:50  13 12 44.93    -23 40 18.9   0.0082 1.0114 165.2  m  20?   4.00 139.0   14 146  90  50
   2024 04 15 21:00  13 12 46.80    -23 40 48.9   0.0082 1.0114 165.2  m  20?   3.91 139.5   15 148  90  50
   2024 04 15 21:10  13 12 48.62    -23 41 18.4   0.0082 1.0114 165.2  m  20?   3.82 139.9   16 150  90  50
   2024 04 15 21:20  13 12 50.38    -23 41 47.4   0.0082 1.0114 165.2  m  20?   3.73 140.2   17 152  90  50
   2024 04 15 21:30  13 12 52.09    -23 42 15.9   0.0082 1.0114 165.2  m  20?   3.65 140.5   18 155  90  50
   2024 04 15 21:40  13 12 53.75    -23 42 43.8   0.0082 1.0114 165.2  m  20?   3.57 140.7   18 157  90  50
   2024 04 15 21:50  13 12 55.38    -23 43 11.2   0.0082 1.0115 165.2  m  20?   3.49 140.8   19 159  90  50
   2024 04 15 22:00  13 12 56.96    -23 43 38.0   0.0082 1.0115 165.2  m  20?   3.42 140.9   20 162  90  50
   2024 04 15 22:10  13 12 58.51    -23 44 04.3   0.0082 1.0115 165.2  m  20?   3.35 140.8   20 164  90  50
   2024 04 15 22:20  13 13 00.04    -23 44 30.0   0.0082 1.0115 165.2  m  20?   3.28 140.7   21 166  90  50
   2024 04 15 22:30  13 13 01.53    -23 44 55.1   0.0082 1.0115 165.1  m  20?   3.21 140.4   21 169  90  51
   2024 04 15 22:40  13 13 03.01    -23 45 19.6   0.0082 1.0115 165.1  m  20?   3.15 140.1   21 171  90  51
   2024 04 15 22:50  13 13 04.48    -23 45 43.5   0.0082 1.0115 165.1  m  20?   3.09 139.6   21 174  89  51
   2024 04 15 23:00  13 13 05.93    -23 46 06.8   0.0082 1.0115 165.1  m  20?   3.04 139.1   22 176  89  51
   2024 04 15 23:10  13 13 07.37    -23 46 29.5   0.0082 1.0115 165.1  m  20?   2.99 138.4   22 179  89  51
   2024 04 15 23:20  13 13 08.82    -23 46 51.6   0.0082 1.0115 165.1  t  20?   2.95 137.6   22 181  89  51
   2024 04 15 23:30  13 13 10.27    -23 47 13.1   0.0082 1.0115 165.1  m  20?   2.91 136.7   22 184  89  51
   2024 04 15 23:40  13 13 11.73    -23 47 34.0   0.0082 1.0115 165.1  m  20?   2.88 135.6   21 186  89  51
   2024 04 15 23:50  13 13 13.20    -23 47 54.3   0.0082 1.0115 165.1  m  20?   2.85 134.5   21 189  89  51
   2024 04 16 00:00  13 13 14.69    -23 48 14.0   0.0082 1.0115 165.1  m  20?   2.83 133.3   21 191  89  51
   2024 04 16 00:10  13 13 16.19    -23 48 33.2   0.0082 1.0115 165.1  m  20?   2.81 131.9   20 193  89  51
   2024 04 16 00:20  13 13 17.73    -23 48 51.7   0.0082 1.0115 165.1  m  20?   2.80 130.5   20 196  89  51
   2024 04 16 00:30  13 13 19.30    -23 49 09.6   0.0082 1.0115 165.1  m  20?   2.80 129.0   19 198  89  51
   2024 04 16 00:40  13 13 20.90    -23 49 27.0   0.0082 1.0115 165.1  m  20?   2.81 127.4   19 200  89  51
   2024 04 16 00:50  13 13 22.55    -23 49 43.8   0.0082 1.0115 165.1  m  20?   2.82 125.8   18 203  88  52
   2024 04 16 01:00  13 13 24.23    -23 50 00.1   0.0082 1.0115 165.1  m  20?   2.84 124.2   17 205  88  52
   2024 04 16 01:10  13 13 25.97    -23 50 15.8   0.0082 1.0115 165.1  m  20?   2.87 122.5   17 207  88  52
   2024 04 16 01:20  13 13 27.76    -23 50 31.0   0.0082 1.0115 165.1  m  20?   2.91 120.8   16 209  88  52
   2024 04 16 01:30  13 13 29.60    -23 50 45.7   0.0082 1.0115 165.1  m  20?   2.95 119.2   15 212  88  52
   2024 04 16 01:40  13 13 31.51    -23 50 59.9   0.0082 1.0115 165.1  m  20?   3.00 117.6   14 214  88  52
   2024 04 16 01:50  13 13 33.48    -23 51 13.6   0.0082 1.0115 165.1  m  20?   3.06 116.0   13 216  88  52
   2024 04 16 02:00  13 13 35.52    -23 51 26.8   0.0082 1.0115 165.1  m  20?   3.13 114.4   12 218  88  52
   2024 04 16 02:10  13 13 37.63    -23 51 39.6   0.0082 1.0115 165.1     20?   3.20 113.0   10 220  88  52
   2024 04 16 02:20  13 13 39.82    -23 51 51.9   0.0082 1.0115 165.1     20?   3.28 111.6    9 222  88  52
   2024 04 16 02:30  13 13 42.08    -23 52 03.8   0.0082 1.0115 165.1     20?   3.37 110.2    8 224  88  52
   2024 04 16 02:40  13 13 44.42    -23 52 15.3   0.0082 1.0115 165.1     20?   3.46 109.0    7 226  87  52
   2024 04 16 02:50  13 13 46.85    -23 52 26.5   0.0082 1.0115 165.1     20?   3.56 107.8    5 228  87  52
   2024 04 16 03:00  13 13 49.37    -23 52 37.3   0.0082 1.0115 165.1     20?   3.67 106.7    4 229  87  53
   2024 04 16 03:10  13 13 51.98    -23 52 47.7   0.0082 1.0115 165.1 A   20?   3.78 105.7    3 231  87  53
   2024 04 16 03:20  13 13 54.67    -23 52 57.8   0.0082 1.0115 165.1 A   20?   3.90 104.8    1 233  87  53
   2024 04 16 03:30  13 13 57.47    -23 53 07.7   0.0082 1.0115 165.1 A   20?   4.01 103.9    0 235  87  53
   ................
   2024 04 16 19:00  13 21 44.56    -24 26 40.2   0.0082 1.0117 165.2 Nr  20?   5.21 130.4    0 124  81  59
   2024 04 16 19:10  13 21 47.41    -24 27 13.9   0.0082 1.0117 165.2 Nm  20?   5.10 131.2    0 126  81  59
   2024 04 16 19:20  13 21 50.17    -24 27 47.4   0.0082 1.0117 165.2 Nm  20?   4.98 131.9    2 128  81  59
   2024 04 16 19:30  13 21 52.84    -24 28 20.5   0.0082 1.0117 165.2 Am  20?   4.87 132.6    3 130  81  59
   2024 04 16 19:40  13 21 55.41    -24 28 53.4   0.0082 1.0117 165.2 Am  20?   4.76 133.3    5 131  81  60
   2024 04 16 19:50  13 21 57.90    -24 29 25.8   0.0082 1.0117 165.2 Am  20?   4.65 133.9    6 133  81  60
   2024 04 16 20:00  13 22 00.31    -24 29 57.9   0.0082 1.0117 165.2 Am  20?   4.54 134.6    7 135  81  60
   2024 04 16 20:10  13 22 02.63    -24 30 29.6   0.0082 1.0117 165.2  m  20?   4.43 135.2    8 137  81  60
   2024 04 16 20:20  13 22 04.88    -24 31 00.9   0.0082 1.0117 165.2  m  20?   4.33 135.8   10 139  81  60
   2024 04 16 20:30  13 22 07.05    -24 31 31.8   0.0082 1.0117 165.2  m  20?   4.23 136.3   11 141  81  60
   2024 04 16 20:40  13 22 09.15    -24 32 02.2   0.0082 1.0117 165.2  m  20?   4.13 136.9   12 143  81  60
   2024 04 16 20:50  13 22 11.18    -24 32 32.1   0.0082 1.0117 165.2  m  20?   4.03 137.3   13 145  81  60
   2024 04 16 21:00  13 22 13.14    -24 33 01.5   0.0082 1.0117 165.2  m  20?   3.93 137.8   14 147  80  60
   2024 04 16 21:10  13 22 15.05    -24 33 30.4   0.0082 1.0117 165.2  m  20?   3.84 138.1   15 149  80  60
   2024 04 16 21:20  13 22 16.90    -24 33 58.8   0.0082 1.0117 165.2  m  20?   3.75 138.5   16 152  80  60
   2024 04 16 21:30  13 22 18.69    -24 34 26.7   0.0082 1.0117 165.2  m  20?   3.67 138.7   16 154  80  60
   2024 04 16 21:40  13 22 20.44    -24 34 54.0   0.0082 1.0117 165.1  m  20?   3.58 138.9   17 156  80  60
   2024 04 16 21:50  13 22 22.14    -24 35 20.7   0.0082 1.0117 165.1  m  20?   3.50 139.0   18 158  80  60
   2024 04 16 22:00  13 22 23.80    -24 35 46.9   0.0082 1.0117 165.1  m  20?   3.42 139.0   19 161  80  60
   2024 04 16 22:10  13 22 25.42    -24 36 12.5   0.0082 1.0117 165.1  m  20?   3.35 139.0   19 163  80  60
   2024 04 16 22:20  13 22 27.01    -24 36 37.5   0.0082 1.0117 165.1  m  20?   3.28 138.8   20 165  80  60
   2024 04 16 22:30  13 22 28.58    -24 37 01.9   0.0082 1.0117 165.1  m  20?   3.21 138.6   20 168  80  60
   2024 04 16 22:40  13 22 30.12    -24 37 25.7   0.0082 1.0117 165.1  m  20?   3.15 138.2   20 170  80  60
   2024 04 16 22:50  13 22 31.65    -24 37 48.9   0.0082 1.0117 165.1  m  20?   3.09 137.8   20 173  80  60
   2024 04 16 23:00  13 22 33.16    -24 38 11.5   0.0082 1.0117 165.1  m  20?   3.03 137.2   21 175  80  61
   2024 04 16 23:10  13 22 34.67    -24 38 33.4   0.0082 1.0117 165.1  m  20?   2.98 136.5   21 177  80  61
   2024 04 16 23:20  13 22 36.17    -24 38 54.7   0.0082 1.0118 165.1  t  20?   2.93 135.7   21 180  80  61
   2024 04 16 23:30  13 22 37.67    -24 39 15.4   0.0082 1.0118 165.1  m  20?   2.89 134.8   21 182  80  61
   2024 04 16 23:40  13 22 39.17    -24 39 35.5   0.0082 1.0118 165.1  m  20?   2.86 133.7   21 185  79  61
   2024 04 16 23:50  13 22 40.69    -24 39 55.0   0.0082 1.0118 165.1  m  20?   2.83 132.6   20 187  79  61
   2024 04 17 00:00  13 22 42.22    -24 40 13.8   0.0082 1.0118 165.1  m  20?   2.80 131.3   20 190  79  61
   2024 04 17 00:10  13 22 43.77    -24 40 32.0   0.0082 1.0118 165.1  m  20?   2.78 130.0   20 192  79  61
   2024 04 17 00:20  13 22 45.35    -24 40 49.7   0.0082 1.0118 165.1  m  20?   2.77 128.5   19 194  79  61
   2024 04 17 00:30  13 22 46.95    -24 41 06.7   0.0082 1.0118 165.1  m  20?   2.77 127.0   19 197  79  61
   2024 04 17 00:40  13 22 48.59    -24 41 23.1   0.0082 1.0118 165.1  m  20?   2.77 125.5   18 199  79  61
   2024 04 17 00:50  13 22 50.27    -24 41 39.0   0.0082 1.0118 165.1  m  20?   2.79 123.8   18 201  79  61
   2024 04 17 01:00  13 22 51.99    -24 41 54.2   0.0082 1.0118 165.1  m  20?   2.81 122.2   17 204  79  61
   2024 04 17 01:10  13 22 53.75    -24 42 08.9   0.0082 1.0118 165.1  m  20?   2.83 120.5   16 206  79  61
   2024 04 17 01:20  13 22 55.56    -24 42 23.1   0.0082 1.0118 165.1  m  20?   2.87 118.8   15 208  79  61
   2024 04 17 01:30  13 22 57.43    -24 42 36.7   0.0082 1.0118 165.1  m  20?   2.91 117.2   14 210  79  61
   2024 04 17 01:40  13 22 59.36    -24 42 49.7   0.0082 1.0118 165.1  m  20?   2.96 115.6   13 212  79  62
   2024 04 17 01:50  13 23 01.35    -24 43 02.3   0.0082 1.0118 165.1  m  20?   3.02 114.0   12 214  78  62
   2024 04 17 02:00  13 23 03.41    -24 43 14.4   0.0082 1.0118 165.1  m  20?   3.09 112.4   11 216  78  62
   2024 04 17 02:10  13 23 05.54    -24 43 26.0   0.0082 1.0118 165.1  m  20?   3.16 111.0   10 218  78  62
   2024 04 17 02:20  13 23 07.74    -24 43 37.1   0.0082 1.0118 165.1  m  20?   3.24 109.6    9 220  78  62
   2024 04 17 02:30  13 23 10.02    -24 43 47.8   0.0082 1.0118 165.1  m  20?   3.33 108.3    8 222  78  62
   2024 04 17 02:40  13 23 12.38    -24 43 58.1   0.0082 1.0118 165.1     20?   3.42 107.0    7 224  78  62
   2024 04 17 02:50  13 23 14.82    -24 44 07.9   0.0082 1.0118 165.1     20?   3.52 105.9    5 226  78  62
   2024 04 17 03:00  13 23 17.34    -24 44 17.4   0.0082 1.0118 165.1     20?   3.62 104.8    4 228  78  62
   2024 04 17 03:10  13 23 19.96    -24 44 26.6   0.0082 1.0118 165.1 A   20?   3.73 103.8    3 230  78  62
   2024 04 17 03:20  13 23 22.67    -24 44 35.4   0.0082 1.0118 165.1 A   20?   3.85 102.9    1 232  78  62
   2024 04 17 03:30  13 23 25.47    -24 44 43.8   0.0082 1.0118 165.1 A   20?   3.97 102.0    0 233  78  62
   ................
   2024 04 17 19:10  13 31 21.94    -25 16 47.8   0.0082 1.0120 165.1 Nr  20?   5.15 129.7    0 126  71  69
   2024 04 17 19:20  13 31 24.81    -25 17 20.6   0.0082 1.0120 165.1 Nm  20?   5.03 130.4    0 127  71  69
   2024 04 17 19:30  13 31 27.58    -25 17 53.1   0.0082 1.0120 165.1 Nm  20?   4.91 131.1    2 129  71  69
   2024 04 17 19:40  13 31 30.26    -25 18 25.3   0.0082 1.0120 165.1 Am  20?   4.80 131.7    3 131  71  69
   2024 04 17 19:50  13 31 32.86    -25 18 57.1   0.0082 1.0120 165.1 Am  20?   4.69 132.4    5 133  71  69
   2024 04 17 20:00  13 31 35.36    -25 19 28.5   0.0082 1.0120 165.1 Am  20?   4.58 133.0    6 135  71  69
   2024 04 17 20:10  13 31 37.79    -25 19 59.6   0.0082 1.0120 165.1 Am  20?   4.47 133.6    7 136  71  69
   2024 04 17 20:20  13 31 40.13    -25 20 30.2   0.0082 1.0120 165.1  m  20?   4.36 134.1    8 138  71  69
   2024 04 17 20:30  13 31 42.39    -25 21 00.4   0.0082 1.0120 165.1  m  20?   4.25 134.7    9 140  71  69
   2024 04 17 20:40  13 31 44.59    -25 21 30.1   0.0082 1.0120 165.1  m  20?   4.15 135.2   11 142  71  69
   2024 04 17 20:50  13 31 46.71    -25 21 59.4   0.0082 1.0120 165.1  m  20?   4.05 135.6   12 144  71  69
   2024 04 17 21:00  13 31 48.76    -25 22 28.1   0.0082 1.0120 165.0  m  20?   3.95 136.0   13 146  71  69
   2024 04 17 21:10  13 31 50.75    -25 22 56.4   0.0082 1.0120 165.0  m  20?   3.86 136.4   14 149  71  69
   2024 04 17 21:20  13 31 52.68    -25 23 24.1   0.0082 1.0120 165.0  m  20?   3.76 136.7   14 151  71  69
   2024 04 17 21:30  13 31 54.55    -25 23 51.3   0.0082 1.0120 165.0  m  20?   3.67 136.9   15 153  71  69
   2024 04 17 21:40  13 31 56.37    -25 24 17.9   0.0082 1.0120 165.0  m  20?   3.59 137.1   16 155  71  69
   2024 04 17 21:50  13 31 58.15    -25 24 43.9   0.0082 1.0120 165.0  m  20?   3.50 137.2   17 157  71  69
   2024 04 17 22:00  13 31 59.88    -25 25 09.4   0.0082 1.0120 165.0  m  20?   3.42 137.2   17 160  71  69
   2024 04 17 22:10  13 32 01.58    -25 25 34.3   0.0082 1.0120 165.0  m  20?   3.34 137.1   18 162  71  69
   2024 04 17 22:20  13 32 03.23    -25 25 58.5   0.0082 1.0120 165.0  m  20?   3.27 137.0   18 164  71  70
   2024 04 17 22:30  13 32 04.86    -25 26 22.2   0.0082 1.0120 165.0  m  20?   3.20 136.7   19 166  70  70
   2024 04 17 22:40  13 32 06.47    -25 26 45.2   0.0082 1.0120 165.0  m  20?   3.13 136.4   19 169  70  70
   2024 04 17 22:50  13 32 08.05    -25 27 07.6   0.0082 1.0120 165.0  m  20?   3.07 135.9   20 171  70  70
   2024 04 17 23:00  13 32 09.62    -25 27 29.3   0.0082 1.0120 165.0  m  20?   3.01 135.3   20 174  70  70
   2024 04 17 23:10  13 32 11.18    -25 27 50.5   0.0082 1.0120 165.0  m  20?   2.96 134.6   20 176  70  70
   2024 04 17 23:20  13 32 12.73    -25 28 11.0   0.0082 1.0120 165.0  m  20?   2.91 133.8   20 178  70  70
   2024 04 17 23:30  13 32 14.27    -25 28 30.8   0.0082 1.0120 165.0  t  20?   2.87 132.8   20 181  70  70
   2024 04 17 23:40  13 32 15.83    -25 28 50.0   0.0082 1.0120 165.0  m  20?   2.83 131.8   20 183  70  70
   2024 04 17 23:50  13 32 17.38    -25 29 08.6   0.0082 1.0120 165.0  m  20?   2.80 130.6   20 186  70  70
   2024 04 18 00:00  13 32 18.95    -25 29 26.5   0.0082 1.0120 165.0  m  20?   2.77 129.4   19 188  70  70
   2024 04 18 00:10  13 32 20.54    -25 29 43.8   0.0082 1.0120 165.0  m  20?   2.75 128.0   19 190  70  70
   2024 04 18 00:20  13 32 22.15    -25 30 00.5   0.0082 1.0120 165.0  m  20?   2.74 126.6   19 193  70  70
   2024 04 18 00:30  13 32 23.79    -25 30 16.5   0.0082 1.0120 165.0  m  20?   2.73 125.0   18 195  70  70
   2024 04 18 00:40  13 32 25.46    -25 30 32.0   0.0082 1.0120 165.0  m  20?   2.74 123.5   18 197  70  70
   2024 04 18 00:50  13 32 27.16    -25 30 46.8   0.0082 1.0121 165.0  m  20?   2.75 121.8   17 200  70  70
   2024 04 18 01:00  13 32 28.90    -25 31 01.0   0.0082 1.0121 165.0  m  20?   2.76 120.1   17 202  69  70
   2024 04 18 01:10  13 32 30.69    -25 31 14.6   0.0082 1.0121 165.0  m  20?   2.79 118.5   16 204  69  70
   2024 04 18 01:20  13 32 32.52    -25 31 27.7   0.0082 1.0121 165.0  m  20?   2.82 116.8   15 206  69  70
   2024 04 18 01:30  13 32 34.41    -25 31 40.2   0.0082 1.0121 165.0  m  20?   2.87 115.1   14 209  69  71
   2024 04 18 01:40  13 32 36.35    -25 31 52.1   0.0082 1.0121 165.0  m  20?   2.92 113.5   13 211  69  71
   2024 04 18 01:50  13 32 38.36    -25 32 03.5   0.0082 1.0121 165.0  m  20?   2.97 111.9   12 213  69  71
   2024 04 18 02:00  13 32 40.43    -25 32 14.4   0.0082 1.0121 165.0  m  20?   3.04 110.4   11 215  69  71
   2024 04 18 02:10  13 32 42.56    -25 32 24.8   0.0082 1.0121 165.0  m  20?   3.11 108.9   10 217  69  71
   2024 04 18 02:20  13 32 44.77    -25 32 34.7   0.0082 1.0121 165.0  m  20?   3.19 107.5    9 219  69  71
   2024 04 18 02:30  13 32 47.06    -25 32 44.2   0.0082 1.0121 165.0  m  20?   3.28 106.2    8 221  69  71
   2024 04 18 02:40  13 32 49.42    -25 32 53.2   0.0082 1.0121 165.0  m  20?   3.37 105.0    7 223  69  71
   2024 04 18 02:50  13 32 51.87    -25 33 01.7   0.0082 1.0121 165.0  m  20?   3.47 103.9    6 225  69  71
   2024 04 18 03:00  13 32 54.40    -25 33 09.9   0.0082 1.0121 165.0     20?   3.57 102.8    4 226  68  71
   2024 04 18 03:10  13 32 57.01    -25 33 17.7   0.0082 1.0121 165.0 A   20?   3.68 101.8    3 228  68  71
   2024 04 18 03:20  13 32 59.72    -25 33 25.1   0.0082 1.0121 165.0 A   20?   3.80 100.9    2 230  68  71
   2024 04 18 03:30  13 33 02.52    -25 33 32.2   0.0082 1.0121 165.0 A   20?   3.91 100.1    0 232  68  71
   ................
   2024 04 18 19:20  13 41 07.62    -26 03 57.2   0.0083 1.0123 164.9 Nr  20?   5.07 128.9    0 127  62  77
   2024 04 18 19:30  13 41 10.50    -26 04 29.0   0.0083 1.0123 164.9 Nm  20?   4.95 129.5    0 128  62  77
   2024 04 18 19:40  13 41 13.28    -26 05 00.4   0.0083 1.0123 164.9 Am  20?   4.83 130.2    2 130  62  77
   2024 04 18 19:50  13 41 15.97    -26 05 31.4   0.0083 1.0123 164.9 Am  20?   4.72 130.8    3 132  62  77
   2024 04 18 20:00  13 41 18.58    -26 06 02.1   0.0083 1.0123 164.9 Am  20?   4.60 131.4    4 134  62  77
   2024 04 18 20:10  13 41 21.09    -26 06 32.5   0.0083 1.0123 164.9 Am  20?   4.49 132.0    6 136  62  77
   2024 04 18 20:20  13 41 23.53    -26 07 02.3   0.0082 1.0123 164.9  m  20?   4.38 132.5    7 138  62  77
   2024 04 18 20:30  13 41 25.88    -26 07 31.8   0.0082 1.0123 164.8  m  20?   4.27 133.0    8 140  62  77
   2024 04 18 20:40  13 41 28.16    -26 08 00.8   0.0082 1.0123 164.8  m  20?   4.17 133.5    9 142  62  78
   2024 04 18 20:50  13 41 30.37    -26 08 29.3   0.0082 1.0123 164.8  m  20?   4.06 133.9   10 144  62  78
   2024 04 18 21:00  13 41 32.50    -26 08 57.3   0.0082 1.0123 164.8  m  20?   3.96 134.3   11 146  62  78
   2024 04 18 21:10  13 41 34.57    -26 09 24.8   0.0082 1.0123 164.8  m  20?   3.87 134.7   12 148  61  78
   2024 04 18 21:20  13 41 36.58    -26 09 51.7   0.0082 1.0123 164.8  m  20?   3.77 134.9   13 150  61  78
   2024 04 18 21:30  13 41 38.53    -26 10 18.1   0.0082 1.0123 164.8  m  20?   3.68 135.2   14 152  61  78
   2024 04 18 21:40  13 41 40.42    -26 10 44.0   0.0082 1.0123 164.8  m  20?   3.59 135.3   15 154  61  78
   2024 04 18 21:50  13 41 42.27    -26 11 09.3   0.0082 1.0123 164.8  m  20?   3.50 135.4   16 156  61  78
   2024 04 18 22:00  13 41 44.07    -26 11 33.9   0.0082 1.0123 164.8  m  20?   3.42 135.4   16 158  61  78
   2024 04 18 22:10  13 41 45.83    -26 11 58.0   0.0082 1.0123 164.8  m  20?   3.33 135.3   17 161  61  78
   2024 04 18 22:20  13 41 47.55    -26 12 21.4   0.0082 1.0123 164.8  m  20?   3.26 135.1   17 163  61  78
   2024 04 18 22:30  13 41 49.23    -26 12 44.3   0.0082 1.0123 164.8  m  20?   3.18 134.9   18 165  61  78
   2024 04 18 22:40  13 41 50.89    -26 13 06.5   0.0082 1.0123 164.8  m  20?   3.11 134.5   18 168  61  78
   2024 04 18 22:50  13 41 52.53    -26 13 28.0   0.0082 1.0123 164.8  m  20?   3.05 134.0   19 170  61  78
   2024 04 18 23:00  13 41 54.15    -26 13 48.9   0.0082 1.0123 164.8  m  20?   2.99 133.4   19 172  61  78
   2024 04 18 23:10  13 41 55.75    -26 14 09.2   0.0082 1.0123 164.8  m  20?   2.93 132.7   19 175  61  78
   2024 04 18 23:20  13 41 57.35    -26 14 28.8   0.0082 1.0123 164.8  m  20?   2.88 131.9   19 177  61  78
   2024 04 18 23:30  13 41 58.94    -26 14 47.7   0.0082 1.0123 164.8  e  20?   2.83 130.9   19 179  61  78
   2024 04 18 23:40  13 42 00.53    -26 15 06.0   0.0082 1.0123 164.8  t  20?   2.79 129.9   19 182  61  78
   2024 04 18 23:50  13 42 02.12    -26 15 23.6   0.0082 1.0123 164.8  m  20?   2.76 128.7   19 184  61  78
   2024 04 19 00:00  13 42 03.73    -26 15 40.6   0.0082 1.0123 164.8  m  20?   2.73 127.4   19 187  61  78
   2024 04 19 00:10  13 42 05.35    -26 15 56.9   0.0082 1.0123 164.8  m  20?   2.71 126.0   19 189  60  78
   2024 04 19 00:20  13 42 06.98    -26 16 12.6   0.0082 1.0123 164.8  m  20?   2.70 124.6   18 191  60  78
   2024 04 19 00:30  13 42 08.65    -26 16 27.7   0.0082 1.0123 164.8  m  20?   2.69 123.0   18 194  60  78
   2024 04 19 00:40  13 42 10.34    -26 16 42.0   0.0082 1.0123 164.8  m  20?   2.69 121.4   17 196  60  78
   2024 04 19 00:50  13 42 12.06    -26 16 55.8   0.0082 1.0123 164.8  m  20?   2.70 119.8   17 198  60  79
   2024 04 19 01:00  13 42 13.82    -26 17 09.0   0.0082 1.0123 164.8  m  20?   2.72 118.1   16 200  60  79
   2024 04 19 01:10  13 42 15.62    -26 17 21.5   0.0082 1.0123 164.8  m  20?   2.74 116.4   16 203  60  79
   2024 04 19 01:20  13 42 17.47    -26 17 33.4   0.0082 1.0123 164.8  m  20?   2.77 114.7   15 205  60  79
   2024 04 19 01:30  13 42 19.37    -26 17 44.8   0.0082 1.0123 164.8  m  20?   2.82 113.0   14 207  60  79
   2024 04 19 01:40  13 42 21.32    -26 17 55.6   0.0082 1.0123 164.8  m  20?   2.86 111.4   13 209  60  79
   2024 04 19 01:50  13 42 23.33    -26 18 05.8   0.0083 1.0123 164.8  m  20?   2.92 109.8   12 211  60  79
   2024 04 19 02:00  13 42 25.41    -26 18 15.5   0.0083 1.0123 164.8  m  20?   2.99 108.3   11 213  60  79
   2024 04 19 02:10  13 42 27.55    -26 18 24.7   0.0083 1.0123 164.8  m  20?   3.06 106.8   10 215  60  79
   2024 04 19 02:20  13 42 29.76    -26 18 33.3   0.0083 1.0123 164.8  m  20?   3.14 105.4    9 217  60  79
   2024 04 19 02:30  13 42 32.04    -26 18 41.5   0.0083 1.0124 164.8  m  20?   3.22 104.1    8 219  59  79
   2024 04 19 02:40  13 42 34.40    -26 18 49.2   0.0083 1.0124 164.8  m  20?   3.31 102.9    7 221  59  79
   2024 04 19 02:50  13 42 36.84    -26 18 56.4   0.0083 1.0124 164.8  m  20?   3.41 101.8    6 223  59  79
   2024 04 19 03:00  13 42 39.37    -26 19 03.3   0.0083 1.0124 164.8 Am  20?   3.51 100.7    4 225  59  79
   2024 04 19 03:10  13 42 41.98    -26 19 09.7   0.0083 1.0124 164.8 Am  20?   3.62  99.8    3 227  59  79
   2024 04 19 03:20  13 42 44.68    -26 19 15.7   0.0083 1.0124 164.8 A   20?   3.74  99.0    2 229  59  79
   2024 04 19 03:30  13 42 47.47    -26 19 21.4   0.0083 1.0124 164.8 A   20?   3.85  98.2    0 230  59  79
   ................
   2024 04 19 19:30  13 51 00.33    -26 47 57.5   0.0083 1.0126 164.6 Nr  20?   4.98 128.0    0 128  53  85
   2024 04 19 19:40  13 51 03.20    -26 48 28.1   0.0083 1.0126 164.6 Am  20?   4.86 128.6    0 130  53  85
   2024 04 19 19:50  13 51 05.99    -26 48 58.3   0.0083 1.0126 164.6 Am  20?   4.74 129.2    2 131  53  85
   2024 04 19 20:00  13 51 08.68    -26 49 28.2   0.0083 1.0126 164.6 Am  20?   4.62 129.8    3 133  52  85
   2024 04 19 20:10  13 51 11.29    -26 49 57.6   0.0083 1.0126 164.6 Am  20?   4.51 130.3    4 135  52  85
   2024 04 19 20:20  13 51 13.81    -26 50 26.7   0.0083 1.0126 164.5  m  20?   4.40 130.9    6 137  52  85
   2024 04 19 20:30  13 51 16.25    -26 50 55.3   0.0083 1.0126 164.5  m  20?   4.29 131.4    7 139  52  85
   2024 04 19 20:40  13 51 18.61    -26 51 23.5   0.0083 1.0126 164.5  m  20?   4.18 131.8    8 141  52  85
   2024 04 19 20:50  13 51 20.89    -26 51 51.1   0.0083 1.0126 164.5  m  20?   4.07 132.2    9 143  52  85
   2024 04 19 21:00  13 51 23.10    -26 52 18.3   0.0083 1.0126 164.5  m  20?   3.97 132.6   10 145  52  85
   2024 04 19 21:10  13 51 25.25    -26 52 45.0   0.0083 1.0126 164.5  m  20?   3.87 132.9   11 147  52  85
   2024 04 19 21:20  13 51 27.33    -26 53 11.1   0.0083 1.0126 164.5  m  20?   3.77 133.2   12 149  52  85
   2024 04 19 21:30  13 51 29.35    -26 53 36.7   0.0083 1.0126 164.5  m  20?   3.67 133.4   13 151  52  85
   2024 04 19 21:40  13 51 31.31    -26 54 01.7   0.0083 1.0126 164.5  m  20?   3.58 133.6   14 153  52  85
   2024 04 19 21:50  13 51 33.22    -26 54 26.1   0.0083 1.0126 164.5  m  20?   3.49 133.6   14 155  52  85
   2024 04 19 22:00  13 51 35.08    -26 54 49.9   0.0083 1.0126 164.5  m  20?   3.40 133.6   15 157  52  85
   2024 04 19 22:10  13 51 36.89    -26 55 13.1   0.0083 1.0126 164.5  m  20?   3.32 133.5   16 160  52  85
   2024 04 19 22:20  13 51 38.67    -26 55 35.7   0.0083 1.0126 164.5  m  20?   3.24 133.3   16 162  52  85
   2024 04 19 22:30  13 51 40.41    -26 55 57.6   0.0083 1.0126 164.5  m  20?   3.16 133.0   17 164  52  85
   2024 04 19 22:40  13 51 42.12    -26 56 18.9   0.0083 1.0126 164.5  m  20?   3.09 132.6   17 166  52  85
   2024 04 19 22:50  13 51 43.81    -26 56 39.6   0.0083 1.0126 164.5  m  20?   3.02 132.1   18 169  52  85
   2024 04 19 23:00  13 51 45.47    -26 56 59.6   0.0083 1.0126 164.5  m  20?   2.96 131.5   18 171  52  85
   2024 04 19 23:10  13 51 47.11    -26 57 18.9   0.0083 1.0126 164.5  m  20?   2.90 130.8   18 173  52  85
   2024 04 19 23:20  13 51 48.75    -26 57 37.6   0.0083 1.0126 164.5  m  20?   2.85 130.0   18 176  51  85
   2024 04 19 23:30  13 51 50.37    -26 57 55.6   0.0083 1.0126 164.5  m  20?   2.80 129.0   18 178  51  85
   2024 04 19 23:40  13 51 52.00    -26 58 12.9   0.0083 1.0126 164.5  t  20?   2.76 127.9   18 180  51  85
   2024 04 19 23:50  13 51 53.62    -26 58 29.6   0.0083 1.0126 164.5  m  20?   2.72 126.7   18 183  51  85
   2024 04 20 00:00  13 51 55.25    -26 58 45.6   0.0083 1.0126 164.5  m  20?   2.69 125.4   18 185  51  86
   2024 04 20 00:10  13 51 56.90    -26 59 00.9   0.0083 1.0126 164.5  m  20?   2.67 124.0   18 187  51  86
   2024 04 20 00:20  13 51 58.56    -26 59 15.5   0.0083 1.0126 164.5  m  20?   2.65 122.6   18 190  51  86
   2024 04 20 00:30  13 52 00.24    -26 59 29.5   0.0083 1.0126 164.5  m  20?   2.64 121.0   17 192  51  86
   2024 04 20 00:40  13 52 01.94    -26 59 42.8   0.0083 1.0126 164.5  m  20?   2.64 119.4   17 194  51  86
   2024 04 20 00:50  13 52 03.68    -26 59 55.5   0.0083 1.0126 164.5  m  20?   2.65 117.7   16 197  51  86
   2024 04 20 01:00  13 52 05.45    -27 00 07.6   0.0083 1.0126 164.5  m  20?   2.66 116.0   16 199  51  86
   2024 04 20 01:10  13 52 07.26    -27 00 19.0   0.0083 1.0126 164.5  m  20?   2.69 114.3   15 201  51  86
   2024 04 20 01:20  13 52 09.12    -27 00 29.8   0.0083 1.0126 164.5  m  20?   2.72 112.6   15 203  51  86
   2024 04 20 01:30  13 52 11.02    -27 00 40.0   0.0083 1.0126 164.5  m  20?   2.76 110.9   14 205  51  86
   2024 04 20 01:40  13 52 12.97    -27 00 49.6   0.0083 1.0126 164.5  m  20?   2.81 109.2   13 208  51  86
   2024 04 20 01:50  13 52 14.98    -27 00 58.6   0.0083 1.0126 164.5  m  20?   2.86 107.6   12 210  51  86
   2024 04 20 02:00  13 52 17.05    -27 01 07.1   0.0083 1.0126 164.5  m  20?   2.93 106.1   11 212  50  86
   2024 04 20 02:10  13 52 19.19    -27 01 15.0   0.0083 1.0126 164.5  m  20?   3.00 104.7   10 214  50  86
   2024 04 20 02:20  13 52 21.39    -27 01 22.4   0.0083 1.0126 164.5  m  20?   3.08 103.3    9 216  50  86
   2024 04 20 02:30  13 52 23.67    -27 01 29.2   0.0083 1.0126 164.5  m  20?   3.16 102.0    8 218  50  86
   2024 04 20 02:40  13 52 26.02    -27 01 35.6   0.0083 1.0126 164.5  m  20?   3.25 100.8    7 220  50  86
   2024 04 20 02:50  13 52 28.45    -27 01 41.5   0.0083 1.0126 164.5  m  20?   3.35  99.7    6 222  50  86
   2024 04 20 03:00  13 52 30.96    -27 01 47.0   0.0083 1.0126 164.5 Am  20?   3.45  98.7    5 223  50  86
   2024 04 20 03:10  13 52 33.55    -27 01 52.0   0.0083 1.0126 164.5 Am  20?   3.56  97.7    3 225  50  86
   2024 04 20 03:20  13 52 36.24    -27 01 56.7   0.0083 1.0126 164.5 Am  20?   3.67  96.9    2 227  50  86
   2024 04 20 03:30  13 52 39.01    -27 02 00.9   0.0083 1.0126 164.5 Am  20?   3.79  96.1    1 229  50  86
   2024 04 20 03:40  13 52 41.87    -27 02 04.8   0.0083 1.0126 164.5 N   20?   3.91  95.4    0 231  50  86
   ................
   2024 04 20 19:40  14 00 58.65    -27 28 38.9   0.0083 1.0128 164.2 Ar  20?   4.87 127.1    0 129  43  91
   2024 04 20 19:50  14 01 01.52    -27 29 08.2   0.0083 1.0128 164.2 Am  20?   4.75 127.7    0 131  43  91
   2024 04 20 20:00  14 01 04.29    -27 29 37.1   0.0083 1.0128 164.2 Am  20?   4.63 128.2    2 133  43  91
   2024 04 20 20:10  14 01 06.98    -27 30 05.6   0.0083 1.0128 164.2 Am  20?   4.52 128.7    3 134  43  91
   2024 04 20 20:20  14 01 09.58    -27 30 33.8   0.0083 1.0128 164.2  m  20?   4.40 129.2    4 136  43  91
   2024 04 20 20:30  14 01 12.10    -27 31 01.5   0.0083 1.0128 164.1  m  20?   4.29 129.7    6 138  43  91
   2024 04 20 20:40  14 01 14.53    -27 31 28.7   0.0083 1.0128 164.1  m  20?   4.18 130.2    7 140  43  91
   2024 04 20 20:50  14 01 16.89    -27 31 55.5   0.0083 1.0128 164.1  m  20?   4.07 130.6    8 142  43  91
   2024 04 20 21:00  14 01 19.17    -27 32 21.8   0.0083 1.0128 164.1  m  20?   3.96 130.9    9 144  43  91
   2024 04 20 21:10  14 01 21.38    -27 32 47.5   0.0083 1.0128 164.1  m  20?   3.86 131.2   10 146  43  91
   2024 04 20 21:20  14 01 23.53    -27 33 12.7   0.0083 1.0129 164.1  m  20?   3.76 131.5   11 148  43  91
   2024 04 20 21:30  14 01 25.61    -27 33 37.4   0.0083 1.0129 164.1  m  20?   3.66 131.7   12 150  43  91
   2024 04 20 21:40  14 01 27.63    -27 34 01.5   0.0083 1.0129 164.1  m  20?   3.56 131.8   13 152  43  91
   2024 04 20 21:50  14 01 29.60    -27 34 25.0   0.0083 1.0129 164.1  m  20?   3.47 131.8   13 154  43  91
   2024 04 20 22:00  14 01 31.52    -27 34 47.9   0.0083 1.0129 164.1  m  20?   3.38 131.8   14 156  43  91
   2024 04 20 22:10  14 01 33.39    -27 35 10.2   0.0083 1.0129 164.1  m  20?   3.29 131.7   15 158  43  91
   2024 04 20 22:20  14 01 35.21    -27 35 31.8   0.0083 1.0129 164.1  m  20?   3.21 131.5   15 161  42  91
   2024 04 20 22:30  14 01 37.00    -27 35 52.8   0.0083 1.0129 164.1  m  20?   3.13 131.2   16 163  42  91
   2024 04 20 22:40  14 01 38.75    -27 36 13.2   0.0083 1.0129 164.1  m  20?   3.06 130.8   16 165  42  91
   2024 04 20 22:50  14 01 40.48    -27 36 32.9   0.0083 1.0129 164.1  m  20?   2.99 130.3   17 167  42  91
   2024 04 20 23:00  14 01 42.18    -27 36 52.0   0.0083 1.0129 164.1  m  20?   2.92 129.7   17 170  42  91
   2024 04 20 23:10  14 01 43.86    -27 37 10.3   0.0083 1.0129 164.1  m  20?   2.86 128.9   17 172  42  91
   2024 04 20 23:20  14 01 45.53    -27 37 28.0   0.0083 1.0129 164.1  m  20?   2.81 128.1   18 174  42  91
   2024 04 20 23:30  14 01 47.18    -27 37 45.0   0.0083 1.0129 164.1  m  20?   2.76 127.1   18 177  42  91
   2024 04 20 23:40  14 01 48.83    -27 38 01.3   0.0083 1.0129 164.1  m  20?   2.71 126.0   18 179  42  91
   2024 04 20 23:50  14 01 50.48    -27 38 17.0   0.0083 1.0129 164.1  t  20?   2.67 124.8   18 181  42  91
   2024 04 21 00:00  14 01 52.13    -27 38 31.9   0.0083 1.0129 164.1  m  20?   2.64 123.5   18 184  42  91
   2024 04 21 00:10  14 01 53.79    -27 38 46.2   0.0083 1.0129 164.1  m  20?   2.62 122.0   18 186  42  91
   2024 04 21 00:20  14 01 55.47    -27 38 59.8   0.0083 1.0129 164.1  m  20?   2.60 120.5   17 188  42  91
   2024 04 21 00:30  14 01 57.16    -27 39 12.7   0.0083 1.0129 164.1  m  20?   2.59 118.9   17 191  42  92
   2024 04 21 00:40  14 01 58.88    -27 39 24.9   0.0083 1.0129 164.1  m  20?   2.59 117.3   17 193  42  92
   2024 04 21 00:50  14 02 00.62    -27 39 36.5   0.0083 1.0129 164.1  m  20?   2.59 115.6   16 195  42  92
   2024 04 21 01:00  14 02 02.39    -27 39 47.4   0.0083 1.0129 164.1  m  20?   2.61 113.9   16 197  42  92
   2024 04 21 01:10  14 02 04.21    -27 39 57.7   0.0083 1.0129 164.1  m  20?   2.63 112.1   15 200  42  92
   2024 04 21 01:20  14 02 06.06    -27 40 07.4   0.0083 1.0129 164.1  m  20?   2.66 110.4   14 202  41  92
   2024 04 21 01:30  14 02 07.96    -27 40 16.4   0.0083 1.0129 164.1  m  20?   2.70 108.7   14 204  41  92
   2024 04 21 01:40  14 02 09.91    -27 40 24.8   0.0083 1.0129 164.1  m  20?   2.75 107.0   13 206  41  92
   2024 04 21 01:50  14 02 11.91    -27 40 32.6   0.0083 1.0129 164.1  m  20?   2.80 105.4   12 208  41  92
   2024 04 21 02:00  14 02 13.97    -27 40 39.8   0.0083 1.0129 164.1  m  20?   2.86 103.9   11 210  41  92
   2024 04 21 02:10  14 02 16.09    -27 40 46.4   0.0083 1.0129 164.1  m  20?   2.93 102.4   10 212  41  92
   2024 04 21 02:20  14 02 18.28    -27 40 52.5   0.0083 1.0129 164.1  m  20?   3.01 101.1    9 214  41  92
   2024 04 21 02:30  14 02 20.54    -27 40 58.1   0.0083 1.0129 164.1  m  20?   3.09  99.8    8 216  41  92
   2024 04 21 02:40  14 02 22.87    -27 41 03.2   0.0083 1.0129 164.1  m  20?   3.18  98.6    7 218  41  92
   2024 04 21 02:50  14 02 25.27    -27 41 07.8   0.0083 1.0129 164.1  m  20?   3.28  97.5    6 220  41  92
   2024 04 21 03:00  14 02 27.76    -27 41 11.9   0.0083 1.0129 164.1 Am  20?   3.38  96.5    5 222  41  92
   2024 04 21 03:10  14 02 30.33    -27 41 15.5   0.0083 1.0129 164.1 Am  20?   3.49  95.6    3 224  41  92
   2024 04 21 03:20  14 02 32.99    -27 41 18.7   0.0083 1.0129 164.1 Am  20?   3.60  94.7    2 226  41  92
   2024 04 21 03:30  14 02 35.73    -27 41 21.6   0.0083 1.0129 164.1 Am  20?   3.72  94.0    1 227  41  92
   2024 04 21 03:40  14 02 38.57    -27 41 24.0   0.0083 1.0129 164.1 Nm  20?   3.84  93.3    0 229  41  92
   ................
   2024 04 21 19:50  14 11 01.07    -28 05 52.8   0.0083 1.0131 163.7 Ar  20?   4.75 126.1    0 130  34  95
   2024 04 21 20:00  14 11 03.92    -28 06 20.8   0.0083 1.0131 163.7 Am  20?   4.63 126.6    0 132  34  95
   2024 04 21 20:10  14 11 06.68    -28 06 48.3   0.0083 1.0131 163.7 Am  20?   4.52 127.1    2 134  34  95
   2024 04 21 20:20  14 11 09.35    -28 07 15.4   0.0083 1.0131 163.7  m  20?   4.40 127.6    3 135  34  95
   2024 04 21 20:30  14 11 11.94    -28 07 42.1   0.0083 1.0131 163.7  m  20?   4.28 128.1    4 137  34  96
   2024 04 21 20:40  14 11 14.44    -28 08 08.4   0.0083 1.0131 163.7  m  20?   4.17 128.5    5 139  34  96
   2024 04 21 20:50  14 11 16.87    -28 08 34.2   0.0083 1.0131 163.7  m  20?   4.06 128.9    7 141  34  96
   2024 04 21 21:00  14 11 19.21    -28 08 59.5   0.0083 1.0131 163.7  m  20?   3.95 129.2    8 143  34  96
   2024 04 21 21:10  14 11 21.49    -28 09 24.3   0.0083 1.0131 163.7  m  20?   3.84 129.5    9 145  34  96
   2024 04 21 21:20  14 11 23.69    -28 09 48.5   0.0083 1.0131 163.7  m  20?   3.74 129.7   10 147  33  96
   2024 04 21 21:30  14 11 25.83    -28 10 12.2   0.0083 1.0131 163.7  m  20?   3.64 129.9   11 149  33  96
   2024 04 21 21:40  14 11 27.90    -28 10 35.3   0.0083 1.0131 163.6  m  20?   3.54 130.0   12 151  33  96
   2024 04 21 21:50  14 11 29.92    -28 10 57.9   0.0083 1.0131 163.6  m  20?   3.44 130.1   12 153  33  96
   2024 04 21 22:00  14 11 31.89    -28 11 19.8   0.0083 1.0131 163.6  m  20?   3.35 130.0   13 155  33  96
   2024 04 21 22:10  14 11 33.80    -28 11 41.1   0.0083 1.0131 163.6  m  20?   3.26 129.9   14 157  33  96
   2024 04 21 22:20  14 11 35.67    -28 12 01.8   0.0083 1.0131 163.6  m  20?   3.18 129.7   14 159  33  96
   2024 04 21 22:30  14 11 37.50    -28 12 21.8   0.0083 1.0131 163.6  m  20?   3.10 129.4   15 162  33  96
   2024 04 21 22:40  14 11 39.29    -28 12 41.2   0.0083 1.0131 163.6  m  20?   3.02 128.9   16 164  33  96
   2024 04 21 22:50  14 11 41.05    -28 12 59.9   0.0083 1.0131 163.6  m  20?   2.95 128.4   16 166  33  96
   2024 04 21 23:00  14 11 42.78    -28 13 17.9   0.0083 1.0132 163.6  m  20?   2.88 127.8   16 168  33  96
   2024 04 21 23:10  14 11 44.49    -28 13 35.3   0.0083 1.0132 163.6  m  20?   2.82 127.0   17 171  33  96
   2024 04 21 23:20  14 11 46.18    -28 13 52.0   0.0083 1.0132 163.6  m  20?   2.76 126.1   17 173  33  96
   2024 04 21 23:30  14 11 47.86    -28 14 08.0   0.0083 1.0132 163.6  m  20?   2.71 125.1   17 175  33  96
   2024 04 21 23:40  14 11 49.52    -28 14 23.2   0.0083 1.0132 163.6  m  20?   2.66 124.0   17 178  33  96
   2024 04 21 23:50  14 11 51.19    -28 14 37.8   0.0083 1.0132 163.6  t  20?   2.62 122.8   17 180  33  96
   2024 04 22 00:00  14 11 52.86    -28 14 51.7   0.0083 1.0132 163.6  m  20?   2.59 121.4   17 182  33  96
   2024 04 22 00:10  14 11 54.53    -28 15 04.9   0.0083 1.0132 163.6  m  20?   2.56 120.0   17 185  33  96
   2024 04 22 00:20  14 11 56.21    -28 15 17.4   0.0083 1.0132 163.6  m  20?   2.54 118.5   17 187  33  96
   2024 04 22 00:30  14 11 57.91    -28 15 29.3   0.0083 1.0132 163.6  m  20?   2.53 116.8   17 189  33  96
   2024 04 22 00:40  14 11 59.62    -28 15 40.4   0.0083 1.0132 163.6  m  20?   2.53 115.1   16 191  32  96
   2024 04 22 00:50  14 12 01.37    -28 15 50.8   0.0083 1.0132 163.6  m  20?   2.53 113.4   16 194  32  96
   2024 04 22 01:00  14 12 03.14    -28 16 00.6   0.0083 1.0132 163.6  m  20?   2.54 111.7   15 196  32  96
   2024 04 22 01:10  14 12 04.94    -28 16 09.7   0.0083 1.0132 163.6  m  20?   2.56 109.9   15 198  32  96
   2024 04 22 01:20  14 12 06.79    -28 16 18.2   0.0083 1.0132 163.6  m  20?   2.59 108.2   14 200  32  96
   2024 04 22 01:30  14 12 08.67    -28 16 26.0   0.0083 1.0132 163.6  m  20?   2.63 106.4   14 202  32  96
   2024 04 22 01:40  14 12 10.61    -28 16 33.2   0.0083 1.0132 163.6  m  20?   2.68 104.8   13 205  32  96
   2024 04 22 01:50  14 12 12.59    -28 16 39.8   0.0083 1.0132 163.6  m  20?   2.73 103.1   12 207  32  96
   2024 04 22 02:00  14 12 14.63    -28 16 45.7   0.0083 1.0132 163.6  m  20?   2.79 101.6   11 209  32  96
   2024 04 22 02:10  14 12 16.73    -28 16 51.1   0.0083 1.0132 163.6  m  20?   2.86 100.1   10 211  32  96
   2024 04 22 02:20  14 12 18.90    -28 16 56.0   0.0083 1.0132 163.6  m  20?   2.94  98.8    9 213  32  96
   2024 04 22 02:30  14 12 21.13    -28 17 00.2   0.0083 1.0132 163.6  m  20?   3.02  97.5    8 215  32  96
   2024 04 22 02:40  14 12 23.43    -28 17 04.0   0.0083 1.0132 163.6  m  20?   3.11  96.3    7 217  32  96
   2024 04 22 02:50  14 12 25.81    -28 17 07.2   0.0083 1.0132 163.6  m  20?   3.20  95.2    6 219  32  96
   2024 04 22 03:00  14 12 28.26    -28 17 09.9   0.0083 1.0132 163.6 Am  20?   3.31  94.3    5 220  32  96
   2024 04 22 03:10  14 12 30.80    -28 17 12.2   0.0083 1.0132 163.6 Am  20?   3.41  93.3    4 222  32  96
   2024 04 22 03:20  14 12 33.42    -28 17 14.0   0.0083 1.0132 163.6 Am  20?   3.52  92.5    2 224  31  96
   2024 04 22 03:30  14 12 36.13    -28 17 15.4   0.0083 1.0132 163.6 Am  20?   3.64  91.8    1 226  31  96
   2024 04 22 03:40  14 12 38.93    -28 17 16.4   0.0083 1.0132 163.6 Nm  20?   3.76  91.2    0 228  31  96
   ................
   2024 04 22 20:00  14 21 05.99    -28 39 32.5   0.0084 1.0134 163.2 Ar  20?   4.63 125.0    0 131  25  98
   2024 04 22 20:10  14 21 08.82    -28 39 59.0   0.0084 1.0134 163.2 Am  20?   4.50 125.5    1 133  25  98
   2024 04 22 20:20  14 21 11.55    -28 40 25.1   0.0084 1.0134 163.2  m  20?   4.39 126.0    2 135  25  98
   2024 04 22 20:30  14 21 14.20    -28 40 50.7   0.0084 1.0134 163.2  m  20?   4.27 126.4    3 136  25  98
   2024 04 22 20:40  14 21 16.76    -28 41 15.9   0.0084 1.0134 163.1  m  20?   4.15 126.8    4 138  25  98
   2024 04 22 20:50  14 21 19.24    -28 41 40.7   0.0084 1.0134 163.1  m  20?   4.04 127.2    5 140  24  98
   2024 04 22 21:00  14 21 21.64    -28 42 04.9   0.0084 1.0134 163.1  m  20?   3.93 127.5    7 142  24  98
   2024 04 22 21:10  14 21 23.97    -28 42 28.7   0.0084 1.0134 163.1  m  20?   3.82 127.8    8 144  24  98
   2024 04 22 21:20  14 21 26.23    -28 42 51.9   0.0084 1.0134 163.1  m  20?   3.71 128.0    9 146  24  98
   2024 04 22 21:30  14 21 28.41    -28 43 14.5   0.0084 1.0134 163.1  m  20?   3.61 128.2   10 148  24  98
   2024 04 22 21:40  14 21 30.53    -28 43 36.6   0.0084 1.0134 163.1  m  20?   3.51 128.3   11 150  24  98
   2024 04 22 21:50  14 21 32.59    -28 43 58.1   0.0084 1.0134 163.1  m  20?   3.41 128.3   11 152  24  98
   2024 04 22 22:00  14 21 34.60    -28 44 19.0   0.0084 1.0134 163.1  m  20?   3.32 128.2   12 154  24  98
   2024 04 22 22:10  14 21 36.55    -28 44 39.3   0.0084 1.0134 163.1  m  20?   3.23 128.1   13 156  24  98
   2024 04 22 22:20  14 21 38.46    -28 44 59.0   0.0084 1.0134 163.1  m  20?   3.14 127.9   14 158  24  98
   2024 04 22 22:30  14 21 40.32    -28 45 18.0   0.0084 1.0134 163.1  m  20?   3.06 127.5   14 160  24  99
   2024 04 22 22:40  14 21 42.14    -28 45 36.3   0.0084 1.0134 163.1  m  20?   2.98 127.1   15 163  24  99
   2024 04 22 22:50  14 21 43.92    -28 45 54.0   0.0084 1.0134 163.1  m  20?   2.90 126.6   15 165  24  99
   2024 04 22 23:00  14 21 45.68    -28 46 11.0   0.0084 1.0134 163.1  m  20?   2.83 125.9   16 167  24  99
   2024 04 22 23:10  14 21 47.41    -28 46 27.3   0.0084 1.0134 163.1  m  20?   2.77 125.1   16 169  24  99
   2024 04 22 23:20  14 21 49.11    -28 46 43.0   0.0084 1.0134 163.1  m  20?   2.71 124.2   16 172  24  99
   2024 04 22 23:30  14 21 50.81    -28 46 57.9   0.0084 1.0134 163.1  m  20?   2.65 123.2   16 174  24  99
   2024 04 22 23:40  14 21 52.49    -28 47 12.1   0.0084 1.0134 163.1  m  20?   2.60 122.1   17 176  24  99
   2024 04 22 23:50  14 21 54.16    -28 47 25.6   0.0084 1.0134 163.1  m  20?   2.56 120.8   17 178  24  99
   2024 04 23 00:00  14 21 55.83    -28 47 38.4   0.0084 1.0134 163.1  t  20?   2.53 119.4   17 181  24  99
   2024 04 23 00:10  14 21 57.51    -28 47 50.6   0.0084 1.0134 163.1  m  20?   2.50 117.9   17 183  23  99
   2024 04 23 00:20  14 21 59.19    -28 48 02.0   0.0084 1.0134 163.1  m  20?   2.48 116.3   16 185  23  99
   2024 04 23 00:30  14 22 00.88    -28 48 12.7   0.0084 1.0134 163.1  m  20?   2.47 114.7   16 188  23  99
   2024 04 23 00:40  14 22 02.59    -28 48 22.7   0.0084 1.0134 163.1  m  20?   2.46 113.0   16 190  23  99
   2024 04 23 00:50  14 22 04.33    -28 48 32.0   0.0084 1.0135 163.1  m  20?   2.46 111.2   16 192  23  99
   2024 04 23 01:00  14 22 06.09    -28 48 40.6   0.0084 1.0135 163.1  m  20?   2.48 109.4   15 194  23  99
   2024 04 23 01:10  14 22 07.88    -28 48 48.6   0.0084 1.0135 163.1  m  20?   2.50 107.6   15 197  23  99
   2024 04 23 01:20  14 22 09.71    -28 48 55.8   0.0084 1.0135 163.1  m  20?   2.52 105.8   14 199  23  99
   2024 04 23 01:30  14 22 11.57    -28 49 02.5   0.0084 1.0135 163.1  m  20?   2.56 104.1   13 201  23  99
   2024 04 23 01:40  14 22 13.48    -28 49 08.4   0.0084 1.0135 163.1  m  20?   2.61 102.4   13 203  23  99
   2024 04 23 01:50  14 22 15.44    -28 49 13.8   0.0084 1.0135 163.1  m  20?   2.66 100.8   12 205  23  99
   2024 04 23 02:00  14 22 17.46    -28 49 18.5   0.0084 1.0135 163.1  m  20?   2.72  99.3   11 207  23  99
   2024 04 23 02:10  14 22 19.53    -28 49 22.6   0.0084 1.0135 163.1  m  20?   2.79  97.8   10 209  23  99
   2024 04 23 02:20  14 22 21.66    -28 49 26.2   0.0084 1.0135 163.1  m  20?   2.86  96.4    9 211  23  99
   2024 04 23 02:30  14 22 23.86    -28 49 29.1   0.0084 1.0135 163.1  m  20?   2.94  95.2    8 213  23  99
   2024 04 23 02:40  14 22 26.12    -28 49 31.6   0.0084 1.0135 163.1  m  20?   3.03  94.0    7 215  23  99
   2024 04 23 02:50  14 22 28.46    -28 49 33.5   0.0084 1.0135 163.1  m  20?   3.13  92.9    6 217  23  99
   2024 04 23 03:00  14 22 30.87    -28 49 34.8   0.0084 1.0135 163.1 Am  20?   3.23  91.9    5 219  23  99
   2024 04 23 03:10  14 22 33.37    -28 49 35.7   0.0084 1.0135 163.1 Am  20?   3.33  91.0    4 221  22  99
   2024 04 23 03:20  14 22 35.94    -28 49 36.2   0.0084 1.0135 163.1 Am  20?   3.44  90.2    3 223  22  99
   2024 04 23 03:30  14 22 38.60    -28 49 36.1   0.0084 1.0135 163.1 Am  20?   3.56  89.5    2 225  22  99
   2024 04 23 03:40  14 22 41.35    -28 49 35.7   0.0084 1.0135 163.1 Nm  20?   3.67  88.9    0 226  22  99
   2024 04 23 03:50  14 22 44.20    -28 49 34.9   0.0084 1.0135 163.1 Nm  20?   3.80  88.4    0 228  22  99
   ................
   2024 04 23 20:10  14 31 11.74    -29 09 32.7   0.0084 1.0137 162.6 Ar  20?   4.48 123.9    0 132  16  99
   2024 04 23 20:20  14 31 14.53    -29 09 57.6   0.0084 1.0137 162.6 Am  20?   4.36 124.4    1 134  16  99
   2024 04 23 20:30  14 31 17.23    -29 10 22.2   0.0084 1.0137 162.6  m  20?   4.24 124.8    2 136  16  99
   2024 04 23 20:40  14 31 19.84    -29 10 46.2   0.0084 1.0137 162.6  m  20?   4.13 125.2    3 137  16  99
   2024 04 23 20:50  14 31 22.37    -29 11 09.9   0.0084 1.0137 162.6  m  20?   4.01 125.5    4 139  16  99
   2024 04 23 21:00  14 31 24.82    -29 11 33.0   0.0084 1.0137 162.6  m  20?   3.90 125.8    5 141  16  99
   2024 04 23 21:10  14 31 27.19    -29 11 55.7   0.0084 1.0137 162.5  m  20?   3.79 126.1    7 143  16  99
   2024 04 23 21:20  14 31 29.49    -29 12 17.8   0.0084 1.0137 162.5  m  20?   3.68 126.3    8 145  16  99
   2024 04 23 21:30  14 31 31.71    -29 12 39.4   0.0084 1.0137 162.5  m  20?   3.57 126.4    9 147  16  99
   2024 04 23 21:40  14 31 33.87    -29 13 00.4   0.0084 1.0137 162.5  m  20?   3.47 126.5   10 149  16  99
   2024 04 23 21:50  14 31 35.97    -29 13 20.9   0.0084 1.0137 162.5  m  20?   3.37 126.5   10 151  16  99
   2024 04 23 22:00  14 31 38.00    -29 13 40.7   0.0084 1.0137 162.5  m  20?   3.28 126.5   11 153  16  99
   2024 04 23 22:10  14 31 39.99    -29 13 59.9   0.0084 1.0137 162.5  m  20?   3.18 126.3   12 155  15  99
   2024 04 23 22:20  14 31 41.92    -29 14 18.5   0.0084 1.0137 162.5  m  20?   3.09 126.1   13 157  15  99
   2024 04 23 22:30  14 31 43.80    -29 14 36.5   0.0084 1.0137 162.5  m  20?   3.01 125.7   13 159  15  99
   2024 04 23 22:40  14 31 45.64    -29 14 53.7   0.0084 1.0137 162.5  m  20?   2.93 125.3   14 161  15  99
   2024 04 23 22:50  14 31 47.45    -29 15 10.4   0.0084 1.0137 162.5  m  20?   2.85 124.7   14 164  15  99
   2024 04 23 23:00  14 31 49.22    -29 15 26.3   0.0084 1.0137 162.5  m  20?   2.78 124.0   15 166  15  99
   2024 04 23 23:10  14 31 50.96    -29 15 41.5   0.0084 1.0137 162.5  m  20?   2.71 123.2   15 168  15  99
   2024 04 23 23:20  14 31 52.68    -29 15 56.1   0.0084 1.0137 162.5  m  20?   2.65 122.3   16 170  15  99
   2024 04 23 23:30  14 31 54.38    -29 16 09.9   0.0084 1.0137 162.5  m  20?   2.59 121.2   16 173  15  99
   2024 04 23 23:40  14 31 56.06    -29 16 23.1   0.0084 1.0137 162.5  m  20?   2.54 120.1   16 175  15  99
   2024 04 23 23:50  14 31 57.74    -29 16 35.5   0.0084 1.0137 162.5  m  20?   2.50 118.8   16 177  15  99
   2024 04 24 00:00  14 31 59.41    -29 16 47.2   0.0084 1.0137 162.5  m  20?   2.46 117.3   16 179  15  99
   2024 04 24 00:10  14 32 01.08    -29 16 58.2   0.0084 1.0137 162.5  t  20?   2.43 115.8   16 182  15  99
   2024 04 24 00:20  14 32 02.75    -29 17 08.5   0.0084 1.0137 162.5  m  20?   2.41 114.2   16 184  15  99
   2024 04 24 00:30  14 32 04.43    -29 17 18.1   0.0084 1.0137 162.5  m  20?   2.40 112.5   16 186  15  99
   2024 04 24 00:40  14 32 06.13    -29 17 27.0   0.0084 1.0137 162.5  m  20?   2.39 110.7   16 188  15  99
   2024 04 24 00:50  14 32 07.85    -29 17 35.2   0.0084 1.0137 162.5  m  20?   2.39 108.9   15 191  15  99
   2024 04 24 01:00  14 32 09.59    -29 17 42.6   0.0084 1.0137 162.5  m  20?   2.40 107.1   15 193  15  99
   2024 04 24 01:10  14 32 11.36    -29 17 49.4   0.0084 1.0137 162.5  m  20?   2.42 105.3   14 195  15  99
   2024 04 24 01:20  14 32 13.16    -29 17 55.5   0.0084 1.0137 162.5  m  20?   2.45 103.5   14 197  15  99
   2024 04 24 01:30  14 32 15.00    -29 18 00.9   0.0084 1.0137 162.5  m  20?   2.48 101.7   13 199  15  99
   2024 04 24 01:40  14 32 16.88    -29 18 05.7   0.0084 1.0137 162.5  m  20?   2.53 100.0   13 202  14  99
   2024 04 24 01:50  14 32 18.80    -29 18 09.8   0.0084 1.0137 162.5  m  20?   2.58  98.4   12 204  14  99
   2024 04 24 02:00  14 32 20.78    -29 18 13.3   0.0084 1.0137 162.5  m  20?   2.64  96.8   11 206  14  99
   2024 04 24 02:10  14 32 22.81    -29 18 16.2   0.0084 1.0137 162.5  m  20?   2.71  95.3   10 208  14  99
   2024 04 24 02:20  14 32 24.90    -29 18 18.4   0.0084 1.0137 162.5  m  20?   2.78  94.0   10 210  14  99
   2024 04 24 02:30  14 32 27.05    -29 18 20.1   0.0084 1.0137 162.5  m  20?   2.86  92.7    9 212  14  99
   2024 04 24 02:40  14 32 29.27    -29 18 21.2   0.0084 1.0138 162.5  m  20?   2.95  91.5    8 214  14  99
   2024 04 24 02:50  14 32 31.56    -29 18 21.8   0.0084 1.0138 162.5 Am  20?   3.04  90.5    7 216  14  99
   2024 04 24 03:00  14 32 33.93    -29 18 21.9   0.0084 1.0138 162.5 Am  20?   3.14  89.5    5 218  14  99
   2024 04 24 03:10  14 32 36.37    -29 18 21.4   0.0084 1.0138 162.5 Am  20?   3.25  88.6    4 220  14  99
   2024 04 24 03:20  14 32 38.89    -29 18 20.4   0.0084 1.0138 162.5 Am  20?   3.35  87.9    3 221  14  99
   2024 04 24 03:30  14 32 41.50    -29 18 19.0   0.0084 1.0138 162.5 Am  20?   3.47  87.2    2 223  14  99
   2024 04 24 03:40  14 32 44.19    -29 18 17.2   0.0084 1.0138 162.5 Nm  20?   3.58  86.6    1 225  14  99
   2024 04 24 03:50  14 32 46.97    -29 18 14.9   0.0084 1.0138 162.5 Nm  20?   3.71  86.1    0 227  14  99
   ................
   2024 04 24 20:20  14 41 16.59    -29 35 49.8   0.0084 1.0140 161.9 Am  20?   4.33 122.8    0 133  10  99
   2024 04 24 20:30  14 41 19.33    -29 36 13.2   0.0084 1.0140 161.9  m  20?   4.21 123.2    1 135  10  99
   2024 04 24 20:40  14 41 21.99    -29 36 36.1   0.0084 1.0140 161.9  m  20?   4.09 123.6    2 137  10  99
   2024 04 24 20:50  14 41 24.56    -29 36 58.6   0.0084 1.0140 161.9  m  20?   3.98 123.9    3 138  10  99
   2024 04 24 21:00  14 41 27.04    -29 37 20.6   0.0084 1.0140 161.9  m  20?   3.86 124.2    4 140  10  99
   2024 04 24 21:10  14 41 29.45    -29 37 42.1   0.0084 1.0140 161.9  m  20?   3.75 124.4    6 142  10  99
   2024 04 24 21:20  14 41 31.78    -29 38 03.1   0.0084 1.0140 161.9  m  20?   3.64 124.6    7 144  10  99
   2024 04 24 21:30  14 41 34.03    -29 38 23.6   0.0084 1.0140 161.9  m  20?   3.53 124.7    8 146  10  99
   2024 04 24 21:40  14 41 36.22    -29 38 43.5   0.0084 1.0140 161.9  m  20?   3.43 124.8    9 148  10  99
   2024 04 24 21:50  14 41 38.34    -29 39 02.8   0.0084 1.0140 161.9  m  20?   3.32 124.8    9 150  10  99
   2024 04 24 22:00  14 41 40.40    -29 39 21.6   0.0084 1.0140 161.9  m  20?   3.23 124.7   10 152  10  99
   2024 04 24 22:10  14 41 42.41    -29 39 39.7   0.0084 1.0140 161.9  m  20?   3.13 124.5   11 154  10  98
   2024 04 24 22:20  14 41 44.36    -29 39 57.2   0.0084 1.0140 161.9  m  20?   3.04 124.3   12 156  10  98
   2024 04 24 22:30  14 41 46.26    -29 40 14.0   0.0084 1.0140 161.9  m  20?   2.95 123.9   13 158  10  98
   2024 04 24 22:40  14 41 48.11    -29 40 30.2   0.0084 1.0140 161.9  m  20?   2.87 123.4   13 160  10  98
   2024 04 24 22:50  14 41 49.92    -29 40 45.7   0.0084 1.0140 161.9  m  20?   2.79 122.8   14 162  10  98
   2024 04 24 23:00  14 41 51.70    -29 41 00.6   0.0084 1.0140 161.9  m  20?   2.72 122.1   14 165  10  98
   2024 04 24 23:10  14 41 53.45    -29 41 14.7   0.0084 1.0140 161.9  m  20?   2.65 121.3   15 167  10  98
   2024 04 24 23:20  14 41 55.17    -29 41 28.2   0.0084 1.0140 161.9  m  20?   2.58 120.3   15 169  10  98
   2024 04 24 23:30  14 41 56.87    -29 41 41.0   0.0084 1.0140 161.9  m  20?   2.53 119.3   15 171  10  98
   2024 04 24 23:40  14 41 58.55    -29 41 53.0   0.0084 1.0140 161.9  m  20?   2.47 118.0   16 173  10  98
   2024 04 24 23:50  14 42 00.22    -29 42 04.3   0.0084 1.0140 161.9  m  20?   2.43 116.7   16 176  10  98
   2024 04 25 00:00  14 42 01.88    -29 42 14.9   0.0084 1.0140 161.9  m  20?   2.39 115.2   16 178  10  98
   2024 04 25 00:10  14 42 03.53    -29 42 24.8   0.0084 1.0140 161.9  t  20?   2.36 113.7   16 180  10  98
   2024 04 25 00:20  14 42 05.19    -29 42 34.0   0.0084 1.0140 161.9  m  20?   2.34 112.0   16 183  10  98
   2024 04 25 00:30  14 42 06.85    -29 42 42.5   0.0084 1.0140 161.9  m  20?   2.32 110.3   16 185  10  98
   2024 04 25 00:40  14 42 08.53    -29 42 50.2   0.0084 1.0140 161.9  m  20?   2.31 108.5   15 187  10  98
   2024 04 25 00:50  14 42 10.22    -29 42 57.2   0.0084 1.0140 161.9  m  20?   2.31 106.6   15 189  10  98
   2024 04 25 01:00  14 42 11.93    -29 43 03.5   0.0084 1.0140 161.9  m  20?   2.32 104.7   15 191  10  98
   2024 04 25 01:10  14 42 13.67    -29 43 09.2   0.0084 1.0140 161.9  m  20?   2.34 102.9   14 194  10  98
   2024 04 25 01:20  14 42 15.44    -29 43 14.1   0.0084 1.0140 161.9  m  20?   2.37 101.0   14 196  10  98
   2024 04 25 01:30  14 42 17.24    -29 43 18.3   0.0084 1.0140 161.9  m  20?   2.40  99.2   13 198  10  98
   2024 04 25 01:40  14 42 19.08    -29 43 21.9   0.0084 1.0140 161.9  m  20?   2.45  97.5   13 200  10  98
   2024 04 25 01:50  14 42 20.96    -29 43 24.8   0.0084 1.0140 161.9  m  20?   2.50  95.8   12 202  10  98
   2024 04 25 02:00  14 42 22.90    -29 43 27.1   0.0084 1.0140 161.9  m  20?   2.56  94.3   11 204  10  98
   2024 04 25 02:10  14 42 24.88    -29 43 28.7   0.0084 1.0140 161.9  m  20?   2.62  92.8   11 206  10  98
   2024 04 25 02:20  14 42 26.92    -29 43 29.7   0.0084 1.0140 161.9  m  20?   2.70  91.4   10 208  10  98
   2024 04 25 02:30  14 42 29.02    -29 43 30.1   0.0084 1.0140 161.9  m  20?   2.78  90.1    9 210  10  98
   2024 04 25 02:40  14 42 31.19    -29 43 30.0   0.0084 1.0140 161.9  m  20?   2.86  89.0    8 212  10  98
   2024 04 25 02:50  14 42 33.42    -29 43 29.2   0.0084 1.0140 161.9 Am  20?   2.96  87.9    7 214  10  98
   2024 04 25 03:00  14 42 35.72    -29 43 27.9   0.0084 1.0140 161.9 Am  20?   3.05  87.0    6 216  10  98
   2024 04 25 03:10  14 42 38.10    -29 43 26.1   0.0084 1.0140 161.9 Am  20?   3.16  86.2    5 218  10  98
   2024 04 25 03:20  14 42 40.56    -29 43 23.8   0.0084 1.0140 161.9 Am  20?   3.26  85.4    4 220  10  98
   2024 04 25 03:30  14 42 43.10    -29 43 21.1   0.0084 1.0140 161.9 Nm  20?   3.38  84.8    2 222  10  98
   2024 04 25 03:40  14 42 45.73    -29 43 17.8   0.0084 1.0140 161.9 Nm  20?   3.49  84.2    1 224  10  98
   2024 04 25 03:50  14 42 48.44    -29 43 14.2   0.0084 1.0140 161.9 Nm  20?   3.61  83.7    0 225  10  98
   ................
   2024 04 25 20:30  14 51 18.79    -29 58 22.2   0.0085 1.0142 161.3  m  20?   4.17 121.6    0 134  12  96
   2024 04 25 20:40  14 51 21.48    -29 58 43.9   0.0085 1.0142 161.3  m  20?   4.05 121.9    1 136  12  96
   2024 04 25 20:50  14 51 24.07    -29 59 05.2   0.0085 1.0142 161.3  m  20?   3.93 122.2    2 137  12  96
   2024 04 25 21:00  14 51 26.59    -29 59 26.0   0.0085 1.0142 161.3  m  20?   3.81 122.5    3 139  12  96
   2024 04 25 21:10  14 51 29.02    -29 59 46.4   0.0085 1.0142 161.3  m  20?   3.70 122.7    5 141  12  96
   2024 04 25 21:20  14 51 31.37    -30 00 06.2   0.0085 1.0142 161.3  m  20?   3.59 122.9    6 143  12  96
   2024 04 25 21:30  14 51 33.65    -30 00 25.5   0.0085 1.0142 161.3  m  20?   3.48 123.0    7 145  12  96
   2024 04 25 21:40  14 51 35.86    -30 00 44.3   0.0085 1.0142 161.3  m  20?   3.37 123.1    8 147  12  96
   2024 04 25 21:50  14 51 37.99    -30 01 02.5   0.0085 1.0142 161.3  m  20?   3.27 123.0    9 149  12  96
   2024 04 25 22:00  14 51 40.07    -30 01 20.1   0.0085 1.0143 161.3  m  20?   3.17 122.9    9 151  12  96
   2024 04 25 22:10  14 51 42.08    -30 01 37.1   0.0085 1.0143 161.2  m  20?   3.07 122.7   10 153  12  96
   2024 04 25 22:20  14 51 44.04    -30 01 53.4   0.0085 1.0143 161.2  m  20?   2.98 122.5   11 155  12  96
   2024 04 25 22:30  14 51 45.95    -30 02 09.2   0.0085 1.0143 161.2  m  20?   2.89 122.1   12 157  12  96
   2024 04 25 22:40  14 51 47.81    -30 02 24.3   0.0085 1.0143 161.2  m  20?   2.80 121.6   12 159  12  95
   2024 04 25 22:50  14 51 49.62    -30 02 38.7   0.0085 1.0143 161.2  m  20?   2.72 121.0   13 161  12  95
   2024 04 25 23:00  14 51 51.40    -30 02 52.4   0.0085 1.0143 161.2  m  20?   2.65 120.2   14 163  12  95
   2024 04 25 23:10  14 51 53.15    -30 03 05.5   0.0085 1.0143 161.2  m  20?   2.58 119.4   14 166  12  95
   2024 04 25 23:20  14 51 54.86    -30 03 17.8   0.0085 1.0143 161.2  m  20?   2.51 118.4   14 168  12  95
   2024 04 25 23:30  14 51 56.55    -30 03 29.5   0.0085 1.0143 161.2  m  20?   2.45 117.3   15 170  12  95
   2024 04 25 23:40  14 51 58.21    -30 03 40.4   0.0085 1.0143 161.2  m  20?   2.40 116.0   15 172  12  95
   2024 04 25 23:50  14 51 59.87    -30 03 50.6   0.0085 1.0143 161.2  m  20?   2.35 114.6   15 174  12  95
   2024 04 26 00:00  14 52 01.51    -30 04 00.1   0.0085 1.0143 161.2  m  20?   2.31 113.1   15 177  12  95
   2024 04 26 00:10  14 52 03.14    -30 04 08.9   0.0085 1.0143 161.2  m  20?   2.28 111.5   15 179  12  95
   2024 04 26 00:20  14 52 04.78    -30 04 17.0   0.0085 1.0143 161.2  t  20?   2.26 109.8   15 181  12  95
   2024 04 26 00:30  14 52 06.41    -30 04 24.3   0.0085 1.0143 161.2  m  20?   2.24 108.0   15 183  12  95
   2024 04 26 00:40  14 52 08.06    -30 04 30.9   0.0085 1.0143 161.2  m  20?   2.23 106.1   15 186  13  95
   2024 04 26 00:50  14 52 09.72    -30 04 36.8   0.0085 1.0143 161.2  m  20?   2.23 104.2   15 188  13  95
   2024 04 26 01:00  14 52 11.39    -30 04 42.0   0.0085 1.0143 161.2  m  20?   2.24 102.3   15 190  13  95
   2024 04 26 01:10  14 52 13.09    -30 04 46.4   0.0085 1.0143 161.2  m  20?   2.26 100.3   14 192  13  95
   2024 04 26 01:20  14 52 14.82    -30 04 50.2   0.0085 1.0143 161.2  m  20?   2.28  98.5   14 194  13  95
   2024 04 26 01:30  14 52 16.57    -30 04 53.3   0.0085 1.0143 161.2  m  20?   2.32  96.7   13 197  13  95
   2024 04 26 01:40  14 52 18.37    -30 04 55.6   0.0085 1.0143 161.2  m  20?   2.36  94.9   13 199  13  95
   2024 04 26 01:50  14 52 20.20    -30 04 57.4   0.0085 1.0143 161.2  m  20?   2.41  93.2   12 201  13  95
   2024 04 26 02:00  14 52 22.08    -30 04 58.4   0.0085 1.0143 161.2  m  20?   2.47  91.6   11 203  13  95
   2024 04 26 02:10  14 52 24.01    -30 04 58.8   0.0085 1.0143 161.2  m  20?   2.54  90.1   11 205  13  95
   2024 04 26 02:20  14 52 25.99    -30 04 58.6   0.0085 1.0143 161.2  m  20?   2.61  88.7   10 207  13  95
   2024 04 26 02:30  14 52 28.03    -30 04 57.8   0.0085 1.0143 161.2  m  20?   2.69  87.5    9 209  13  95
   2024 04 26 02:40  14 52 30.13    -30 04 56.4   0.0085 1.0143 161.2  m  20?   2.77  86.3    8 211  13  95
   2024 04 26 02:50  14 52 32.30    -30 04 54.4   0.0085 1.0143 161.2 Am  20?   2.87  85.3    7 213  13  95
   2024 04 26 03:00  14 52 34.54    -30 04 51.8   0.0085 1.0143 161.2 Am  20?   2.96  84.4    6 215  13  95
   2024 04 26 03:10  14 52 36.85    -30 04 48.7   0.0085 1.0143 161.3 Am  20?   3.06  83.6    5 217  13  95
   2024 04 26 03:20  14 52 39.23    -30 04 45.1   0.0085 1.0143 161.3 Am  20?   3.17  82.9    4 219  13  95
   2024 04 26 03:30  14 52 41.70    -30 04 41.0   0.0085 1.0143 161.3 Nm  20?   3.28  82.3    3 221  13  95
   2024 04 26 03:40  14 52 44.24    -30 04 36.4   0.0085 1.0143 161.3 Nm  20?   3.40  81.7    2 222  13  95
   2024 04 26 03:50  14 52 46.88    -30 04 31.4   0.0085 1.0143 161.3 Nm  20?   3.51  81.3    0 224  13  95
   2024 04 26 04:00  14 52 49.60    -30 04 25.9   0.0085 1.0143 161.3 Nm  20?   3.64  80.9    0 226  13  95
   ................
   2024 04 26 20:40  15 01 16.58    -30 17 09.7   0.0085 1.0145 160.6     20?   4.00 120.3    0 135  20  91
   2024 04 26 20:50  15 01 19.20    -30 17 29.8   0.0085 1.0145 160.6     20?   3.88 120.6    1 137  20  91
   2024 04 26 21:00  15 01 21.73    -30 17 49.4   0.0085 1.0145 160.6     20?   3.76 120.9    2 138  20  91
   2024 04 26 21:10  15 01 24.17    -30 18 08.5   0.0085 1.0145 160.6     20?   3.64 121.1    4 140  20  91
   2024 04 26 21:20  15 01 26.54    -30 18 27.2   0.0085 1.0145 160.6     20?   3.53 121.2    5 142  20  91
   2024 04 26 21:30  15 01 28.83    -30 18 45.3   0.0085 1.0145 160.6     20?   3.42 121.3    6 144  20  91
   2024 04 26 21:40  15 01 31.04    -30 19 02.9   0.0085 1.0145 160.6  m  20?   3.31 121.4    7 146  20  91
   2024 04 26 21:50  15 01 33.19    -30 19 19.9   0.0085 1.0145 160.6  m  20?   3.21 121.3    8 148  20  91
   2024 04 26 22:00  15 01 35.27    -30 19 36.4   0.0085 1.0145 160.6  m  20?   3.10 121.2    9 150  20  91
   2024 04 26 22:10  15 01 37.29    -30 19 52.2   0.0085 1.0145 160.6  m  20?   3.01 121.0   10 152  20  91
   2024 04 26 22:20  15 01 39.24    -30 20 07.5   0.0085 1.0145 160.6  m  20?   2.91 120.7   10 154  20  91
   2024 04 26 22:30  15 01 41.15    -30 20 22.1   0.0085 1.0145 160.6  m  20?   2.82 120.3   11 156  20  91
   2024 04 26 22:40  15 01 43.00    -30 20 36.0   0.0085 1.0145 160.6  m  20?   2.73 119.7   12 158  20  91
   2024 04 26 22:50  15 01 44.81    -30 20 49.3   0.0085 1.0145 160.6  m  20?   2.65 119.1   12 160  21  91
   2024 04 26 23:00  15 01 46.58    -30 21 02.0   0.0085 1.0145 160.6  m  20?   2.57 118.3   13 162  21  90
   2024 04 26 23:10  15 01 48.31    -30 21 13.9   0.0085 1.0145 160.6  m  20?   2.50 117.4   13 164  21  90
   2024 04 26 23:20  15 01 50.01    -30 21 25.1   0.0085 1.0145 160.6  m  20?   2.44 116.4   14 166  21  90
   2024 04 26 23:30  15 01 51.68    -30 21 35.7   0.0085 1.0145 160.6  m  20?   2.37 115.2   14 169  21  90
   2024 04 26 23:40  15 01 53.32    -30 21 45.5   0.0085 1.0145 160.6  m  20?   2.32 113.9   15 171  21  90
   2024 04 26 23:50  15 01 54.95    -30 21 54.6   0.0085 1.0145 160.6  m  20?   2.27 112.5   15 173  21  90
   2024 04 27 00:00  15 01 56.57    -30 22 03.0   0.0085 1.0145 160.6  m  20?   2.23 110.9   15 175  21  90
   2024 04 27 00:10  15 01 58.17    -30 22 10.7   0.0085 1.0146 160.6  m  20?   2.20 109.2   15 178  21  90
   2024 04 27 00:20  15 01 59.77    -30 22 17.6   0.0085 1.0146 160.6  t  20?   2.17 107.5   15 180  21  90
   2024 04 27 00:30  15 02 01.38    -30 22 23.8   0.0085 1.0146 160.6  m  20?   2.16 105.6   15 182  21  90
   2024 04 27 00:40  15 02 02.98    -30 22 29.3   0.0085 1.0146 160.6  m  20?   2.15 103.7   15 184  21  90
   2024 04 27 00:50  15 02 04.60    -30 22 34.1   0.0085 1.0146 160.6  m  20?   2.15 101.7   15 186  21  90
   2024 04 27 01:00  15 02 06.23    -30 22 38.1   0.0085 1.0146 160.6  m  20?   2.16  99.7   14 189  21  90
   2024 04 27 01:10  15 02 07.88    -30 22 41.5   0.0085 1.0146 160.6  m  20?   2.17  97.8   14 191  21  90
   2024 04 27 01:20  15 02 09.56    -30 22 44.1   0.0085 1.0146 160.6  m  20?   2.20  95.8   14 193  21  90
   2024 04 27 01:30  15 02 11.26    -30 22 46.0   0.0085 1.0146 160.6  m  20?   2.23  93.9   13 195  21  90
   2024 04 27 01:40  15 02 13.00    -30 22 47.2   0.0085 1.0146 160.6  m  20?   2.27  92.1   13 197  21  90
   2024 04 27 01:50  15 02 14.78    -30 22 47.8   0.0085 1.0146 160.6  m  20?   2.32  90.4   12 200  21  90
   2024 04 27 02:00  15 02 16.59    -30 22 47.7   0.0085 1.0146 160.6  m  20?   2.38  88.8   12 202  21  90
   2024 04 27 02:10  15 02 18.46    -30 22 46.9   0.0085 1.0146 160.6  m  20?   2.45  87.3   11 204  22  90
   2024 04 27 02:20  15 02 20.37    -30 22 45.5   0.0085 1.0146 160.6  m  20?   2.52  86.0   10 206  22  90
   2024 04 27 02:30  15 02 22.34    -30 22 43.5   0.0085 1.0146 160.6  m  20?   2.60  84.7    9 208  22  90
   2024 04 27 02:40  15 02 24.37    -30 22 40.8   0.0085 1.0146 160.6  m  20?   2.68  83.6    8 210  22  90
   2024 04 27 02:50  15 02 26.47    -30 22 37.6   0.0085 1.0146 160.6 Am  20?   2.77  82.6    7 212  22  90
   2024 04 27 03:00  15 02 28.63    -30 22 33.8   0.0085 1.0146 160.6 Am  20?   2.87  81.7    6 214  22  90
   2024 04 27 03:10  15 02 30.86    -30 22 29.4   0.0085 1.0146 160.6 Am  20?   2.97  80.9    5 216  22  90
   2024 04 27 03:20  15 02 33.16    -30 22 24.5   0.0085 1.0146 160.6 Am  20?   3.07  80.2    4 217  22  90
   2024 04 27 03:30  15 02 35.54    -30 22 19.1   0.0085 1.0146 160.6 Nm  20?   3.18  79.7    3 219  22  90
   2024 04 27 03:40  15 02 38.01    -30 22 13.2   0.0085 1.0146 160.6 Nm  20?   3.30  79.2    2 221  22  90
   2024 04 27 03:50  15 02 40.55    -30 22 06.9   0.0085 1.0146 160.6 Nm  20?   3.41  78.8    1 223  22  90
   2024 04 27 04:00  15 02 43.18    -30 22 00.1   0.0085 1.0146 160.6 Nm  20?   3.53  78.5    0 225  22  90
   ................
   2024 04 27 20:40  15 11 05.57    -30 31 55.3   0.0086 1.0148 159.9  r  20?   3.94 118.7    0 134  30  84
   2024 04 27 20:50  15 11 08.20    -30 32 14.1   0.0086 1.0148 159.9     20?   3.82 119.0    0 136  30  84
   2024 04 27 21:00  15 11 10.73    -30 32 32.5   0.0086 1.0148 159.9     20?   3.70 119.2    2 137  30  84
   2024 04 27 21:10  15 11 13.18    -30 32 50.4   0.0086 1.0148 159.9     20?   3.58 119.4    3 139  30  84
   2024 04 27 21:20  15 11 15.55    -30 33 07.8   0.0086 1.0148 159.9     20?   3.47 119.6    4 141  30  84
   2024 04 27 21:30  15 11 17.84    -30 33 24.8   0.0086 1.0148 159.9     20?   3.35 119.6    5 143  30  84
   2024 04 27 21:40  15 11 20.06    -30 33 41.2   0.0086 1.0148 159.9     20?   3.24 119.7    6 145  30  84
   2024 04 27 21:50  15 11 22.20    -30 33 57.0   0.0086 1.0148 159.9     20?   3.14 119.6    7 147  30  84
   2024 04 27 22:00  15 11 24.28    -30 34 12.3   0.0086 1.0148 159.9     20?   3.03 119.5    8 149  30  84
   2024 04 27 22:10  15 11 26.29    -30 34 27.0   0.0086 1.0148 159.9     20?   2.93 119.2    9 151  30  84
   2024 04 27 22:20  15 11 28.24    -30 34 41.1   0.0086 1.0148 159.9     20?   2.84 118.9   10 153  30  84
   2024 04 27 22:30  15 11 30.13    -30 34 54.6   0.0086 1.0148 159.9     20?   2.75 118.4   10 155  30  84
   2024 04 27 22:40  15 11 31.97    -30 35 07.4   0.0086 1.0148 159.9     20?   2.66 117.9   11 157  30  84
   2024 04 27 22:50  15 11 33.76    -30 35 19.6   0.0086 1.0148 159.9  m  20?   2.57 117.2   12 159  30  84
   2024 04 27 23:00  15 11 35.51    -30 35 31.1   0.0086 1.0148 159.9  m  20?   2.49 116.4   12 161  31  84
   2024 04 27 23:10  15 11 37.22    -30 35 41.9   0.0086 1.0148 159.9  m  20?   2.42 115.5   13 163  31  84
   2024 04 27 23:20  15 11 38.89    -30 35 52.0   0.0086 1.0148 159.9  m  20?   2.35 114.4   13 165  31  84
   2024 04 27 23:30  15 11 40.54    -30 36 01.5   0.0086 1.0148 159.9  m  20?   2.29 113.2   14 167  31  84
   2024 04 27 23:40  15 11 42.15    -30 36 10.2   0.0086 1.0148 159.9  m  20?   2.24 111.8   14 170  31  84
   2024 04 27 23:50  15 11 43.75    -30 36 18.2   0.0086 1.0148 159.9  m  20?   2.19 110.3   14 172  31  84
   2024 04 28 00:00  15 11 45.33    -30 36 25.5   0.0086 1.0148 159.9  m  20?   2.15 108.7   15 174  31  83
   

CAPSTONE (JPL-ID: -1176)

   Date (UTC) HH:MM   RA              Dec         delta   r     elong SM  mag  '/hr    PA   alt  az moo ill
   ---- -- -- -----  -------------   -----------  ------ ------ ----- --  --- ------ ------ --- --- --- ---
   2024 04 14 18:30  06 48 28.47    +25 45 10.6   388569 1.0026  75.9 Cm  16?  31.83  63.2   63 235   3  39
   2024 04 14 18:40  06 48 49.62    +25 47 34.5   388608 1.0026  76.0 Cm  16?  32.15  63.6   61 238   3  39
   2024 04 14 18:50  06 49 11.06    +25 49 58.2   388654 1.0026  76.1 Cm  16?  32.50  63.9   60 241   3  39
   2024 04 14 19:00  06 49 32.82    +25 52 21.6   388707 1.0026  76.1 Nm  16?  32.87  64.3   58 244   3  39
   2024 04 14 19:10  06 49 54.91    +25 54 44.7   388765 1.0026  76.2 Nm  16?  33.27  64.7   57 247   3  39
   2024 04 14 19:20  06 50 17.35    +25 57 07.8   388829 1.0026  76.3 Nm  16?  33.70  65.0   55 250   3  39
   2024 04 14 19:30  06 50 40.16    +25 59 30.9   388898 1.0026  76.4 Am  16?  34.15  65.4   54 252   2  39
   2024 04 14 19:40  06 51 03.36    +26 01 54.1   388973 1.0026  76.4 Am  16?  34.64  65.7   52 255   2  39
   2024 04 14 19:50  06 51 26.97    +26 04 17.4   389053 1.0026  76.5 Am  16?  35.15  66.1   50 257   2  40
   2024 04 14 20:00  06 51 51.00    +26 06 41.0   389138 1.0026  76.6 Am  16?  35.70  66.4   49 259   2  40
   2024 04 14 20:10  06 52 15.49    +26 09 04.9   389227 1.0026  76.7  m  16?  36.27  66.7   47 261   2  40
   2024 04 14 20:20  06 52 40.44    +26 11 29.4   389321 1.0026  76.8  m  16?  36.87  67.0   45 263   2  40
   2024 04 14 20:30  06 53 05.89    +26 13 54.4   389419 1.0026  76.8  m  16?  37.51  67.3   43 265   2  40
   2024 04 14 20:40  06 53 31.85    +26 16 20.2   389521 1.0026  76.9  m  16?  38.18  67.6   42 267   2  40
   2024 04 14 20:50  06 53 58.34    +26 18 46.8   389627 1.0027  77.0  m  16?  38.88  67.9   40 269   2  40
   2024 04 14 21:00  06 54 25.40    +26 21 14.3   389736 1.0027  77.1  m  16?  39.62  68.2   38 270   2  40
   2024 04 14 21:10  06 54 53.03    +26 23 43.0   389848 1.0027  77.2  m  16?  40.40  68.5   37 272   2  40
   2024 04 14 21:20  06 55 21.28    +26 26 12.8   389963 1.0027  77.3  m  16?  41.21  68.7   35 274   2  40
   2024 04 14 21:30  06 55 50.17    +26 28 44.1   390081 1.0027  77.4  m  16?  42.07  69.0   33 275   2  40
   2024 04 14 21:40  06 56 19.73    +26 31 16.8   390200 1.0027  77.5  m  16?  42.97  69.2   32 277   2  40
   2024 04 14 21:50  06 56 50.00    +26 33 51.2   390322 1.0027  77.6  m  16?  43.92  69.5   30 278   2  40
   2024 04 14 22:00  06 57 21.00    +26 36 27.3   390445 1.0027  77.7  m  16?  44.93  69.7   28 280   2  40
   2024 04 14 22:10  06 57 52.78    +26 39 05.4   390569 1.0027  77.8  m  16?  45.98  69.9   27 281   2  40
   2024 04 14 22:20  06 58 25.38    +26 41 45.4   390695 1.0027  77.9  m  16?  47.10  70.1   25 283   2  40
   2024 04 14 22:30  06 58 58.86    +26 44 27.6   390820 1.0027  78.0  m  16?  48.29  70.4   23 284   2  40
   2024 04 14 22:40  06 59 33.26    +26 47 12.0   390946 1.0027  78.1  m  16?  49.56  70.6   22 286   1  41
   2024 04 14 22:50  07 00 08.65    +26 49 58.7   391072 1.0027  78.3  m  16?  50.91  70.9   20 287   1  41
   2024 04 14 23:00  07 00 45.11    +26 52 47.6   391198 1.0027  78.4  m  16?  52.36  71.2   19 289   1  41
   2024 04 14 23:10  07 01 22.71    +26 55 38.9   391322 1.0028  78.5  m  16?  53.93  71.5   17 290   1  41
   2024 04 14 23:20  07 02 01.56    +26 58 32.2   391446 1.0028  78.7  m  16?  55.62  71.9   16 292   1  41
   2024 04 14 23:30  07 02 41.78    +27 01 27.4   391568 1.0028  78.8  m  16?  57.47  72.3   14 293   1  41
   2024 04 14 23:40  07 03 23.51    +27 04 24.0   391688 1.0028  78.9  m  16?  59.50  72.8   12 295   1  41
   2024 04 14 23:50  07 04 06.90    +27 07 21.2   391806 1.0028  79.1  m  16?  61.74  73.5   11 296   1  41
   2024 04 15 00:00  07 04 52.18    +27 10 17.9   391922 1.0028  79.2  m  16?  64.23  74.3   10 298   1  41
   2024 04 15 00:10  07 05 39.59    +27 13 12.0   392035 1.0028  79.4  m  16?  67.02  75.3    8 299   1  41
   2024 04 15 00:20  07 06 29.40    +27 16 00.7   392146 1.0028  79.6  m  16?  70.14  76.6    7 301   1  41
   2024 04 15 00:30  07 07 21.97    +27 18 39.4   392254 1.0028  79.8  m  16?  73.64  78.3    5 302   1  41
   2024 04 15 00:40  07 08 17.66    +27 21 00.9   392360 1.0028  79.9  m  16?  77.51  80.5    4 304   1  41
   2024 04 15 00:50  07 09 16.76    +27 22 54.5   392466 1.0028  80.2  m  16?  81.65  83.5    3 305   1  42
   2024 04 15 01:00  07 10 19.40    +27 24 04.9   392573 1.0029  80.4  m  16?  85.76  87.3    1 307   1  42
   2024 04 15 01:10  07 11 25.16    +27 24 13.2   392686 1.0029  80.6  m  16?  89.27  92.0    0 308   0  42
   2024 04 15 01:20  07 12 32.86    +27 23 01.2   392809 1.0029  80.9  m  16?  91.39  97.4    0 310   0  42
   ................
   2024 04 15 18:30  08 00 21.38    +20 48 48.5   396613 1.0036  92.0 Cm  16?  26.42 136.6   66 196   5  49
   2024 04 15 18:40  08 00 34.36    +20 45 36.3   396740 1.0036  92.0 Cm  16?  26.51 136.7   65 202   5  49
   2024 04 15 18:50  08 00 47.35    +20 42 23.3   396875 1.0036  92.1 Cm  16?  26.60 136.7   64 207   5  49
   2024 04 15 19:00  08 01 00.39    +20 39 09.3   397018 1.0036  92.1 Nm  16?  26.71 136.8   63 212   5  49
   2024 04 15 19:10  08 01 13.48    +20 35 54.6   397168 1.0036  92.2 Nm  16?  26.84 136.7   62 216   5  49
   2024 04 15 19:20  08 01 26.63    +20 32 39.0   397326 1.0036  92.2 Nm  16?  26.97 136.7   61 220   5  50
   2024 04 15 19:30  08 01 39.85    +20 29 22.6   397491 1.0036  92.3 Am  16?  27.11 136.6   60 224   5  50
   2024 04 15 19:40  08 01 53.17    +20 26 05.4   397663 1.0036  92.3 Am  16?  27.26 136.5   58 228   5  50
   2024 04 15 19:50  08 02 06.59    +20 22 47.5   397842 1.0036  92.4 Am  16?  27.42 136.4   57 231   5  50
   2024 04 15 20:00  08 02 20.12    +20 19 28.9   398028 1.0036  92.5 Am  16?  27.59 136.2   56 235   5  50
   2024 04 15 20:10  08 02 33.78    +20 16 09.7   398221 1.0036  92.5  m  16?  27.77 136.0   54 238   6  50
   2024 04 15 20:20  08 02 47.57    +20 12 49.8   398420 1.0036  92.6  m  16?  27.96 135.8   52 241   6  50
   2024 04 15 20:30  08 03 01.52    +20 09 29.3   398626 1.0036  92.6  m  16?  28.16 135.6   51 243   6  50
   2024 04 15 20:40  08 03 15.62    +20 06 08.3   398838 1.0036  92.7  m  16?  28.36 135.3   49 246   6  50
   2024 04 15 20:50  08 03 29.89    +20 02 46.8   399056 1.0036  92.7  m  16?  28.57 135.0   48 248   6  50
   2024 04 15 21:00  08 03 44.34    +19 59 24.8   399280 1.0036  92.8  m  16?  28.79 134.7   46 251   6  50
   2024 04 15 21:10  08 03 58.98    +19 56 02.4   399510 1.0036  92.9  m  16?  29.02 134.3   44 253   6  50
   2024 04 15 21:20  08 04 13.81    +19 52 39.7   399745 1.0037  92.9  m  16?  29.25 134.0   42 255   6  50
   2024 04 15 21:30  08 04 28.86    +19 49 16.7   399985 1.0037  93.0  m  16?  29.49 133.6   41 257   6  50
   2024 04 15 21:40  08 04 44.11    +19 45 53.4   400230 1.0037  93.1  m  16?  29.73 133.2   39 259   6  50
   2024 04 15 21:50  08 04 59.59    +19 42 29.9   400479 1.0037  93.1  m  16?  29.99 132.8   37 261   6  50
   2024 04 15 22:00  08 05 15.29    +19 39 06.2   400733 1.0037  93.2  m  16?  30.24 132.4   35 262   6  50
   2024 04 15 22:10  08 05 31.23    +19 35 42.5   400991 1.0037  93.2  m  16?  30.50 132.0   34 264   6  50
   2024 04 15 22:20  08 05 47.42    +19 32 18.7   401252 1.0037  93.3  m  16?  30.76 131.6   32 266   6  50
   2024 04 15 22:30  08 06 03.84    +19 28 55.0   401518 1.0037  93.4  m  16?  31.03 131.1   30 268   6  51
   2024 04 15 22:40  08 06 20.52    +19 25 31.3   401786 1.0037  93.5  m  16?  31.30 130.7   28 269   6  51
   2024 04 15 22:50  08 06 37.46    +19 22 07.7   402057 1.0037  93.5  m  16?  31.58 130.2   26 271   6  51
   2024 04 15 23:00  08 06 54.65    +19 18 44.3   402331 1.0037  93.6  m  16?  31.86 129.7   25 273   6  51
   2024 04 15 23:10  08 07 12.11    +19 15 21.2   402607 1.0037  93.7  m  16?  32.13 129.2   23 274   6  51
   2024 04 15 23:20  08 07 29.84    +19 11 58.3   402884 1.0037  93.7  m  16?  32.42 128.8   21 276   6  51
   2024 04 15 23:30  08 07 47.83    +19 08 35.9   403164 1.0037  93.8  m  16?  32.70 128.3   19 277   6  51
   2024 04 15 23:40  08 08 06.09    +19 05 13.8   403444 1.0037  93.9  m  16?  32.98 127.8   18 279   6  51
   2024 04 15 23:50  08 08 24.63    +19 01 52.2   403726 1.0037  94.0  m  16?  33.26 127.3   16 280   6  51
   2024 04 16 00:00  08 08 43.43    +18 58 31.1   404008 1.0037  94.0  m  16?  33.54 126.8   14 282   6  51
   2024 04 16 00:10  08 09 02.51    +18 55 10.6   404291 1.0037  94.1  m  16?  33.83 126.4   12 283   6  51
   2024 04 16 00:20  08 09 21.86    +18 51 50.7   404573 1.0038  94.2  m  16?  34.11 125.9   11 285   6  51
   2024 04 16 00:30  08 09 41.48    +18 48 31.5   404855 1.0038  94.3  m  16?  34.38 125.4    9 287   6  51
   2024 04 16 00:40  08 10 01.37    +18 45 13.0   405136 1.0038  94.4  m  16?  34.66 124.9    7 288   6  51
   2024 04 16 00:50  08 10 21.53    +18 41 55.3   405416 1.0038  94.4  m  16?  34.93 124.5    5 290   6  52
   2024 04 16 01:00  08 10 41.95    +18 38 38.4   405695 1.0038  94.5  m  16?  35.20 124.0    4 291   6  52
   2024 04 16 01:10  08 11 02.64    +18 35 22.4   405972 1.0038  94.6  m  16?  35.47 123.5    2 293   6  52
   2024 04 16 01:20  08 11 23.58    +18 32 07.4   406247 1.0038  94.7  m  16?  35.73 123.1    1 295   6  52
   ................
   2024 04 16 18:30  08 44 59.93    +14 28 57.6   409402 1.0043 102.8 Cm  16?  20.42 132.2   60 174   8  59
   2024 04 16 18:40  08 45 10.35    +14 26 40.1   409471 1.0043 102.8 Ce  16?  20.46 132.4   60 178   8  59
   2024 04 16 18:50  08 45 20.75    +14 24 21.8   409548 1.0044 102.9 Ct  16?  20.52 132.6   60 183   8  59
   2024 04 16 19:00  08 45 31.16    +14 22 02.6   409632 1.0044 102.9 Nm  16?  20.59 132.7   60 188   8  59
   2024 04 16 19:10  08 45 41.59    +14 19 42.6   409725 1.0044 102.9 Nm  16?  20.67 132.8   59 193   8  59
   2024 04 16 19:20  08 45 52.05    +14 17 21.8   409825 1.0044 103.0 Nm  16?  20.77 132.9   59 197   8  59
   2024 04 16 19:30  08 46 02.55    +14 15 00.2   409934 1.0044 103.0 Am  16?  20.87 132.9   58 202   8  59
   2024 04 16 19:40  08 46 13.10    +14 12 37.9   410050 1.0044 103.1 Am  16?  20.99 132.9   57 206   8  60
   2024 04 16 19:50  08 46 23.72    +14 10 14.7   410174 1.0044 103.1 Am  16?  21.12 132.9   56 210   8  60
   2024 04 16 20:00  08 46 34.41    +14 07 50.8   410305 1.0044 103.2 Am  16?  21.26 132.8   55 214   8  60
   2024 04 16 20:10  08 46 45.20    +14 05 26.2   410444 1.0044 103.2  m  16?  21.42 132.7   54 218   8  60
   2024 04 16 20:20  08 46 56.09    +14 03 00.9   410591 1.0044 103.3  m  16?  21.58 132.5   53 221   8  60
   2024 04 16 20:30  08 47 07.10    +14 00 34.9   410744 1.0044 103.3  m  16?  21.76 132.3   52 225   8  60
   2024 04 16 20:40  08 47 18.23    +13 58 08.3   410905 1.0044 103.4  m  16?  21.94 132.1   51 228   8  60
   2024 04 16 20:50  08 47 29.49    +13 55 41.1   411073 1.0044 103.4  m  16?  22.14 131.8   49 231   8  60
   2024 04 16 21:00  08 47 40.90    +13 53 13.2   411247 1.0044 103.5  m  16?  22.34 131.6   48 234   8  60
   2024 04 16 21:10  08 47 52.47    +13 50 44.9   411428 1.0044 103.5  m  16?  22.56 131.3   46 237   8  60
   2024 04 16 21:20  08 48 04.21    +13 48 15.9   411616 1.0044 103.5  m  16?  22.78 131.0   45 239   8  60
   2024 04 16 21:30  08 48 16.12    +13 45 46.6   411809 1.0044 103.6  m  16?  23.02 130.6   43 242   8  60
   2024 04 16 21:40  08 48 28.22    +13 43 16.7   412009 1.0044 103.7  m  16?  23.26 130.2   41 244   8  60
   2024 04 16 21:50  08 48 40.51    +13 40 46.4   412214 1.0044 103.7  m  16?  23.51 129.9   40 247   8  60
   2024 04 16 22:00  08 48 53.01    +13 38 15.8   412425 1.0045 103.8  m  16?  23.77 129.4   38 249   8  60
   2024 04 16 22:10  08 49 05.71    +13 35 44.8   412641 1.0045 103.8  m  16?  24.03 129.0   36 251   8  60
   2024 04 16 22:20  08 49 18.64    +13 33 13.5   412862 1.0045 103.9  m  16?  24.31 128.6   35 253   8  60
   2024 04 16 22:30  08 49 31.79    +13 30 41.9   413088 1.0045 103.9  m  16?  24.59 128.1   33 255   8  60
   2024 04 16 22:40  08 49 45.18    +13 28 10.1   413318 1.0045 104.0  m  16?  24.87 127.7   31 257   8  60
   2024 04 16 22:50  08 49 58.80    +13 25 38.2   413552 1.0045 104.0  m  16?  25.17 127.2   30 259   8  60
   2024 04 16 23:00  08 50 12.67    +13 23 06.0   413790 1.0045 104.1  m  16?  25.47 126.8   28 261   8  61
   2024 04 16 23:10  08 50 26.78    +13 20 33.8   414031 1.0045 104.1  m  16?  25.77 126.3   26 262   8  61
   2024 04 16 23:20  08 50 41.16    +13 18 01.5   414276 1.0045 104.2  m  16?  26.08 125.8   24 264   8  61
   2024 04 16 23:30  08 50 55.79    +13 15 29.2   414523 1.0045 104.3  m  16?  26.39 125.3   22 266   8  61
   2024 04 16 23:40  08 51 10.68    +13 12 56.8   414773 1.0045 104.3  m  16?  26.71 124.8   21 268   8  61
   2024 04 16 23:50  08 51 25.84    +13 10 24.6   415025 1.0045 104.4  m  16?  27.03 124.3   19 269   8  61
   2024 04 17 00:00  08 51 41.27    +13 07 52.4   415279 1.0045 104.5  m  16?  27.35 123.8   17 271   8  61
   2024 04 17 00:10  08 51 56.97    +13 05 20.4   415534 1.0045 104.5  m  16?  27.68 123.3   15 273   8  61
   2024 04 17 00:20  08 52 12.94    +13 02 48.5   415791 1.0045 104.6  m  16?  28.00 122.9   13 274   8  61
   2024 04 17 00:30  08 52 29.18    +13 00 16.9   416049 1.0045 104.7  m  16?  28.33 122.4   12 276   8  61
   2024 04 17 00:40  08 52 45.70    +12 57 45.5   416306 1.0045 104.7  m  16?  28.66 121.9   10 277   8  61
   2024 04 17 00:50  08 53 02.49    +12 55 14.5   416565 1.0045 104.8  m  16?  28.99 121.4    8 279   8  61
   2024 04 17 01:00  08 53 19.56    +12 52 43.7   416822 1.0045 104.9  m  16?  29.32 121.0    6 281   8  61
   2024 04 17 01:10  08 53 36.89    +12 50 13.3   417080 1.0046 104.9  m  16?  29.64 120.5    5 282   8  61
   2024 04 17 01:20  08 53 54.50    +12 47 43.4   417336 1.0046 105.0  m  16?  29.97 120.0    3 284   8  61
   2024 04 17 01:30  08 54 12.38    +12 45 13.8   417591 1.0046 105.1  m  16?  30.29 119.6    1 285   8  61
   2024 04 17 01:40  08 54 30.53    +12 42 44.8   417845 1.0046 105.2  m  16?  30.61 119.1    0 287   9  62
   ................
   2024 04 17 18:30  09 25 19.74    +09 27 23.8   417829 1.0051 112.6 Cm  16?  18.35 127.5   53 159   9  69
   2024 04 17 18:40  09 25 29.55    +09 25 31.8   417833 1.0051 112.7 Cm  16?  18.32 127.8   54 163   9  69
   2024 04 17 18:50  09 25 39.31    +09 23 39.3   417845 1.0051 112.7 Cm  16?  18.31 128.1   54 167   9  69
   2024 04 17 19:00  09 25 49.04    +09 21 46.3   417865 1.0051 112.8 Nm  16?  18.31 128.3   55 171   9  69
   2024 04 17 19:10  09 25 58.74    +09 19 52.7   417893 1.0051 112.8 Nm  16?  18.32 128.5   55 176   9  69
   2024 04 17 19:20  09 26 08.44    +09 17 58.5   417929 1.0051 112.8 Nt  16?  18.35 128.6   55 180   9  69
   2024 04 17 19:30  09 26 18.13    +09 16 03.8   417973 1.0051 112.9 Nm  16?  18.39 128.7   55 184   9  69
   2024 04 17 19:40  09 26 27.84    +09 14 08.6   418025 1.0051 112.9 Am  16?  18.45 128.8   54 188   9  69
   2024 04 17 19:50  09 26 37.57    +09 12 12.9   418086 1.0051 113.0 Am  16?  18.52 128.8   54 193   9  69
   2024 04 17 20:00  09 26 47.34    +09 10 16.6   418154 1.0051 113.0 Am  16?  18.60 128.8   54 197   9  69
   2024 04 17 20:10  09 26 57.16    +09 08 19.9   418230 1.0051 113.0 Am  16?  18.70 128.8   53 201  10  69
   2024 04 17 20:20  09 27 07.04    +09 06 22.7   418314 1.0051 113.1  m  16?  18.81 128.7   52 205  10  69
   2024 04 17 20:30  09 27 16.99    +09 04 25.0   418407 1.0051 113.1  m  16?  18.93 128.6   51 208  10  69
   2024 04 17 20:40  09 27 27.03    +09 02 26.8   418506 1.0051 113.2  m  16?  19.06 128.4   50 212  10  69
   2024 04 17 20:50  09 27 37.17    +09 00 28.3   418614 1.0052 113.2  m  16?  19.21 128.2   49 215  10  69
   2024 04 17 21:00  09 27 47.41    +08 58 29.3   418728 1.0052 113.3  m  16?  19.37 128.0   48 219  10  69
   2024 04 17 21:10  09 27 57.78    +08 56 29.8   418851 1.0052 113.3  m  16?  19.54 127.8   47 222  10  69
   2024 04 17 21:20  09 28 08.27    +08 54 30.1   418980 1.0052 113.3  m  16?  19.72 127.5   46 225  10  69
   2024 04 17 21:30  09 28 18.91    +08 52 29.9   419116 1.0052 113.4  m  16?  19.92 127.2   45 228  10  69
   2024 04 17 21:40  09 28 29.69    +08 50 29.4   419259 1.0052 113.4  m  16?  20.12 126.9   43 231  10  69
   2024 04 17 21:50  09 28 40.64    +08 48 28.6   419409 1.0052 113.5  m  16?  20.34 126.5   42 233  10  69
   2024 04 17 22:00  09 28 51.76    +08 46 27.4   419565 1.0052 113.5  m  16?  20.57 126.2   40 236  10  69
   2024 04 17 22:10  09 29 03.05    +08 44 26.0   419728 1.0052 113.6  m  16?  20.80 125.8   39 238  10  69
   2024 04 17 22:20  09 29 14.54    +08 42 24.4   419896 1.0052 113.6  m  16?  21.05 125.4   37 241  10  70
   2024 04 17 22:30  09 29 26.22    +08 40 22.5   420070 1.0052 113.7  m  16?  21.31 125.0   36 243  10  70
   2024 04 17 22:40  09 29 38.11    +08 38 20.4   420250 1.0052 113.7  m  16?  21.58 124.5   34 245  10  70
   2024 04 17 22:50  09 29 50.21    +08 36 18.1   420434 1.0052 113.8  m  16?  21.85 124.1   32 247  10  70
   2024 04 17 23:00  09 30 02.53    +08 34 15.7   420624 1.0052 113.8  m  16?  22.14 123.6   31 249  10  70
   2024 04 17 23:10  09 30 15.07    +08 32 13.1   420818 1.0052 113.9  m  16?  22.43 123.2   29 251  10  70
   2024 04 17 23:20  09 30 27.85    +08 30 10.5   421017 1.0052 113.9  m  16?  22.73 122.7   27 253  10  70
   2024 04 17 23:30  09 30 40.87    +08 28 07.7   421219 1.0052 114.0  m  16?  23.04 122.2   25 255  10  70
   2024 04 17 23:40  09 30 54.14    +08 26 04.9   421425 1.0052 114.0  m  16?  23.36 121.8   24 257  10  70
   2024 04 17 23:50  09 31 07.66    +08 24 02.1   421635 1.0052 114.1  m  16?  23.68 121.3   22 259  10  70
   2024 04 18 00:00  09 31 21.42    +08 21 59.3   421848 1.0052 114.1  m  16?  24.01 120.8   20 261  10  70
   2024 04 18 00:10  09 31 35.45    +08 19 56.5   422063 1.0053 114.2  m  16?  24.34 120.3   18 263   9  70
   2024 04 18 00:20  09 31 49.74    +08 17 53.8   422281 1.0053 114.3  m  16?  24.67 119.9   17 264   9  70
   2024 04 18 00:30  09 32 04.30    +08 15 51.1   422501 1.0053 114.3  m  16?  25.02 119.4   15 266   9  70
   2024 04 18 00:40  09 32 19.12    +08 13 48.5   422722 1.0053 114.4  m  16?  25.36 118.9   13 268   9  70
   2024 04 18 00:50  09 32 34.21    +08 11 46.1   422945 1.0053 114.4  m  16?  25.71 118.5   11 269   9  70
   2024 04 18 01:00  09 32 49.58    +08 09 43.8   423169 1.0053 114.5  m  16?  26.06 118.0   10 271   9  70
   2024 04 18 01:10  09 33 05.21    +08 07 41.7   423394 1.0053 114.6  m  16?  26.41 117.5    8 273   9  70
   2024 04 18 01:20  09 33 21.12    +08 05 39.8   423619 1.0053 114.6  m  16?  26.76 117.1    6 274   9  70
   2024 04 18 01:30  09 33 37.31    +08 03 38.2   423844 1.0053 114.7  m  16?  27.11 116.7    4 276   9  71
   2024 04 18 01:40  09 33 53.76    +08 01 36.8   424069 1.0053 114.8  m  16?  27.46 116.2    2 278   9  71
   2024 04 18 01:50  09 34 10.49    +07 59 35.6   424292 1.0053 114.8  m  16?  27.82 115.8    1 279   9  71
   ................
   2024 04 18 18:40  10 04 42.38    +05 11 09.6   421189 1.0058 122.2 Cm  17?  17.90 122.1   47 152  10  77
   2024 04 18 18:50  10 04 52.50    +05 09 34.5   421135 1.0058 122.3 Cm  17?  17.82 122.3   48 155  10  77
   2024 04 18 19:00  10 05 02.54    +05 07 59.1   421089 1.0058 122.3 Nm  17?  17.75 122.6   49 159  10  77
   2024 04 18 19:10  10 05 12.53    +05 06 23.5   421051 1.0058 122.4 Nm  17?  17.69 122.8   49 162  10  77
   2024 04 18 19:20  10 05 22.46    +05 04 47.6   421021 1.0058 122.4 Nm  17?  17.65 123.0   50 166  10  77
   2024 04 18 19:30  10 05 32.36    +05 03 11.5   420999 1.0058 122.4 Nm  17?  17.63 123.1   50 170  10  77
   2024 04 18 19:40  10 05 42.23    +05 01 35.1   420985 1.0058 122.5 Am  17?  17.62 123.2   50 174  10  77
   2024 04 18 19:50  10 05 52.09    +04 59 58.4   420979 1.0058 122.5 Am  17?  17.62 123.3   50 178  10  77
   2024 04 18 20:00  10 06 01.94    +04 58 21.5   420981 1.0058 122.6 At  17?  17.64 123.4   50 182  10  77
   2024 04 18 20:10  10 06 11.81    +04 56 44.4   420992 1.0058 122.6 Am  17?  17.67 123.4   50 185  10  77
   2024 04 18 20:20  10 06 21.70    +04 55 07.1   421010 1.0058 122.6  m  17?  17.72 123.4   50 189  10  77
   2024 04 18 20:30  10 06 31.62    +04 53 29.5   421037 1.0058 122.7  m  17?  17.78 123.3   50 193  10  77
   2024 04 18 20:40  10 06 41.59    +04 51 51.7   421072 1.0058 122.7  m  17?  17.86 123.2   49 197   9  78
   2024 04 18 20:50  10 06 51.62    +04 50 13.8   421115 1.0058 122.8  m  17?  17.95 123.1   48 200   9  78
   2024 04 18 21:00  10 07 01.72    +04 48 35.6   421166 1.0058 122.8  m  17?  18.06 123.0   48 204   9  78
   2024 04 18 21:10  10 07 11.90    +04 46 57.2   421224 1.0059 122.8  m  17?  18.18 122.8   47 207   9  78
   2024 04 18 21:20  10 07 22.17    +04 45 18.7   421291 1.0059 122.9  m  17?  18.31 122.6   46 211   9  78
   2024 04 18 21:30  10 07 32.55    +04 43 40.0   421365 1.0059 122.9  m  17?  18.46 122.4   45 214   9  78
   2024 04 18 21:40  10 07 43.04    +04 42 01.2   421446 1.0059 123.0  m  17?  18.62 122.1   44 217   9  78
   2024 04 18 21:50  10 07 53.66    +04 40 22.2   421535 1.0059 123.0  m  17?  18.80 121.8   43 220   9  78
   2024 04 18 22:00  10 08 04.42    +04 38 43.1   421631 1.0059 123.1  m  17?  18.99 121.5   42 223   9  78
   2024 04 18 22:10  10 08 15.33    +04 37 03.8   421734 1.0059 123.1  m  17?  19.19 121.2   40 226   9  78
   2024 04 18 22:20  10 08 26.39    +04 35 24.5   421844 1.0059 123.1  m  17?  19.40 120.8   39 229   9  78
   2024 04 18 22:30  10 08 37.62    +04 33 45.1   421960 1.0059 123.2  m  17?  19.63 120.5   38 231   9  78
   2024 04 18 22:40  10 08 49.02    +04 32 05.6   422082 1.0059 123.2  m  17?  19.87 120.1   36 234   9  78
   2024 04 18 22:50  10 09 00.61    +04 30 26.0   422211 1.0059 123.3  m  17?  20.12 119.7   35 236   9  78
   2024 04 18 23:00  10 09 12.40    +04 28 46.4   422346 1.0059 123.3  m  17?  20.38 119.3   33 238   9  78
   2024 04 18 23:10  10 09 24.39    +04 27 06.7   422486 1.0059 123.4  m  17?  20.65 118.9   32 241   9  78
   2024 04 18 23:20  10 09 36.59    +04 25 27.1   422632 1.0059 123.4  m  17?  20.93 118.5   30 243   9  78
   2024 04 18 23:30  10 09 49.01    +04 23 47.4   422782 1.0059 123.5  m  17?  21.22 118.0   28 245   9  78
   2024 04 18 23:40  10 10 01.65    +04 22 07.7   422938 1.0059 123.5  m  17?  21.53 117.6   27 247   9  78
   2024 04 18 23:50  10 10 14.52    +04 20 28.1   423098 1.0059 123.6  m  17?  21.84 117.2   25 249   9  78
   2024 04 19 00:00  10 10 27.63    +04 18 48.5   423262 1.0059 123.6  m  17?  22.16 116.7   23 251   9  78
   2024 04 19 00:10  10 10 40.99    +04 17 08.9   423430 1.0059 123.7  m  17?  22.49 116.3   22 253   9  78
   2024 04 19 00:20  10 10 54.60    +04 15 29.4   423602 1.0059 123.7  m  17?  22.82 115.9   20 255   9  78
   2024 04 19 00:30  10 11 08.46    +04 13 50.0   423777 1.0059 123.8  m  17?  23.16 115.4   18 257   9  78
   2024 04 19 00:40  10 11 22.57    +04 12 10.7   423955 1.0059 123.9  m  17?  23.51 115.0   17 258   9  78
   2024 04 19 00:50  10 11 36.95    +04 10 31.4   424135 1.0060 123.9  m  17?  23.87 114.6   15 260   9  79
   2024 04 19 01:00  10 11 51.60    +04 08 52.3   424318 1.0060 124.0  m  17?  24.23 114.1   13 262   9  79
   2024 04 19 01:10  10 12 06.51    +04 07 13.4   424503 1.0060 124.0  m  17?  24.59 113.7   11 264   9  79
   2024 04 19 01:20  10 12 21.70    +04 05 34.6   424689 1.0060 124.1  m  17?  24.96 113.3    9 265   9  79
   2024 04 19 01:30  10 12 37.15    +04 03 55.9   424877 1.0060 124.2  m  17?  25.33 112.9    8 267   9  79
   2024 04 19 01:40  10 12 52.89    +04 02 17.4   425065 1.0060 124.2  m  17?  25.70 112.5    6 269   9  79
   2024 04 19 01:50  10 13 08.89    +04 00 39.1   425254 1.0060 124.3  m  17?  26.08 112.1    4 270   9  79
   2024 04 19 02:00  10 13 25.18    +03 59 01.0   425443 1.0060 124.4  m  17?  26.45 111.8    2 272   9  79
   2024 04 19 02:10  10 13 41.74    +03 57 23.1   425632 1.0060 124.4  m  17?  26.83 111.4    1 274   9  79
   ................
   2024 04 19 18:40  10 45 02.67    +01 37 09.9   419458 1.0064 131.9 Cm  17?  18.99 114.6   41 142   8  85
   2024 04 19 18:50  10 45 14.13    +01 35 50.9   419340 1.0064 132.0 Cm  17?  18.83 114.8   42 145   8  85
   2024 04 19 19:00  10 45 25.47    +01 34 31.8   419229 1.0064 132.0 Nm  17?  18.69 115.0   43 148   8  85
   2024 04 19 19:10  10 45 36.73    +01 33 12.8   419125 1.0064 132.1 Nm  17?  18.57 115.2   43 151   8  85
   2024 04 19 19:20  10 45 47.89    +01 31 53.8   419029 1.0064 132.1 Nm  17?  18.46 115.3   44 154   8  85
   2024 04 19 19:30  10 45 58.99    +01 30 34.8   418941 1.0064 132.1 Nm  17?  18.37 115.5   45 158   8  85
   2024 04 19 19:40  10 46 10.01    +01 29 15.9   418861 1.0064 132.2 Am  17?  18.29 115.6   45 161   8  85
   2024 04 19 19:50  10 46 20.99    +01 27 56.9   418788 1.0065 132.2 Am  17?  18.22 115.7   46 164   8  85
   2024 04 19 20:00  10 46 31.93    +01 26 38.0   418724 1.0065 132.3 Am  17?  18.18 115.7   46 168   8  85
   2024 04 19 20:10  10 46 42.84    +01 25 19.2   418668 1.0065 132.3 Am  17?  18.15 115.7   47 172   8  85
   2024 04 19 20:20  10 46 53.73    +01 24 00.3   418620 1.0065 132.4  m  17?  18.13 115.8   47 175   8  85
   2024 04 19 20:30  10 47 04.62    +01 22 41.6   418580 1.0065 132.4  e  17?  18.13 115.7   47 179   8  85
   2024 04 19 20:40  10 47 15.52    +01 21 22.8   418548 1.0065 132.5  t  17?  18.15 115.7   47 182   8  85
   2024 04 19 20:50  10 47 26.44    +01 20 04.1   418524 1.0065 132.5  m  17?  18.18 115.6   47 186   8  85
   2024 04 19 21:00  10 47 37.39    +01 18 45.5   418509 1.0065 132.5  m  17?  18.23 115.5   46 190   8  85
   2024 04 19 21:10  10 47 48.38    +01 17 27.0   418502 1.0065 132.6  m  17?  18.30 115.4   46 193   8  85
   2024 04 19 21:20  10 47 59.44    +01 16 08.5   418503 1.0065 132.6  m  17?  18.38 115.3   45 197   8  85
   2024 04 19 21:30  10 48 10.55    +01 14 50.1   418511 1.0065 132.7  m  17?  18.48 115.1   45 200   8  85
   2024 04 19 21:40  10 48 21.75    +01 13 31.8   418528 1.0065 132.7  m  17?  18.59 114.9   44 203   8  85
   2024 04 19 21:50  10 48 33.05    +01 12 13.6   418553 1.0065 132.8  m  17?  18.72 114.7   43 207   8  85
   2024 04 19 22:00  10 48 44.44    +01 10 55.4   418585 1.0065 132.8  m  17?  18.86 114.4   42 210   8  85
   2024 04 19 22:10  10 48 55.95    +01 09 37.4   418625 1.0065 132.8  m  17?  19.02 114.2   42 213   8  85
   2024 04 19 22:20  10 49 07.58    +01 08 19.5   418672 1.0065 132.9  m  17?  19.20 113.9   40 216   8  85
   2024 04 19 22:30  10 49 19.35    +01 07 01.7   418726 1.0065 132.9  m  17?  19.39 113.6   39 219   8  85
   2024 04 19 22:40  10 49 31.27    +01 05 44.0   418788 1.0065 133.0  m  17?  19.59 113.3   38 222   8  85
   2024 04 19 22:50  10 49 43.34    +01 04 26.4   418857 1.0065 133.0  m  17?  19.81 113.0   37 224   8  85
   2024 04 19 23:00  10 49 55.58    +01 03 09.0   418932 1.0065 133.1  m  17?  20.04 112.7   36 227   8  85
   2024 04 19 23:10  10 50 08.00    +01 01 51.7   419014 1.0065 133.1  m  17?  20.29 112.4   34 229   8  85
   2024 04 19 23:20  10 50 20.60    +01 00 34.6   419102 1.0065 133.2  m  17?  20.55 112.0   33 232   8  85
   2024 04 19 23:30  10 50 33.40    +00 59 17.6   419196 1.0065 133.2  m  17?  20.82 111.7   32 234   8  85
   2024 04 19 23:40  10 50 46.40    +00 58 00.8   419296 1.0065 133.3  m  17?  21.10 111.3   30 237   8  85
   2024 04 19 23:50  10 50 59.62    +00 56 44.1   419401 1.0066 133.3  m  17?  21.40 111.0   29 239   8  85
   2024 04 20 00:00  10 51 13.05    +00 55 27.6   419512 1.0066 133.4  m  17?  21.71 110.6   27 241   8  86
   2024 04 20 00:10  10 51 26.71    +00 54 11.3   419628 1.0066 133.4  m  17?  22.03 110.2   25 243   8  86
   2024 04 20 00:20  10 51 40.61    +00 52 55.1   419749 1.0066 133.5  m  17?  22.36 109.9   24 245   8  86
   2024 04 20 00:30  10 51 54.75    +00 51 39.1   419874 1.0066 133.6  m  17?  22.69 109.5   22 247   8  86
   2024 04 20 00:40  10 52 09.13    +00 50 23.3   420003 1.0066 133.6  m  17?  23.04 109.2   20 249   8  86
   2024 04 20 00:50  10 52 23.77    +00 49 07.7   420136 1.0066 133.7  m  17?  23.40 108.8   19 251   8  86
   2024 04 20 01:00  10 52 38.67    +00 47 52.3   420272 1.0066 133.7  m  17?  23.76 108.5   17 253   8  86
   2024 04 20 01:10  10 52 53.83    +00 46 37.1   420412 1.0066 133.8  m  17?  24.14 108.1   15 255   8  86
   2024 04 20 01:20  10 53 09.26    +00 45 22.2   420554 1.0066 133.8  m  17?  24.51 107.8   14 256   8  86
   2024 04 20 01:30  10 53 24.96    +00 44 07.4   420699 1.0066 133.9  m  17?  24.90 107.4   12 258   8  86
   2024 04 20 01:40  10 53 40.93    +00 42 52.8   420847 1.0066 134.0  m  17?  25.29 107.1   10 260   8  86
   2024 04 20 01:50  10 53 57.18    +00 41 38.4   420996 1.0066 134.0  m  17?  25.68 106.8    8 262   8  86
   2024 04 20 02:00  10 54 13.72    +00 40 24.3   421146 1.0066 134.1  m  17?  26.08 106.5    7 263   8  86
   2024 04 20 02:10  10 54 30.53    +00 39 10.4   421298 1.0066 134.2  m  17?  26.48 106.2    5 265   8  86
   2024 04 20 02:20  10 54 47.63    +00 37 56.6   421450 1.0066 134.2  m  17?  26.89 105.9    3 267   8  86
   2024 04 20 02:30  10 55 05.02    +00 36 43.2   421603 1.0066 134.3  m  17?  27.29 105.6    1 268   8  86
   2024 04 20 02:40  10 55 22.68    +00 35 29.9   421756 1.0066 134.4  m  17?  27.70 105.3    0 270   8  86
   ................
   2024 04 20 18:40  11 29 15.89    -01 06 55.0   412929 1.0070 142.3 Cm  17?  22.53 104.1   33 132   6  91
   2024 04 20 18:50  11 29 30.39    -01 07 49.9   412749 1.0070 142.4 Cm  17?  22.32 104.2   34 135   6  91
   2024 04 20 19:00  11 29 44.75    -01 08 44.6   412576 1.0070 142.4 Nm  17?  22.12 104.2   36 138   6  91
   2024 04 20 19:10  11 29 58.99    -01 09 38.9   412409 1.0070 142.5 Nm  17?  21.94 104.3   37 140   6  91
   2024 04 20 19:20  11 30 13.11    -01 10 32.9   412250 1.0070 142.5 Nm  17?  21.77 104.3   38 143   6  91
   2024 04 20 19:30  11 30 27.13    -01 11 26.6   412097 1.0070 142.6 Nm  17?  21.62 104.3   39 146   6  91
   2024 04 20 19:40  11 30 41.05    -01 12 20.0   411952 1.0070 142.6 Am  17?  21.49 104.3   40 149   6  91
   2024 04 20 19:50  11 30 54.89    -01 13 13.0   411815 1.0070 142.7 Am  17?  21.37 104.3   41 152   6  91
   2024 04 20 20:00  11 31 08.67    -01 14 05.6   411685 1.0070 142.8 Am  17?  21.27 104.3   41 155   6  91
   2024 04 20 20:10  11 31 22.38    -01 14 57.9   411562 1.0070 142.8 Am  17?  21.18 104.2   42 158   6  91
   2024 04 20 20:20  11 31 36.05    -01 15 49.9   411448 1.0070 142.9  m  17?  21.11 104.2   43 161   6  91
   2024 04 20 20:30  11 31 49.68    -01 16 41.5   411342 1.0070 142.9  m  17?  21.06 104.1   43 165   6  91
   2024 04 20 20:40  11 32 03.29    -01 17 32.7   411243 1.0070 143.0  m  17?  21.03 104.0   44 168   6  91
   2024 04 20 20:50  11 32 16.89    -01 18 23.5   411153 1.0071 143.0  m  17?  21.01 103.9   44 171   6  91
   2024 04 20 21:00  11 32 30.49    -01 19 13.9   411071 1.0071 143.1  m  17?  21.01 103.8   44 175   6  91
   2024 04 20 21:10  11 32 44.11    -01 20 04.0   410996 1.0071 143.1  m  17?  21.03 103.7   44 178   6  91
   2024 04 20 21:20  11 32 57.75    -01 20 53.6   410930 1.0071 143.2  t  17?  21.07 103.5   44 182   6  91
   2024 04 20 21:30  11 33 11.43    -01 21 42.9   410873 1.0071 143.2  m  17?  21.13 103.4   44 185   6  91
   2024 04 20 21:40  11 33 25.16    -01 22 31.7   410823 1.0071 143.3  m  17?  21.20 103.2   44 189   6  91
   2024 04 20 21:50  11 33 38.95    -01 23 20.2   410781 1.0071 143.3  m  17?  21.29 103.1   43 192   6  91
   2024 04 20 22:00  11 33 52.82    -01 24 08.2   410747 1.0071 143.4  m  17?  21.40 102.9   43 195   6  91
   2024 04 20 22:10  11 34 06.78    -01 24 55.8   410722 1.0071 143.4  m  17?  21.53 102.7   42 199   6  91
   2024 04 20 22:20  11 34 20.83    -01 25 42.9   410704 1.0071 143.5  m  17?  21.67 102.5   42 202   6  91
   2024 04 20 22:30  11 34 35.00    -01 26 29.7   410694 1.0071 143.5  m  17?  21.84 102.3   41 205   6  91
   2024 04 20 22:40  11 34 49.29    -01 27 16.0   410692 1.0071 143.6  m  17?  22.02 102.0   40 208   6  91
   2024 04 20 22:50  11 35 03.72    -01 28 01.8   410697 1.0071 143.6  m  17?  22.21 101.8   39 211   6  91
   2024 04 20 23:00  11 35 18.29    -01 28 47.3   410710 1.0071 143.7  m  17?  22.43 101.6   38 214   5  91
   2024 04 20 23:10  11 35 33.02    -01 29 32.3   410730 1.0071 143.8  m  17?  22.66 101.4   37 217   5  91
   2024 04 20 23:20  11 35 47.93    -01 30 16.8   410757 1.0071 143.8  m  17?  22.91 101.1   36 219   5  91
   2024 04 20 23:30  11 36 03.01    -01 31 00.9   410791 1.0071 143.9  m  17?  23.17 100.9   35 222   5  91
   2024 04 20 23:40  11 36 18.28    -01 31 44.5   410831 1.0071 143.9  m  17?  23.45 100.6   34 225   5  91
   2024 04 20 23:50  11 36 33.75    -01 32 27.7   410878 1.0071 144.0  m  17?  23.75 100.4   32 227   5  91
   2024 04 21 00:00  11 36 49.43    -01 33 10.5   410932 1.0071 144.0  m  17?  24.06 100.1   31 230   5  91
   2024 04 21 00:10  11 37 05.33    -01 33 52.8   410992 1.0071 144.1  m  17?  24.38 100.0   30 232   5  91
   2024 04 21 00:20  11 37 21.46    -01 34 34.6   411057 1.0071 144.2  m  17?  24.72  99.7   28 234   5  91
   2024 04 21 00:30  11 37 37.83    -01 35 16.0   411128 1.0071 144.2  m  17?  25.07  99.5   27 236   5  92
   2024 04 21 00:40  11 37 54.45    -01 35 57.0   411205 1.0071 144.3  m  17?  25.43  99.2   25 239   5  92
   2024 04 21 00:50  11 38 11.32    -01 36 37.4   411286 1.0071 144.3  m  17?  25.81  99.0   24 241   5  92
   2024 04 21 01:00  11 38 28.45    -01 37 17.5   411372 1.0071 144.4  m  17?  26.19  98.8   22 243   5  92
   2024 04 21 01:10  11 38 45.85    -01 37 57.0   411463 1.0071 144.5  m  17?  26.59  98.5   21 245   5  92
   2024 04 21 01:20  11 39 03.53    -01 38 36.2   411558 1.0072 144.5  m  17?  27.00  98.3   19 247   5  92
   2024 04 21 01:30  11 39 21.49    -01 39 14.8   411657 1.0072 144.6  m  17?  27.41  98.1   17 249   5  92
   2024 04 21 01:40  11 39 39.74    -01 39 53.0   411759 1.0072 144.7  m  17?  27.84  97.8   16 250   5  92
   2024 04 21 01:50  11 39 58.28    -01 40 30.8   411865 1.0072 144.7  m  17?  28.28  97.6   14 252   5  92
   2024 04 21 02:00  11 40 17.12    -01 41 08.1   411974 1.0072 144.8  m  17?  28.72  97.4   12 254   5  92
   2024 04 21 02:10  11 40 36.27    -01 41 45.0   412085 1.0072 144.9  m  17?  29.17  97.2   11 256   5  92
   2024 04 21 02:20  11 40 55.72    -01 42 21.4   412199 1.0072 145.0  m  17?  29.62  97.0    9 258   5  92
   2024 04 21 02:30  11 41 15.48    -01 42 57.4   412314 1.0072 145.0  m  17?  30.08  96.8    7 259   5  92
   2024 04 21 02:40  11 41 35.56    -01 43 33.0   412431 1.0072 145.1  m  17?  30.55  96.7    6 261   5  92
   2024 04 21 02:50  11 41 55.96    -01 44 08.1   412550 1.0072 145.2  m  17?  31.02  96.5    4 263   5  92
   2024 04 21 03:00  11 42 16.67    -01 44 42.8   412669 1.0072 145.3 Am  17?  31.49  96.3    2 264   5  92
   2024 04 21 03:10  11 42 37.71    -01 45 17.0   412789 1.0072 145.4 Am  17?  31.96  96.1    0 266   5  92
   ................
   2024 04 21 18:40  12 29 50.24    -02 20 33.1   402589 1.0075 155.9 Cm  18?  71.56 108.6   24 120   1  95
   2024 04 21 18:50  12 30 35.49    -02 24 55.0   402390 1.0075 156.1 Cm  18?  73.78 113.6   25 122   0  95
   2024 04 21 19:00  12 31 19.98    -02 30 27.1   402210 1.0076 156.3 Nm  18?  75.04 119.3   27 124   0  95
   2024 04 21 19:10  12 32 02.34    -02 37 08.3   402053 1.0076 156.5 Nm  18?  74.97 125.2   28 126   0  95
   2024 04 21 19:20  12 32 41.39    -02 44 47.1   401918 1.0076 156.7 Nm  18?  73.61 130.8   29 129   1  95
   2024 04 21 19:30  12 33 16.55    -02 53 05.4   401804 1.0076 156.9 Nm  18?  71.35 135.8   30 131   1  95
   2024 04 21 19:40  12 33 47.84    -03 01 45.5   401708 1.0076 157.1 Am  18?  68.66 139.9   32 133   1  95
   2024 04 21 19:50  12 34 15.63    -03 10 33.9   401628 1.0076 157.2 Am  18?  65.90 143.4   33 136   1  95
   2024 04 21 20:00  12 34 40.45    -03 19 21.7   401562 1.0076 157.4 Am  18?  63.26 146.1   34 139   1  95
   2024 04 21 20:10  12 35 02.79    -03 28 04.0   401508 1.0076 157.5 Am  18?  60.82 148.4   35 141   1  95
   2024 04 21 20:20  12 35 23.07    -03 36 37.9   401464 1.0076 157.6  m  18?  58.61 150.3   36 144   1  95
   2024 04 21 20:30  12 35 41.67    -03 45 02.1   401431 1.0076 157.8  m  18?  56.62 151.8   36 147   1  96
   2024 04 21 20:40  12 35 58.84    -03 53 16.4   401407 1.0076 157.9  m  18?  54.83 153.1   37 150   1  96
   2024 04 21 20:50  12 36 14.84    -04 01 20.6   401393 1.0076 158.0  m  18?  53.22 154.2   38 153   1  96
   2024 04 21 21:00  12 36 29.83    -04 09 15.0   401387 1.0076 158.1  m  18?  51.76 155.1   39 156   1  96
   2024 04 21 21:10  12 36 43.97    -04 17 00.1   401391 1.0076 158.2  m  18?  50.44 155.9   39 159   1  96
   2024 04 21 21:20  12 36 57.38    -04 24 36.2   401404 1.0076 158.3  m  18?  49.24 156.5   40 162   1  96
   2024 04 21 21:30  12 37 10.17    -04 32 03.9   401425 1.0076 158.4  m  18?  48.14 157.1   40 165   1  96
   2024 04 21 21:40  12 37 22.42    -04 39 23.5   401456 1.0076 158.4  m  18?  47.12 157.5   40 168   1  96
   2024 04 21 21:50  12 37 34.20    -04 46 35.5   401495 1.0076 158.5  m  18?  46.19 157.9   40 172   1  96
   2024 04 21 22:00  12 37 45.58    -04 53 40.2   401543 1.0076 158.6  m  18?  45.33 158.3   40 175   2  96
   2024 04 21 22:10  12 37 56.61    -05 00 38.1   401599 1.0076 158.7  e  18?  44.53 158.5   40 178   2  96
   2024 04 21 22:20  12 38 07.35    -05 07 29.5   401665 1.0076 158.8  t  18?  43.79 158.7   40 181   2  96
   2024 04 21 22:30  12 38 17.84    -05 14 14.6   401739 1.0077 158.8  m  18?  43.10 158.9   40 184   2  96
   2024 04 21 22:40  12 38 28.11    -05 20 53.9   401821 1.0077 158.9  m  18?  42.45 158.9   40 188   2  96
   2024 04 21 22:50  12 38 38.21    -05 27 27.4   401912 1.0077 159.0  m  18?  41.85 159.0   39 191   2  96
   2024 04 21 23:00  12 38 48.16    -05 33 55.5   402012 1.0077 159.0  m  18?  41.28 159.0   39 194   2  96
   2024 04 21 23:10  12 38 58.00    -05 40 18.4   402120 1.0077 159.1  m  18?  40.75 158.9   38 197   2  96
   2024 04 21 23:20  12 39 07.75    -05 46 36.4   402236 1.0077 159.2  m  18?  40.25 158.8   38 200   2  96
   2024 04 21 23:30  12 39 17.45    -05 52 49.5   402361 1.0077 159.2  m  18?  39.79 158.7   37 203   2  96
   2024 04 21 23:40  12 39 27.11    -05 58 58.0   402493 1.0077 159.3  m  18?  39.35 158.5   36 206   2  96
   2024 04 21 23:50  12 39 36.75    -06 05 02.0   402634 1.0077 159.4  m  18?  38.94 158.2   35 209   2  96
   2024 04 22 00:00  12 39 46.41    -06 11 01.7   402782 1.0077 159.4  m  18?  38.56 158.0   34 211   2  96
   2024 04 22 00:10  12 39 56.09    -06 16 57.2   402938 1.0077 159.5  m  18?  38.20 157.7   33 214   2  96
   2024 04 22 00:20  12 40 05.82    -06 22 48.7   403101 1.0077 159.6  m  18?  37.86 157.3   32 217   2  96
   2024 04 22 00:30  12 40 15.61    -06 28 36.4   403271 1.0077 159.6  m  18?  37.55 157.0   31 219   2  96
   2024 04 22 00:40  12 40 25.49    -06 34 20.2   403449 1.0077 159.7  m  18?  37.26 156.5   29 222   2  96
   2024 04 22 00:50  12 40 35.47    -06 40 00.4   403633 1.0077 159.7  m  18?  36.99 156.1   28 224   2  96
   2024 04 22 01:00  12 40 45.56    -06 45 37.0   403824 1.0077 159.8  m  18?  36.74 155.6   27 226   2  96
   2024 04 22 01:10  12 40 55.78    -06 51 10.2   404021 1.0077 159.9  m  18?  36.52 155.1   25 229   2  96
   2024 04 22 01:20  12 41 06.14    -06 56 40.0   404224 1.0077 159.9  m  18?  36.31 154.6   24 231   3  96
   2024 04 22 01:30  12 41 16.66    -07 02 06.5   404433 1.0077 160.0  m  18?  36.12 154.0   22 233   3  96
   2024 04 22 01:40  12 41 27.34    -07 07 29.9   404647 1.0077 160.0  m  18?  35.96 153.4   21 235   3  96
   2024 04 22 01:50  12 41 38.21    -07 12 50.3   404867 1.0077 160.1  m  18?  35.81 152.8   19 237   3  96
   2024 04 22 02:00  12 41 49.26    -07 18 07.6   405092 1.0077 160.2  m  18?  35.68 152.2   18 239   3  96
   2024 04 22 02:10  12 42 00.51    -07 23 22.1   405321 1.0077 160.2  m  18?  35.57 151.6   16 241   3  96
   2024 04 22 02:20  12 42 11.96    -07 28 33.7   405555 1.0077 160.3  m  18?  35.47 150.9   15 243   3  96
   2024 04 22 02:30  12 42 23.64    -07 33 42.6   405793 1.0077 160.3  m  18?  35.40 150.3   13 245   3  96
   2024 04 22 02:40  12 42 35.54    -07 38 48.8   406034 1.0077 160.4  m  18?  35.34 149.6   11 246   3  96
   2024 04 22 02:50  12 42 47.67    -07 43 52.5   406279 1.0077 160.5  m  18?  35.30 148.9   10 248   3  96
   2024 04 22 03:00  12 43 00.04    -07 48 53.6   406526 1.0078 160.5 Am  18?  35.27 148.2    8 250   3  96
   2024 04 22 03:10  12 43 12.65    -07 53 52.3   406777 1.0078 160.6 Am  18?  35.26 147.5    6 252   3  96
   2024 04 22 03:20  12 43 25.52    -07 58 48.7   407030 1.0078 160.7 Am  18?  35.27 146.8    4 253   3  96
   2024 04 22 03:30  12 43 38.64    -08 03 42.7   407284 1.0078 160.7 Am  18?  35.29 146.0    3 255   3  96
   2024 04 22 03:40  12 43 52.01    -08 08 34.5   407541 1.0078 160.8 Nm  18?  35.32 145.3    1 257   3  96
   2024 04 22 03:50  12 44 05.65    -08 13 24.2   407798 1.0078 160.9 Nm  18?  35.37 144.6    0 258   3  96
   ................
   2024 04 22 18:40  13 10 30.66    -14 34 05.5   411505 1.0080 167.2 Cm  18?  29.46 145.7    9 121   6  98
   2024 04 22 18:50  13 10 41.94    -14 38 08.8   411393 1.0080 167.2 Cm  18?  29.18 146.2   10 122   6  98
   2024 04 22 19:00  13 10 52.97    -14 42 11.1   411286 1.0080 167.2 Cm  18?  28.91 146.7   12 124   6  98
   2024 04 22 19:10  13 11 03.77    -14 46 12.5   411183 1.0080 167.3 Nm  18?  28.64 147.2   13 126   6  98
   2024 04 22 19:20  13 11 14.33    -14 50 12.8   411085 1.0080 167.3 Nm  18?  28.37 147.6   14 128   6  98
   2024 04 22 19:30  13 11 24.68    -14 54 12.1   410992 1.0080 167.3 Nm  18?  28.11 148.0   16 130   6  98
   2024 04 22 19:40  13 11 34.81    -14 58 10.3   410905 1.0081 167.3 Am  18?  27.85 148.5   17 133   6  98
   2024 04 22 19:50  13 11 44.73    -15 02 07.3   410823 1.0081 167.4 Am  18?  27.59 148.9   18 135   6  98
   2024 04 22 20:00  13 11 54.45    -15 06 03.1   410746 1.0081 167.4 Am  18?  27.34 149.3   19 137   6  98
   2024 04 22 20:10  13 12 03.99    -15 09 57.7   410676 1.0081 167.4 Am  18?  27.10 149.6   21 139   6  98
   2024 04 22 20:20  13 12 13.34    -15 13 51.0   410612 1.0081 167.4  m  18?  26.86 149.9   22 141   6  98
   2024 04 22 20:30  13 12 22.53    -15 17 43.1   410555 1.0081 167.4  m  18?  26.62 150.2   23 144   6  98
   2024 04 22 20:40  13 12 31.55    -15 21 33.7   410504 1.0081 167.5  m  18?  26.39 150.5   24 146   6  98
   2024 04 22 20:50  13 12 40.43    -15 25 23.0   410460 1.0081 167.5  m  18?  26.17 150.8   24 149   6  98
   2024 04 22 21:00  13 12 49.18    -15 29 10.9   410423 1.0081 167.5  m  18?  25.95 151.0   25 151   6  98
   2024 04 22 21:10  13 12 57.79    -15 32 57.4   410394 1.0081 167.5  m  18?  25.74 151.2   26 154   6  98
   2024 04 22 21:20  13 13 06.29    -15 36 42.3   410371 1.0081 167.5  m  18?  25.53 151.3   27 156   6  98
   2024 04 22 21:30  13 13 14.69    -15 40 25.8   410356 1.0081 167.5  m  18?  25.33 151.5   27 159   6  98
   2024 04 22 21:40  13 13 23.00    -15 44 07.7   410349 1.0081 167.5  m  18?  25.13 151.6   28 161   6  98
   2024 04 22 21:50  13 13 31.22    -15 47 48.1   410350 1.0081 167.6  m  18?  24.94 151.6   28 164   6  98
   2024 04 22 22:00  13 13 39.39    -15 51 26.9   410358 1.0081 167.6  m  18?  24.76 151.6   29 167   6  98
   2024 04 22 22:10  13 13 47.50    -15 55 04.0   410374 1.0081 167.6  m  18?  24.58 151.6   29 169   6  98
   2024 04 22 22:20  13 13 55.56    -15 58 39.6   410398 1.0081 167.6  m  18?  24.41 151.5   29 172   6  98
   2024 04 22 22:30  13 14 03.60    -16 02 13.5   410430 1.0081 167.6  m  18?  24.25 151.4   29 175   7  99
   2024 04 22 22:40  13 14 11.63    -16 05 45.8   410469 1.0081 167.6  e  18?  24.10 151.2   29 178   7  99
   2024 04 22 22:50  13 14 19.65    -16 09 16.4   410517 1.0081 167.6  t  18?  23.95 151.0   29 180   7  99
   2024 04 22 23:00  13 14 27.68    -16 12 45.3   410573 1.0081 167.6  m  18?  23.82 150.8   29 183   7  99
   2024 04 22 23:10  13 14 35.74    -16 16 12.6   410637 1.0081 167.6  m  18?  23.69 150.5   29 186   7  99
   2024 04 22 23:20  13 14 43.83    -16 19 38.1   410708 1.0081 167.7  m  18?  23.57 150.2   29 189   7  99
   2024 04 22 23:30  13 14 51.98    -16 23 02.0   410788 1.0081 167.7  m  18?  23.46 149.8   28 191   7  99
   2024 04 22 23:40  13 15 00.18    -16 26 24.2   410875 1.0081 167.7  m  18?  23.36 149.4   28 194   7  99
   2024 04 22 23:50  13 15 08.46    -16 29 44.7   410970 1.0081 167.7  m  18?  23.28 149.0   27 196   7  99
   2024 04 23 00:00  13 15 16.83    -16 33 03.5   411072 1.0081 167.7  m  18?  23.20 148.5   27 199   7  99
   2024 04 23 00:10  13 15 25.29    -16 36 20.6   411183 1.0081 167.7  m  18?  23.14 147.9   26 202   7  99
   2024 04 23 00:20  13 15 33.87    -16 39 36.1   411300 1.0081 167.7  m  18?  23.09 147.4   25 204   7  99
   2024 04 23 00:30  13 15 42.58    -16 42 50.0   411425 1.0081 167.7  m  18?  23.05 146.8   24 207   7  99
   2024 04 23 00:40  13 15 51.42    -16 46 02.2   411557 1.0081 167.7  m  18?  23.02 146.1   24 209   7  99
   2024 04 23 00:50  13 16 00.40    -16 49 12.7   411695 1.0081 167.7  m  18?  23.01 145.5   23 211   7  99
   2024 04 23 01:00  13 16 09.55    -16 52 21.7   411841 1.0081 167.8  m  18?  23.01 144.8   22 214   7  99
   2024 04 23 01:10  13 16 18.86    -16 55 29.1   411993 1.0081 167.8  m  18?  23.03 144.0   20 216   7  99
   2024 04 23 01:20  13 16 28.36    -16 58 35.0   412151 1.0081 167.8  m  18?  23.06 143.3   19 218   7  99
   2024 04 23 01:30  13 16 38.04    -17 01 39.3   412316 1.0081 167.8  m  18?  23.11 142.5   18 220   7  99
   2024 04 23 01:40  13 16 47.93    -17 04 42.2   412486 1.0081 167.8  m  18?  23.17 141.7   17 222   7  99
   2024 04 23 01:50  13 16 58.03    -17 07 43.6   412662 1.0081 167.8  m  18?  23.25 140.9   16 224   7  99
   2024 04 23 02:00  13 17 08.34    -17 10 43.6   412844 1.0081 167.8  m  18?  23.34 140.1   14 226   7  99
   2024 04 23 02:10  13 17 18.88    -17 13 42.1   413030 1.0082 167.9  m  18?  23.45 139.3   13 228   7  99
   2024 04 23 02:20  13 17 29.66    -17 16 39.4   413222 1.0082 167.9  m  18?  23.57 138.4   12 230   7  99
   2024 04 23 02:30  13 17 40.69    -17 19 35.3   413418 1.0082 167.9  m  18?  23.71 137.6   10 232   7  99
   2024 04 23 02:40  13 17 51.96    -17 22 30.0   413619 1.0082 167.9  m  18?  23.86 136.7    9 234   7  99
   2024 04 23 02:50  13 18 03.49    -17 25 23.4   413823 1.0082 167.9  m  18?  24.03 135.9    7 236   7  99
   2024 04 23 03:00  13 18 15.29    -17 28 15.6   414031 1.0082 168.0 Am  18?  24.21 135.1    6 238   7  99
   2024 04 23 03:10  13 18 27.36    -17 31 06.8   414243 1.0082 168.0 Am  18?  24.41 134.2    4 239   7  99
   2024 04 23 03:20  13 18 39.70    -17 33 56.8   414458 1.0082 168.0 Am  18?  24.62 133.4    3 241   7  99
   2024 04 23 03:30  13 18 52.32    -17 36 45.8   414675 1.0082 168.0 Am  18?  24.84 132.6    1 243   7  99
   2024 04 23 03:40  13 19 05.23    -17 39 33.8   414895 1.0082 168.0 Nm  18?  25.08 131.8    0 245   7  99
   ................
   2024 04 23 18:50  13 47 53.04    -22 12 51.8   417544 1.0084 169.6 Cr  18?  27.25 136.5    0 121   8  99
   2024 04 23 19:00  13 48 06.40    -22 16 09.3   417403 1.0084 169.5 Cm  18?  26.94 136.9    1 123   8  99
   2024 04 23 19:10  13 48 19.50    -22 19 26.0   417264 1.0084 169.5 Nm  18?  26.63 137.4    2 125   8  99
   2024 04 23 19:20  13 48 32.34    -22 22 41.7   417130 1.0084 169.5 Nm  18?  26.32 137.8    4 127   8  99
   2024 04 23 19:30  13 48 44.94    -22 25 56.5   416999 1.0084 169.4 Nm  18?  26.01 138.2    5 128   8  99
   2024 04 23 19:40  13 48 57.29    -22 29 10.2   416872 1.0084 169.4 Am  18?  25.70 138.6    6 130   8  99
   2024 04 23 19:50  13 49 09.41    -22 32 22.8   416749 1.0084 169.4 Am  18?  25.40 139.0    8 132   9  99
   2024 04 23 20:00  13 49 21.30    -22 35 34.3   416632 1.0084 169.3 Am  18?  25.10 139.4    9 134   9  99
   2024 04 23 20:10  13 49 32.97    -22 38 44.4   416519 1.0084 169.3 Am  18?  24.81 139.7   10 136   9  99
   2024 04 23 20:20  13 49 44.43    -22 41 53.3   416411 1.0084 169.3 Am  18?  24.52 140.0   11 138   9  99
   2024 04 23 20:30  13 49 55.68    -22 45 00.9   416309 1.0084 169.3  m  18?  24.23 140.3   12 140   9  99
   2024 04 23 20:40  13 50 06.74    -22 48 07.0   416212 1.0084 169.2  m  18?  23.95 140.6   13 142   9  99
   2024 04 23 20:50  13 50 17.62    -22 51 11.7   416121 1.0084 169.2  m  18?  23.68 140.9   14 144   9  99
   2024 04 23 21:00  13 50 28.32    -22 54 14.8   416037 1.0084 169.2  m  18?  23.40 141.1   15 146   9  99
   2024 04 23 21:10  13 50 38.86    -22 57 16.4   415958 1.0084 169.1  m  18?  23.14 141.3   16 149   9  99
   2024 04 23 21:20  13 50 49.24    -23 00 16.3   415886 1.0084 169.1  m  18?  22.88 141.4   17 151   9  99
   2024 04 23 21:30  13 50 59.48    -23 03 14.6   415820 1.0084 169.1  m  18?  22.63 141.5   18 153   9  99
   2024 04 23 21:40  13 51 09.59    -23 06 11.2   415762 1.0084 169.0  m  18?  22.38 141.6   19 155   9  99
   2024 04 23 21:50  13 51 19.58    -23 09 06.1   415710 1.0084 169.0  m  18?  22.14 141.7   19 158   9  99
   2024 04 23 22:00  13 51 29.46    -23 11 59.1   415665 1.0084 169.0  m  18?  21.91 141.7   20 160   9  99
   2024 04 23 22:10  13 51 39.24    -23 14 50.4   415627 1.0084 168.9  m  18?  21.69 141.6   20 162   9  99
   2024 04 23 22:20  13 51 48.94    -23 17 39.7   415596 1.0084 168.9  m  18?  21.47 141.6   21 165   9  99
   2024 04 23 22:30  13 51 58.58    -23 20 27.2   415573 1.0084 168.9  m  18?  21.27 141.4   21 167   9  99
   2024 04 23 22:40  13 52 08.15    -23 23 12.8   415557 1.0084 168.8  m  18?  21.07 141.3   21 169   9  99
   2024 04 23 22:50  13 52 17.68    -23 25 56.5   415548 1.0084 168.8  m  18?  20.88 141.1   22 172   9  99
   2024 04 23 23:00  13 52 27.18    -23 28 38.2   415547 1.0084 168.8  m  18?  20.70 140.8   22 174   9  99
   2024 04 23 23:10  13 52 36.66    -23 31 18.0   415554 1.0084 168.7  m  18?  20.54 140.5   22 177   9  99
   2024 04 23 23:20  13 52 46.13    -23 33 55.7   415568 1.0084 168.7  e  18?  20.38 140.2   22 179   9  99
   2024 04 23 23:30  13 52 55.61    -23 36 31.5   415589 1.0084 168.7  t  18?  20.24 139.8   22 182   9  99
   2024 04 23 23:40  13 53 05.12    -23 39 05.3   415618 1.0084 168.7  m  18?  20.11 139.3   22 184   9  99
   2024 04 23 23:50  13 53 14.65    -23 41 37.1   415654 1.0084 168.6  m  18?  19.99 138.8   21 186   9  99
   2024 04 24 00:00  13 53 24.24    -23 44 06.8   415698 1.0084 168.6  m  18?  19.89 138.3   21 189   9  99
   2024 04 24 00:10  13 53 33.89    -23 46 34.6   415750 1.0084 168.6  m  18?  19.80 137.7   21 191   9  99
   2024 04 24 00:20  13 53 43.61    -23 49 00.4   415808 1.0084 168.5  m  18?  19.73 137.1   20 194   9  99
   2024 04 24 00:30  13 53 53.42    -23 51 24.2   415874 1.0084 168.5  m  18?  19.67 136.4   20 196   9  99
   2024 04 24 00:40  13 54 03.32    -23 53 46.1   415947 1.0084 168.5  m  18?  19.62 135.8   19 198   9  99
   2024 04 24 00:50  13 54 13.34    -23 56 06.0   416027 1.0084 168.5  m  18?  19.60 135.0   19 201   9  99
   2024 04 24 01:00  13 54 23.49    -23 58 23.9   416114 1.0084 168.4  m  18?  19.59 134.3   18 203   9  99
   2024 04 24 01:10  13 54 33.77    -24 00 40.0   416207 1.0084 168.4  m  18?  19.59 133.5   17 205   9  99
   2024 04 24 01:20  13 54 44.21    -24 02 54.2   416307 1.0084 168.4  m  18?  19.62 132.7   16 207   9  99
   2024 04 24 01:30  13 54 54.80    -24 05 06.6   416414 1.0084 168.4  m  18?  19.66 131.8   15 209   9  99
   2024 04 24 01:40  13 55 05.57    -24 07 17.1   416527 1.0084 168.3  m  18?  19.72 131.0   14 212   9  99
   2024 04 24 01:50  13 55 16.52    -24 09 25.9   416646 1.0084 168.3  m  18?  19.80 130.1   13 214   9  99
   2024 04 24 02:00  13 55 27.66    -24 11 32.9   416771 1.0084 168.3  m  18?  19.90 129.2   12 216   9  99
   2024 04 24 02:10  13 55 39.01    -24 13 38.2   416901 1.0084 168.3  m  18?  20.01 128.3   11 218   9  99
   2024 04 24 02:20  13 55 50.58    -24 15 41.9   417037 1.0085 168.2  m  18?  20.15 127.5   10 220   9  99
   2024 04 24 02:30  13 56 02.37    -24 17 44.0   417178 1.0085 168.2  m  18?  20.30 126.6    9 222   9  99
   2024 04 24 02:40  13 56 14.39    -24 19 44.5   417324 1.0085 168.2  m  18?  20.47 125.7    8 223   9  99
   2024 04 24 02:50  13 56 26.66    -24 21 43.5   417475 1.0085 168.2 Am  18?  20.65 124.8    6 225   9  99
   2024 04 24 03:00  13 56 39.17    -24 23 41.1   417630 1.0085 168.2 Am  18?  20.86 124.0    5 227   9  99
   2024 04 24 03:10  13 56 51.95    -24 25 37.3   417790 1.0085 168.1 Am  18?  21.08 123.1    4 229   9  99
   2024 04 24 03:20  13 57 04.99    -24 27 32.1   417953 1.0085 168.1 Am  18?  21.31 122.3    2 231   9  99
   2024 04 24 03:30  13 57 18.31    -24 29 25.7   418120 1.0085 168.1 Am  18?  21.56 121.5    1 232   9  99
   2024 04 24 03:40  13 57 31.90    -24 31 18.1   418291 1.0085 168.1 Nm  18?  21.83 120.7    0 234   9  99
   ................
   2024 04 24 20:00  14 31 18.44    -28 10 56.3   418124 1.0086 164.1 Ar  18?  25.13 129.0    0 130  10  99
   2024 04 24 20:10  14 31 33.06    -28 13 34.3   417968 1.0086 164.0 Am  18?  24.79 129.3    1 132  10  99
   2024 04 24 20:20  14 31 47.43    -28 16 11.0   417816 1.0086 164.0 Am  18?  24.45 129.5    2 134  10  99
   2024 04 24 20:30  14 32 01.56    -28 18 46.3   417668 1.0086 163.9  m  18?  24.12 129.7    3 136  10  99
   2024 04 24 20:40  14 32 15.46    -28 21 20.3   417525 1.0086 163.9  m  18?  23.79 130.0    4 137  10  99
   2024 04 24 20:50  14 32 29.13    -28 23 52.7   417386 1.0086 163.8  m  18?  23.46 130.1    5 139  10  99
   2024 04 24 21:00  14 32 42.59    -28 26 23.6   417253 1.0086 163.8  m  18?  23.14 130.3    6 141  10  99
   2024 04 24 21:10  14 32 55.83    -28 28 52.9   417124 1.0086 163.7  m  18?  22.82 130.4    7 143  10  99
   2024 04 24 21:20  14 33 08.88    -28 31 20.4   417000 1.0086 163.7  m  18?  22.51 130.5    8 145  10  99
   2024 04 24 21:30  14 33 21.74    -28 33 46.2   416883 1.0086 163.6  m  18?  22.20 130.6    9 147  10  99
   2024 04 24 21:40  14 33 34.43    -28 36 10.2   416770 1.0086 163.6  m  18?  21.91 130.6   10 149  10  99
   2024 04 24 21:50  14 33 46.94    -28 38 32.4   416664 1.0086 163.5  m  18?  21.62 130.6   11 151  10  99
   2024 04 24 22:00  14 33 59.30    -28 40 52.5   416564 1.0086 163.5  m  18?  21.33 130.6   12 153  10  99
   2024 04 24 22:10  14 34 11.51    -28 43 10.8   416470 1.0086 163.4  m  18?  21.06 130.5   13 155  10  98
   2024 04 24 22:20  14 34 23.59    -28 45 26.9   416382 1.0086 163.4  m  18?  20.79 130.4   13 157  10  98
   2024 04 24 22:30  14 34 35.55    -28 47 41.0   416301 1.0086 163.3  m  18?  20.54 130.2   14 159  10  98
   2024 04 24 22:40  14 34 47.40    -28 49 53.0   416226 1.0086 163.3  m  18?  20.29 130.0   14 162  10  98
   2024 04 24 22:50  14 34 59.16    -28 52 02.9   416159 1.0086 163.2  m  18?  20.06 129.8   15 164  10  98
   2024 04 24 23:00  14 35 10.83    -28 54 10.5   416098 1.0086 163.2  m  18?  19.84 129.5   15 166  10  98
   2024 04 24 23:10  14 35 22.43    -28 56 15.9   416043 1.0086 163.1  m  18?  19.63 129.1   16 168  10  98
   2024 04 24 23:20  14 35 33.98    -28 58 19.1   415996 1.0086 163.1  m  18?  19.43 128.8   16 170  10  98
   2024 04 24 23:30  14 35 45.48    -29 00 20.0   415956 1.0086 163.1  m  18?  19.24 128.3   16 173  10  98
   2024 04 24 23:40  14 35 56.95    -29 02 18.5   415923 1.0086 163.0  m  18?  19.07 127.9   16 175  10  98
   2024 04 24 23:50  14 36 08.40    -29 04 14.8   415897 1.0086 163.0  m  18?  18.92 127.3   16 177  10  98
   2024 04 25 00:00  14 36 19.86    -29 06 08.8   415878 1.0086 162.9  e  18?  18.78 126.8   16 179  10  98
   2024 04 25 00:10  14 36 31.32    -29 08 00.4   415866 1.0086 162.9  t  18?  18.66 126.2   16 182  10  98
   2024 04 25 00:20  14 36 42.81    -29 09 49.7   415861 1.0086 162.9  m  18?  18.55 125.5   16 184  10  98
   2024 04 25 00:30  14 36 54.34    -29 11 36.6   415863 1.0086 162.8  m  18?  18.46 124.8   16 186  10  98
   2024 04 25 00:40  14 37 05.92    -29 13 21.2   415873 1.0086 162.8  m  18?  18.39 124.1   16 188  10  98
   2024 04 25 00:50  14 37 17.57    -29 15 03.5   415889 1.0086 162.7  m  18?  18.33 123.3   15 190  10  98
   2024 04 25 01:00  14 37 29.30    -29 16 43.5   415912 1.0086 162.7  m  18?  18.30 122.5   15 193  10  98
   2024 04 25 01:10  14 37 41.12    -29 18 21.1   415942 1.0086 162.7  m  18?  18.29 121.7   15 195  10  98
   2024 04 25 01:20  14 37 53.05    -29 19 56.5   415979 1.0086 162.6  m  18?  18.29 120.9   14 197  10  98
   2024 04 25 01:30  14 38 05.10    -29 21 29.7   416022 1.0086 162.6  m  18?  18.32 120.0   13 199  10  98
   2024 04 25 01:40  14 38 17.28    -29 23 00.6   416072 1.0086 162.6  m  18?  18.36 119.1   13 201  10  98
   2024 04 25 01:50  14 38 29.61    -29 24 29.3   416128 1.0086 162.5  m  18?  18.43 118.2   12 203  10  98
   2024 04 25 02:00  14 38 42.10    -29 25 55.8   416190 1.0086 162.5  m  18?  18.51 117.3   11 205  10  98
   2024 04 25 02:10  14 38 54.75    -29 27 20.3   416259 1.0086 162.4  m  18?  18.62 116.5   10 207  10  98
   2024 04 25 02:20  14 39 07.59    -29 28 42.6   416333 1.0086 162.4  m  18?  18.75 115.6   10 209  10  98
   2024 04 25 02:30  14 39 20.62    -29 30 02.9   416413 1.0086 162.4  m  18?  18.89 114.7    9 211  10  98
   2024 04 25 02:40  14 39 33.86    -29 31 21.3   416499 1.0086 162.3  m  18?  19.06 113.8    8 213  10  98
   2024 04 25 02:50  14 39 47.32    -29 32 37.7   416590 1.0086 162.3 Am  18?  19.24 112.9    7 215  10  98
   2024 04 25 03:00  14 40 01.00    -29 33 52.2   416686 1.0086 162.3 Am  18?  19.45 112.1    6 217  10  98
   2024 04 25 03:10  14 40 14.92    -29 35 04.9   416787 1.0086 162.2 Am  18?  19.67 111.3    5 219  10  98
   2024 04 25 03:20  14 40 29.08    -29 36 15.8   416893 1.0086 162.2 Am  18?  19.91 110.5    3 220  10  98
   2024 04 25 03:30  14 40 43.50    -29 37 25.1   417003 1.0086 162.2 Nm  18?  20.17 109.7    2 222  10  98
   2024 04 25 03:40  14 40 58.18    -29 38 32.7   417118 1.0087 162.1 Nm  18?  20.44 108.9    1 224  10  98
   2024 04 25 03:50  14 41 13.13    -29 39 38.8   417237 1.0087 162.1 Nm  18?  20.73 108.2    0 226  10  98
   ................
   2024 04 25 21:10  15 21 03.78    -32 14 04.5   413700 1.0087 155.7  r  18?  23.92 117.8    0 137   9  96
   2024 04 25 21:20  15 21 20.30    -32 15 55.9   413526 1.0087 155.6  m  18?  23.56 117.8    0 139   9  96
   2024 04 25 21:30  15 21 36.59    -32 17 45.6   413357 1.0087 155.6  m  18?  23.21 117.8    1 140   9  96
   2024 04 25 21:40  15 21 52.64    -32 19 33.5   413192 1.0087 155.5  m  18?  22.87 117.7    3 142   9  96
   2024 04 25 21:50  15 22 08.48    -32 21 19.6   413033 1.0087 155.5  m  18?  22.54 117.6    4 144   9  96
   2024 04 25 22:00  15 22 24.11    -32 23 03.8   412878 1.0087 155.4  m  18?  22.21 117.5    4 146   9  96
   2024 04 25 22:10  15 22 39.54    -32 24 45.9   412728 1.0087 155.4  m  18?  21.89 117.3    5 148   9  96
   2024 04 25 22:20  15 22 54.77    -32 26 26.1   412583 1.0087 155.3  m  18?  21.58 117.1    6 150   9  96
   2024 04 25 22:30  15 23 09.83    -32 28 04.0   412444 1.0087 155.3  m  18?  21.28 116.9    7 151   9  96
   2024 04 25 22:40  15 23 24.72    -32 29 39.8   412311 1.0087 155.2  m  18?  21.00 116.6    8 153   9  95
   2024 04 25 22:50  15 23 39.46    -32 31 13.4   412183 1.0087 155.2  m  18?  20.72 116.3    9 155   9  95
   2024 04 25 23:00  15 23 54.05    -32 32 44.6   412062 1.0087 155.1  m  18?  20.46 116.0    9 157   9  95
   

Titan-3C RB (JPL-ID: -102770)

   Date (UTC) HH:MM   RA              Dec         delta   r     elong SM  mag  '/hr    PA   alt  az moo ill
   ---- -- -- -----  -------------   -----------  ------ ------ ----- --  --- ------ ------ --- --- --- ---
   2024 04 14 04:00  14 39 18.26    -20 24 52.3    13149 1.0031 160.0 N   10? 6120.5  70.1   11 225 128  33
   2024 04 14 04:10  15 41 27.48    -14 37 35.1    13875 1.0031 147.5 N   10? 5285.3  67.2   23 217 140  33
   2024 04 14 04:20  16 31 44.98    -09 20 06.9    15070 1.0031 135.2 N   10? 4357.1  66.1   31 209 147  33
   2024 04 14 04:30  17 12 03.04    -04 55 51.8    16574 1.0031 124.8 C   10? 3532.4  66.2   38 202 151  34
   2024 04 14 04:40  17 44 36.16    -01 24 42.8    18262 1.0031 116.3 C   10? 2869.7  66.8   43 196 152  34
   2024 04 14 04:50  18 11 17.62    +01 22 03.9    20050 1.0031 109.2 C   10? 2357.3  67.7   46 191 150  34
   ................
   2024 04 15 03:50  00 26 06.25    +11 15 33.1   119214 1.0025  16.7 N   15?  90.00  96.5    0  75  96  43
   2024 04 15 04:00  00 27 06.66    +11 13 50.3   118998 1.0025  16.4 N   15?  88.89  96.7    2  76  96  43
   2024 04 15 04:10  00 28 06.30    +11 12 06.1   118774 1.0025  16.2 N   15?  87.78  96.9    4  78  96  43
   2024 04 15 04:20  00 29 05.17    +11 10 20.4   118541 1.0025  16.0 N   15?  86.68  97.1    5  79  96  43
   2024 04 15 04:30  00 30 03.26    +11 08 33.1   118300 1.0025  15.7 C   15?  85.58  97.3    7  81  96  43
   2024 04 15 04:40  00 31 00.58    +11 06 44.0   118050 1.0025  15.5 C   15?  84.49  97.5    8  82  96  44
   ................
   2024 04 16 03:00  14 04 49.25    -25 16 02.0    12351 1.0037 163.5  r  10? 6742.7  71.9    9 219  98  53
   2024 04 16 03:10  15 16 52.88    -19 02 57.1    12834 1.0036 154.4 A   10? 5984.6  67.4   21 208 112  53
   2024 04 16 03:20  16 14 53.37    -12 56 17.3    13894 1.0036 141.3 A   10? 4956.8  65.3   31 198 123  53
   2024 04 16 03:30  17 00 34.84    -07 43 48.5    15346 1.0036 129.8 A   10? 3983.9  64.9   37 189 131  53
   2024 04 16 03:40  17 36 47.27    -03 34 03.1    17031 1.0036 120.3 A   10? 3192.8  65.4   42 181 137  53
   2024 04 16 03:50  18 05 58.53    -00 18 30.2    18841 1.0036 112.5 Nt  10? 2586.5  66.3   45 174 140  53
   2024 04 16 04:00  18 29 58.33    +02 14 40.8    20708 1.0036 106.2 N   10? 2128.7  67.4   47 169 143  53
   2024 04 16 04:10  18 50 04.48    +04 15 49.9    22591 1.0036 100.9 N   10? 1781.2  68.5   49 164 144  53
   2024 04 16 04:20  19 07 11.97    +05 52 52.6    24467 1.0036  96.4 N   10? 1514.0  69.7   50 161 145  53
   2024 04 16 04:30  19 22 00.09    +07 11 39.0    26321 1.0036  92.5 C   10? 1305.1  70.8   51 159 146  53
   2024 04 16 04:40  19 34 57.48    +08 16 24.1    28146 1.0036  89.2 C   10? 1139.1  71.8   52 157 146  53
   ................
   2024 04 17 03:40  00 30 21.28    +11 01 12.4   119121 1.0031  17.4 Ar  15?  91.41  97.0    0  74 120  62
   2024 04 17 03:50  00 31 22.57    +10 59 20.9   118872 1.0031  17.1 N   15?  90.37  97.1    1  75 119  63
   2024 04 17 04:00  00 32 23.13    +10 57 28.1   118613 1.0031  16.9 N   15?  89.32  97.3    2  77 119  63
   2024 04 17 04:10  00 33 22.95    +10 55 33.6   118345 1.0031  16.7 N   15?  88.28  97.5    4  78 119  63
   2024 04 17 04:20  00 34 22.04    +10 53 37.5   118069 1.0031  16.4 C   15?  87.24  97.7    5  80 119  63
   2024 04 17 04:30  00 35 20.40    +10 51 39.5   117784 1.0031  16.2 C   15?  86.21  97.9    7  81 119  63
   2024 04 17 04:40  00 36 18.02    +10 49 39.7   117491 1.0031  16.0 C   15?  85.18  98.2    9  83 119  63
   ................
   2024 04 18 02:00  13 21 01.15    -30 26 22.1    11819 1.0042 159.6  r  10? 7238.5  75.1    6 215  70  71
   2024 04 18 02:10  14 44 47.69    -24 15 13.7    11979 1.0042 160.4  m  10? 6727.6  68.3   18 202  83  71
   2024 04 18 02:20  15 52 41.78    -17 21 34.8    12841 1.0042 148.3  m  10? 5672.3  64.8   28 189  96  71
   2024 04 18 02:30  16 45 21.53    -11 11 52.7    14202 1.0042 135.7  t  10? 4544.8  63.6   34 177 106  71
   2024 04 18 02:40  17 26 13.51    -06 13 37.6    15865 1.0042 125.1  m  10? 3597.6  63.8   39 167 115  71
   2024 04 18 02:50  17 58 32.54    -02 21 36.1    17691 1.0042 116.5  m  10? 2872.8  64.7   41 159 121  71
   2024 04 18 03:00  18 24 41.87    +00 38 06.6    19591 1.0042 109.5     10? 2333.0  65.8   43 153 126  71
   2024 04 18 03:10  18 46 20.34    +02 58 34.9    21515 1.0042 103.7 A   10? 1930.0  67.1   44 148 130  71
   2024 04 18 03:20  19 04 35.75    +04 49 55.1    23431 1.0041  98.9 A   10? 1624.9  68.3   45 144 133  71
   2024 04 18 03:30  19 20 15.31    +06 19 29.0    25324 1.0041  94.8 A   10? 1389.8  69.5   46 141 136  71
   2024 04 18 03:40  19 33 52.65    +07 32 33.8    27184 1.0041  91.2 A   10? 1205.2  70.6   47 139 138  71
   2024 04 18 03:50  19 45 52.23    +08 32 57.9    29007 1.0041  88.1 N   10? 1057.7  71.7   47 138 140  71
   2024 04 18 04:00  19 56 32.29    +09 23 28.1    30790 1.0041  85.4 N   10? 937.92  72.7   48 137 141  72
   2024 04 18 04:10  20 06 06.65    +10 06 07.3    32532 1.0041  83.0 N   10? 839.23  73.6   49 137 142  72
   2024 04 18 04:20  20 14 46.03    +10 42 28.0    34234 1.0041  80.8 C   11? 756.87  74.4   49 137 143  72
   2024 04 18 04:30  20 22 38.84    +11 13 40.4    35898 1.0041  78.8 C   11? 687.32  75.2   50 137 144  72
   2024 04 18 04:40  20 29 51.81    +11 40 39.1    37523 1.0041  77.0 C   11? 627.99  76.0   51 138 145  72
   ................
   2024 04 19 03:40  00 35 42.46    +10 44 12.2   118608 1.0036  17.9 Nr  15?  92.05  97.6    0  74 142  79
   2024 04 19 03:50  00 36 44.06    +10 42 09.8   118315 1.0036  17.6 N   15?  91.07  97.8    1  76 142  80
   2024 04 19 04:00  00 37 44.98    +10 40 05.7   118013 1.0036  17.4 N   15?  90.09  98.0    3  77 142  80
   2024 04 19 04:10  00 38 45.19    +10 37 59.9   117702 1.0036  17.2 N   15?  89.11  98.2    4  79 142  80
   2024 04 19 04:20  00 39 44.72    +10 35 52.2   117382 1.0036  16.9 C   15?  88.14  98.4    6  81 142  80
   2024 04 19 04:30  00 40 43.56    +10 33 42.5   117054 1.0036  16.7 C   15?  87.17  98.6    7  82 142  80
   2024 04 19 04:40  00 41 41.70    +10 31 30.7   116718 1.0036  16.5 C   15?  86.22  98.9    9  84 142  80
   ................
   2024 04 20 01:00  12 23 59.07    -35 21 22.6    11648 1.0047 148.9  r  10? 7423.8  80.4    1 213  45  86
   2024 04 20 01:10  14 00 03.89    -30 10 32.0    11388 1.0047 161.2  m  10? 7394.7  71.0   13 198  54  86
   2024 04 20 01:20  15 20 45.60    -22 52 33.8    11941 1.0047 156.0  m  10? 6498.4  65.2   23 183  67  86
   2024 04 20 01:30  16 22 58.40    -15 40 49.0    13132 1.0047 143.1  t  10? 5260.8  62.7   29 169  79  86
   2024 04 20 01:40  17 10 14.93    -09 41 30.2    14729 1.0047 131.3  m  10? 4133.4  62.4   33 157  90  86
   2024 04 20 01:50  17 46 50.00    -05 01 32.8    16548 1.0047 121.6  m  10? 3256.0  63.1   36 148  98  86
   2024 04 20 02:00  18 15 54.66    -01 26 42.9    18473 1.0047 113.8  m  10? 2607.1  64.2   37 141 105  86
   2024 04 20 02:10  18 39 37.70    +01 19 11.7    20434 1.0047 107.4  m  10? 2129.9  65.6   38 135 110  86
   2024 04 20 02:20  18 59 24.90    +03 29 10.0    22393 1.0047 102.2  m  10? 1774.3  66.9   38 131 115  86
   2024 04 20 02:30  19 16 14.36    +05 12 39.0    24330 1.0047  97.7  m  10? 1504.3  68.2   39 128 119  86
   2024 04 20 02:40  19 30 46.43    +06 36 21.0    26231 1.0047  93.9  m  10? 1295.1  69.4   39 126 122  86
   2024 04 20 02:50  19 43 29.93    +07 45 02.0    28091 1.0047  90.6  m  10? 1129.8  70.5   40 124 125  86
   2024 04 20 03:00  19 54 45.94    +08 42 07.3    29908 1.0046  87.6 Am  10? 996.82  71.6   40 123 127  86
   2024 04 20 03:10  20 04 50.25    +09 30 06.9    31681 1.0046  85.1 Am  10? 888.15  72.5   41 122 129  86
   2024 04 20 03:20  20 13 54.94    +10 10 51.6    33411 1.0046  82.7 Am  10? 798.06  73.5   42 122 131  86
   2024 04 20 03:30  20 22 09.40    +10 45 45.3    35098 1.0046  80.6 Am  11? 722.42  74.3   42 122 133  86
   2024 04 20 03:40  20 29 41.07    +11 15 51.8    36744 1.0046  78.7 N   11? 658.21  75.1   43 122 134  86
   2024 04 20 03:50  20 36 35.92    +11 42 00.8    38350 1.0046  77.0 N   11? 603.13  75.8   44 123 136  86
   2024 04 20 04:00  20 42 58.81    +12 04 51.2    39918 1.0046  75.4 N   11? 555.48  76.6   45 123 137  87
   2024 04 20 04:10  20 48 53.73    +12 24 54.0    41451 1.0046  73.9 N   11? 513.91  77.2   46 124 138  87
   2024 04 20 04:20  20 54 24.02    +12 42 34.1    42948 1.0046  72.6 C   11? 477.40  77.9   47 125 139  87
   2024 04 20 04:30  20 59 32.46    +12 58 11.8    44414 1.0046  71.3 C   11? 445.11  78.5   48 127 140  87
   2024 04 20 04:40  21 04 21.42    +13 12 03.5    45847 1.0046  70.1 C   11? 416.40  79.1   48 128 141  87
   ................
   2024 04 21 03:40  00 41 10.22    +10 26 13.3   117865 1.0042  18.4 Nm  15?  93.11  98.2    0  75 164  92
   2024 04 21 03:50  00 42 12.41    +10 23 59.0   117530 1.0042  18.2 Nm  15?  92.20  98.4    1  76 164  92
   2024 04 21 04:00  00 43 13.96    +10 21 42.9   117185 1.0042  17.9 N   15?  91.29  98.6    3  78 164  92
   2024 04 21 04:10  00 44 14.85    +10 19 24.9   116831 1.0042  17.7 N   15?  90.38  98.8    4  80 164  92
   2024 04 21 04:20  00 45 15.10    +10 17 04.7   116468 1.0042  17.5 C   15?  89.48  99.1    6  81 164  92
   2024 04 21 04:30  00 46 14.70    +10 14 42.4   116097 1.0042  17.2 C   15?  88.59  99.3    7  83 164  92
   ................
   2024 04 22 00:10  13 01 27.36    -35 56 00.8    11170 1.0052 152.8  r  10? 7736.4  76.1    7 198  32  96
   2024 04 22 00:20  14 36 38.42    -29 13 04.8    11304 1.0052 160.8  m  10? 7285.1  67.2   16 181  37  96
   2024 04 22 00:30  15 51 24.92    -21 14 39.7    12217 1.0052 151.7  t  10? 6098.1  62.6   23 165  50  96
   2024 04 22 00:40  16 47 23.08    -14 06 37.4    13674 1.0052 139.1  m  10? 4811.7  61.2   27 151  62  96
   2024 04 22 00:50  17 29 43.92    -08 26 41.6    15446 1.0052 128.2  m  10? 3754.6  61.5   29 140  72  96
   2024 04 22 01:00  18 02 42.91    -04 06 32.7    17373 1.0052 119.3  m  10? 2966.7  62.6   30 132  81  96
   2024 04 22 01:10  18 29 11.17    -00 47 39.0    19363 1.0052 112.2  m  10? 2392.3  64.0   30 126  87  96
   2024 04 22 01:20  18 50 59.63    +01 46 22.0    21362 1.0052 106.3  m  10? 1970.4  65.4   30 121  93  96
   2024 04 22 01:30  19 09 21.32    +03 47 39.5    23341 1.0052 101.4  m  10? 1654.7  66.8   31 118  98  96
   2024 04 22 01:40  19 25 05.73    +05 24 49.3    25286 1.0052  97.2  m  10? 1413.2  68.1   31 115 102  96
   2024 04 22 01:50  19 38 47.45    +06 43 54.2    27189 1.0052  93.6  m  10? 1224.7  69.3   32 114 105  96
   2024 04 22 02:00  19 50 51.34    +07 49 11.2    29045 1.0052  90.4  m  10? 1074.6  70.5   32 112 108  96
   2024 04 22 02:10  20 01 35.76    +08 43 45.5    30855 1.0052  87.7  m  10? 953.06  71.5   33 111 111  96
   2024 04 22 02:20  20 11 14.56    +09 29 52.9    32617 1.0052  85.2  m  10? 853.02  72.5   33 111 113  96
   2024 04 22 02:30  20 19 58.43    +10 09 14.3    34334 1.0052  82.9  m  10? 769.57  73.4   34 111 115  96
   2024 04 22 02:40  20 27 55.73    +10 43 06.4    36006 1.0052  80.9  m  11? 699.11  74.2   35 111 117  96
   2024 04 22 02:50  20 35 13.13    +11 12 27.9    37636 1.0051  79.1  m  11? 638.96  75.0   35 111 119  96
   2024 04 22 03:00  20 41 56.02    +11 38 04.6    39225 1.0051  77.4 Am  11? 587.12  75.7   36 111 120  96
   2024 04 22 03:10  20 48 08.80    +12 00 32.7    40775 1.0051  75.8 Am  11? 542.05  76.4   37 112 122  96
   2024 04 22 03:20  20 53 55.11    +12 20 21.2    42288 1.0051  74.4 Am  11? 502.57  77.1   38 112 123  96
   2024 04 22 03:30  20 59 18.01    +12 37 53.2    43766 1.0051  73.1 Am  11? 467.74  77.7   39 113 124  96
   2024 04 22 03:40  21 04 20.06    +12 53 27.8    45209 1.0051  71.8 Nm  11? 436.82  78.3   40 114 125  96
   2024 04 22 03:50  21 09 03.45    +13 07 20.6    46621 1.0051  70.6 Nm  12? 409.21  78.8   41 115 127  96
   2024 04 22 04:00  21 13 30.05    +13 19 44.6    48003 1.0051  69.6 Nm  12? 384.45  79.4   42 116 128  96
   2024 04 22 04:10  21 17 41.48    +13 30 50.5    49355 1.0051  68.5 N   12? 362.12  79.9   43 118 129  96
   2024 04 22 04:20  21 21 39.14    +13 40 47.4    50680 1.0051  67.6 C   12? 341.91  80.4   44 119 129  96
   2024 04 22 04:30  21 25 24.28    +13 49 43.2    51978 1.0051  66.6 C   12? 323.55  80.9   46 121 130  96
   ................
   2024 04 23 03:40  00 46 45.29    +10 07 20.5   116883 1.0047  19.0 Nm  15?  94.68  98.9    0  75 170  99
   2024 04 23 03:50  00 47 48.41    +10 04 53.7   116504 1.0047  18.7 Nm  15?  93.85  99.1    1  77 170  99
   2024 04 23 04:00  00 48 50.92    +10 02 24.9   116116 1.0047  18.5 Nm  15?  93.01  99.3    3  79 171  99
   2024 04 23 04:10  00 49 52.82    +09 59 53.8   115718 1.0047  18.3 Cm  15?  92.18  99.5    4  80 171  99
   2024 04 23 04:20  00 50 54.13    +09 57 20.4   115312 1.0047  18.0 Cm  15?  91.36  99.8    6  82 171  99
   2024 04 23 04:30  00 51 54.84    +09 54 44.5   114898 1.0047  17.8 C   15?  90.55 100.0    8  83 171  99
   ................
   2024 04 23 23:10  11 55 20.52    -40 10 30.2    11344 1.0058 140.2  r   9? 7601.1  83.2    2 199  37  99
   2024 04 23 23:20  13 42 13.73    -35 19 20.0    11026 1.0058 156.8  m  10? 7769.6  71.3   10 181  20  99
   2024 04 23 23:30  15 11 15.37    -27 22 49.6    11575 1.0058 159.0  t  10? 6893.2  63.7   16 163  19  99
   2024 04 23 23:40  16 18 00.17    -19 16 24.0    12813 1.0058 147.8  m  10? 5563.6  60.7   20 148  32  99
   2024 04 23 23:50  17 07 33.82    -12 31 16.5    14484 1.0058 135.9  m  10? 4341.0  60.3   22 135  44  99
   2024 04 24 00:00  17 45 23.53    -07 18 04.5    16383 1.0058 126.0  m  10? 3398.3  61.1   22 126  54  99
   2024 04 24 00:10  18 15 14.77    -03 19 40.7    18383 1.0058 117.9  m  10? 2709.3  62.5   22 119  62  99
   2024 04 24 00:20  18 39 31.17    -00 16 45.0    20412 1.0058 111.3  m  10? 2207.5  64.0   22 114  69  99
   2024 04 24 00:30  18 59 44.94    +02 05 53.3    22430 1.0058 105.8  m  10? 1836.4  65.5   23 110  74  99
   2024 04 24 00:40  19 16 57.10    +03 59 05.9    24417 1.0057 101.2  m  10? 1556.0  66.9   23 107  79  99
   2024 04 24 00:50  19 31 49.42    +05 30 29.1    26362 1.0057  97.3  m  10? 1339.4  68.2   23 105  83  99
   2024 04 24 01:00  19 44 51.43    +06 45 23.9    28259 1.0057  93.8  m  10? 1168.7  69.4   23 104  86  99
   2024 04 24 01:10  19 56 24.63    +07 47 39.0    30107 1.0057  90.8  m  10? 1031.7  70.5   24 103  89  99
   2024 04 24 01:20  20 06 45.04    +08 40 00.3    31905 1.0057  88.1  m  10? 919.71  71.6   24 102  92  99
   2024 04 24 01:30  20 16 04.89    +09 24 30.0    33655 1.0057  85.7  m  10? 826.93  72.5   25 101  94  99
   2024 04 24 01:40  20 24 33.67    +10 02 40.0    35358 1.0057  83.5  m  11? 749.04  73.4   26 101  96  99
   2024 04 24 01:50  20 32 18.89    +10 35 40.2    37016 1.0057  81.6  m  11? 682.87  74.2   27 101  98  99
   2024 04 24 02:00  20 39 26.58    +11 04 24.6    38630 1.0057  79.8  m  11? 626.09  75.0   27 101 100  99
   2024 04 24 02:10  20 46 01.64    +11 29 35.8    40203 1.0057  78.1  m  11? 576.91  75.7   28 102 102  99
   2024 04 24 02:20  20 52 08.09    +11 51 47.2    41736 1.0057  76.6  m  11? 533.95  76.3   29 102 103  99
   2024 04 24 02:30  20 57 49.29    +12 11 26.0    43231 1.0057  75.2  m  11? 496.16  77.0   30 103 105  99
   2024 04 24 02:40  21 03 08.05    +12 28 53.9    44690 1.0056  73.8  m  11? 462.69  77.6   31 103 106  99
   2024 04 24 02:50  21 08 06.76    +12 44 28.9    46115 1.0056  72.6 Am  11? 432.86  78.1   32 104 107  99
   2024 04 24 03:00  21 12 47.45    +12 58 25.8    47507 1.0056  71.4 Am  12? 406.14  78.6   33 105 108  99
   2024 04 24 03:10  21 17 11.88    +13 10 56.8    48868 1.0056  70.3 Am  12? 382.07  79.2   35 106 109  99
   2024 04 24 03:20  21 21 21.56    +13 22 12.3    50199 1.0056  69.3 Am  12? 360.31  79.7   36 107 110  99
   2024 04 24 03:30  21 25 17.81    +13 32 20.9    51502 1.0056  68.4 Am  12? 340.54  80.1   37 108 111  99
   2024 04 24 03:40  21 29 01.80    +13 41 30.0    52778 1.0056  67.4 Nm  12? 322.52  80.6   38 110 112  99
   2024 04 24 03:50  21 32 34.55    +13 49 45.9    54027 1.0056  66.6 Nm  12? 306.04  81.1   39 111 113  99
   2024 04 24 04:00  21 35 56.97    +13 57 13.9    55253 1.0056  65.8 Nm  12? 290.91  81.5   40 112 114  99
   2024 04 24 04:10  21 39 09.86    +14 03 58.7    56454 1.0056  65.0 Cm  12? 277.00  81.9   42 114 114  99
   2024 04 24 04:20  21 42 13.95    +14 10 04.5    57634 1.0056  64.2 Cm  12? 264.17  82.3   43 115 115  99
   2024 04 24 04:30  21 45 09.89    +14 15 34.6    58791 1.0056  63.5 Cm  12? 252.30  82.8   44 117 116  99
   ................
   2024 04 25 03:40  00 52 27.54    +09 47 37.1   115647 1.0053  19.5 Nm  15?  96.82  99.5    0  76 148  98
   2024 04 25 03:50  00 53 31.93    +09 44 57.1   115224 1.0053  19.3 Nm  15?  96.07  99.7    1  78 148  98
   2024 04 25 04:00  00 54 35.78    +09 42 14.6   114792 1.0053  19.1 Nm  15?  95.32  99.9    3  79 148  98
   2024 04 25 04:10  00 55 39.07    +09 39 29.7   114351 1.0053  18.8 Cm  15?  94.58 100.1    5  81 148  98
   2024 04 25 04:20  00 56 41.82    +09 36 42.1   113900 1.0053  18.6 Cm  15?  93.84 100.3    6  82 148  98
   2024 04 25 04:30  00 57 44.02    +09 33 51.7   113442 1.0053  18.4 Cm  15?  93.12 100.6    8  84 148  98
   ................
   2024 04 25 22:10  10 54 07.98    -42 19 08.0    11774 1.0063 128.2  r   9? 7141.5  90.3    0 200  61  96
   2024 04 25 22:20  12 45 19.33    -39 54 43.3    11090 1.0063 147.1  m   9? 7824.7  76.8    5 182  40  96
   2024 04 25 22:30  14 26 42.12    -33 01 23.4    11274 1.0063 160.2  t  10? 7428.8  66.3   10 163  18  96
   2024 04 25 22:40  15 44 46.79    -24 30 12.8    12249 1.0063 155.9  m  10? 6237.5  61.1   13 146   1  95
   2024 04 25 22:50  16 42 15.89    -16 49 33.4    13776 1.0063 144.1  m  10? 4927.9  59.6   14 132  15  95
   2024 04 25 23:00  17 25 25.98    -10 43 45.6    15616 1.0063 133.2  e  10? 3850.7  60.0   15 121  27  95
   2024 04 25 23:10  17 59 00.01    -06 04 04.7    17605 1.0063 124.2  m  10? 3048.1  61.2   14 114  37  95
   2024 04 25 23:20  18 25 58.28    -02 30 20.7    19650 1.0063 116.9  m  10? 2463.2  62.7   14 108  44  95
   2024 04 25 23:30  18 48 14.51    +00 15 10.6    21697 1.0063 110.8  m  10? 2033.2  64.3   14 104  51  95
   2024 04 25 23:40  19 07 02.55    +02 25 35.6    23720 1.0063 105.7  m  10? 1711.0  65.8   14 101  56  95
   2024 04 25 23:50  19 23 12.09    +04 10 09.3    25702 1.0063 101.4  m  10? 1464.3  67.2   14  98  60  95
   2024 04 26 00:00  19 37 17.78    +05 35 20.7    27637 1.0063  97.6  m  10? 1271.4  68.5   15  96  64  95
   2024 04 26 00:10  19 49 44.53    +06 45 45.8    29521 1.0063  94.3  m  10? 1117.6  69.7   15  95  67  95
   2024 04 26 00:20  20 00 50.72    +07 44 43.1    31355 1.0063  91.4  m  10? 992.75  70.8   15  94  70  95
   2024 04 26 00:30  20 10 50.26    +08 34 38.0    33138 1.0062  88.8  m  10? 889.92  71.8   16  93  72  95
   2024 04 26 00:40  20 19 53.89    +09 17 18.9    34872 1.0062  86.5  m  10? 804.03  72.7   17  93  75  95
   2024 04 26 00:50  20 28 10.01    +09 54 07.7    36559 1.0062  84.4  m  11? 731.39  73.6   17  93  77  95
   2024 04 26 01:00  20 35 45.35    +10 26 07.6    38200 1.0062  82.5  m  11? 669.30  74.3   18  93  78  95
   2024 04 26 01:10  20 42 45.35    +10 54 07.6    39797 1.0062  80.7  m  11? 615.71  75.1   19  93  80  95
   2024 04 26 01:20  20 49 14.45    +11 18 46.6    41353 1.0062  79.0  m  11? 569.05  75.8   20  93  82  95
   2024 04 26 01:30  20 55 16.35    +11 40 35.5    42869 1.0062  77.5  m  11? 528.11  76.4   21  94  83  95
   2024 04 26 01:40  21 00 54.12    +11 59 59.3    44346 1.0062  76.1  m  11? 491.93  77.0   22  94  84  95
   2024 04 26 01:50  21 06 10.36    +12 17 18.4    45788 1.0062  74.8  m  11? 459.75  77.6   23  95  86  95
   2024 04 26 02:00  21 11 07.28    +12 32 49.5    47194 1.0062  73.6  m  11? 430.97  78.1   24  96  87  95
   2024 04 26 02:10  21 15 46.79    +12 46 46.5    48568 1.0062  72.4  m  12? 405.09  78.6   25  97  88  95
   2024 04 26 02:20  21 20 10.53    +12 59 21.0    49910 1.0062  71.3  m  12? 381.70  79.1   26  97  89  95
   2024 04 26 02:30  21 24 19.91    +13 10 42.8    51221 1.0061  70.3  m  12? 360.48  79.5   28  98  90  95
   2024 04 26 02:40  21 28 16.18    +13 21 00.0    52504 1.0061  69.3  m  12? 341.14  80.0   29  99  91  95
   2024 04 26 02:50  21 32 00.44    +13 30 19.6    53759 1.0061  68.4 Am  12? 323.45  80.4   30 100  92  95
   2024 04 26 03:00  21 35 33.66    +13 38 47.8    54988 1.0061  67.6 Am  12? 307.23  80.8   31 102  92  95
   2024 04 26 03:10  21 38 56.70    +13 46 29.6    56191 1.0061  66.7 Am  12? 292.29  81.2   33 103  93  95
   2024 04 26 03:20  21 42 10.32    +13 53 29.5    57370 1.0061  66.0 Am  12? 278.51  81.6   34 104  94  95
   2024 04 26 03:30  21 45 15.22    +13 59 51.3    58526 1.0061  65.2 Nm  12? 265.75  82.0   35 105  95  95
   2024 04 26 03:40  21 48 12.01    +14 05 38.5    59660 1.0061  64.5 Nm  12? 253.92  82.4   36 107  95  95
   2024 04 26 03:50  21 51 01.25    +14 10 53.9    60772 1.0061  63.8 Nm  12? 242.93  82.8   38 108  96  95
   2024 04 26 04:00  21 53 43.46    +14 15 40.3    61865 1.0061  63.2 Nm  12? 232.69  83.2   39 110  96  95
   2024 04 26 04:10  21 56 19.10    +14 19 59.8    62938 1.0061  62.5 Cm  12? 223.14  83.6   40 111  97  95
   2024 04 26 04:20  21 58 48.58    +14 23 54.4    63992 1.0061  61.9 Cm  12? 214.22  83.9   42 113  97  95
   2024 04 26 04:30  22 01 12.31    +14 27 26.1    65028 1.0061  61.3 Cm  13? 205.88  84.3   43 115  98  95
   ................
   2024 04 27 03:40  00 58 16.12    +09 26 55.6   114153 1.0058  20.1 Nm  15?  99.54 100.0    0  77 123  90
   2024 04 27 03:50  00 59 22.16    +09 24 01.0   113685 1.0058  19.9 Nm  15?  98.88 100.2    2  78 124  90
   2024 04 27 04:00  01 00 27.71    +09 21 03.7   113207 1.0058  19.7 Nm  15?  98.23 100.5    3  80 124  90
   2024 04 27 04:10  01 01 32.77    +09 18 03.5   112720 1.0058  19.4 Cm  15?  97.58 100.7    5  81 124  90
   2024 04 27 04:20  01 02 37.34    +09 15 00.3   112224 1.0058  19.2 Cm  15?  96.95 101.0    6  83 124  90
   ................
   2024 04 27 21:10  10 06 09.81    -42 55 20.4    12278 1.0068 118.6  r   9? 6618.5  95.9    0 199  84  84
   2024 04 27 21:20  11 54 52.05    -42 35 07.6    11362 1.0068 137.5      9? 7587.2  82.2    3 182  66  84
   2024 04 27 21:30  13 43 32.68    -37 17 22.6    11261 1.0068 155.3  t  10? 7633.8  69.6    6 162  47  84
   2024 04 27 21:40  15 11 17.60    -29 01 12.3    11992 1.0068 161.1     10? 6707.0  62.3    7 144  30  84
   2024 04 27 21:50  16 16 15.50    -20 47 29.0    13364 1.0068 151.8  e  10? 5419.3  59.5    8 129  19  84
   2024 04 27 22:00  17 04 37.05    -13 59 09.3    15126 1.0068 140.5     10? 4261.5  59.4    7 117  16  84
   2024 04 27 22:10  17 41 50.23    -08 42 39.5    17088 1.0068 130.7     10? 3368.6  60.4    7 109  20  84
   2024 04 27 22:20  18 11 28.94    -04 40 18.0    19135 1.0068 122.6     10? 2710.6  61.9    6 103  25  84
   2024 04 27 22:30  18 35 47.34    -01 33 06.1    21200 1.0068 116.0     10? 2226.3  63.5    6  98  31  84
   2024 04 27 22:40  18 56 11.56    +00 53 46.0    23249 1.0068 110.4     10? 1864.6  65.0    6  94  35  84
   2024 04 27 22:50  19 13 38.95    +02 50 58.5    25261 1.0068 105.7  m  10? 1588.8  66.5    6  92  39  84
   2024 04 27 23:00  19 28 49.11    +04 26 02.8    27228 1.0068 101.7  m  10? 1374.3  67.8    6  89  43  84
   2024 04 27 23:10  19 42 10.29    +05 44 18.9    29144 1.0068  98.1  m  10? 1204.1  69.1    6  88  46  84
   2024 04 27 23:20  19 54 03.19    +06 49 36.5    31010 1.0068  95.0  m  10? 1066.6  70.2    7  87  48  84
   2024 04 27 23:30  20 04 43.36    +07 44 42.9    32823 1.0068  92.2  m  10? 953.84  71.3    7  86  51  84
   2024 04 27 23:40  20 14 22.76    +08 31 42.6    34587 1.0068  89.7  m  10? 860.01  72.2    8  86  53  84
   2024 04 27 23:50  20 23 10.72    +09 12 09.2    36302 1.0068  87.4  m  11? 780.95  73.1    8  85  55  84
   2024 04 28 00:00  20 31 14.65    +09 47 14.5    37969 1.0068  85.4  m  11? 713.60  73.9    9  85  57  83
   

Gaia (JPL-ID: -139479)

   Date (UTC) HH:MM   RA              Dec         delta   r     elong SM  mag  '/hr    PA   alt  az moo ill
   ---- -- -- -----  -------------   -----------  ------ ------ ----- --  --- ------ ------ --- --- --- ---
   2024 04 14 00:00  13 23 41.46    -02 18 30.6   0.0107 1.0136 172.7  m  21?   1.34 247.8   43 189 107  31
   2024 04 14 00:10  13 23 40.64    -02 18 35.7   0.0107 1.0136 172.7  m  21?   1.32 247.7   42 193 107  31
   2024 04 14 00:20  13 23 39.83    -02 18 40.7   0.0107 1.0136 172.7  m  21?   1.30 247.5   42 196 106  31
   2024 04 14 00:30  13 23 39.03    -02 18 45.6   0.0107 1.0136 172.7  m  21?   1.28 247.2   41 199 106  31
   2024 04 14 00:40  13 23 38.26    -02 18 50.5   0.0107 1.0136 172.7     21?   1.25 246.9   41 203 106  31
   2024 04 14 00:50  13 23 37.50    -02 18 55.4   0.0107 1.0136 172.7     21?   1.21 246.4   40 206 106  32
   2024 04 14 01:00  13 23 36.77    -02 19 00.2   0.0107 1.0136 172.7     21?   1.17 245.8   39 209 106  32
   2024 04 14 01:10  13 23 36.08    -02 19 04.9   0.0107 1.0136 172.7     21?   1.13 245.0   38 212 106  32
   2024 04 14 01:20  13 23 35.41    -02 19 09.7   0.0107 1.0136 172.7     21?   1.08 244.1   37 215 106  32
   2024 04 14 01:30  13 23 34.78    -02 19 14.4   0.0107 1.0136 172.7     21?   1.03 243.0   36 218 106  32
   2024 04 14 01:40  13 23 34.18    -02 19 19.0   0.0107 1.0136 172.7     21?   0.98 241.7   35 220 106  32
   2024 04 14 01:50  13 23 33.63    -02 19 23.6   0.0107 1.0136 172.7     21?   0.92 240.1   34 223 105  32
   2024 04 14 02:00  13 23 33.12    -02 19 28.2   0.0107 1.0137 172.7     21?   0.86 238.1   32 226 105  32
   2024 04 14 02:10  13 23 32.65    -02 19 32.7   0.0107 1.0137 172.7     21?   0.80 235.6   31 228 105  32
   2024 04 14 02:20  13 23 32.23    -02 19 37.2   0.0107 1.0137 172.7     21?   0.74 232.6   30 231 105  32
   2024 04 14 02:30  13 23 31.87    -02 19 41.7   0.0107 1.0137 172.7     21?   0.68 228.8   28 233 105  32
   2024 04 14 02:40  13 23 31.56    -02 19 46.1   0.0107 1.0137 172.7     21?   0.61 224.0   27 235 105  33
   2024 04 14 02:50  13 23 31.30    -02 19 50.5   0.0107 1.0137 172.7     21?   0.56 217.9   25 237 105  33
   2024 04 14 03:00  13 23 31.10    -02 19 54.8   0.0107 1.0137 172.7     21?   0.50 210.1   24 240 105  33
   2024 04 14 03:10  13 23 30.96    -02 19 59.2   0.0107 1.0137 172.7     21?   0.46 200.5   22 242 105  33
   2024 04 14 03:20  13 23 30.88    -02 20 03.5   0.0107 1.0137 172.7 A   21?   0.44 188.9   21 244 104  33
   2024 04 14 03:30  13 23 30.87    -02 20 07.8   0.0107 1.0137 172.7 A   21?   0.43 176.1   19 246 104  33
   2024 04 14 03:40  13 23 30.92    -02 20 12.0   0.0107 1.0137 172.7 A   21?   0.44 163.2   17 248 104  33
   2024 04 14 03:50  13 23 31.04    -02 20 16.3   0.0107 1.0137 172.7 N   21?   0.48 151.5   16 250 104  33
   2024 04 14 04:00  13 23 31.23    -02 20 20.5   0.0107 1.0137 172.7 N   21?   0.54 141.6   14 252 104  33
   2024 04 14 04:10  13 23 31.49    -02 20 24.7   0.0107 1.0137 172.7 N   21?   0.61 133.7   12 253 104  33
   2024 04 14 04:20  13 23 31.82    -02 20 28.9   0.0107 1.0137 172.7 N   21?   0.69 127.4   10 255 104  33
   2024 04 14 04:30  13 23 32.22    -02 20 33.1   0.0107 1.0137 172.6 C   21?   0.78 122.4    9 257 104  34
   2024 04 14 04:40  13 23 32.69    -02 20 37.2   0.0107 1.0137 172.6 C   21?   0.87 118.5    7 259 103  34
   2024 04 14 04:50  13 23 33.23    -02 20 41.4   0.0107 1.0137 172.6 C   21?   0.97 115.3    5 261 103  34
   ................
   2024 04 14 18:30  13 26 03.11    -02 28 01.1   0.0107 1.0138 172.6 Cm  21?   0.94 133.7    8 102  97  39
   2024 04 14 18:40  13 26 03.53    -02 28 07.6   0.0107 1.0138 172.6 Cm  21?   0.87 138.6   10 104  97  39
   2024 04 14 18:50  13 26 03.88    -02 28 14.1   0.0107 1.0138 172.6 Cm  21?   0.80 144.3   12 105  97  39
   2024 04 14 19:00  13 26 04.15    -02 28 20.6   0.0107 1.0138 172.6 Nm  21?   0.74 150.8   13 107  97  39
   2024 04 14 19:10  13 26 04.36    -02 28 27.0   0.0107 1.0138 172.6 Nm  21?   0.70 158.2   15 109  97  39
   2024 04 14 19:20  13 26 04.50    -02 28 33.5   0.0107 1.0138 172.6 Nm  21?   0.66 166.3   17 111  97  39
   2024 04 14 19:30  13 26 04.57    -02 28 39.9   0.0107 1.0139 172.6 Am  21?   0.64 174.9   19 113  97  39
   2024 04 14 19:40  13 26 04.57    -02 28 46.3   0.0107 1.0139 172.6 Am  21?   0.64 183.5   20 115  97  39
   2024 04 14 19:50  13 26 04.51    -02 28 52.7   0.0107 1.0139 172.6 Am  21?   0.65 191.8   22 117  96  40
   2024 04 14 20:00  13 26 04.39    -02 28 59.1   0.0107 1.0139 172.6 Am  21?   0.67 199.5   23 119  96  40
   2024 04 14 20:10  13 26 04.21    -02 29 05.4   0.0107 1.0139 172.6  m  21?   0.70 206.4   25 121  96  40
   2024 04 14 20:20  13 26 03.97    -02 29 11.7   0.0107 1.0139 172.6  m  21?   0.74 212.4   26 124  96  40
   2024 04 14 20:30  13 26 03.68    -02 29 17.9   0.0107 1.0139 172.6  m  21?   0.79 217.5   28 126  96  40
   2024 04 14 20:40  13 26 03.33    -02 29 24.2   0.0107 1.0139 172.6  m  21?   0.84 221.9   29 128  96  40
   2024 04 14 20:50  13 26 02.93    -02 29 30.4   0.0107 1.0139 172.6  m  21?   0.89 225.7   31 131  96  40
   2024 04 14 21:00  13 26 02.49    -02 29 36.5   0.0107 1.0139 172.6  m  21?   0.93 228.9   32 133  96  40
   2024 04 14 21:10  13 26 01.99    -02 29 42.6   0.0107 1.0139 172.6  m  21?   0.98 231.6   33 136  96  40
   2024 04 14 21:20  13 26 01.46    -02 29 48.7   0.0107 1.0139 172.5  m  21?   1.03 234.0   35 138  96  40
   2024 04 14 21:30  13 26 00.88    -02 29 54.7   0.0107 1.0139 172.5  m  21?   1.08 236.0   36 141  96  40
   2024 04 14 21:40  13 26 00.26    -02 30 00.7   0.0107 1.0139 172.5  m  21?   1.12 237.7   37 144  96  40
   2024 04 14 21:50  13 25 59.61    -02 30 06.7   0.0107 1.0139 172.5  m  21?   1.16 239.2   38 147  96  40
   2024 04 14 22:00  13 25 58.93    -02 30 12.6   0.0107 1.0139 172.5  m  21?   1.20 240.5   39 150  96  40
   2024 04 14 22:10  13 25 58.22    -02 30 18.4   0.0107 1.0139 172.5  m  21?   1.23 241.7   40 153  95  40
   2024 04 14 22:20  13 25 57.48    -02 30 24.2   0.0107 1.0139 172.5  m  21?   1.26 242.6   40 156  95  40
   2024 04 14 22:30  13 25 56.72    -02 30 30.0   0.0107 1.0139 172.5  m  21?   1.29 243.5   41 159  95  40
   2024 04 14 22:40  13 25 55.94    -02 30 35.7   0.0107 1.0139 172.5  m  21?   1.31 244.2   42 163  95  41
   2024 04 14 22:50  13 25 55.15    -02 30 41.4   0.0107 1.0139 172.5  m  21?   1.33 244.8   42 166  95  41
   2024 04 14 23:00  13 25 54.34    -02 30 47.0   0.0107 1.0139 172.5  m  21?   1.34 245.3   42 169  95  41
   2024 04 14 23:10  13 25 53.52    -02 30 52.5   0.0107 1.0139 172.5  m  21?   1.35 245.7   43 173  95  41
   2024 04 14 23:20  13 25 52.70    -02 30 58.0   0.0107 1.0139 172.5  m  21?   1.36 246.0   43 176  95  41
   2024 04 14 23:30  13 25 51.87    -02 31 03.5   0.0107 1.0139 172.5  t  21?   1.36 246.3   43 180  95  41
   2024 04 14 23:40  13 25 51.04    -02 31 08.9   0.0107 1.0139 172.5  m  21?   1.35 246.4   43 183  95  41
   2024 04 14 23:50  13 25 50.22    -02 31 14.3   0.0107 1.0139 172.5  m  21?   1.34 246.5   43 186  95  41
   2024 04 15 00:00  13 25 49.40    -02 31 19.6   0.0107 1.0139 172.5  m  21?   1.33 246.4   42 190  94  41
   2024 04 15 00:10  13 25 48.59    -02 31 24.8   0.0107 1.0139 172.5  m  21?   1.31 246.3   42 193  94  41
   2024 04 15 00:20  13 25 47.80    -02 31 30.1   0.0107 1.0139 172.5  m  21?   1.29 246.1   42 197  94  41
   2024 04 15 00:30  13 25 47.02    -02 31 35.2   0.0107 1.0139 172.5  m  21?   1.26 245.9   41 200  94  41
   2024 04 15 00:40  13 25 46.26    -02 31 40.3   0.0107 1.0139 172.5  m  21?   1.23 245.4   40 203  94  41
   2024 04 15 00:50  13 25 45.53    -02 31 45.4   0.0107 1.0139 172.5  m  21?   1.19 244.9   40 206  94  42
   2024 04 15 01:00  13 25 44.82    -02 31 50.4   0.0107 1.0139 172.5  m  21?   1.15 244.3   39 209  94  42
   2024 04 15 01:10  13 25 44.14    -02 31 55.4   0.0107 1.0139 172.5  m  21?   1.11 243.4   38 212  94  42
   2024 04 15 01:20  13 25 43.50    -02 32 00.3   0.0107 1.0139 172.5  m  21?   1.06 242.5   37 215  94  42
   2024 04 15 01:30  13 25 42.88    -02 32 05.2   0.0107 1.0139 172.5     21?   1.01 241.2   36 218  94  42
   2024 04 15 01:40  13 25 42.31    -02 32 10.0   0.0107 1.0139 172.5     21?   0.96 239.8   34 221  93  42
   2024 04 15 01:50  13 25 41.78    -02 32 14.8   0.0107 1.0139 172.5     21?   0.90 238.0   33 223  93  42
   2024 04 15 02:00  13 25 41.29    -02 32 19.5   0.0107 1.0139 172.5     21?   0.84 235.8   32 226  93  42
   2024 04 15 02:10  13 25 40.85    -02 32 24.3   0.0107 1.0139 172.5     21?   0.78 233.1   31 228  93  42
   2024 04 15 02:20  13 25 40.46    -02 32 28.9   0.0107 1.0139 172.4     21?   0.72 229.7   29 231  93  42
   2024 04 15 02:30  13 25 40.11    -02 32 33.6   0.0107 1.0139 172.4     21?   0.66 225.6   28 233  93  42
   2024 04 15 02:40  13 25 39.83    -02 32 38.2   0.0107 1.0139 172.4     21?   0.60 220.3   26 235  93  42
   2024 04 15 02:50  13 25 39.59    -02 32 42.7   0.0107 1.0139 172.4     21?   0.55 213.7   25 238  93  43
   2024 04 15 03:00  13 25 39.42    -02 32 47.3   0.0107 1.0139 172.4     21?   0.50 205.4   23 240  93  43
   2024 04 15 03:10  13 25 39.31    -02 32 51.8   0.0107 1.0139 172.4 A   21?   0.47 195.3   22 242  92  43
   2024 04 15 03:20  13 25 39.26    -02 32 56.2   0.0107 1.0139 172.4 A   21?   0.45 183.6   20 244  92  43
   2024 04 15 03:30  13 25 39.27    -02 33 00.7   0.0107 1.0139 172.4 A   21?   0.45 171.2   18 246  92  43
   2024 04 15 03:40  13 25 39.35    -02 33 05.1   0.0107 1.0139 172.4 A   21?   0.47 159.1   17 248  92  43
   2024 04 15 03:50  13 25 39.49    -02 33 09.5   0.0107 1.0139 172.4 N   21?   0.51 148.4   15 250  92  43
   2024 04 15 04:00  13 25 39.71    -02 33 13.9   0.0107 1.0139 172.4 N   21?   0.57 139.4   13 252  92  43
   2024 04 15 04:10  13 25 39.99    -02 33 18.2   0.0107 1.0139 172.4 N   21?   0.65 132.2   12 254  92  43
   2024 04 15 04:20  13 25 40.35    -02 33 22.6   0.0107 1.0140 172.4 N   21?   0.73 126.4   10 255  92  43
   2024 04 15 04:30  13 25 40.77    -02 33 26.9   0.0107 1.0140 172.4 C   21?   0.82 121.8    8 257  92  43
   2024 04 15 04:40  13 25 41.28    -02 33 31.2   0.0107 1.0140 172.4 C   21?   0.91 118.1    6 259  91  44
   ................
   2024 04 15 18:30  13 28 12.88    -02 41 16.0   0.0107 1.0141 172.4 Cm  21?   0.97 135.0    8 102  85  49
   2024 04 15 18:40  13 28 13.30    -02 41 22.9   0.0107 1.0141 172.4 Cm  21?   0.89 139.8   10 104  85  49
   2024 04 15 18:50  13 28 13.65    -02 41 29.7   0.0107 1.0141 172.4 Cm  21?   0.83 145.4   12 106  85  49
   2024 04 15 19:00  13 28 13.92    -02 41 36.5   0.0107 1.0141 172.4 Nm  21?   0.77 151.8   14 108  85  49
   2024 04 15 19:10  13 28 14.13    -02 41 43.3   0.0107 1.0141 172.4 Nm  21?   0.73 158.9   15 110  85  49
   2024 04 15 19:20  13 28 14.27    -02 41 50.1   0.0107 1.0141 172.4 Nm  21?   0.70 166.6   17 112  85  50
   2024 04 15 19:30  13 28 14.35    -02 41 56.9   0.0107 1.0141 172.4 Am  21?   0.68 174.7   19 114  85  50
   2024 04 15 19:40  13 28 14.36    -02 42 03.6   0.0107 1.0141 172.3 Am  21?   0.67 182.9   20 116  85  50
   2024 04 15 19:50  13 28 14.30    -02 42 10.3   0.0107 1.0141 172.3 Am  21?   0.68 190.8   22 118  84  50
   2024 04 15 20:00  13 28 14.18    -02 42 17.0   0.0107 1.0141 172.3 Am  21?   0.70 198.1   23 120  84  50
   2024 04 15 20:10  13 28 14.01    -02 42 23.6   0.0107 1.0141 172.3  m  21?   0.73 204.8   25 122  84  50
   2024 04 15 20:20  13 28 13.78    -02 42 30.2   0.0107 1.0141 172.3  m  21?   0.77 210.6   27 124  84  50
   2024 04 15 20:30  13 28 13.49    -02 42 36.8   0.0107 1.0141 172.3  m  21?   0.81 215.7   28 126  84  50
   2024 04 15 20:40  13 28 13.14    -02 42 43.3   0.0107 1.0141 172.3  m  21?   0.85 220.1   29 129  84  50
   2024 04 15 20:50  13 28 12.75    -02 42 49.8   0.0107 1.0141 172.3  m  21?   0.90 223.9   31 131  84  50
   2024 04 15 21:00  13 28 12.31    -02 42 56.3   0.0107 1.0141 172.3  m  21?   0.95 227.1   32 134  84  50
   2024 04 15 21:10  13 28 11.83    -02 43 02.7   0.0107 1.0141 172.3  m  21?   0.99 229.9   33 136  84  50
   2024 04 15 21:20  13 28 11.30    -02 43 09.0   0.0107 1.0141 172.3  m  21?   1.04 232.3   35 139  84  50
   2024 04 15 21:30  13 28 10.73    -02 43 15.3   0.0107 1.0141 172.3  m  21?   1.08 234.4   36 142  84  50
   2024 04 15 21:40  13 28 10.12    -02 43 21.6   0.0107 1.0141 172.3  m  21?   1.12 236.2   37 145  84  50
   2024 04 15 21:50  13 28 09.48    -02 43 27.8   0.0107 1.0141 172.3  m  21?   1.16 237.7   38 148  84  50
   2024 04 15 22:00  13 28 08.81    -02 43 34.0   0.0107 1.0142 172.3  m  21?   1.20 239.0   39 151  84  50
   2024 04 15 22:10  13 28 08.11    -02 43 40.1   0.0107 1.0142 172.3  m  21?   1.23 240.2   40 154  84  50
   2024 04 15 22:20  13 28 07.38    -02 43 46.2   0.0107 1.0142 172.3  m  21?   1.26 241.2   40 157  83  50
   2024 04 15 22:30  13 28 06.63    -02 43 52.2   0.0107 1.0142 172.3  m  21?   1.28 242.1   41 160  83  51
   2024 04 15 22:40  13 28 05.86    -02 43 58.2   0.0107 1.0142 172.3  m  21?   1.31 242.8   41 163  83  51
   2024 04 15 22:50  13 28 05.08    -02 44 04.1   0.0107 1.0142 172.3  m  21?   1.32 243.4   42 167  83  51
   2024 04 15 23:00  13 28 04.29    -02 44 10.0   0.0107 1.0142 172.3  m  21?   1.33 244.0   42 170  83  51
   2024 04 15 23:10  13 28 03.48    -02 44 15.8   0.0107 1.0142 172.3  m  21?   1.34 244.4   43 173  83  51
   2024 04 15 23:20  13 28 02.67    -02 44 21.5   0.0107 1.0142 172.3  m  21?   1.34 244.7   43 177  83  51
   2024 04 15 23:30  13 28 01.86    -02 44 27.2   0.0107 1.0142 172.3  t  21?   1.34 244.9   43 180  83  51
   2024 04 15 23:40  13 28 01.05    -02 44 32.9   0.0107 1.0142 172.3  m  21?   1.34 245.1   43 184  83  51
   2024 04 15 23:50  13 28 00.24    -02 44 38.5   0.0107 1.0142 172.3  m  21?   1.33 245.1   42 187  83  51
   2024 04 16 00:00  13 27 59.44    -02 44 44.0   0.0107 1.0142 172.3  m  21?   1.31 245.1   42 190  83  51
   2024 04 16 00:10  13 27 58.65    -02 44 49.5   0.0107 1.0142 172.3  m  21?   1.29 245.0   42 194  83  51
   2024 04 16 00:20  13 27 57.87    -02 44 54.9   0.0107 1.0142 172.3  m  21?   1.27 244.8   41 197  82  51
   2024 04 16 00:30  13 27 57.11    -02 45 00.3   0.0107 1.0142 172.3  m  21?   1.24 244.4   41 200  82  51
   2024 04 16 00:40  13 27 56.37    -02 45 05.6   0.0107 1.0142 172.3  m  21?   1.21 244.0   40 204  82  51
   2024 04 16 00:50  13 27 55.66    -02 45 10.9   0.0107 1.0142 172.2  m  21?   1.17 243.4   39 207  82  52
   2024 04 16 01:00  13 27 54.97    -02 45 16.1   0.0107 1.0142 172.2  m  21?   1.13 242.7   38 210  82  52
   2024 04 16 01:10  13 27 54.31    -02 45 21.2   0.0107 1.0142 172.2  m  21?   1.09 241.8   37 213  82  52
   2024 04 16 01:20  13 27 53.69    -02 45 26.4   0.0107 1.0142 172.2  m  21?   1.04 240.7   36 216  82  52
   2024 04 16 01:30  13 27 53.10    -02 45 31.4   0.0107 1.0142 172.2  m  21?   0.99 239.4   35 218  82  52
   2024 04 16 01:40  13 27 52.55    -02 45 36.4   0.0107 1.0142 172.2  m  21?   0.94 237.8   34 221  82  52
   2024 04 16 01:50  13 27 52.04    -02 45 41.4   0.0107 1.0142 172.2  m  21?   0.88 235.8   33 224  82  52
   2024 04 16 02:00  13 27 51.57    -02 45 46.3   0.0107 1.0142 172.2  m  21?   0.82 233.4   32 226  81  52
   2024 04 16 02:10  13 27 51.15    -02 45 51.2   0.0107 1.0142 172.2     21?   0.76 230.4   30 229  81  52
   2024 04 16 02:20  13 27 50.79    -02 45 56.0   0.0107 1.0142 172.2     21?   0.71 226.8   29 231  81  52
   2024 04 16 02:30  13 27 50.47    -02 46 00.8   0.0107 1.0142 172.2     21?   0.65 222.2   27 233  81  52
   2024 04 16 02:40  13 27 50.20    -02 46 05.6   0.0107 1.0142 172.2     21?   0.59 216.5   26 236  81  52
   2024 04 16 02:50  13 27 50.00    -02 46 10.3   0.0107 1.0142 172.2     21?   0.54 209.4   24 238  81  52
   2024 04 16 03:00  13 27 49.85    -02 46 15.0   0.0107 1.0142 172.2     21?   0.50 200.6   23 240  81  53
   2024 04 16 03:10  13 27 49.76    -02 46 19.7   0.0107 1.0142 172.2 A   21?   0.47 190.2   21 242  81  53
   2024 04 16 03:20  13 27 49.74    -02 46 24.3   0.0107 1.0142 172.2 A   21?   0.46 178.6   20 244  81  53
   2024 04 16 03:30  13 27 49.78    -02 46 28.9   0.0107 1.0142 172.2 A   21?   0.47 166.7   18 246  81  53
   2024 04 16 03:40  13 27 49.88    -02 46 33.5   0.0107 1.0142 172.2 A   21?   0.50 155.4   16 248  80  53
   2024 04 16 03:50  13 27 50.06    -02 46 38.0   0.0107 1.0142 172.2 N   21?   0.55 145.6   15 250  80  53
   2024 04 16 04:00  13 27 50.30    -02 46 42.5   0.0107 1.0142 172.2 N   21?   0.61 137.4   13 252  80  53
   2024 04 16 04:10  13 27 50.61    -02 46 47.1   0.0107 1.0142 172.2 N   21?   0.69 130.7   11 254  80  53
   2024 04 16 04:20  13 27 50.99    -02 46 51.5   0.0107 1.0142 172.2 N   21?   0.77 125.4    9 256  80  53
   2024 04 16 04:30  13 27 51.45    -02 46 56.0   0.0107 1.0142 172.2 C   21?   0.86 121.1    8 257  80  53
   2024 04 16 04:40  13 27 51.97    -02 47 00.5   0.0107 1.0142 172.2 C   21?   0.96 117.7    6 259  80  53
   ................
   2024 04 16 18:30  13 30 24.79    -02 55 05.9   0.0107 1.0144 172.1 Cm  21?   0.99 136.2    9 103  73  59
   2024 04 16 18:40  13 30 25.22    -02 55 13.0   0.0107 1.0144 172.1 Cm  21?   0.92 141.0   10 105  73  59
   2024 04 16 18:50  13 30 25.57    -02 55 20.2   0.0107 1.0144 172.1 Cm  21?   0.86 146.4   12 106  73  59
   2024 04 16 19:00  13 30 25.85    -02 55 27.4   0.0107 1.0144 172.1 Nm  21?   0.80 152.6   14 108  73  59
   2024 04 16 19:10  13 30 26.06    -02 55 34.5   0.0107 1.0144 172.1 Nm  21?   0.76 159.4   15 110  73  59
   2024 04 16 19:20  13 30 26.20    -02 55 41.6   0.0107 1.0144 172.1 Nm  21?   0.73 166.8   17 112  73  59
   2024 04 16 19:30  13 30 26.28    -02 55 48.7   0.0107 1.0144 172.1 Am  21?   0.71 174.5   19 114  73  59
   2024 04 16 19:40  13 30 26.29    -02 55 55.7   0.0107 1.0144 172.1 Am  21?   0.70 182.2   20 116  73  60
   2024 04 16 19:50  13 30 26.24    -02 56 02.7   0.0107 1.0144 172.1 Am  21?   0.71 189.8   22 118  73  60
   2024 04 16 20:00  13 30 26.13    -02 56 09.7   0.0107 1.0144 172.1 Am  21?   0.73 196.8   24 120  73  60
   2024 04 16 20:10  13 30 25.96    -02 56 16.7   0.0107 1.0144 172.1  m  21?   0.76 203.2   25 122  73  60
   2024 04 16 20:20  13 30 25.73    -02 56 23.6   0.0107 1.0144 172.1  m  21?   0.79 209.0   27 125  73  60
   2024 04 16 20:30  13 30 25.45    -02 56 30.5   0.0107 1.0144 172.1  m  21?   0.83 214.0   28 127  73  60
   2024 04 16 20:40  13 30 25.11    -02 56 37.3   0.0107 1.0144 172.1  m  21?   0.87 218.3   29 129  72  60
   2024 04 16 20:50  13 30 24.73    -02 56 44.1   0.0107 1.0144 172.1  m  21?   0.91 222.1   31 132  72  60
   2024 04 16 21:00  13 30 24.29    -02 56 50.8   0.0107 1.0144 172.1  m  21?   0.96 225.4   32 134  72  60
   2024 04 16 21:10  13 30 23.82    -02 56 57.5   0.0107 1.0144 172.1  m  21?   1.00 228.2   33 137  72  60
   2024 04 16 21:20  13 30 23.29    -02 57 04.2   0.0107 1.0144 172.1  m  21?   1.05 230.6   35 140  72  60
   2024 04 16 21:30  13 30 22.73    -02 57 10.8   0.0107 1.0144 172.1  m  21?   1.09 232.8   36 142  72  60
   2024 04 16 21:40  13 30 22.14    -02 57 17.4   0.0107 1.0144 172.1  m  21?   1.13 234.6   37 145  72  60
   2024 04 16 21:50  13 30 21.50    -02 57 23.9   0.0107 1.0144 172.1  m  21?   1.17 236.2   38 148  72  60
   2024 04 16 22:00  13 30 20.84    -02 57 30.3   0.0107 1.0144 172.1  m  21?   1.20 237.6   39 151  72  60
   2024 04 16 22:10  13 30 20.15    -02 57 36.7   0.0107 1.0144 172.1  m  21?   1.23 238.8   39 154  72  60
   2024 04 16 22:20  13 30 19.44    -02 57 43.0   0.0107 1.0144 172.1  m  21?   1.26 239.8   40 157  72  60
   2024 04 16 22:30  13 30 18.70    -02 57 49.3   0.0107 1.0144 172.1  m  21?   1.28 240.7   41 161  72  60
   2024 04 16 22:40  13 30 17.95    -02 57 55.5   0.0107 1.0144 172.1  m  21?   1.30 241.5   41 164  72  60
   2024 04 16 22:50  13 30 17.18    -02 58 01.7   0.0107 1.0144 172.1  m  21?   1.32 242.1   42 167  72  60
   2024 04 16 23:00  13 30 16.39    -02 58 07.8   0.0107 1.0144 172.1  m  21?   1.33 242.6   42 171  72  61
   2024 04 16 23:10  13 30 15.60    -02 58 13.8   0.0107 1.0144 172.1  m  21?   1.33 243.1   42 174  71  61
   2024 04 16 23:20  13 30 14.81    -02 58 19.8   0.0107 1.0144 172.1  m  21?   1.33 243.4   42 177  71  61
   2024 04 16 23:30  13 30 14.01    -02 58 25.7   0.0107 1.0144 172.0  t  21?   1.33 243.6   42 181  71  61
   2024 04 16 23:40  13 30 13.21    -02 58 31.6   0.0107 1.0144 172.0  m  21?   1.33 243.8   42 184  71  61
   2024 04 16 23:50  13 30 12.42    -02 58 37.4   0.0107 1.0144 172.0  m  21?   1.31 243.8   42 188  71  61
   2024 04 17 00:00  13 30 11.64    -02 58 43.2   0.0107 1.0144 172.0  m  21?   1.30 243.8   42 191  71  61
   2024 04 17 00:10  13 30 10.86    -02 58 48.8   0.0107 1.0144 172.0  m  21?   1.28 243.6   41 194  71  61
   2024 04 17 00:20  13 30 10.11    -02 58 54.5   0.0107 1.0144 172.0  m  21?   1.25 243.4   41 198  71  61
   2024 04 17 00:30  13 30 09.37    -02 59 00.0   0.0107 1.0144 172.0  m  21?   1.23 243.0   40 201  71  61
   2024 04 17 00:40  13 30 08.65    -02 59 05.6   0.0107 1.0145 172.0  m  21?   1.19 242.5   40 204  71  61
   2024 04 17 00:50  13 30 07.95    -02 59 11.0   0.0107 1.0145 172.0  m  21?   1.16 241.9   39 207  71  61
   2024 04 17 01:00  13 30 07.28    -02 59 16.4   0.0107 1.0145 172.0  m  21?   1.12 241.1   38 210  71  61
   2024 04 17 01:10  13 30 06.65    -02 59 21.8   0.0107 1.0145 172.0  m  21?   1.07 240.2   37 213  70  61
   2024 04 17 01:20  13 30 06.04    -02 59 27.1   0.0107 1.0145 172.0  m  21?   1.02 239.0   36 216  70  61
   2024 04 17 01:30  13 30 05.47    -02 59 32.3   0.0107 1.0145 172.0  m  21?   0.97 237.5   35 219  70  61
   2024 04 17 01:40  13 30 04.95    -02 59 37.5   0.0107 1.0145 172.0  m  21?   0.92 235.8   34 221  70  62
   2024 04 17 01:50  13 30 04.46    -02 59 42.6   0.0107 1.0145 172.0  m  21?   0.86 233.6   32 224  70  62
   2024 04 17 02:00  13 30 04.02    -02 59 47.7   0.0107 1.0145 172.0  m  21?   0.81 231.0   31 226  70  62
   2024 04 17 02:10  13 30 03.62    -02 59 52.8   0.0107 1.0145 172.0  m  21?   0.75 227.8   30 229  70  62
   2024 04 17 02:20  13 30 03.28    -02 59 57.8   0.0107 1.0145 172.0  m  21?   0.69 223.8   28 231  70  62
   2024 04 17 02:30  13 30 02.98    -03 00 02.7   0.0107 1.0145 172.0  m  21?   0.63 218.8   27 234  70  62
   2024 04 17 02:40  13 30 02.74    -03 00 07.6   0.0107 1.0145 172.0     21?   0.58 212.7   25 236  70  62
   2024 04 17 02:50  13 30 02.56    -03 00 12.5   0.0107 1.0145 172.0     21?   0.54 205.1   24 238  70  62
   2024 04 17 03:00  13 30 02.44    -03 00 17.3   0.0107 1.0145 172.0     21?   0.50 195.9   22 240  69  62
   2024 04 17 03:10  13 30 02.38    -03 00 22.1   0.0107 1.0145 172.0 A   21?   0.48 185.4   21 242  69  62
   2024 04 17 03:20  13 30 02.38    -03 00 26.9   0.0107 1.0145 172.0 A   21?   0.48 173.9   19 244  69  62
   2024 04 17 03:30  13 30 02.45    -03 00 31.6   0.0107 1.0145 172.0 A   21?   0.49 162.6   18 246  69  62
   2024 04 17 03:40  13 30 02.58    -03 00 36.4   0.0107 1.0145 172.0 A   21?   0.53 152.1   16 248  69  62
   2024 04 17 03:50  13 30 02.78    -03 00 41.0   0.0107 1.0145 172.0 N   21?   0.58 143.0   14 250  69  63
   2024 04 17 04:00  13 30 03.05    -03 00 45.7   0.0107 1.0145 171.9 N   21?   0.65 135.5   12 252  69  63
   2024 04 17 04:10  13 30 03.38    -03 00 50.3   0.0107 1.0145 171.9 N   21?   0.73 129.4   11 254  69  63
   2024 04 17 04:20  13 30 03.80    -03 00 55.0   0.0107 1.0145 171.9 C   21?   0.81 124.5    9 256  69  63
   2024 04 17 04:30  13 30 04.28    -03 00 59.6   0.0107 1.0145 171.9 C   21?   0.90 120.5    7 258  69  63
   2024 04 17 04:40  13 30 04.83    -03 01 04.2   0.0107 1.0145 171.9 C   21?   1.00 117.2    5 259  68  63
   ................
   2024 04 17 18:30  13 32 38.88    -03 09 29.5   0.0107 1.0147 171.9 Cm  21?   1.02 137.3    9 103  62  69
   2024 04 17 18:40  13 32 39.30    -03 09 37.0   0.0107 1.0147 171.9 Cm  21?   0.95 142.0   10 105  62  69
   2024 04 17 18:50  13 32 39.65    -03 09 44.5   0.0107 1.0147 171.9 Cm  21?   0.89 147.4   12 107  62  69
   2024 04 17 19:00  13 32 39.94    -03 09 52.0   0.0107 1.0147 171.9 Nm  21?   0.83 153.3   14 109  62  69
   2024 04 17 19:10  13 32 40.15    -03 09 59.5   0.0107 1.0147 171.9 Nm  21?   0.79 159.9   16 111  62  69
   2024 04 17 19:20  13 32 40.30    -03 10 06.9   0.0107 1.0147 171.9 Nm  21?   0.76 166.9   17 113  61  69
   2024 04 17 19:30  13 32 40.38    -03 10 14.3   0.0107 1.0147 171.9 Nm  21?   0.74 174.3   19 115  61  69
   2024 04 17 19:40  13 32 40.40    -03 10 21.6   0.0107 1.0147 171.9 Am  21?   0.74 181.6   21 117  61  69
   2024 04 17 19:50  13 32 40.35    -03 10 29.0   0.0107 1.0147 171.9 Am  21?   0.74 188.8   22 119  61  69
   2024 04 17 20:00  13 32 40.25    -03 10 36.3   0.0107 1.0147 171.9 Am  21?   0.76 195.6   24 121  61  69
   2024 04 17 20:10  13 32 40.08    -03 10 43.5   0.0107 1.0147 171.9 Am  21?   0.78 201.8   25 123  61  69
   2024 04 17 20:20  13 32 39.86    -03 10 50.8   0.0107 1.0147 171.9  m  21?   0.81 207.4   27 125  61  69
   2024 04 17 20:30  13 32 39.58    -03 10 57.9   0.0107 1.0147 171.9  m  21?   0.85 212.3   28 128  61  69
   2024 04 17 20:40  13 32 39.25    -03 11 05.1   0.0107 1.0147 171.9  m  21?   0.89 216.7   30 130  61  69
   2024 04 17 20:50  13 32 38.87    -03 11 12.1   0.0107 1.0147 171.9  m  21?   0.93 220.4   31 132  61  69
   2024 04 17 21:00  13 32 38.45    -03 11 19.2   0.0107 1.0147 171.9  m  21?   0.97 223.7   32 135  61  69
   2024 04 17 21:10  13 32 37.97    -03 11 26.2   0.0107 1.0147 171.9  m  21?   1.01 226.6   33 138  61  69
   2024 04 17 21:20  13 32 37.46    -03 11 33.1   0.0107 1.0147 171.9  m  21?   1.06 229.1   35 140  61  69
   2024 04 17 21:30  13 32 36.91    -03 11 40.0   0.0107 1.0147 171.9  m  21?   1.10 231.2   36 143  61  69
   2024 04 17 21:40  13 32 36.32    -03 11 46.8   0.0107 1.0147 171.9  m  21?   1.13 233.1   37 146  61  69
   2024 04 17 21:50  13 32 35.70    -03 11 53.5   0.0107 1.0147 171.9  m  21?   1.17 234.7   38 149  61  69
   2024 04 17 22:00  13 32 35.05    -03 12 00.2   0.0107 1.0147 171.9  m  21?   1.20 236.1   39 152  61  69
   2024 04 17 22:10  13 32 34.37    -03 12 06.9   0.0107 1.0147 171.9  m  21?   1.23 237.4   39 155  60  69
   2024 04 17 22:20  13 32 33.66    -03 12 13.5   0.0107 1.0147 171.8  m  21?   1.26 238.4   40 158  60  70
   2024 04 17 22:30  13 32 32.94    -03 12 20.0   0.0107 1.0147 171.8  m  21?   1.28 239.3   41 161  60  70
   2024 04 17 22:40  13 32 32.20    -03 12 26.5   0.0107 1.0147 171.8  m  21?   1.30 240.1   41 164  60  70
   2024 04 17 22:50  13 32 31.44    -03 12 32.9   0.0107 1.0147 171.8  m  21?   1.31 240.8   42 168  60  70
   2024 04 17 23:00  13 32 30.67    -03 12 39.2   0.0107 1.0147 171.8  m  21?   1.32 241.3   42 171  60  70
   2024 04 17 23:10  13 32 29.89    -03 12 45.5   0.0107 1.0147 171.8  m  21?   1.32 241.8   42 175  60  70
   2024 04 17 23:20  13 32 29.11    -03 12 51.7   0.0107 1.0147 171.8  m  21?   1.33 242.1   42 178  60  70
   2024 04 17 23:30  13 32 28.33    -03 12 57.8   0.0107 1.0147 171.8  t  21?   1.32 242.4   42 181  60  70
   2024 04 17 23:40  13 32 27.55    -03 13 03.9   0.0107 1.0147 171.8  m  21?   1.31 242.5   42 185  60  70
   2024 04 17 23:50  13 32 26.77    -03 13 09.9   0.0107 1.0147 171.8  m  21?   1.30 242.5   42 188  60  70
   2024 04 18 00:00  13 32 26.00    -03 13 15.9   0.0107 1.0147 171.8  m  21?   1.29 242.5   42 191  60  70
   2024 04 18 00:10  13 32 25.25    -03 13 21.8   0.0107 1.0147 171.8  m  21?   1.26 242.3   41 195  60  70
   2024 04 18 00:20  13 32 24.51    -03 13 27.6   0.0107 1.0147 171.8  m  21?   1.24 242.0   41 198  60  70
   2024 04 18 00:30  13 32 23.79    -03 13 33.3   0.0107 1.0147 171.8  m  21?   1.21 241.6   40 201  59  70
   2024 04 18 00:40  13 32 23.08    -03 13 39.0   0.0107 1.0147 171.8  m  21?   1.18 241.1   39 204  59  70
   2024 04 18 00:50  13 32 22.41    -03 13 44.7   0.0107 1.0147 171.8  m  21?   1.14 240.4   38 207  59  70
   2024 04 18 01:00  13 32 21.76    -03 13 50.2   0.0107 1.0147 171.8  m  21?   1.10 239.6   38 210  59  70
   2024 04 18 01:10  13 32 21.14    -03 13 55.8   0.0107 1.0147 171.8  m  21?   1.05 238.5   37 213  59  70
   2024 04 18 01:20  13 32 20.56    -03 14 01.2   0.0107 1.0147 171.8  m  21?   1.01 237.2   36 216  59  70
   2024 04 18 01:30  13 32 20.01    -03 14 06.6   0.0107 1.0147 171.8  m  21?   0.96 235.7   34 219  59  71
   2024 04 18 01:40  13 32 19.51    -03 14 12.0   0.0107 1.0147 171.8  m  21?   0.90 233.7   33 222  59  71
   2024 04 18 01:50  13 32 19.04    -03 14 17.3   0.0107 1.0147 171.8  m  21?   0.85 231.4   32 224  59  71
   2024 04 18 02:00  13 32 18.62    -03 14 22.5   0.0107 1.0147 171.8  m  21?   0.79 228.6   31 227  59  71
   2024 04 18 02:10  13 32 18.25    -03 14 27.7   0.0107 1.0147 171.8  m  21?   0.73 225.1   29 229  59  71
   2024 04 18 02:20  13 32 17.93    -03 14 32.8   0.0107 1.0147 171.8  m  21?   0.68 220.8   28 232  59  71
   2024 04 18 02:30  13 32 17.66    -03 14 37.9   0.0107 1.0147 171.7  m  21?   0.62 215.4   26 234  58  71
   2024 04 18 02:40  13 32 17.45    -03 14 43.0   0.0107 1.0147 171.7  m  21?   0.57 208.8   25 236  58  71
   2024 04 18 02:50  13 32 17.29    -03 14 48.0   0.0107 1.0147 171.7  m  21?   0.53 200.9   23 238  58  71
   2024 04 18 03:00  13 32 17.19    -03 14 53.0   0.0107 1.0147 171.7     21?   0.51 191.4   22 240  58  71
   2024 04 18 03:10  13 32 17.15    -03 14 57.9   0.0107 1.0147 171.7 A   21?   0.49 180.8   20 243  58  71
   2024 04 18 03:20  13 32 17.18    -03 15 02.8   0.0107 1.0147 171.7 A   21?   0.50 169.7   19 245  58  71
   2024 04 18 03:30  13 32 17.27    -03 15 07.7   0.0107 1.0148 171.7 A   21?   0.52 158.9   17 247  58  71
   2024 04 18 03:40  13 32 17.43    -03 15 12.5   0.0107 1.0148 171.7 A   21?   0.56 149.1   15 248  58  71
   2024 04 18 03:50  13 32 17.66    -03 15 17.3   0.0107 1.0148 171.7 N   21?   0.62 140.8   14 250  58  71
   2024 04 18 04:00  13 32 17.95    -03 15 22.1   0.0107 1.0148 171.7 N   21?   0.69 133.9   12 252  58  72
   2024 04 18 04:10  13 32 18.32    -03 15 26.9   0.0107 1.0148 171.7 N   21?   0.77 128.2   10 254  58  72
   2024 04 18 04:20  13 32 18.75    -03 15 31.6   0.0107 1.0148 171.7 C   21?   0.85 123.6    8 256  57  72
   2024 04 18 04:30  13 32 19.26    -03 15 36.3   0.0107 1.0148 171.7 C   21?   0.94 119.9    7 258  57  72
   2024 04 18 04:40  13 32 19.85    -03 15 41.0   0.0108 1.0148 171.7 C   21?   1.04 116.8    5 259  57  72
   ................
   2024 04 18 18:40  13 34 55.52    -03 24 33.4   0.0107 1.0149 171.7 Cm  21?   0.98 143.0   11 105  50  77
   2024 04 18 18:50  13 34 55.88    -03 24 41.3   0.0107 1.0149 171.7 Cm  21?   0.92 148.2   12 107  50  77
   2024 04 18 19:00  13 34 56.17    -03 24 49.1   0.0107 1.0149 171.7 Nm  21?   0.86 154.0   14 109  50  77
   2024 04 18 19:10  13 34 56.39    -03 24 56.8   0.0107 1.0149 171.7 Nm  21?   0.82 160.3   16 111  50  77
   2024 04 18 19:20  13 34 56.54    -03 25 04.6   0.0107 1.0149 171.7 Nm  21?   0.79 167.1   17 113  50  77
   2024 04 18 19:30  13 34 56.62    -03 25 12.3   0.0107 1.0149 171.7 Nm  21?   0.77 174.1   19 115  50  77
   2024 04 18 19:40  13 34 56.64    -03 25 19.9   0.0107 1.0149 171.7 Am  21?   0.77 181.1   21 117  50  77
   2024 04 18 19:50  13 34 56.60    -03 25 27.6   0.0107 1.0149 171.7 Am  21?   0.77 188.0   22 119  50  77
   2024 04 18 20:00  13 34 56.50    -03 25 35.2   0.0107 1.0149 171.7 Am  21?   0.78 194.5   24 121  50  77
   2024 04 18 20:10  13 34 56.34    -03 25 42.7   0.0107 1.0149 171.7 Am  21?   0.80 200.5   25 124  50  77
   2024 04 18 20:20  13 34 56.12    -03 25 50.2   0.0107 1.0149 171.7  m  21?   0.83 206.0   27 126  50  77
   2024 04 18 20:30  13 34 55.85    -03 25 57.7   0.0107 1.0149 171.7  m  21?   0.87 210.8   28 128  50  77
   2024 04 18 20:40  13 34 55.52    -03 26 05.1   0.0107 1.0149 171.7  m  21?   0.90 215.1   30 131  50  78
   2024 04 18 20:50  13 34 55.15    -03 26 12.5   0.0107 1.0149 171.7  m  21?   0.94 218.9   31 133  50  78
   2024 04 18 21:00  13 34 54.73    -03 26 19.8   0.0107 1.0149 171.7  m  21?   0.98 222.2   32 136  50  78
   2024 04 18 21:10  13 34 54.27    -03 26 27.0   0.0107 1.0149 171.7  m  21?   1.02 225.0   33 138  50  78
   2024 04 18 21:20  13 34 53.76    -03 26 34.2   0.0107 1.0149 171.7  m  21?   1.06 227.5   35 141  50  78
   2024 04 18 21:30  13 34 53.22    -03 26 41.4   0.0107 1.0149 171.6  m  21?   1.10 229.7   36 144  49  78
   2024 04 18 21:40  13 34 52.64    -03 26 48.5   0.0107 1.0150 171.6  m  21?   1.14 231.6   37 146  49  78
   2024 04 18 21:50  13 34 52.03    -03 26 55.5   0.0107 1.0150 171.6  m  21?   1.17 233.3   38 149  49  78
   2024 04 18 22:00  13 34 51.38    -03 27 02.4   0.0107 1.0150 171.6  m  21?   1.20 234.8   38 152  49  78
   2024 04 18 22:10  13 34 50.71    -03 27 09.3   0.0107 1.0150 171.6  m  21?   1.23 236.0   39 155  49  78
   2024 04 18 22:20  13 34 50.02    -03 27 16.2   0.0107 1.0150 171.6  m  21?   1.25 237.1   40 159  49  78
   2024 04 18 22:30  13 34 49.31    -03 27 22.9   0.0107 1.0150 171.6  m  21?   1.27 238.0   41 162  49  78
   2024 04 18 22:40  13 34 48.57    -03 27 29.6   0.0107 1.0150 171.6  m  21?   1.29 238.9   41 165  49  78
   2024 04 18 22:50  13 34 47.83    -03 27 36.2   0.0107 1.0150 171.6  m  21?   1.30 239.5   41 168  49  78
   2024 04 18 23:00  13 34 47.07    -03 27 42.8   0.0107 1.0150 171.6  m  21?   1.31 240.1   42 172  49  78
   2024 04 18 23:10  13 34 46.31    -03 27 49.3   0.0107 1.0150 171.6  m  21?   1.32 240.5   42 175  49  78
   2024 04 18 23:20  13 34 45.54    -03 27 55.7   0.0107 1.0150 171.6  m  21?   1.32 240.9   42 179  49  78
   2024 04 18 23:30  13 34 44.77    -03 28 02.0   0.0107 1.0150 171.6  t  21?   1.31 241.1   42 182  49  78
   2024 04 18 23:40  13 34 44.01    -03 28 08.3   0.0107 1.0150 171.6  m  21?   1.30 241.3   42 185  49  78
   2024 04 18 23:50  13 34 43.25    -03 28 14.5   0.0107 1.0150 171.6  m  21?   1.29 241.3   42 189  49  78
   2024 04 19 00:00  13 34 42.50    -03 28 20.7   0.0107 1.0150 171.6  m  21?   1.27 241.2   41 192  49  78
   2024 04 19 00:10  13 34 41.76    -03 28 26.7   0.0107 1.0150 171.6  m  21?   1.25 241.0   41 195  48  78
   2024 04 19 00:20  13 34 41.03    -03 28 32.7   0.0107 1.0150 171.6  m  21?   1.23 240.7   40 199  48  78
   2024 04 19 00:30  13 34 40.33    -03 28 38.7   0.0107 1.0150 171.6  m  21?   1.20 240.3   40 202  48  78
   2024 04 19 00:40  13 34 39.65    -03 28 44.5   0.0107 1.0150 171.6  m  21?   1.16 239.7   39 205  48  78
   2024 04 19 00:50  13 34 38.99    -03 28 50.3   0.0107 1.0150 171.6  m  21?   1.12 239.0   38 208  48  79
   2024 04 19 01:00  13 34 38.36    -03 28 56.1   0.0107 1.0150 171.6  m  21?   1.08 238.1   37 211  48  79
   2024 04 19 01:10  13 34 37.76    -03 29 01.8   0.0107 1.0150 171.6  m  21?   1.04 236.9   36 214  48  79
   2024 04 19 01:20  13 34 37.20    -03 29 07.4   0.0107 1.0150 171.5  m  21?   0.99 235.5   35 217  48  79
   2024 04 19 01:30  13 34 36.67    -03 29 12.9   0.0107 1.0150 171.5  m  21?   0.94 233.8   34 219  48  79
   2024 04 19 01:40  13 34 36.19    -03 29 18.4   0.0107 1.0150 171.5  m  21?   0.89 231.8   33 222  48  79
   2024 04 19 01:50  13 34 35.74    -03 29 23.8   0.0107 1.0150 171.5  m  21?   0.83 229.3   32 225  48  79
   2024 04 19 02:00  13 34 35.35    -03 29 29.2   0.0107 1.0150 171.5  m  21?   0.77 226.2   30 227  48  79
   2024 04 19 02:10  13 34 35.00    -03 29 34.6   0.0107 1.0150 171.5  m  21?   0.72 222.4   29 229  48  79
   2024 04 19 02:20  13 34 34.70    -03 29 39.8   0.0107 1.0150 171.5  m  21?   0.67 217.8   27 232  47  79
   2024 04 19 02:30  13 34 34.45    -03 29 45.1   0.0107 1.0150 171.5  m  21?   0.61 212.1   26 234  47  79
   2024 04 19 02:40  13 34 34.26    -03 29 50.2   0.0107 1.0150 171.5  m  21?   0.57 205.1   25 236  47  79
   2024 04 19 02:50  13 34 34.13    -03 29 55.4   0.0107 1.0150 171.5  m  21?   0.53 196.8   23 238  47  79
   2024 04 19 03:00  13 34 34.05    -03 30 00.4   0.0107 1.0150 171.5 Am  21?   0.51 187.1   21 241  47  79
   2024 04 19 03:10  13 34 34.04    -03 30 05.5   0.0107 1.0150 171.5 Am  21?   0.50 176.6   20 243  47  79
   2024 04 19 03:20  13 34 34.09    -03 30 10.5   0.0107 1.0150 171.5 A   21?   0.51 165.8   18 245  47  79
   2024 04 19 03:30  13 34 34.21    -03 30 15.5   0.0107 1.0150 171.5 A   21?   0.54 155.6   17 247  47  79
   2024 04 19 03:40  13 34 34.39    -03 30 20.4   0.0107 1.0150 171.5 N   21?   0.59 146.5   15 249  47  79
   2024 04 19 03:50  13 34 34.65    -03 30 25.3   0.0107 1.0150 171.5 N   21?   0.65 138.7   13 251  47  80
   2024 04 19 04:00  13 34 34.97    -03 30 30.2   0.0107 1.0150 171.5 N   21?   0.72 132.3   11 252  47  80
   2024 04 19 04:10  13 34 35.36    -03 30 35.1   0.0107 1.0150 171.5 N   21?   0.80 127.1   10 254  46  80
   2024 04 19 04:20  13 34 35.82    -03 30 39.9   0.0107 1.0150 171.5 C   21?   0.89 122.8    8 256  46  80
   2024 04 19 04:30  13 34 36.36    -03 30 44.8   0.0108 1.0150 171.5 C   21?   0.98 119.2    6 258  46  80
   2024 04 19 04:40  13 34 36.97    -03 30 49.6   0.0108 1.0150 171.5 C   21?   1.08 116.3    4 260  46  80
   ................
   2024 04 19 18:40  13 37 13.82    -03 40 00.6   0.0107 1.0152 171.5 Cm  21?   1.01 143.9   11 106  39  85
   2024 04 19 18:50  13 37 14.18    -03 40 08.7   0.0107 1.0152 171.5 Cm  21?   0.95 149.0   12 108  39  85
   2024 04 19 19:00  13 37 14.46    -03 40 16.8   0.0107 1.0152 171.5 Nm  21?   0.89 154.6   14 110  39  85
   2024 04 19 19:10  13 37 14.69    -03 40 24.9   0.0107 1.0152 171.5 Nm  21?   0.85 160.7   16 112  39  85
   2024 04 19 19:20  13 37 14.84    -03 40 33.0   0.0107 1.0152 171.5 Nm  21?   0.82 167.2   17 114  39  85
   2024 04 19 19:30  13 37 14.93    -03 40 41.0   0.0107 1.0152 171.5 Nm  21?   0.80 173.9   19 116  39  85
   2024 04 19 19:40  13 37 14.95    -03 40 48.9   0.0107 1.0152 171.5 Am  21?   0.80 180.7   21 118  39  85
   2024 04 19 19:50  13 37 14.91    -03 40 56.9   0.0107 1.0152 171.5 Am  21?   0.80 187.3   22 120  39  85
   2024 04 19 20:00  13 37 14.81    -03 41 04.7   0.0107 1.0152 171.5 Am  21?   0.81 193.6   24 122  39  85
   2024 04 19 20:10  13 37 14.66    -03 41 12.6   0.0107 1.0152 171.5 Am  21?   0.83 199.4   25 124  39  85
   2024 04 19 20:20  13 37 14.45    -03 41 20.4   0.0107 1.0152 171.5  m  21?   0.86 204.7   27 126  39  85
   2024 04 19 20:30  13 37 14.18    -03 41 28.1   0.0107 1.0152 171.5  m  21?   0.89 209.5   28 129  39  85
   2024 04 19 20:40  13 37 13.86    -03 41 35.8   0.0107 1.0152 171.4  m  21?   0.92 213.7   30 131  39  85
   2024 04 19 20:50  13 37 13.49    -03 41 43.4   0.0107 1.0152 171.4  m  21?   0.96 217.5   31 134  39  85
   2024 04 19 21:00  13 37 13.08    -03 41 51.0   0.0107 1.0152 171.4  m  21?   1.00 220.7   32 136  38  85
   2024 04 19 21:10  13 37 12.62    -03 41 58.5   0.0107 1.0152 171.4  m  21?   1.04 223.6   33 139  38  85
   2024 04 19 21:20  13 37 12.12    -03 42 06.0   0.0107 1.0152 171.4  m  21?   1.07 226.1   34 141  38  85
   2024 04 19 21:30  13 37 11.59    -03 42 13.4   0.0107 1.0152 171.4  m  21?   1.11 228.4   36 144  38  85
   2024 04 19 21:40  13 37 11.02    -03 42 20.7   0.0107 1.0152 171.4  m  21?   1.14 230.3   37 147  38  85
   2024 04 19 21:50  13 37 10.41    -03 42 28.0   0.0107 1.0152 171.4  m  21?   1.18 232.0   37 150  38  85
   2024 04 19 22:00  13 37 09.78    -03 42 35.2   0.0107 1.0152 171.4  m  21?   1.21 233.5   38 153  38  85
   2024 04 19 22:10  13 37 09.12    -03 42 42.3   0.0107 1.0152 171.4  m  21?   1.23 234.7   39 156  38  85
   2024 04 19 22:20  13 37 08.43    -03 42 49.3   0.0107 1.0152 171.4  m  21?   1.25 235.9   40 159  38  85
   2024 04 19 22:30  13 37 07.73    -03 42 56.3   0.0107 1.0152 171.4  m  21?   1.27 236.8   40 162  38  85
   2024 04 19 22:40  13 37 07.01    -03 43 03.2   0.0107 1.0152 171.4  m  21?   1.29 237.6   41 166  38  85
   2024 04 19 22:50  13 37 06.27    -03 43 10.1   0.0107 1.0152 171.4  m  21?   1.30 238.3   41 169  38  85
   2024 04 19 23:00  13 37 05.53    -03 43 16.8   0.0107 1.0152 171.4  m  21?   1.31 238.9   41 172  38  85
   2024 04 19 23:10  13 37 04.78    -03 43 23.5   0.0107 1.0152 171.4  m  21?   1.31 239.4   42 176  38  85
   2024 04 19 23:20  13 37 04.02    -03 43 30.1   0.0107 1.0152 171.4  m  21?   1.31 239.7   42 179  38  85
   2024 04 19 23:30  13 37 03.27    -03 43 36.7   0.0107 1.0152 171.4  t  21?   1.30 240.0   42 182  38  85
   2024 04 19 23:40  13 37 02.52    -03 43 43.1   0.0107 1.0152 171.4  m  21?   1.29 240.1   42 186  38  85
   2024 04 19 23:50  13 37 01.77    -03 43 49.5   0.0107 1.0152 171.4  m  21?   1.28 240.1   41 189  37  85
   2024 04 20 00:00  13 37 01.03    -03 43 55.8   0.0107 1.0152 171.4  m  21?   1.26 240.0   41 192  37  86
   2024 04 20 00:10  13 37 00.31    -03 44 02.1   0.0107 1.0152 171.4  m  21?   1.24 239.8   40 196  37  86
   2024 04 20 00:20  13 36 59.60    -03 44 08.3   0.0107 1.0152 171.4  m  21?   1.21 239.5   40 199  37  86
   2024 04 20 00:30  13 36 58.92    -03 44 14.4   0.0107 1.0152 171.3  m  21?   1.18 239.0   39 202  37  86
   2024 04 20 00:40  13 36 58.25    -03 44 20.4   0.0107 1.0152 171.3  m  21?   1.15 238.4   39 205  37  86
   2024 04 20 00:50  13 36 57.61    -03 44 26.3   0.0107 1.0152 171.3  m  21?   1.11 237.6   38 208  37  86
   2024 04 20 01:00  13 36 57.00    -03 44 32.2   0.0107 1.0153 171.3  m  21?   1.07 236.6   37 211  37  86
   2024 04 20 01:10  13 36 56.42    -03 44 38.0   0.0107 1.0153 171.3  m  21?   1.02 235.4   36 214  37  86
   2024 04 20 01:20  13 36 55.88    -03 44 43.8   0.0107 1.0153 171.3  m  21?   0.97 233.9   35 217  37  86
   2024 04 20 01:30  13 36 55.37    -03 44 49.5   0.0107 1.0153 171.3  m  21?   0.92 232.1   34 220  37  86
   2024 04 20 01:40  13 36 54.90    -03 44 55.1   0.0107 1.0153 171.3  m  21?   0.87 229.9   32 222  37  86
   2024 04 20 01:50  13 36 54.48    -03 45 00.6   0.0107 1.0153 171.3  m  21?   0.82 227.2   31 225  37  86
   2024 04 20 02:00  13 36 54.10    -03 45 06.1   0.0107 1.0153 171.3  m  21?   0.76 223.9   30 227  37  86
   2024 04 20 02:10  13 36 53.78    -03 45 11.6   0.0107 1.0153 171.3  m  21?   0.71 219.9   28 230  36  86
   2024 04 20 02:20  13 36 53.50    -03 45 17.0   0.0107 1.0153 171.3  m  21?   0.65 214.9   27 232  36  86
   2024 04 20 02:30  13 36 53.27    -03 45 22.3   0.0107 1.0153 171.3  m  21?   0.61 208.9   26 234  36  86
   2024 04 20 02:40  13 36 53.11    -03 45 27.6   0.0107 1.0153 171.3  m  21?   0.57 201.5   24 237  36  86
   2024 04 20 02:50  13 36 53.00    -03 45 32.8   0.0107 1.0153 171.3  m  21?   0.54 192.9   23 239  36  86
   2024 04 20 03:00  13 36 52.95    -03 45 38.0   0.0107 1.0153 171.3 Am  21?   0.52 183.2   21 241  36  86
   2024 04 20 03:10  13 36 52.96    -03 45 43.2   0.0107 1.0153 171.3 Am  21?   0.52 172.7   19 243  36  86
   2024 04 20 03:20  13 36 53.03    -03 45 48.3   0.0107 1.0153 171.3 Am  21?   0.53 162.3   18 245  36  86
   2024 04 20 03:30  13 36 53.17    -03 45 53.4   0.0107 1.0153 171.3 Am  21?   0.57 152.6   16 247  36  86
   2024 04 20 03:40  13 36 53.38    -03 45 58.4   0.0107 1.0153 171.3 N   21?   0.62 144.1   14 249  36  86
   2024 04 20 03:50  13 36 53.66    -03 46 03.4   0.0107 1.0153 171.3 N   21?   0.68 136.9   13 251  36  86
   2024 04 20 04:00  13 36 54.00    -03 46 08.4   0.0107 1.0153 171.3 N   21?   0.76 130.9   11 252  36  87
   2024 04 20 04:10  13 36 54.42    -03 46 13.3   0.0107 1.0153 171.3 N   21?   0.84 126.0    9 254  36  87
   2024 04 20 04:20  13 36 54.91    -03 46 18.2   0.0107 1.0153 171.3 C   21?   0.93 121.9    8 256  35  87
   2024 04 20 04:30  13 36 55.47    -03 46 23.2   0.0107 1.0153 171.3 C   21?   1.02 118.6    6 258  35  87
   2024 04 20 04:40  13 36 56.11    -03 46 28.1   0.0108 1.0153 171.3 C   21?   1.12 115.8    4 260  35  87
   ................
   2024 04 20 18:40  13 39 34.07    -03 55 56.7   0.0107 1.0154 171.3 Cm  21?   1.03 144.8   11 106  28  91
   2024 04 20 18:50  13 39 34.43    -03 56 05.1   0.0107 1.0154 171.3 Cm  21?   0.97 149.8   12 108  28  91
   2024 04 20 19:00  13 39 34.72    -03 56 13.5   0.0107 1.0154 171.3 Nm  21?   0.92 155.3   14 110  28  91
   2024 04 20 19:10  13 39 34.95    -03 56 21.9   0.0107 1.0154 171.3 Nm  21?   0.88 161.2   16 112  28  91
   2024 04 20 19:20  13 39 35.10    -03 56 30.2   0.0107 1.0155 171.3 Nm  21?   0.85 167.4   17 114  28  91
   2024 04 20 19:30  13 39 35.19    -03 56 38.5   0.0107 1.0155 171.3 Nm  21?   0.83 173.9   19 116  28  91
   2024 04 20 19:40  13 39 35.22    -03 56 46.8   0.0107 1.0155 171.3 Am  21?   0.82 180.4   21 118  28  91
   2024 04 20 19:50  13 39 35.18    -03 56 55.0   0.0107 1.0155 171.2 Am  21?   0.82 186.7   22 120  28  91
   2024 04 20 20:00  13 39 35.09    -03 57 03.2   0.0107 1.0155 171.2 Am  21?   0.84 192.8   24 122  28  91
   2024 04 20 20:10  13 39 34.94    -03 57 11.3   0.0107 1.0155 171.2 Am  21?   0.85 198.4   25 125  28  91
   2024 04 20 20:20  13 39 34.73    -03 57 19.3   0.0107 1.0155 171.2  m  21?   0.88 203.6   27 127  28  91
   2024 04 20 20:30  13 39 34.46    -03 57 27.3   0.0107 1.0155 171.2  m  21?   0.91 208.3   28 129  28  91
   2024 04 20 20:40  13 39 34.15    -03 57 35.3   0.0107 1.0155 171.2  m  21?   0.94 212.5   30 132  28  91
   2024 04 20 20:50  13 39 33.79    -03 57 43.2   0.0107 1.0155 171.2  m  21?   0.98 216.2   31 134  28  91
   2024 04 20 21:00  13 39 33.38    -03 57 51.0   0.0107 1.0155 171.2  m  21?   1.01 219.5   32 137  27  91
   2024 04 20 21:10  13 39 32.93    -03 57 58.8   0.0107 1.0155 171.2  m  21?   1.05 222.3   33 139  27  91
   2024 04 20 21:20  13 39 32.44    -03 58 06.5   0.0107 1.0155 171.2  m  21?   1.08 224.9   34 142  27  91
   2024 04 20 21:30  13 39 31.91    -03 58 14.1   0.0107 1.0155 171.2  m  21?   1.12 227.1   35 145  27  91
   2024 04 20 21:40  13 39 31.34    -03 58 21.7   0.0107 1.0155 171.2  m  21?   1.15 229.1   36 148  27  91
   2024 04 20 21:50  13 39 30.74    -03 58 29.2   0.0107 1.0155 171.2  m  21?   1.18 230.8   37 151  27  91
   2024 04 20 22:00  13 39 30.12    -03 58 36.6   0.0107 1.0155 171.2  m  21?   1.21 232.3   38 154  27  91
   2024 04 20 22:10  13 39 29.46    -03 58 43.9   0.0107 1.0155 171.2  m  21?   1.23 233.6   39 157  27  91
   2024 04 20 22:20  13 39 28.79    -03 58 51.2   0.0107 1.0155 171.2  m  21?   1.25 234.7   40 160  27  91
   2024 04 20 22:30  13 39 28.10    -03 58 58.4   0.0107 1.0155 171.2  m  21?   1.27 235.7   40 163  27  91
   2024 04 20 22:40  13 39 27.38    -03 59 05.5   0.0107 1.0155 171.2  m  21?   1.29 236.5   41 166  27  91
   2024 04 20 22:50  13 39 26.66    -03 59 12.5   0.0107 1.0155 171.2  m  21?   1.30 237.2   41 170  27  91
   2024 04 20 23:00  13 39 25.93    -03 59 19.5   0.0107 1.0155 171.2  m  21?   1.30 237.8   41 173  27  91
   2024 04 20 23:10  13 39 25.19    -03 59 26.4   0.0107 1.0155 171.2  m  21?   1.30 238.3   41 176  27  91
   2024 04 20 23:20  13 39 24.44    -03 59 33.2   0.0107 1.0155 171.2  t  21?   1.30 238.6   41 180  27  91
   2024 04 20 23:30  13 39 23.70    -03 59 39.9   0.0107 1.0155 171.2  m  21?   1.30 238.9   41 183  27  91
   2024 04 20 23:40  13 39 22.96    -03 59 46.5   0.0107 1.0155 171.2  m  21?   1.28 239.0   41 186  27  91
   2024 04 20 23:50  13 39 22.23    -03 59 53.1   0.0107 1.0155 171.1  m  21?   1.27 239.0   41 190  27  91
   2024 04 21 00:00  13 39 21.51    -03 59 59.5   0.0107 1.0155 171.1  m  21?   1.25 238.9   41 193  26  91
   2024 04 21 00:10  13 39 20.80    -04 00 05.9   0.0107 1.0155 171.1  m  21?   1.23 238.7   40 196  26  91
   2024 04 21 00:20  13 39 20.11    -04 00 12.2   0.0107 1.0155 171.1  m  21?   1.20 238.3   40 199  26  91
   2024 04 21 00:30  13 39 19.43    -04 00 18.5   0.0107 1.0155 171.1  m  21?   1.17 237.8   39 203  26  92
   2024 04 21 00:40  13 39 18.78    -04 00 24.7   0.0107 1.0155 171.1  m  21?   1.13 237.2   38 206  26  92
   2024 04 21 00:50  13 39 18.16    -04 00 30.7   0.0107 1.0155 171.1  m  21?   1.09 236.3   37 209  26  92
   2024 04 21 01:00  13 39 17.57    -04 00 36.8   0.0107 1.0155 171.1  m  21?   1.05 235.3   36 212  26  92
   2024 04 21 01:10  13 39 17.00    -04 00 42.7   0.0107 1.0155 171.1  m  21?   1.01 234.0   35 214  26  92
   2024 04 21 01:20  13 39 16.48    -04 00 48.6   0.0107 1.0155 171.1  m  21?   0.96 232.4   34 217  26  92
   2024 04 21 01:30  13 39 15.99    -04 00 54.4   0.0107 1.0155 171.1  m  21?   0.91 230.4   33 220  26  92
   2024 04 21 01:40  13 39 15.54    -04 01 00.1   0.0107 1.0155 171.1  m  21?   0.85 228.1   32 222  26  92
   2024 04 21 01:50  13 39 15.14    -04 01 05.8   0.0107 1.0155 171.1  m  21?   0.80 225.2   31 225  26  92
   2024 04 21 02:00  13 39 14.78    -04 01 11.4   0.0107 1.0155 171.1  m  21?   0.75 221.7   29 227  26  92
   2024 04 21 02:10  13 39 14.47    -04 01 16.9   0.0107 1.0155 171.1  m  21?   0.70 217.4   28 230  26  92
   2024 04 21 02:20  13 39 14.22    -04 01 22.4   0.0107 1.0155 171.1  m  21?   0.65 212.2   27 232  26  92
   2024 04 21 02:30  13 39 14.01    -04 01 27.8   0.0107 1.0155 171.1  m  21?   0.60 205.8   25 234  25  92
   2024 04 21 02:40  13 39 13.87    -04 01 33.2   0.0107 1.0155 171.1  m  21?   0.56 198.2   24 237  25  92
   2024 04 21 02:50  13 39 13.78    -04 01 38.5   0.0107 1.0155 171.1  m  21?   0.54 189.3   22 239  25  92
   2024 04 21 03:00  13 39 13.75    -04 01 43.8   0.0107 1.0155 171.1 Am  21?   0.53 179.5   21 241  25  92
   2024 04 21 03:10  13 39 13.78    -04 01 49.0   0.0107 1.0155 171.1 Am  21?   0.53 169.2   19 243  25  92
   2024 04 21 03:20  13 39 13.88    -04 01 54.2   0.0107 1.0155 171.1 Am  21?   0.55 159.2   17 245  25  92
   2024 04 21 03:30  13 39 14.05    -04 01 59.4   0.0107 1.0155 171.1 Am  21?   0.59 150.0   16 247  25  92
   2024 04 21 03:40  13 39 14.28    -04 02 04.5   0.0107 1.0155 171.0 Nm  21?   0.65 142.0   14 249  25  92
   2024 04 21 03:50  13 39 14.58    -04 02 09.6   0.0107 1.0155 171.0 Nm  21?   0.71 135.2   12 251  25  92
   2024 04 21 04:00  13 39 14.95    -04 02 14.6   0.0107 1.0155 171.0 N   21?   0.79 129.6   11 253  25  92
   2024 04 21 04:10  13 39 15.39    -04 02 19.6   0.0107 1.0155 171.0 N   21?   0.87 125.0    9 254  25  92
   2024 04 21 04:20  13 39 15.90    -04 02 24.6   0.0107 1.0155 171.0 C   21?   0.96 121.2    7 256  25  92
   2024 04 21 04:30  13 39 16.48    -04 02 29.6   0.0107 1.0156 171.0 C   21?   1.06 118.0    5 258  25  92
   ................
   2024 04 21 18:40  13 41 56.16    -04 12 19.7   0.0107 1.0157 171.1 Cm  21?   1.06 145.7   11 107  18  95
   2024 04 21 18:50  13 41 56.52    -04 12 28.4   0.0107 1.0157 171.1 Cm  21?   1.00 150.6   13 109  17  95
   2024 04 21 19:00  13 41 56.81    -04 12 37.1   0.0107 1.0157 171.1 Nm  21?   0.95 155.9   14 111  17  95
   2024 04 21 19:10  13 41 57.03    -04 12 45.8   0.0107 1.0157 171.1 Nm  21?   0.91 161.7   16 113  17  95
   2024 04 21 19:20  13 41 57.19    -04 12 54.4   0.0107 1.0157 171.0 Nm  21?   0.88 167.7   18 115  17  95
   2024 04 21 19:30  13 41 57.28    -04 13 03.0   0.0107 1.0157 171.0 Nm  21?   0.86 173.9   19 117  17  95
   2024 04 21 19:40  13 41 57.31    -04 13 11.5   0.0107 1.0157 171.0 Am  21?   0.85 180.2   21 119  17  95
   2024 04 21 19:50  13 41 57.28    -04 13 20.0   0.0107 1.0157 171.0 Am  21?   0.85 186.3   22 121  17  95
   2024 04 21 20:00  13 41 57.18    -04 13 28.4   0.0107 1.0157 171.0 Am  21?   0.86 192.2   24 123  17  95
   2024 04 21 20:10  13 41 57.03    -04 13 36.8   0.0107 1.0157 171.0 Am  21?   0.88 197.7   25 125  17  95
   2024 04 21 20:20  13 41 56.83    -04 13 45.1   0.0107 1.0157 171.0  m  21?   0.90 202.7   27 127  17  95
   2024 04 21 20:30  13 41 56.57    -04 13 53.4   0.0107 1.0157 171.0  m  21?   0.93 207.3   28 130  17  96
   2024 04 21 20:40  13 41 56.26    -04 14 01.6   0.0107 1.0157 171.0  m  21?   0.96 211.4   29 132  17  96
   2024 04 21 20:50  13 41 55.90    -04 14 09.7   0.0107 1.0157 171.0  m  21?   0.99 215.1   31 135  17  96
   2024 04 21 21:00  13 41 55.50    -04 14 17.8   0.0107 1.0157 171.0  m  21?   1.03 218.3   32 137  17  96
   2024 04 21 21:10  13 41 55.05    -04 14 25.8   0.0107 1.0157 171.0  m  21?   1.06 221.2   33 140  17  96
   2024 04 21 21:20  13 41 54.56    -04 14 33.7   0.0107 1.0157 171.0  m  21?   1.09 223.7   34 143  17  96
   2024 04 21 21:30  13 41 54.04    -04 14 41.6   0.0107 1.0157 171.0  m  21?   1.13 226.0   35 145  17  96
   2024 04 21 21:40  13 41 53.48    -04 14 49.3   0.0107 1.0157 171.0  m  21?   1.16 227.9   36 148  17  96
   2024 04 21 21:50  13 41 52.88    -04 14 57.0   0.0107 1.0157 171.0  m  21?   1.19 229.7   37 151  17  96
   2024 04 21 22:00  13 41 52.26    -04 15 04.7   0.0107 1.0157 171.0  m  21?   1.21 231.2   38 154  16  96
   2024 04 21 22:10  13 41 51.62    -04 15 12.2   0.0107 1.0157 171.0  m  21?   1.24 232.5   39 157  16  96
   2024 04 21 22:20  13 41 50.95    -04 15 19.7   0.0107 1.0157 171.0  m  21?   1.26 233.7   39 160  16  96
   2024 04 21 22:30  13 41 50.27    -04 15 27.1   0.0107 1.0157 171.0  m  21?   1.27 234.7   40 164  16  96
   2024 04 21 22:40  13 41 49.56    -04 15 34.4   0.0107 1.0157 171.0  m  21?   1.29 235.5   40 167  16  96
   2024 04 21 22:50  13 41 48.85    -04 15 41.6   0.0107 1.0157 171.0  m  21?   1.29 236.2   41 170  16  96
   2024 04 21 23:00  13 41 48.12    -04 15 48.7   0.0107 1.0158 171.0  m  21?   1.30 236.8   41 173  16  96
   2024 04 21 23:10  13 41 47.40    -04 15 55.8   0.0107 1.0158 171.0  m  21?   1.30 237.3   41 177  16  96
   2024 04 21 23:20  13 41 46.66    -04 16 02.7   0.0107 1.0158 171.0  t  21?   1.30 237.6   41 180  16  96
   2024 04 21 23:30  13 41 45.93    -04 16 09.6   0.0107 1.0158 170.9  m  21?   1.29 237.9   41 183  16  96
   2024 04 21 23:40  13 41 45.20    -04 16 16.4   0.0107 1.0158 170.9  m  21?   1.28 238.0   41 187  16  96
   2024 04 21 23:50  13 41 44.48    -04 16 23.1   0.0107 1.0158 170.9  m  21?   1.26 238.0   41 190  16  96
   2024 04 22 00:00  13 41 43.77    -04 16 29.7   0.0107 1.0158 170.9  m  21?   1.24 237.9   40 193  16  96
   2024 04 22 00:10  13 41 43.08    -04 16 36.2   0.0107 1.0158 170.9  m  21?   1.22 237.6   40 197  16  96
   2024 04 22 00:20  13 41 42.40    -04 16 42.7   0.0107 1.0158 170.9  m  21?   1.19 237.3   39 200  16  96
   2024 04 22 00:30  13 41 41.74    -04 16 49.1   0.0107 1.0158 170.9  m  21?   1.16 236.7   39 203  16  96
   2024 04 22 00:40  13 41 41.10    -04 16 55.4   0.0107 1.0158 170.9  m  21?   1.12 236.0   38 206  16  96
   2024 04 22 00:50  13 41 40.49    -04 17 01.6   0.0107 1.0158 170.9  m  21?   1.08 235.1   37 209  16  96
   2024 04 22 01:00  13 41 39.92    -04 17 07.7   0.0107 1.0158 170.9  m  21?   1.04 234.0   36 212  16  96
   2024 04 22 01:10  13 41 39.37    -04 17 13.7   0.0107 1.0158 170.9  m  21?   0.99 232.6   35 215  16  96
   2024 04 22 01:20  13 41 38.86    -04 17 19.7   0.0107 1.0158 170.9  m  21?   0.94 231.0   34 217  15  96
   2024 04 22 01:30  13 41 38.39    -04 17 25.6   0.0107 1.0158 170.9  m  21?   0.89 228.9   33 220  15  96
   2024 04 22 01:40  13 41 37.96    -04 17 31.4   0.0107 1.0158 170.9  m  21?   0.84 226.4   32 223  15  96
   2024 04 22 01:50  13 41 37.57    -04 17 37.2   0.0107 1.0158 170.9  m  21?   0.79 223.4   30 225  15  96
   2024 04 22 02:00  13 41 37.23    -04 17 42.9   0.0107 1.0158 170.9  m  21?   0.74 219.6   29 228  15  96
   2024 04 22 02:10  13 41 36.95    -04 17 48.5   0.0107 1.0158 170.9  m  21?   0.68 215.1   28 230  15  96
   2024 04 22 02:20  13 41 36.71    -04 17 54.1   0.0107 1.0158 170.9  m  21?   0.64 209.6   26 232  15  96
   2024 04 22 02:30  13 41 36.52    -04 17 59.6   0.0107 1.0158 170.9  m  21?   0.59 202.9   25 235  15  96
   2024 04 22 02:40  13 41 36.40    -04 18 05.0   0.0107 1.0158 170.9  m  21?   0.56 195.0   23 237  15  96
   2024 04 22 02:50  13 41 36.33    -04 18 10.4   0.0107 1.0158 170.9  m  21?   0.54 186.0   22 239  15  96
   2024 04 22 03:00  13 41 36.32    -04 18 15.8   0.0107 1.0158 170.8 Am  21?   0.53 176.2   20 241  15  96
   2024 04 22 03:10  13 41 36.38    -04 18 21.1   0.0107 1.0158 170.8 Am  21?   0.54 166.1   18 243  15  96
   2024 04 22 03:20  13 41 36.49    -04 18 26.3   0.0107 1.0158 170.8 Am  21?   0.57 156.4   17 245  15  96
   2024 04 22 03:30  13 41 36.68    -04 18 31.5   0.0107 1.0158 170.8 Am  21?   0.61 147.7   15 247  15  96
   2024 04 22 03:40  13 41 36.93    -04 18 36.7   0.0107 1.0158 170.8 Nm  21?   0.67 140.1   14 249  15  96
   2024 04 22 03:50  13 41 37.25    -04 18 41.8   0.0107 1.0158 170.8 Nm  21?   0.74 133.7   12 251  15  96
   2024 04 22 04:00  13 41 37.64    -04 18 46.9   0.0107 1.0158 170.8 Nm  21?   0.82 128.4   10 253  14  96
   2024 04 22 04:10  13 41 38.11    -04 18 52.0   0.0107 1.0158 170.8 N   21?   0.90 124.0    8 255  14  96
   2024 04 22 04:20  13 41 38.64    -04 18 57.0   0.0107 1.0158 170.8 C   21?   0.99 120.4    7 256  14  96
   2024 04 22 04:30  13 41 39.25    -04 19 02.1   0.0107 1.0158 170.8 C   21?   1.09 117.4    5 258  14  96
   ................
   2024 04 22 18:40  13 44 19.91    -04 29 07.6   0.0107 1.0160 170.9 Cm  21?   1.08 146.6   11 107   9  98
   2024 04 22 18:50  13 44 20.27    -04 29 16.6   0.0107 1.0160 170.9 Cm  21?   1.02 151.4   13 109   9  98
   2024 04 22 19:00  13 44 20.56    -04 29 25.5   0.0107 1.0160 170.8 Cm  21?   0.97 156.6   14 111   9  98
   2024 04 22 19:10  13 44 20.79    -04 29 34.4   0.0107 1.0160 170.8 Nm  21?   0.93 162.2   16 113   9  98
   2024 04 22 19:20  13 44 20.94    -04 29 43.3   0.0107 1.0160 170.8 Nm  21?   0.91 168.1   18 115   9  98
   2024 04 22 19:30  13 44 21.03    -04 29 52.2   0.0107 1.0160 170.8 Nm  21?   0.89 174.1   19 117   9  98
   2024 04 22 19:40  13 44 21.06    -04 30 01.0   0.0107 1.0160 170.8 Am  21?   0.88 180.1   21 119   9  98
   2024 04 22 19:50  13 44 21.03    -04 30 09.7   0.0107 1.0160 170.8 Am  21?   0.88 186.1   22 121   8  98
   2024 04 22 20:00  13 44 20.94    -04 30 18.4   0.0107 1.0160 170.8 Am  21?   0.88 191.7   24 123   8  98
   2024 04 22 20:10  13 44 20.79    -04 30 27.0   0.0107 1.0160 170.8 Am  21?   0.90 197.1   25 126   8  98
   2024 04 22 20:20  13 44 20.58    -04 30 35.6   0.0107 1.0160 170.8  m  21?   0.92 202.0   27 128   8  98
   2024 04 22 20:30  13 44 20.33    -04 30 44.1   0.0107 1.0160 170.8  m  21?   0.95 206.5   28 130   8  98
   2024 04 22 20:40  13 44 20.02    -04 30 52.5   0.0107 1.0160 170.8  m  21?   0.98 210.5   29 133   8  98
   2024 04 22 20:50  13 44 19.66    -04 31 00.9   0.0107 1.0160 170.8  m  21?   1.01 214.1   31 135   8  98
   2024 04 22 21:00  13 44 19.26    -04 31 09.2   0.0107 1.0160 170.8  m  21?   1.04 217.4   32 138   8  98
   2024 04 22 21:10  13 44 18.82    -04 31 17.4   0.0107 1.0160 170.8  m  21?   1.07 220.2   33 140   8  98
   2024 04 22 21:20  13 44 18.33    -04 31 25.6   0.0107 1.0160 170.8  m  21?   1.11 222.8   34 143   8  98
   2024 04 22 21:30  13 44 17.81    -04 31 33.6   0.0107 1.0160 170.8  m  21?   1.14 225.0   35 146   8  98
   2024 04 22 21:40  13 44 17.25    -04 31 41.6   0.0107 1.0160 170.8  m  21?   1.17 227.0   36 149   8  98
   2024 04 22 21:50  13 44 16.67    -04 31 49.5   0.0107 1.0160 170.8  m  21?   1.19 228.7   37 152   8  98
   2024 04 22 22:00  13 44 16.05    -04 31 57.3   0.0107 1.0160 170.8  m  21?   1.22 230.2   38 155   8  98
   2024 04 22 22:10  13 44 15.41    -04 32 05.1   0.0107 1.0160 170.8  m  21?   1.24 231.6   39 158   8  98
   2024 04 22 22:20  13 44 14.75    -04 32 12.7   0.0107 1.0160 170.8  m  21?   1.26 232.7   39 161   8  98
   2024 04 22 22:30  13 44 14.07    -04 32 20.3   0.0107 1.0160 170.8  m  21?   1.27 233.7   40 164   8  99
   2024 04 22 22:40  13 44 13.38    -04 32 27.8   0.0107 1.0160 170.8  m  21?   1.29 234.6   40 167   8  99
   2024 04 22 22:50  13 44 12.67    -04 32 35.1   0.0107 1.0160 170.8  m  21?   1.29 235.3   41 171   8  99
   2024 04 22 23:00  13 44 11.95    -04 32 42.4   0.0107 1.0160 170.8  m  21?   1.30 235.9   41 174   8  99
   2024 04 22 23:10  13 44 11.23    -04 32 49.6   0.0107 1.0160 170.7  m  21?   1.30 236.4   41 177   8  99
   2024 04 22 23:20  13 44 10.51    -04 32 56.7   0.0107 1.0160 170.7  t  21?   1.29 236.8   41 181   8  99
   2024 04 22 23:30  13 44 09.79    -04 33 03.8   0.0107 1.0160 170.7  m  21?   1.28 237.0   41 184   8  99
   2024 04 22 23:40  13 44 09.07    -04 33 10.7   0.0107 1.0160 170.7  m  21?   1.27 237.1   41 187   8  99
   2024 04 22 23:50  13 44 08.36    -04 33 17.5   0.0107 1.0160 170.7  m  21?   1.25 237.1   40 191   8  99
   2024 04 23 00:00  13 44 07.66    -04 33 24.3   0.0107 1.0160 170.7  m  21?   1.23 237.0   40 194   8  99
   2024 04 23 00:10  13 44 06.97    -04 33 30.9   0.0107 1.0160 170.7  m  21?   1.21 236.7   39 197   8  99
   2024 04 23 00:20  13 44 06.31    -04 33 37.5   0.0107 1.0160 170.7  m  21?   1.18 236.3   39 200   8  99
   2024 04 23 00:30  13 44 05.66    -04 33 44.0   0.0107 1.0160 170.7  m  21?   1.15 235.7   38 203   8  99
   2024 04 23 00:40  13 44 05.04    -04 33 50.4   0.0107 1.0160 170.7  m  21?   1.11 235.0   37 206   8  99
   2024 04 23 00:50  13 44 04.44    -04 33 56.7   0.0107 1.0160 170.7  m  21?   1.07 234.1   36 209   8  99
   2024 04 23 01:00  13 44 03.88    -04 34 02.9   0.0107 1.0160 170.7  m  21?   1.03 232.9   36 212   8  99
   2024 04 23 01:10  13 44 03.35    -04 34 09.0   0.0107 1.0160 170.7  m  21?   0.98 231.4   35 215   8  99
   2024 04 23 01:20  13 44 02.85    -04 34 15.1   0.0107 1.0160 170.7  m  21?   0.93 229.7   33 218   8  99
   2024 04 23 01:30  13 44 02.40    -04 34 21.1   0.0107 1.0160 170.7  m  21?   0.88 227.5   32 220   8  99
   2024 04 23 01:40  13 44 01.98    -04 34 27.0   0.0107 1.0160 170.7  m  21?   0.83 224.9   31 223   8  99
   2024 04 23 01:50  13 44 01.61    -04 34 32.8   0.0107 1.0160 170.7  m  21?   0.78 221.7   30 225   8  99
   2024 04 23 02:00  13 44 01.29    -04 34 38.6   0.0107 1.0160 170.7  m  21?   0.73 217.8   29 228   8  99
   2024 04 23 02:10  13 44 01.02    -04 34 44.3   0.0107 1.0160 170.7  m  21?   0.68 213.0   27 230   8  99
   2024 04 23 02:20  13 44 00.80    -04 34 49.9   0.0107 1.0160 170.7  m  21?   0.63 207.2   26 233   8  99
   2024 04 23 02:30  13 44 00.63    -04 34 55.5   0.0107 1.0160 170.6  m  21?   0.59 200.3   24 235   8  99
   2024 04 23 02:40  13 44 00.52    -04 35 01.0   0.0107 1.0160 170.6  m  21?   0.56 192.2   23 237   8  99
   2024 04 23 02:50  13 44 00.47    -04 35 06.4   0.0107 1.0160 170.6  m  21?   0.54 183.0   21 239   8  99
   2024 04 23 03:00  13 44 00.49    -04 35 11.8   0.0107 1.0160 170.6 Am  21?   0.54 173.2   20 241   8  99
   2024 04 23 03:10  13 44 00.56    -04 35 17.1   0.0107 1.0161 170.6 Am  21?   0.55 163.3   18 243   8  99
   2024 04 23 03:20  13 44 00.70    -04 35 22.4   0.0107 1.0161 170.6 Am  21?   0.59 153.9   16 245   8  99
   2024 04 23 03:30  13 44 00.90    -04 35 27.7   0.0107 1.0161 170.6 Am  21?   0.63 145.6   15 247   8  99
   2024 04 23 03:40  13 44 01.18    -04 35 32.9   0.0107 1.0161 170.6 Nm  21?   0.69 138.4   13 249   8  99
   2024 04 23 03:50  13 44 01.52    -04 35 38.0   0.0107 1.0161 170.6 Nm  21?   0.76 132.3   11 251   8  99
   2024 04 23 04:00  13 44 01.93    -04 35 43.2   0.0107 1.0161 170.6 Nm  21?   0.84 127.3   10 253   8  99
   2024 04 23 04:10  13 44 02.41    -04 35 48.3   0.0107 1.0161 170.6 Cm  21?   0.93 123.1    8 255   8  99
   2024 04 23 04:20  13 44 02.97    -04 35 53.3   0.0107 1.0161 170.6 Cm  21?   1.02 119.7    6 256   8  99
   2024 04 23 04:30  13 44 03.60    -04 35 58.4   0.0107 1.0161 170.6 C   21?   1.12 116.8    4 258   8  99
   ................
   2024 04 23 18:40  13 46 45.14    -04 46 18.1   0.0107 1.0162 170.7 Cm  21?   1.10 147.5   11 108  10  99
   2024 04 23 18:50  13 46 45.50    -04 46 27.4   0.0107 1.0162 170.6 Cm  21?   1.04 152.2   13 110  10  99
   2024 04 23 19:00  13 46 45.79    -04 46 36.6   0.0107 1.0162 170.6 Cm  21?   1.00 157.3   14 112  10  99
   2024 04 23 19:10  13 46 46.02    -04 46 45.8   0.0107 1.0162 170.6 Nm  21?   0.96 162.8   16 114  10  99
   2024 04 23 19:20  13 46 46.17    -04 46 54.9   0.0107 1.0162 170.6 Nm  21?   0.93 168.5   18 116  10  99
   2024 04 23 19:30  13 46 46.26    -04 47 04.0   0.0107 1.0162 170.6 Nm  21?   0.91 174.3   19 118  10  99
   2024 04 23 19:40  13 46 46.29    -04 47 13.1   0.0107 1.0162 170.6 Am  21?   0.90 180.2   21 120  10  99
   2024 04 23 19:50  13 46 46.26    -04 47 22.1   0.0107 1.0162 170.6 Am  21?   0.90 186.0   22 122  10  99
   2024 04 23 20:00  13 46 46.16    -04 47 31.0   0.0107 1.0162 170.6 Am  21?   0.91 191.5   24 124  10  99
   2024 04 23 20:10  13 46 46.01    -04 47 39.8   0.0107 1.0162 170.6 Am  21?   0.92 196.6   25 126  10  99
   2024 04 23 20:20  13 46 45.81    -04 47 48.6   0.0107 1.0162 170.6 Am  21?   0.94 201.4   27 128  10  99
   2024 04 23 20:30  13 46 45.55    -04 47 57.4   0.0107 1.0162 170.6  m  21?   0.97 205.8   28 131  10  99
   2024 04 23 20:40  13 46 45.24    -04 48 06.0   0.0107 1.0162 170.6  m  21?   0.99 209.8   29 133  10  99
   2024 04 23 20:50  13 46 44.89    -04 48 14.6   0.0107 1.0162 170.6  m  21?   1.02 213.4   31 136  10  99
   2024 04 23 21:00  13 46 44.49    -04 48 23.1   0.0107 1.0162 170.6  m  21?   1.06 216.6   32 138  10  99
   2024 04 23 21:10  13 46 44.04    -04 48 31.6   0.0107 1.0162 170.6  m  21?   1.09 219.4   33 141  10  99
   2024 04 23 21:20  13 46 43.56    -04 48 39.9   0.0107 1.0162 170.6  m  21?   1.12 221.9   34 144  10  99
   2024 04 23 21:30  13 46 43.04    -04 48 48.2   0.0107 1.0162 170.6  m  21?   1.15 224.2   35 146  10  99
   2024 04 23 21:40  13 46 42.49    -04 48 56.3   0.0107 1.0162 170.6  m  21?   1.18 226.1   36 149  10  99
   2024 04 23 21:50  13 46 41.91    -04 49 04.4   0.0107 1.0162 170.6  m  21?   1.20 227.9   37 152  10  99
   2024 04 23 22:00  13 46 41.30    -04 49 12.4   0.0107 1.0163 170.6  m  21?   1.23 229.4   38 155  10  99
   2024 04 23 22:10  13 46 40.66    -04 49 20.4   0.0107 1.0163 170.6  m  21?   1.25 230.8   38 158  10  99
   2024 04 23 22:20  13 46 40.00    -04 49 28.2   0.0107 1.0163 170.6  m  21?   1.26 231.9   39 162  10  99
   2024 04 23 22:30  13 46 39.33    -04 49 35.9   0.0107 1.0163 170.6  m  21?   1.28 233.0   40 165  10  99
   2024 04 23 22:40  13 46 38.64    -04 49 43.5   0.0107 1.0163 170.6  m  21?   1.29 233.8   40 168  10  99
   2024 04 23 22:50  13 46 37.94    -04 49 51.1   0.0107 1.0163 170.6  m  21?   1.29 234.6   40 171  10  99
   2024 04 23 23:00  13 46 37.23    -04 49 58.5   0.0107 1.0163 170.5  m  21?   1.30 235.2   40 174  11  99
   2024 04 23 23:10  13 46 36.51    -04 50 05.8   0.0107 1.0163 170.5  m  21?   1.30 235.6   41 178  11  99
   2024 04 23 23:20  13 46 35.80    -04 50 13.1   0.0107 1.0163 170.5  t  21?   1.29 236.0   41 181  11  99
   2024 04 23 23:30  13 46 35.08    -04 50 20.2   0.0107 1.0163 170.5  m  21?   1.28 236.2   40 184  11  99
   2024 04 23 23:40  13 46 34.37    -04 50 27.3   0.0107 1.0163 170.5  m  21?   1.27 236.3   40 188  11  99
   2024 04 23 23:50  13 46 33.67    -04 50 34.2   0.0107 1.0163 170.5  m  21?   1.25 236.3   40 191  11  99
   2024 04 24 00:00  13 46 32.98    -04 50 41.1   0.0107 1.0163 170.5  m  21?   1.23 236.2   40 194  11  99
   2024 04 24 00:10  13 46 32.30    -04 50 47.8   0.0107 1.0163 170.5  m  21?   1.20 235.9   39 197  11  99
   2024 04 24 00:20  13 46 31.65    -04 50 54.5   0.0107 1.0163 170.5  m  21?   1.17 235.5   38 201  11  99
   2024 04 24 00:30  13 46 31.01    -04 51 01.1   0.0107 1.0163 170.5  m  21?   1.14 234.9   38 204  11  99
   2024 04 24 00:40  13 46 30.40    -04 51 07.6   0.0107 1.0163 170.5  m  21?   1.10 234.1   37 207  11  99
   2024 04 24 00:50  13 46 29.82    -04 51 13.9   0.0107 1.0163 170.5  m  21?   1.06 233.1   36 210  11  99
   2024 04 24 01:00  13 46 29.27    -04 51 20.2   0.0107 1.0163 170.5  m  21?   1.02 231.9   35 212  11  99
   2024 04 24 01:10  13 46 28.75    -04 51 26.5   0.0107 1.0163 170.5  m  21?   0.97 230.4   34 215  11  99
   2024 04 24 01:20  13 46 28.26    -04 51 32.6   0.0107 1.0163 170.5  m  21?   0.92 228.5   33 218  11  99
   2024 04 24 01:30  13 46 27.82    -04 51 38.6   0.0107 1.0163 170.5  m  21?   0.87 226.3   32 221  11  99
   2024 04 24 01:40  13 46 27.42    -04 51 44.6   0.0107 1.0163 170.5  m  21?   0.82 223.5   31 223  11  99
   2024 04 24 01:50  13 46 27.07    -04 51 50.5   0.0107 1.0163 170.5  m  21?   0.77 220.2   29 226  11  99
   2024 04 24 02:00  13 46 26.76    -04 51 56.3   0.0107 1.0163 170.5  m  21?   0.72 216.1   28 228  11  99
   2024 04 24 02:10  13 46 26.50    -04 52 02.0   0.0107 1.0163 170.5  m  21?   0.67 211.1   27 230  12  99
   2024 04 24 02:20  13 46 26.30    -04 52 07.7   0.0107 1.0163 170.4  m  21?   0.62 205.1   25 233  12  99
   2024 04 24 02:30  13 46 26.15    -04 52 13.3   0.0107 1.0163 170.4  m  21?   0.59 197.9   24 235  12  99
   2024 04 24 02:40  13 46 26.06    -04 52 18.8   0.0107 1.0163 170.4  m  21?   0.56 189.6   22 237  12  99
   2024 04 24 02:50  13 46 26.02    -04 52 24.3   0.0107 1.0163 170.4 Am  21?   0.54 180.3   21 239  12  99
   2024 04 24 03:00  13 46 26.05    -04 52 29.7   0.0107 1.0163 170.4 Am  21?   0.55 170.5   19 241  12  99
   2024 04 24 03:10  13 46 26.14    -04 52 35.1   0.0107 1.0163 170.4 Am  21?   0.56 160.8   18 243  12  99
   2024 04 24 03:20  13 46 26.30    -04 52 40.4   0.0107 1.0163 170.4 Am  21?   0.60 151.7   16 245  12  99
   2024 04 24 03:30  13 46 26.52    -04 52 45.7   0.0107 1.0163 170.4 Am  21?   0.65 143.7   14 247  12  99
   2024 04 24 03:40  13 46 26.81    -04 52 50.9   0.0107 1.0163 170.4 Nm  21?   0.71 136.8   13 249  12  99
   2024 04 24 03:50  13 46 27.17    -04 52 56.1   0.0107 1.0163 170.4 Nm  21?   0.79 131.0   11 251  12  99
   2024 04 24 04:00  13 46 27.60    -04 53 01.2   0.0107 1.0163 170.4 Nm  21?   0.87 126.2    9 253  12  99
   2024 04 24 04:10  13 46 28.11    -04 53 06.3   0.0107 1.0163 170.4 Cm  21?   0.95 122.3    7 255  12  99
   2024 04 24 04:20  13 46 28.68    -04 53 11.4   0.0107 1.0163 170.4 Cm  21?   1.05 118.9    6 256  12  99
   2024 04 24 04:30  13 46 29.33    -04 53 16.5   0.0107 1.0163 170.4 Cm  21?   1.14 116.2    4 258  12  99
   ................
   2024 04 24 18:40  13 49 11.66    -05 03 49.3   0.0107 1.0165 170.5 C   21?   1.12 148.4   11 108  19  99
   2024 04 24 18:50  13 49 12.01    -05 03 58.8   0.0107 1.0165 170.4 C   21?   1.06 153.1   13 110  19  99
   2024 04 24 19:00  13 49 12.30    -05 04 08.2   0.0107 1.0165 170.4 C   21?   1.02 158.1   14 112  19  99
   2024 04 24 19:10  13 49 12.52    -05 04 17.7   0.0107 1.0165 170.4 N   21?   0.98 163.5   16 114  19  99
   2024 04 24 19:20  13 49 12.67    -05 04 27.1   0.0107 1.0165 170.4 Nm  21?   0.95 169.0   18 116  19  99
   2024 04 24 19:30  13 49 12.76    -05 04 36.4   0.0107 1.0165 170.4 Nm  21?   0.93 174.7   19 118  19  99
   2024 04 24 19:40  13 49 12.78    -05 04 45.7   0.0107 1.0165 170.4 Nm  21?   0.92 180.4   21 120  19  99
   2024 04 24 19:50  13 49 12.75    -05 04 54.9   0.0107 1.0165 170.4 Am  21?   0.92 186.0   22 122  19  99
   2024 04 24 20:00  13 49 12.65    -05 05 04.0   0.0107 1.0165 170.4 Am  21?   0.93 191.4   24 124  19  99
   2024 04 24 20:10  13 49 12.50    -05 05 13.1   0.0107 1.0165 170.4 Am  21?   0.94 196.4   25 127  20  99
   2024 04 24 20:20  13 49 12.29    -05 05 22.1   0.0107 1.0165 170.4 Am  21?   0.96 201.1   27 129  20  99
   2024 04 24 20:30  13 49 12.03    -05 05 31.1   0.0107 1.0165 170.4  m  21?   0.99 205.4   28 131  20  99
   2024 04 24 20:40  13 49 11.73    -05 05 39.9   0.0107 1.0165 170.4  m  21?   1.01 209.3   29 134  20  99
   2024 04 24 20:50  13 49 11.37    -05 05 48.7   0.0107 1.0165 170.4  m  21?   1.04 212.8   31 136  20  99
   2024 04 24 21:00  13 49 10.97    -05 05 57.4   0.0107 1.0165 170.4  m  21?   1.07 216.0   32 139  20  99
   2024 04 24 21:10  13 49 10.53    -05 06 06.1   0.0107 1.0165 170.4  m  21?   1.10 218.8   33 142  20  99
   2024 04 24 21:20  13 49 10.04    -05 06 14.6   0.0107 1.0165 170.4  m  21?   1.13 221.3   34 144  20  99
   2024 04 24 21:30  13 49 09.52    -05 06 23.0   0.0107 1.0165 170.4  m  21?   1.16 223.5   35 147  20  99
   2024 04 24 21:40  13 49 08.97    -05 06 31.4   0.0107 1.0165 170.4  m  21?   1.19 225.5   36 150  20  99
   2024 04 24 21:50  13 49 08.39    -05 06 39.7   0.0107 1.0165 170.4  m  21?   1.21 227.2   37 153  20  99
   2024 04 24 22:00  13 49 07.78    -05 06 47.8   0.0107 1.0165 170.4  m  21?   1.23 228.7   38 156  20  99
   2024 04 24 22:10  13 49 07.15    -05 06 55.9   0.0107 1.0165 170.4  m  21?   1.25 230.1   38 159  20  98
   2024 04 24 22:20  13 49 06.49    -05 07 03.9   0.0107 1.0165 170.4  m  21?   1.27 231.3   39 162  20  98
   2024 04 24 22:30  13 49 05.82    -05 07 11.7   0.0107 1.0165 170.4  m  21?   1.28 232.3   39 165  20  98
   2024 04 24 22:40  13 49 05.14    -05 07 19.5   0.0107 1.0165 170.4  m  21?   1.29 233.2   40 168  21  98
   2024 04 24 22:50  13 49 04.44    -05 07 27.2   0.0107 1.0165 170.4  m  21?   1.30 233.9   40 172  21  98
   2024 04 24 23:00  13 49 03.73    -05 07 34.7   0.0107 1.0165 170.3  m  21?   1.30 234.5   40 175  21  98
   2024 04 24 23:10  13 49 03.02    -05 07 42.2   0.0107 1.0165 170.3  m  21?   1.30 235.0   40 178  21  98
   2024 04 24 23:20  13 49 02.31    -05 07 49.6   0.0107 1.0165 170.3  t  21?   1.29 235.3   40 182  21  98
   2024 04 24 23:30  13 49 01.60    -05 07 56.8   0.0107 1.0165 170.3  m  21?   1.28 235.6   40 185  21  98
   2024 04 24 23:40  13 49 00.90    -05 08 04.0   0.0107 1.0165 170.3  m  21?   1.26 235.7   40 188  21  98
   2024 04 24 23:50  13 49 00.21    -05 08 11.0   0.0107 1.0165 170.3  m  21?   1.24 235.7   40 191  21  98
   2024 04 25 00:00  13 48 59.52    -05 08 18.0   0.0107 1.0165 170.3  m  21?   1.22 235.5   39 195  21  98
   2024 04 25 00:10  13 48 58.86    -05 08 24.8   0.0107 1.0165 170.3  m  21?   1.20 235.2   39 198  21  98
   2024 04 25 00:20  13 48 58.21    -05 08 31.6   0.0107 1.0165 170.3  m  21?   1.17 234.8   38 201  21  98
   2024 04 25 00:30  13 48 57.58    -05 08 38.2   0.0107 1.0165 170.3  m  21?   1.13 234.2   37 204  21  98
   2024 04 25 00:40  13 48 56.98    -05 08 44.8   0.0107 1.0165 170.3  m  21?   1.09 233.4   37 207  21  98
   2024 04 25 00:50  13 48 56.41    -05 08 51.2   0.0107 1.0165 170.3  m  21?   1.05 232.4   36 210  21  98
   2024 04 25 01:00  13 48 55.86    -05 08 57.6   0.0107 1.0165 170.3  m  21?   1.01 231.1   35 213  21  98
   2024 04 25 01:10  13 48 55.36    -05 09 03.8   0.0107 1.0165 170.3  m  21?   0.96 229.5   34 215  21  98
   2024 04 25 01:20  13 48 54.88    -05 09 10.0   0.0107 1.0165 170.3  m  21?   0.91 227.6   33 218  22  98
   2024 04 25 01:30  13 48 54.45    -05 09 16.1   0.0107 1.0165 170.3  m  21?   0.86 225.2   31 221  22  98
   2024 04 25 01:40  13 48 54.07    -05 09 22.1   0.0107 1.0165 170.3  m  21?   0.81 222.4   30 223  22  98
   2024 04 25 01:50  13 48 53.72    -05 09 28.0   0.0107 1.0165 170.3  m  21?   0.76 218.9   29 226  22  98
   2024 04 25 02:00  13 48 53.43    -05 09 33.9   0.0107 1.0165 170.3  m  21?   0.71 214.6   28 228  22  98
   2024 04 25 02:10  13 48 53.19    -05 09 39.6   0.0107 1.0165 170.2  m  21?   0.66 209.5   26 231  22  98
   2024 04 25 02:20  13 48 52.99    -05 09 45.3   0.0107 1.0165 170.2  m  21?   0.62 203.2   25 233  22  98
   2024 04 25 02:30  13 48 52.86    -05 09 51.0   0.0107 1.0165 170.2  m  21?   0.58 195.8   23 235  22  98
   2024 04 25 02:40  13 48 52.78    -05 09 56.5   0.0107 1.0166 170.2  m  21?   0.56 187.3   22 237  22  98
   2024 04 25 02:50  13 48 52.76    -05 10 02.0   0.0107 1.0166 170.2 Am  21?   0.55 177.9   20 239  22  98
   2024 04 25 03:00  13 48 52.81    -05 10 07.4   0.0107 1.0166 170.2 Am  21?   0.55 168.1   19 241  22  98
   2024 04 25 03:10  13 48 52.91    -05 10 12.8   0.0107 1.0166 170.2 Am  21?   0.57 158.6   17 243  22  98
   2024 04 25 03:20  13 48 53.09    -05 10 18.1   0.0107 1.0166 170.2 Am  21?   0.61 149.8   15 245  22  98
   2024 04 25 03:30  13 48 53.33    -05 10 23.4   0.0107 1.0166 170.2 Nm  21?   0.66 142.0   14 247  22  98
   2024 04 25 03:40  13 48 53.63    -05 10 28.6   0.0107 1.0166 170.2 Nm  21?   0.73 135.4   12 249  22  98
   2024 04 25 03:50  13 48 54.01    -05 10 33.8   0.0107 1.0166 170.2 Nm  21?   0.80 129.9   10 251  22  98
   2024 04 25 04:00  13 48 54.46    -05 10 38.9   0.0107 1.0166 170.2 Nm  21?   0.89 125.2    9 253  22  98
   2024 04 25 04:10  13 48 54.98    -05 10 44.1   0.0107 1.0166 170.2 Cm  21?   0.98 121.4    7 255  23  98
   2024 04 25 04:20  13 48 55.57    -05 10 49.2   0.0107 1.0166 170.2 Cm  21?   1.07 118.2    5 256  23  98
   2024 04 25 04:30  13 48 56.24    -05 10 54.2   0.0107 1.0166 170.2 Cm  21?   1.17 115.6    3 258  23  98
   ................
   2024 04 25 18:40  13 51 39.23    -05 21 38.9   0.0107 1.0167 170.3 C   21?   1.13 149.3   11 109  30  96
   2024 04 25 18:50  13 51 39.58    -05 21 48.6   0.0107 1.0167 170.3 C   21?   1.08 154.0   13 111  30  96
   2024 04 25 19:00  13 51 39.86    -05 21 58.3   0.0107 1.0167 170.2 C   21?   1.04 159.0   14 113  30  96
   2024 04 25 19:10  13 51 40.07    -05 22 08.0   0.0107 1.0167 170.2 N   21?   1.00 164.2   16 115  30  96
   2024 04 25 19:20  13 51 40.22    -05 22 17.6   0.0107 1.0167 170.2 N   21?   0.97 169.7   18 117  30  96
   2024 04 25 19:30  13 51 40.30    -05 22 27.1   0.0107 1.0167 170.2 N   21?   0.96 175.2   19 119  30  96
   2024 04 25 19:40  13 51 40.33    -05 22 36.6   0.0107 1.0167 170.2 N   21?   0.95 180.8   21 121  31  96
   2024 04 25 19:50  13 51 40.29    -05 22 46.1   0.0107 1.0167 170.2 A   21?   0.95 186.2   22 123  31  96
   2024 04 25 20:00  13 51 40.19    -05 22 55.4   0.0107 1.0167 170.2 A   21?   0.95 191.4   24 125  31  96
   2024 04 25 20:10  13 51 40.03    -05 23 04.7   0.0107 1.0167 170.2 A   21?   0.97 196.3   25 127  31  96
   2024 04 25 20:20  13 51 39.82    -05 23 14.0   0.0107 1.0167 170.2 A   21?   0.98 200.9   27 130  31  96
   2024 04 25 20:30  13 51 39.56    -05 23 23.1   0.0107 1.0167 170.2  m  21?   1.01 205.1   28 132  31  96
   2024 04 25 20:40  13 51 39.25    -05 23 32.2   0.0107 1.0167 170.2  m  21?   1.03 208.9   29 134  31  96
   2024 04 25 20:50  13 51 38.89    -05 23 41.1   0.0107 1.0167 170.2  m  21?   1.06 212.4   31 137  31  96
   2024 04 25 21:00  13 51 38.49    -05 23 50.0   0.0107 1.0167 170.2  m  21?   1.09 215.5   32 139  31  96
   2024 04 25 21:10  13 51 38.04    -05 23 58.8   0.0107 1.0167 170.2  m  21?   1.12 218.3   33 142  31  96
   2024 04 25 21:20  13 51 37.56    -05 24 07.5   0.0107 1.0167 170.2  m  21?   1.15 220.8   34 145  31  96
   2024 04 25 21:30  13 51 37.04    -05 24 16.2   0.0107 1.0167 170.2  m  21?   1.17 223.0   35 148  31  96
   2024 04 25 21:40  13 51 36.49    -05 24 24.7   0.0107 1.0167 170.2  m  21?   1.20 224.9   36 150  31  96
   2024 04 25 21:50  13 51 35.90    -05 24 33.1   0.0107 1.0167 170.2  m  21?   1.22 226.7   37 153  32  96
   2024 04 25 22:00  13 51 35.29    -05 24 41.4   0.0107 1.0168 170.2  m  21?   1.24 228.2   37 156  32  96
   2024 04 25 22:10  13 51 34.66    -05 24 49.6   0.0107 1.0168 170.2  m  21?   1.26 229.6   38 159  32  96
   2024 04 25 22:20  13 51 34.01    -05 24 57.7   0.0107 1.0168 170.2  m  21?   1.28 230.7   39 163  32  96
   2024 04 25 22:30  13 51 33.34    -05 25 05.7   0.0107 1.0168 170.2  m  21?   1.29 231.8   39 166  32  96
   2024 04 25 22:40  13 51 32.65    -05 25 13.6   0.0107 1.0168 170.2  m  21?   1.30 232.6   39 169  32  95
   2024 04 25 22:50  13 51 31.96    -05 25 21.4   0.0107 1.0168 170.2  m  21?   1.30 233.4   40 172  32  95
   2024 04 25 23:00  13 51 31.25    -05 25 29.1   0.0107 1.0168 170.1  m  21?   1.30 234.0   40 176  32  95
   2024 04 25 23:10  13 51 30.55    -05 25 36.7   0.0107 1.0168 170.1  m  21?   1.30 234.5   40 179  32  95
   2024 04 25 23:20  13 51 29.84    -05 25 44.1   0.0107 1.0168 170.1  t  21?   1.29 234.8   40 182  32  95
   2024 04 25 23:30  13 51 29.13    -05 25 51.5   0.0107 1.0168 170.1  m  21?   1.28 235.1   40 185  32  95
   2024 04 25 23:40  13 51 28.44    -05 25 58.7   0.0107 1.0168 170.1  m  21?   1.26 235.2   40 189  32  95
   2024 04 25 23:50  13 51 27.75    -05 26 05.8   0.0107 1.0168 170.1  m  21?   1.24 235.2   39 192  32  95
   2024 04 26 00:00  13 51 27.07    -05 26 12.9   0.0107 1.0168 170.1  m  21?   1.22 235.0   39 195  32  95
   2024 04 26 00:10  13 51 26.41    -05 26 19.8   0.0107 1.0168 170.1  m  21?   1.19 234.7   38 198  32  95
   2024 04 26 00:20  13 51 25.77    -05 26 26.6   0.0107 1.0168 170.1  m  21?   1.16 234.2   38 201  33  95
   2024 04 26 00:30  13 51 25.15    -05 26 33.3   0.0107 1.0168 170.1  m  21?   1.13 233.6   37 204  33  95
   2024 04 26 00:40  13 51 24.55    -05 26 39.9   0.0107 1.0168 170.1  m  21?   1.09 232.8   36 207  33  95
   2024 04 26 00:50  13 51 23.99    -05 26 46.4   0.0107 1.0168 170.1  m  21?   1.04 231.7   35 210  33  95
   2024 04 26 01:00  13 51 23.45    -05 26 52.8   0.0107 1.0168 170.1  m  21?   1.00 230.4   34 213  33  95
   2024 04 26 01:10  13 51 22.95    -05 26 59.1   0.0107 1.0168 170.1  m  21?   0.95 228.8   33 216  33  95
   2024 04 26 01:20  13 51 22.49    -05 27 05.3   0.0107 1.0168 170.1  m  21?   0.90 226.8   32 218  33  95
   2024 04 26 01:30  13 51 22.07    -05 27 11.5   0.0107 1.0168 170.1  m  21?   0.85 224.4   31 221  33  95
   2024 04 26 01:40  13 51 21.69    -05 27 17.5   0.0107 1.0168 170.1  m  21?   0.80 221.4   30 224  33  95
   2024 04 26 01:50  13 51 21.36    -05 27 23.4   0.0107 1.0168 170.1  m  21?   0.75 217.8   28 226  33  95
   2024 04 26 02:00  13 51 21.08    -05 27 29.3   0.0107 1.0168 170.0  m  21?   0.70 213.4   27 228  33  95
   2024 04 26 02:10  13 51 20.85    -05 27 35.1   0.0107 1.0168 170.0  m  21?   0.65 208.1   26 231  33  95
   2024 04 26 02:20  13 51 20.67    -05 27 40.8   0.0107 1.0168 170.0  m  21?   0.61 201.6   24 233  33  95
   2024 04 26 02:30  13 51 20.55    -05 27 46.4   0.0107 1.0168 170.0  m  21?   0.58 194.0   23 235  33  95
   2024 04 26 02:40  13 51 20.48    -05 27 51.9   0.0107 1.0168 170.0  m  21?   0.55 185.3   21 237  33  95
   2024 04 26 02:50  13 51 20.48    -05 27 57.4   0.0107 1.0168 170.0 Am  21?   0.55 175.8   20 239  33  95
   2024 04 26 03:00  13 51 20.53    -05 28 02.8   0.0107 1.0168 170.0 Am  21?   0.56 166.0   18 242  34  95
   2024 04 26 03:10  13 51 20.65    -05 28 08.2   0.0107 1.0168 170.0 Am  21?   0.58 156.6   17 244  34  95
   2024 04 26 03:20  13 51 20.84    -05 28 13.5   0.0107 1.0168 170.0 Am  21?   0.62 148.0   15 245  34  95
   2024 04 26 03:30  13 51 21.10    -05 28 18.8   0.0107 1.0168 170.0 Nm  21?   0.68 140.5   13 247  34  95
   2024 04 26 03:40  13 51 21.42    -05 28 24.0   0.0107 1.0168 170.0 Nm  21?   0.74 134.1   12 249  34  95
   2024 04 26 03:50  13 51 21.81    -05 28 29.2   0.0107 1.0168 170.0 Nm  21?   0.82 128.7   10 251  34  95
   2024 04 26 04:00  13 51 22.28    -05 28 34.3   0.0107 1.0168 170.0 Nm  21?   0.90 124.3    8 253  34  95
   2024 04 26 04:10  13 51 22.81    -05 28 39.4   0.0107 1.0168 170.0 Cm  21?   0.99 120.6    6 255  34  95
   2024 04 26 04:20  13 51 23.42    -05 28 44.5   0.0107 1.0168 170.0 Cm  21?   1.09 117.5    5 257  34  95
   2024 04 26 04:30  13 51 24.10    -05 28 49.5   0.0107 1.0168 170.0 Cm  21?   1.19 115.0    3 258  34  95
   ................
   2024 04 26 18:40  13 54 07.63    -05 39 45.0   0.0107 1.0170 170.1 C   21?   1.15 150.3   11 109  42  91
   2024 04 26 18:50  13 54 07.98    -05 39 54.9   0.0107 1.0170 170.1 C   21?   1.10 155.0   13 111  42  91
   2024 04 26 19:00  13 54 08.25    -05 40 04.9   0.0107 1.0170 170.1 C   21?   1.05 159.9   14 113  42  91
   2024 04 26 19:10  13 54 08.46    -05 40 14.8   0.0107 1.0170 170.1 N   21?   1.02 165.1   16 115  42  91
   2024 04 26 19:20  13 54 08.60    -05 40 24.6   0.0107 1.0170 170.0 N   21?   0.99 170.4   18 117  42  91
   2024 04 26 19:30  13 54 08.68    -05 40 34.4   0.0107 1.0170 170.0 N   21?   0.98 175.9   19 119  42  91
   2024 04 26 19:40  13 54 08.70    -05 40 44.1   0.0107 1.0170 170.0 N   21?   0.97 181.3   21 121  42  91
   2024 04 26 19:50  13 54 08.65    -05 40 53.7   0.0107 1.0170 170.0 A   21?   0.97 186.6   22 123  42  91
   2024 04 26 20:00  13 54 08.55    -05 41 03.3   0.0107 1.0170 170.0 A   21?   0.97 191.7   24 126  42  91
   2024 04 26 20:10  13 54 08.38    -05 41 12.8   0.0107 1.0170 170.0 A   21?   0.99 196.4   25 128  42  91
   2024 04 26 20:20  13 54 08.17    -05 41 22.2   0.0107 1.0170 170.0 A   21?   1.00 200.9   27 130  43  91
   2024 04 26 20:30  13 54 07.90    -05 41 31.5   0.0107 1.0170 170.0     21?   1.03 205.0   28 132  43  91
   2024 04 26 20:40  13 54 07.59    -05 41 40.8   0.0107 1.0170 170.0     21?   1.05 208.8   29 135  43  91
   2024 04 26 20:50  13 54 07.22    -05 41 49.9   0.0107 1.0170 170.0     21?   1.08 212.2   30 137  43  91
   2024 04 26 21:00  13 54 06.82    -05 41 59.0   0.0107 1.0170 170.0     21?   1.11 215.2   32 140  43  91
   2024 04 26 21:10  13 54 06.37    -05 42 08.0   0.0107 1.0170 170.0     21?   1.13 218.0   33 143  43  91
   2024 04 26 21:20  13 54 05.88    -05 42 16.8   0.0107 1.0170 170.0     21?   1.16 220.4   34 145  43  91
   2024 04 26 21:30  13 54 05.36    -05 42 25.6   0.0107 1.0170 170.0     21?   1.19 222.6   35 148  43  91
   2024 04 26 21:40  13 54 04.80    -05 42 34.3   0.0107 1.0170 170.0  m  21?   1.21 224.6   36 151  43  91
   2024 04 26 21:50  13 54 04.22    -05 42 42.8   0.0107 1.0170 170.0  m  21?   1.23 226.3   36 154  43  91
   2024 04 26 22:00  13 54 03.61    -05 42 51.3   0.0107 1.0170 170.0  m  21?   1.25 227.8   37 157  43  91
   2024 04 26 22:10  13 54 02.97    -05 42 59.6   0.0107 1.0170 170.0  m  21?   1.27 229.2   38 160  43  91
   2024 04 26 22:20  13 54 02.32    -05 43 07.8   0.0107 1.0170 170.0  m  21?   1.28 230.3   38 163  44  91
   2024 04 26 22:30  13 54 01.65    -05 43 16.0   0.0107 1.0170 170.0  m  21?   1.29 231.4   39 166  44  91
   2024 04 26 22:40  13 54 00.96    -05 43 24.0   0.0107 1.0170 170.0  m  21?   1.30 232.2   39 170  44  91
   2024 04 26 22:50  13 54 00.27    -05 43 31.9   0.0107 1.0170 170.0  m  21?   1.30 233.0   40 173  44  91
   2024 04 26 23:00  13 53 59.57    -05 43 39.6   0.0107 1.0170 169.9  m  21?   1.30 233.6   40 176  44  90
   2024 04 26 23:10  13 53 58.86    -05 43 47.3   0.0107 1.0170 169.9  m  21?   1.30 234.1   40 179  44  90
   2024 04 26 23:20  13 53 58.15    -05 43 54.8   0.0107 1.0170 169.9  t  21?   1.29 234.4   40 183  44  90
   2024 04 26 23:30  13 53 57.45    -05 44 02.3   0.0107 1.0170 169.9  m  21?   1.28 234.7   40 186  44  90
   2024 04 26 23:40  13 53 56.76    -05 44 09.6   0.0107 1.0170 169.9  m  21?   1.26 234.8   39 189  44  90
   2024 04 26 23:50  13 53 56.07    -05 44 16.8   0.0107 1.0170 169.9  m  21?   1.24 234.8   39 192  44  90
   2024 04 27 00:00  13 53 55.40    -05 44 23.9   0.0107 1.0170 169.9  m  21?   1.22 234.6   38 195  44  90
   2024 04 27 00:10  13 53 54.74    -05 44 30.9   0.0107 1.0170 169.9  m  21?   1.19 234.3   38 199  44  90
   2024 04 27 00:20  13 53 54.10    -05 44 37.7   0.0107 1.0170 169.9  m  21?   1.16 233.8   37 202  44  90
   2024 04 27 00:30  13 53 53.49    -05 44 44.5   0.0107 1.0170 169.9  m  21?   1.12 233.2   37 205  44  90
   2024 04 27 00:40  13 53 52.90    -05 44 51.1   0.0107 1.0170 169.9  m  21?   1.08 232.3   36 208  44  90
   2024 04 27 00:50  13 53 52.34    -05 44 57.7   0.0107 1.0170 169.9  m  21?   1.04 231.3   35 210  45  90
   2024 04 27 01:00  13 53 51.81    -05 45 04.1   0.0107 1.0170 169.9  m  21?   0.99 229.9   34 213  45  90
   2024 04 27 01:10  13 53 51.32    -05 45 10.4   0.0107 1.0170 169.9  m  21?   0.95 228.3   33 216  45  90
   2024 04 27 01:20  13 53 50.87    -05 45 16.7   0.0107 1.0170 169.9  m  21?   0.90 226.2   32 219  45  90
   2024 04 27 01:30  13 53 50.45    -05 45 22.8   0.0107 1.0170 169.9  m  21?   0.84 223.7   31 221  45  90
   2024 04 27 01:40  13 53 50.08    -05 45 28.8   0.0107 1.0170 169.9  m  21?   0.79 220.7   29 224  45  90
   2024 04 27 01:50  13 53 49.76    -05 45 34.8   0.0107 1.0170 169.9  m  21?   0.74 217.0   28 226  45  90
   2024 04 27 02:00  13 53 49.49    -05 45 40.6   0.0107 1.0170 169.8  m  21?   0.69 212.4   27 229  45  90
   2024 04 27 02:10  13 53 49.27    -05 45 46.4   0.0107 1.0170 169.8  m  21?   0.64 206.9   25 231  45  90
   2024 04 27 02:20  13 53 49.10    -05 45 52.1   0.0107 1.0170 169.8  m  21?   0.60 200.3   24 233  45  90
   2024 04 27 02:30  13 53 48.99    -05 45 57.7   0.0107 1.0170 169.8  m  21?   0.57 192.4   22 235  45  90
   2024 04 27 02:40  13 53 48.93    -05 46 03.2   0.0107 1.0170 169.8  m  21?   0.55 183.6   21 237  45  90
   2024 04 27 02:50  13 53 48.94    -05 46 08.7   0.0107 1.0170 169.8 Am  21?   0.55 174.0   19 240  45  90
   2024 04 27 03:00  13 53 49.01    -05 46 14.1   0.0107 1.0170 169.8 Am  21?   0.56 164.2   18 242  45  90
   2024 04 27 03:10  13 53 49.14    -05 46 19.4   0.0107 1.0171 169.8 Am  21?   0.59 154.8   16 244  45  90
   2024 04 27 03:20  13 53 49.34    -05 46 24.7   0.0107 1.0171 169.8 Am  21?   0.63 146.4   15 246  45  90
   2024 04 27 03:30  13 53 49.61    -05 46 30.0   0.0107 1.0171 169.8 Nm  21?   0.69 139.1   13 247  46  90
   2024 04 27 03:40  13 53 49.94    -05 46 35.1   0.0107 1.0171 169.8 Nm  21?   0.76 132.9   11 249  46  90
   2024 04 27 03:50  13 53 50.35    -05 46 40.3   0.0107 1.0171 169.8 Nm  21?   0.83 127.7    9 251  46  90
   2024 04 27 04:00  13 53 50.83    -05 46 45.4   0.0107 1.0171 169.8 Nm  21?   0.92 123.4    8 253  46  90
   2024 04 27 04:10  13 53 51.38    -05 46 50.4   0.0107 1.0171 169.8 Cm  21?   1.01 119.8    6 255  46  90
   2024 04 27 04:20  13 53 52.00    -05 46 55.5   0.0107 1.0171 169.8 Cm  21?   1.11 116.9    4 257  46  90
   ................
   2024 04 27 18:50  13 56 37.00    -05 58 16.1   0.0107 1.0172 169.9 C   21?   1.11 156.0   13 112  54  85
   2024 04 27 19:00  13 56 37.26    -05 58 26.2   0.0107 1.0172 169.9 C   21?   1.07 160.9   14 114  54  85
   2024 04 27 19:10  13 56 37.46    -05 58 36.3   0.0107 1.0172 169.9 N   21?   1.04 166.0   16 116  54  85
   2024 04 27 19:20  13 56 37.60    -05 58 46.4   0.0107 1.0172 169.9 N   21?   1.01 171.3   18 118  54  85
   2024 04 27 19:30  13 56 37.67    -05 58 56.3   0.0107 1.0172 169.8 N   21?   1.00 176.6   19 120  54  85
   2024 04 27 19:40  13 56 37.68    -05 59 06.3   0.0107 1.0172 169.8 N   21?   0.99 181.9   21 122  54  85
   2024 04 27 19:50  13 56 37.62    -05 59 16.1   0.0107 1.0172 169.8 A   21?   0.99 187.1   22 124  54  85
   2024 04 27 20:00  13 56 37.51    -05 59 25.8   0.0107 1.0172 169.8 A   21?   0.99 192.0   24 126  54  85
   2024 04 27 20:10  13 56 37.34    -05 59 35.5   0.0107 1.0172 169.8 A   21?   1.01 196.7   25 128  54  85
   2024 04 27 20:20  13 56 37.12    -05 59 45.1   0.0107 1.0172 169.8 A   21?   1.02 201.1   27 131  54  85
   2024 04 27 20:30  13 56 36.85    -05 59 54.6   0.0107 1.0172 169.8     21?   1.05 205.1   28 133  55  84
   2024 04 27 20:40  13 56 36.53    -06 00 04.0   0.0107 1.0172 169.8     21?   1.07 208.7   29 135  55  84
   2024 04 27 20:50  13 56 36.16    -06 00 13.4   0.0107 1.0172 169.8     21?   1.10 212.1   30 138  55  84
   2024 04 27 21:00  13 56 35.74    -06 00 22.6   0.0107 1.0172 169.8     21?   1.12 215.1   32 141  55  84
   2024 04 27 21:10  13 56 35.29    -06 00 31.7   0.0107 1.0172 169.8     21?   1.15 217.8   33 143  55  84
   2024 04 27 21:20  13 56 34.80    -06 00 40.7   0.0107 1.0172 169.8     21?   1.18 220.2   34 146  55  84
   2024 04 27 21:30  13 56 34.27    -06 00 49.6   0.0107 1.0172 169.8     21?   1.20 222.4   35 149  55  84
   2024 04 27 21:40  13 56 33.71    -06 00 58.4   0.0107 1.0172 169.8     21?   1.22 224.3   36 152  55  84
   2024 04 27 21:50  13 56 33.12    -06 01 07.1   0.0107 1.0172 169.8     21?   1.25 226.0   36 155  55  84
   2024 04 27 22:00  13 56 32.51    -06 01 15.7   0.0107 1.0172 169.8     21?   1.26 227.5   37 158  55  84
   2024 04 27 22:10  13 56 31.87    -06 01 24.2   0.0107 1.0172 169.8     21?   1.28 228.9   38 161  55  84
   2024 04 27 22:20  13 56 31.21    -06 01 32.5   0.0107 1.0172 169.8     21?   1.29 230.1   38 164  56  84
   2024 04 27 22:30  13 56 30.54    -06 01 40.7   0.0107 1.0172 169.8     21?   1.30 231.1   39 167  56  84
   2024 04 27 22:40  13 56 29.85    -06 01 48.8   0.0107 1.0172 169.8     21?   1.31 232.0   39 170  56  84
   2024 04 27 22:50  13 56 29.16    -06 01 56.8   0.0107 1.0173 169.8  m  21?   1.31 232.7   39 173  56  84
   2024 04 27 23:00  13 56 28.46    -06 02 04.7   0.0107 1.0173 169.7  m  21?   1.31 233.3   39 177  56  84
   2024 04 27 23:10  13 56 27.75    -06 02 12.4   0.0107 1.0173 169.7  t  21?   1.30 233.8   39 180  56  84
   2024 04 27 23:20  13 56 27.04    -06 02 20.1   0.0107 1.0173 169.7  m  21?   1.29 234.1   39 183  56  84
   2024 04 27 23:30  13 56 26.34    -06 02 27.6   0.0107 1.0173 169.7  m  21?   1.28 234.4   39 186  56  84
   2024 04 27 23:40  13 56 25.65    -06 02 34.9   0.0107 1.0173 169.7  m  21?   1.26 234.5   39 189  56  84
   2024 04 27 23:50  13 56 24.96    -06 02 42.2   0.0107 1.0173 169.7  m  21?   1.24 234.5   39 193  56  84
   2024 04 28 00:00  13 56 24.29    -06 02 49.3   0.0107 1.0173 169.7  m  21?   1.22 234.3   38 196  56  83
   

MMS-1 (JPL-ID: -140482)

   Date (UTC) HH:MM   RA              Dec         delta   r     elong SM  mag  '/hr    PA   alt  az moo ill
   ---- -- -- -----  -------------   -----------  ------ ------ ----- --  --- ------ ------ --- --- --- ---
   2024 04 25 04:30  22 46 12.43    -31 33 55.7   169648 1.0056  66.4 Cr  14?  18.04  48.6    0 135  99  98
   ................
   2024 04 26 04:30  23 29 12.99    -23 45 36.9   181714 1.0056  55.0 Cm  15?  18.20  51.3    0 124 100  95
   ................
   

MMS-2 (JPL-ID: -140483)

   Date (UTC) HH:MM   RA              Dec         delta   r     elong SM  mag  '/hr    PA   alt  az moo ill
   ---- -- -- -----  -------------   -----------  ------ ------ ----- --  --- ------ ------ --- --- --- ---
   2024 04 25 04:30  22 46 11.61    -31 33 31.7   169644 1.0056  66.4 Cr  14?  18.04  48.6    0 135 100  98
   ................
   2024 04 26 04:30  23 29 12.10    -23 45 14.8   181715 1.0056  55.0 Cm  15?  18.20  51.3    0 124 100  95
   ................
   

MMS-3 (JPL-ID: -140484)

   Date (UTC) HH:MM   RA              Dec         delta   r     elong SM  mag  '/hr    PA   alt  az moo ill
   ---- -- -- -----  -------------   -----------  ------ ------ ----- --  --- ------ ------ --- --- --- ---
   2024 04 25 04:30  22 46 13.68    -31 33 34.5   169643 1.0056  66.4 Cr  14?  18.03  48.6    0 135 100  98
   ................
   2024 04 26 04:30  23 29 13.11    -23 45 24.0   181725 1.0056  55.0 Cm  15?  18.19  51.3    0 124 100  95
   ................
   

MMS-4 (JPL-ID: -140485)

   Date (UTC) HH:MM   RA              Dec         delta   r     elong SM  mag  '/hr    PA   alt  az moo ill
   ---- -- -- -----  -------------   -----------  ------ ------ ----- --  --- ------ ------ --- --- --- ---
   2024 04 25 04:30  22 46 12.22    -31 33 49.2   169630 1.0056  66.4 Cr  14?  18.06  48.6    0 135  99  98
   ................
   2024 04 26 04:30  23 29 13.67    -23 45 20.4   181716 1.0056  55.0 Cm  15?  18.21  51.3    0 124 100  95
   ................
   

Bill Grays ephemeris for selected ARTSATs for this station you'll find for the next 72 hours here.

Website generated with AmrumHtml. Date: 04-14-2024